<?xml version="1.0" encoding="UTF-8" standalone="no" ?>
<gpx xmlns="http://www.topografix.com/GPX/1/1" xmlns:xsi="http://www.w3.org/2001/XMLSchema-instance" xsi:schemaLocation="http://www.topografix.com/GPX/1/1 http://www.topografix.com/GPX/1/1/gpx.xsd" version="1.1" creator="VisuGPX - https://www.visugpx.com">
  <metadata>
    <name>Crete de Cremon</name>
    <desc><![CDATA[A tester.
D'après une trace de Bozochip. Merci à lui.
]]></desc>
  </metadata>
  <trk>
    <name><![CDATA[Alpes de Haute-Provence : hameau de Ville / crête de Crémon]]></name>
    <trkseg>
      <trkpt lat="43.87995" lon="6.5559">
        <ele>1121.356</ele>
        <time>2018-06-23T08:31:26Z</time>
      </trkpt>
      <trkpt lat="43.87995" lon="6.55584">
        <ele>1121.359</ele>
        <time>2018-06-23T08:33:46Z</time>
      </trkpt>
      <trkpt lat="43.87998" lon="6.55578">
        <ele>1121.314</ele>
        <time>2018-06-23T08:33:53Z</time>
      </trkpt>
      <trkpt lat="43.88001" lon="6.55574">
        <ele>1121.308</ele>
        <time>2018-06-23T08:33:58Z</time>
      </trkpt>
      <trkpt lat="43.88005" lon="6.5557">
        <ele>1121.367</ele>
        <time>2018-06-23T08:34:03Z</time>
      </trkpt>
      <trkpt lat="43.8801" lon="6.55566">
        <ele>1121.351</ele>
        <time>2018-06-23T08:34:08Z</time>
      </trkpt>
      <trkpt lat="43.88014" lon="6.55561">
        <ele>1121.355</ele>
        <time>2018-06-23T08:34:12Z</time>
      </trkpt>
      <trkpt lat="43.88018" lon="6.55556">
        <ele>1121.333</ele>
        <time>2018-06-23T08:34:16Z</time>
      </trkpt>
      <trkpt lat="43.88021" lon="6.55551">
        <ele>1121.313</ele>
        <time>2018-06-23T08:34:19Z</time>
      </trkpt>
      <trkpt lat="43.88024" lon="6.55544">
        <ele>1121.332</ele>
        <time>2018-06-23T08:34:23Z</time>
      </trkpt>
      <trkpt lat="43.88029" lon="6.5554">
        <ele>1121.381</ele>
        <time>2018-06-23T08:34:27Z</time>
      </trkpt>
      <trkpt lat="43.88033" lon="6.55536">
        <ele>1121.367</ele>
        <time>2018-06-23T08:34:32Z</time>
      </trkpt>
      <trkpt lat="43.88038" lon="6.55533">
        <ele>1121.349</ele>
        <time>2018-06-23T08:34:37Z</time>
      </trkpt>
      <trkpt lat="43.88043" lon="6.55529">
        <ele>1121.302</ele>
        <time>2018-06-23T08:34:41Z</time>
      </trkpt>
      <trkpt lat="43.88047" lon="6.55525">
        <ele>1121.322</ele>
        <time>2018-06-23T08:34:46Z</time>
      </trkpt>
      <trkpt lat="43.88052" lon="6.5552">
        <ele>1121.008</ele>
        <time>2018-06-23T08:34:51Z</time>
      </trkpt>
      <trkpt lat="43.88057" lon="6.55518">
        <ele>1120.436</ele>
        <time>2018-06-23T08:34:54Z</time>
      </trkpt>
      <trkpt lat="43.88062" lon="6.55516">
        <ele>1120.52</ele>
        <time>2018-06-23T08:34:57Z</time>
      </trkpt>
      <trkpt lat="43.88066" lon="6.55513">
        <ele>1121.344</ele>
        <time>2018-06-23T08:35:01Z</time>
      </trkpt>
      <trkpt lat="43.88071" lon="6.55508">
        <ele>1121.862</ele>
        <time>2018-06-23T08:35:07Z</time>
      </trkpt>
      <trkpt lat="43.88076" lon="6.55507">
        <ele>1121.742</ele>
        <time>2018-06-23T08:35:10Z</time>
      </trkpt>
      <trkpt lat="43.88081" lon="6.55506">
        <ele>1122.021</ele>
        <time>2018-06-23T08:35:13Z</time>
      </trkpt>
      <trkpt lat="43.88086" lon="6.55504">
        <ele>1121.01</ele>
        <time>2018-06-23T08:35:16Z</time>
      </trkpt>
      <trkpt lat="43.88091" lon="6.55501">
        <ele>1120.816</ele>
        <time>2018-06-23T08:35:20Z</time>
      </trkpt>
      <trkpt lat="43.88097" lon="6.55499">
        <ele>1120.373</ele>
        <time>2018-06-23T08:35:24Z</time>
      </trkpt>
      <trkpt lat="43.88101" lon="6.55497">
        <ele>1120.485</ele>
        <time>2018-06-23T08:35:27Z</time>
      </trkpt>
      <trkpt lat="43.88107" lon="6.55496">
        <ele>1119.713</ele>
        <time>2018-06-23T08:35:31Z</time>
      </trkpt>
      <trkpt lat="43.88111" lon="6.55493">
        <ele>1118.908</ele>
        <time>2018-06-23T08:35:36Z</time>
      </trkpt>
      <trkpt lat="43.88116" lon="6.55492">
        <ele>1118.039</ele>
        <time>2018-06-23T08:35:40Z</time>
      </trkpt>
      <trkpt lat="43.88121" lon="6.55492">
        <ele>1117.523</ele>
        <time>2018-06-23T08:35:43Z</time>
      </trkpt>
      <trkpt lat="43.88127" lon="6.55493">
        <ele>1116.867</ele>
        <time>2018-06-23T08:35:47Z</time>
      </trkpt>
      <trkpt lat="43.88133" lon="6.55493">
        <ele>1116.075</ele>
        <time>2018-06-23T08:35:52Z</time>
      </trkpt>
      <trkpt lat="43.88137" lon="6.55496">
        <ele>1115.135</ele>
        <time>2018-06-23T08:35:56Z</time>
      </trkpt>
      <trkpt lat="43.88141" lon="6.55499">
        <ele>1115.094</ele>
        <time>2018-06-23T08:35:59Z</time>
      </trkpt>
      <trkpt lat="43.88146" lon="6.55501">
        <ele>1114.553</ele>
        <time>2018-06-23T08:36:03Z</time>
      </trkpt>
      <trkpt lat="43.88151" lon="6.55504">
        <ele>1113.889</ele>
        <time>2018-06-23T08:36:07Z</time>
      </trkpt>
      <trkpt lat="43.88156" lon="6.55509">
        <ele>1113.868</ele>
        <time>2018-06-23T08:36:11Z</time>
      </trkpt>
      <trkpt lat="43.8816" lon="6.55514">
        <ele>1113.842</ele>
        <time>2018-06-23T08:36:15Z</time>
      </trkpt>
      <trkpt lat="43.88163" lon="6.5552">
        <ele>1113.826</ele>
        <time>2018-06-23T08:36:19Z</time>
      </trkpt>
      <trkpt lat="43.88167" lon="6.55527">
        <ele>1113.408</ele>
        <time>2018-06-23T08:36:23Z</time>
      </trkpt>
      <trkpt lat="43.88169" lon="6.55532">
        <ele>1113.228</ele>
        <time>2018-06-23T08:36:26Z</time>
      </trkpt>
      <trkpt lat="43.88173" lon="6.55539">
        <ele>1113.982</ele>
        <time>2018-06-23T08:36:30Z</time>
      </trkpt>
      <trkpt lat="43.88175" lon="6.55544">
        <ele>1112.766</ele>
        <time>2018-06-23T08:36:34Z</time>
      </trkpt>
      <trkpt lat="43.88176" lon="6.55551">
        <ele>1111.224</ele>
        <time>2018-06-23T08:36:39Z</time>
      </trkpt>
      <trkpt lat="43.88178" lon="6.55558">
        <ele>1110.774</ele>
        <time>2018-06-23T08:36:43Z</time>
      </trkpt>
      <trkpt lat="43.8818" lon="6.55565">
        <ele>1110.893</ele>
        <time>2018-06-23T08:36:46Z</time>
      </trkpt>
      <trkpt lat="43.88181" lon="6.55572">
        <ele>1110.962</ele>
        <time>2018-06-23T08:36:49Z</time>
      </trkpt>
      <trkpt lat="43.88183" lon="6.55578">
        <ele>1110.598</ele>
        <time>2018-06-23T08:36:52Z</time>
      </trkpt>
      <trkpt lat="43.88185" lon="6.55585">
        <ele>1109.983</ele>
        <time>2018-06-23T08:36:56Z</time>
      </trkpt>
      <trkpt lat="43.88188" lon="6.5559">
        <ele>1109.925</ele>
        <time>2018-06-23T08:37:00Z</time>
      </trkpt>
      <trkpt lat="43.8819" lon="6.55596">
        <ele>1109.917</ele>
        <time>2018-06-23T08:37:04Z</time>
      </trkpt>
      <trkpt lat="43.88192" lon="6.55603">
        <ele>1109.908</ele>
        <time>2018-06-23T08:37:08Z</time>
      </trkpt>
      <trkpt lat="43.88194" lon="6.55609">
        <ele>1110.73</ele>
        <time>2018-06-23T08:37:11Z</time>
      </trkpt>
      <trkpt lat="43.88195" lon="6.55616">
        <ele>1111.654</ele>
        <time>2018-06-23T08:37:14Z</time>
      </trkpt>
      <trkpt lat="43.88197" lon="6.55622">
        <ele>1112.598</ele>
        <time>2018-06-23T08:37:17Z</time>
      </trkpt>
      <trkpt lat="43.88198" lon="6.5563">
        <ele>1112.346</ele>
        <time>2018-06-23T08:37:21Z</time>
      </trkpt>
      <trkpt lat="43.88198" lon="6.55636">
        <ele>1113.056</ele>
        <time>2018-06-23T08:37:25Z</time>
      </trkpt>
      <trkpt lat="43.882" lon="6.55641">
        <ele>1113.085</ele>
        <time>2018-06-23T08:37:29Z</time>
      </trkpt>
      <trkpt lat="43.88201" lon="6.55649">
        <ele>1113.824</ele>
        <time>2018-06-23T08:37:33Z</time>
      </trkpt>
      <trkpt lat="43.882" lon="6.55655">
        <ele>1114.79</ele>
        <time>2018-06-23T08:37:36Z</time>
      </trkpt>
      <trkpt lat="43.88201" lon="6.55662">
        <ele>1114.878</ele>
        <time>2018-06-23T08:37:39Z</time>
      </trkpt>
      <trkpt lat="43.88202" lon="6.55669">
        <ele>1114.133</ele>
        <time>2018-06-23T08:37:43Z</time>
      </trkpt>
      <trkpt lat="43.88204" lon="6.55675">
        <ele>1113.326</ele>
        <time>2018-06-23T08:37:48Z</time>
      </trkpt>
      <trkpt lat="43.88209" lon="6.55677">
        <ele>1112.808</ele>
        <time>2018-06-23T08:37:52Z</time>
      </trkpt>
      <trkpt lat="43.88213" lon="6.55675">
        <ele>1113.399</ele>
        <time>2018-06-23T08:37:55Z</time>
      </trkpt>
      <trkpt lat="43.88218" lon="6.55672">
        <ele>1114.093</ele>
        <time>2018-06-23T08:37:59Z</time>
      </trkpt>
      <trkpt lat="43.88224" lon="6.5567">
        <ele>1113.617</ele>
        <time>2018-06-23T08:38:07Z</time>
      </trkpt>
      <trkpt lat="43.88228" lon="6.55666">
        <ele>1112.695</ele>
        <time>2018-06-23T08:38:21Z</time>
      </trkpt>
      <trkpt lat="43.88233" lon="6.55664">
        <ele>1112.055</ele>
        <time>2018-06-23T08:38:24Z</time>
      </trkpt>
      <trkpt lat="43.88237" lon="6.5566">
        <ele>1112.014</ele>
        <time>2018-06-23T08:38:28Z</time>
      </trkpt>
      <trkpt lat="43.8824" lon="6.55655">
        <ele>1112.093</ele>
        <time>2018-06-23T08:38:32Z</time>
      </trkpt>
      <trkpt lat="43.88245" lon="6.55652">
        <ele>1112.059</ele>
        <time>2018-06-23T08:38:36Z</time>
      </trkpt>
      <trkpt lat="43.88249" lon="6.55648">
        <ele>1111.666</ele>
        <time>2018-06-23T08:38:40Z</time>
      </trkpt>
      <trkpt lat="43.88253" lon="6.55644">
        <ele>1111.429</ele>
        <time>2018-06-23T08:38:44Z</time>
      </trkpt>
      <trkpt lat="43.88257" lon="6.55639">
        <ele>1110.121</ele>
        <time>2018-06-23T08:38:49Z</time>
      </trkpt>
      <trkpt lat="43.88259" lon="6.55633">
        <ele>1110.108</ele>
        <time>2018-06-23T08:38:54Z</time>
      </trkpt>
      <trkpt lat="43.88262" lon="6.55627">
        <ele>1110.158</ele>
        <time>2018-06-23T08:38:58Z</time>
      </trkpt>
      <trkpt lat="43.88264" lon="6.55622">
        <ele>1110.132</ele>
        <time>2018-06-23T08:39:02Z</time>
      </trkpt>
      <trkpt lat="43.88268" lon="6.55616">
        <ele>1110.126</ele>
        <time>2018-06-23T08:39:06Z</time>
      </trkpt>
      <trkpt lat="43.88272" lon="6.55612">
        <ele>1110.554</ele>
        <time>2018-06-23T08:39:10Z</time>
      </trkpt>
      <trkpt lat="43.88276" lon="6.55606">
        <ele>1110.374</ele>
        <time>2018-06-23T08:39:15Z</time>
      </trkpt>
      <trkpt lat="43.88281" lon="6.55602">
        <ele>1111.473</ele>
        <time>2018-06-23T08:39:19Z</time>
      </trkpt>
      <trkpt lat="43.88285" lon="6.55598">
        <ele>1111.722</ele>
        <time>2018-06-23T08:39:23Z</time>
      </trkpt>
      <trkpt lat="43.88289" lon="6.55595">
        <ele>1111.948</ele>
        <time>2018-06-23T08:39:27Z</time>
      </trkpt>
      <trkpt lat="43.88294" lon="6.55593">
        <ele>1112.083</ele>
        <time>2018-06-23T08:39:30Z</time>
      </trkpt>
      <trkpt lat="43.88298" lon="6.55589">
        <ele>1111.325</ele>
        <time>2018-06-23T08:39:34Z</time>
      </trkpt>
      <trkpt lat="43.88303" lon="6.55587">
        <ele>1110.917</ele>
        <time>2018-06-23T08:39:38Z</time>
      </trkpt>
      <trkpt lat="43.88307" lon="6.55582">
        <ele>1110.608</ele>
        <time>2018-06-23T08:39:42Z</time>
      </trkpt>
      <trkpt lat="43.88308" lon="6.55576">
        <ele>1111.69</ele>
        <time>2018-06-23T08:39:47Z</time>
      </trkpt>
      <trkpt lat="43.88307" lon="6.55568">
        <ele>1112.284</ele>
        <time>2018-06-23T08:39:51Z</time>
      </trkpt>
      <trkpt lat="43.88306" lon="6.55562">
        <ele>1113.068</ele>
        <time>2018-06-23T08:39:56Z</time>
      </trkpt>
      <trkpt lat="43.88307" lon="6.55553">
        <ele>1113.546</ele>
        <time>2018-06-23T08:40:00Z</time>
      </trkpt>
      <trkpt lat="43.88307" lon="6.55546">
        <ele>1113.036</ele>
        <time>2018-06-23T08:40:04Z</time>
      </trkpt>
      <trkpt lat="43.88307" lon="6.55538">
        <ele>1113.135</ele>
        <time>2018-06-23T08:40:09Z</time>
      </trkpt>
      <trkpt lat="43.88307" lon="6.55532">
        <ele>1112.874</ele>
        <time>2018-06-23T08:40:13Z</time>
      </trkpt>
      <trkpt lat="43.88308" lon="6.55526">
        <ele>1113.42</ele>
        <time>2018-06-23T08:40:17Z</time>
      </trkpt>
      <trkpt lat="43.8831" lon="6.55519">
        <ele>1113.872</ele>
        <time>2018-06-23T08:40:21Z</time>
      </trkpt>
      <trkpt lat="43.88312" lon="6.55511">
        <ele>1115.213</ele>
        <time>2018-06-23T08:40:25Z</time>
      </trkpt>
      <trkpt lat="43.88314" lon="6.55504">
        <ele>1115.614</ele>
        <time>2018-06-23T08:40:30Z</time>
      </trkpt>
      <trkpt lat="43.88316" lon="6.55499">
        <ele>1115.908</ele>
        <time>2018-06-23T08:40:33Z</time>
      </trkpt>
      <trkpt lat="43.88319" lon="6.55492">
        <ele>1116.929</ele>
        <time>2018-06-23T08:40:37Z</time>
      </trkpt>
      <trkpt lat="43.88322" lon="6.55486">
        <ele>1116.753</ele>
        <time>2018-06-23T08:40:42Z</time>
      </trkpt>
      <trkpt lat="43.88325" lon="6.55483">
        <ele>1118.217</ele>
        <time>2018-06-23T08:41:24Z</time>
      </trkpt>
      <trkpt lat="43.88327" lon="6.55476">
        <ele>1119.925</ele>
        <time>2018-06-23T08:42:11Z</time>
      </trkpt>
      <trkpt lat="43.88331" lon="6.55474">
        <ele>1118.995</ele>
        <time>2018-06-23T08:42:31Z</time>
      </trkpt>
      <trkpt lat="43.88336" lon="6.55471">
        <ele>1118.314</ele>
        <time>2018-06-23T08:42:37Z</time>
      </trkpt>
      <trkpt lat="43.8834" lon="6.55467">
        <ele>1117.913</ele>
        <time>2018-06-23T08:42:40Z</time>
      </trkpt>
      <trkpt lat="43.88344" lon="6.55464">
        <ele>1116.569</ele>
        <time>2018-06-23T08:42:43Z</time>
      </trkpt>
      <trkpt lat="43.88349" lon="6.55461">
        <ele>1115.765</ele>
        <time>2018-06-23T08:42:47Z</time>
      </trkpt>
      <trkpt lat="43.88354" lon="6.55459">
        <ele>1114.868</ele>
        <time>2018-06-23T08:42:51Z</time>
      </trkpt>
      <trkpt lat="43.88359" lon="6.55458">
        <ele>1113.914</ele>
        <time>2018-06-23T08:42:54Z</time>
      </trkpt>
      <trkpt lat="43.88363" lon="6.55456">
        <ele>1113.708</ele>
        <time>2018-06-23T08:42:57Z</time>
      </trkpt>
      <trkpt lat="43.88368" lon="6.55453">
        <ele>1113.258</ele>
        <time>2018-06-23T08:43:00Z</time>
      </trkpt>
      <trkpt lat="43.88372" lon="6.55449">
        <ele>1113.322</ele>
        <time>2018-06-23T08:43:04Z</time>
      </trkpt>
      <trkpt lat="43.88378" lon="6.55447">
        <ele>1113.886</ele>
        <time>2018-06-23T08:43:08Z</time>
      </trkpt>
      <trkpt lat="43.88383" lon="6.55444">
        <ele>1113.714</ele>
        <time>2018-06-23T08:43:11Z</time>
      </trkpt>
      <trkpt lat="43.88387" lon="6.5544">
        <ele>1113.694</ele>
        <time>2018-06-23T08:43:15Z</time>
      </trkpt>
      <trkpt lat="43.8839" lon="6.55435">
        <ele>1113.653</ele>
        <time>2018-06-23T08:43:18Z</time>
      </trkpt>
      <trkpt lat="43.88391" lon="6.55429">
        <ele>1112.892</ele>
        <time>2018-06-23T08:43:22Z</time>
      </trkpt>
      <trkpt lat="43.88392" lon="6.55422">
        <ele>1112.318</ele>
        <time>2018-06-23T08:43:26Z</time>
      </trkpt>
      <trkpt lat="43.8839" lon="6.55414">
        <ele>1111.278</ele>
        <time>2018-06-23T08:43:30Z</time>
      </trkpt>
      <trkpt lat="43.88389" lon="6.55407">
        <ele>1111.333</ele>
        <time>2018-06-23T08:43:34Z</time>
      </trkpt>
      <trkpt lat="43.88386" lon="6.554">
        <ele>1111.826</ele>
        <time>2018-06-23T08:43:38Z</time>
      </trkpt>
      <trkpt lat="43.88384" lon="6.55393">
        <ele>1112.108</ele>
        <time>2018-06-23T08:43:43Z</time>
      </trkpt>
      <trkpt lat="43.88382" lon="6.55386">
        <ele>1112.339</ele>
        <time>2018-06-23T08:43:47Z</time>
      </trkpt>
      <trkpt lat="43.8838" lon="6.5538">
        <ele>1113.673</ele>
        <time>2018-06-23T08:43:51Z</time>
      </trkpt>
      <trkpt lat="43.88378" lon="6.55374">
        <ele>1114.087</ele>
        <time>2018-06-23T08:43:55Z</time>
      </trkpt>
      <trkpt lat="43.88377" lon="6.55367">
        <ele>1114.255</ele>
        <time>2018-06-23T08:44:01Z</time>
      </trkpt>
      <trkpt lat="43.88377" lon="6.5536">
        <ele>1113.915</ele>
        <time>2018-06-23T08:44:06Z</time>
      </trkpt>
      <trkpt lat="43.88376" lon="6.55353">
        <ele>1113.774</ele>
        <time>2018-06-23T08:44:11Z</time>
      </trkpt>
      <trkpt lat="43.88375" lon="6.55346">
        <ele>1113.283</ele>
        <time>2018-06-23T08:44:16Z</time>
      </trkpt>
      <trkpt lat="43.88373" lon="6.5534">
        <ele>1112.999</ele>
        <time>2018-06-23T08:44:20Z</time>
      </trkpt>
      <trkpt lat="43.88373" lon="6.55333">
        <ele>1113.513</ele>
        <time>2018-06-23T08:44:25Z</time>
      </trkpt>
      <trkpt lat="43.88373" lon="6.55326">
        <ele>1113.543</ele>
        <time>2018-06-23T08:44:30Z</time>
      </trkpt>
      <trkpt lat="43.88374" lon="6.55319">
        <ele>1113.107</ele>
        <time>2018-06-23T08:44:35Z</time>
      </trkpt>
      <trkpt lat="43.88374" lon="6.55311">
        <ele>1112.908</ele>
        <time>2018-06-23T08:44:41Z</time>
      </trkpt>
      <trkpt lat="43.88374" lon="6.55305">
        <ele>1113.613</ele>
        <time>2018-06-23T08:44:45Z</time>
      </trkpt>
      <trkpt lat="43.88374" lon="6.55297">
        <ele>1114.077</ele>
        <time>2018-06-23T08:44:49Z</time>
      </trkpt>
      <trkpt lat="43.88374" lon="6.5529">
        <ele>1113.441</ele>
        <time>2018-06-23T08:44:54Z</time>
      </trkpt>
      <trkpt lat="43.88374" lon="6.55283">
        <ele>1113.529</ele>
        <time>2018-06-23T08:44:58Z</time>
      </trkpt>
      <trkpt lat="43.88375" lon="6.55276">
        <ele>1114.379</ele>
        <time>2018-06-23T08:45:02Z</time>
      </trkpt>
      <trkpt lat="43.88376" lon="6.55268">
        <ele>1114.478</ele>
        <time>2018-06-23T08:45:06Z</time>
      </trkpt>
      <trkpt lat="43.88376" lon="6.55262">
        <ele>1114.587</ele>
        <time>2018-06-23T08:45:10Z</time>
      </trkpt>
      <trkpt lat="43.88376" lon="6.55254">
        <ele>1115.323</ele>
        <time>2018-06-23T08:45:15Z</time>
      </trkpt>
      <trkpt lat="43.88376" lon="6.55247">
        <ele>1116.214</ele>
        <time>2018-06-23T08:45:19Z</time>
      </trkpt>
      <trkpt lat="43.88376" lon="6.55239">
        <ele>1116.754</ele>
        <time>2018-06-23T08:45:24Z</time>
      </trkpt>
      <trkpt lat="43.88377" lon="6.55231">
        <ele>1115.409</ele>
        <time>2018-06-23T08:45:28Z</time>
      </trkpt>
      <trkpt lat="43.88378" lon="6.55223">
        <ele>1115.408</ele>
        <time>2018-06-23T08:45:32Z</time>
      </trkpt>
      <trkpt lat="43.88378" lon="6.55216">
        <ele>1115.843</ele>
        <time>2018-06-23T08:45:36Z</time>
      </trkpt>
      <trkpt lat="43.88376" lon="6.5521">
        <ele>1117.377</ele>
        <time>2018-06-23T08:45:57Z</time>
      </trkpt>
      <trkpt lat="43.88372" lon="6.55207">
        <ele>1120.271</ele>
        <time>2018-06-23T08:46:22Z</time>
      </trkpt>
      <trkpt lat="43.88371" lon="6.55199">
        <ele>1122.339</ele>
        <time>2018-06-23T08:46:46Z</time>
      </trkpt>
      <trkpt lat="43.88373" lon="6.55192">
        <ele>1123.299</ele>
        <time>2018-06-23T08:46:51Z</time>
      </trkpt>
      <trkpt lat="43.88374" lon="6.55186">
        <ele>1123.718</ele>
        <time>2018-06-23T08:46:56Z</time>
      </trkpt>
      <trkpt lat="43.88374" lon="6.55179">
        <ele>1124.067</ele>
        <time>2018-06-23T08:47:01Z</time>
      </trkpt>
      <trkpt lat="43.88375" lon="6.55173">
        <ele>1125.013</ele>
        <time>2018-06-23T08:47:07Z</time>
      </trkpt>
      <trkpt lat="43.88374" lon="6.55165">
        <ele>1125.644</ele>
        <time>2018-06-23T08:47:12Z</time>
      </trkpt>
      <trkpt lat="43.88373" lon="6.55159">
        <ele>1126.405</ele>
        <time>2018-06-23T08:47:16Z</time>
      </trkpt>
      <trkpt lat="43.88372" lon="6.55152">
        <ele>1127.715</ele>
        <time>2018-06-23T08:47:20Z</time>
      </trkpt>
      <trkpt lat="43.88371" lon="6.55145">
        <ele>1128.108</ele>
        <time>2018-06-23T08:47:24Z</time>
      </trkpt>
      <trkpt lat="43.88369" lon="6.55139">
        <ele>1127.546</ele>
        <time>2018-06-23T08:47:29Z</time>
      </trkpt>
      <trkpt lat="43.88367" lon="6.55133">
        <ele>1127.51</ele>
        <time>2018-06-23T08:47:34Z</time>
      </trkpt>
      <trkpt lat="43.88364" lon="6.55128">
        <ele>1127.554</ele>
        <time>2018-06-23T08:47:39Z</time>
      </trkpt>
      <trkpt lat="43.88361" lon="6.55121">
        <ele>1127.122</ele>
        <time>2018-06-23T08:47:44Z</time>
      </trkpt>
      <trkpt lat="43.8836" lon="6.55114">
        <ele>1127.752</ele>
        <time>2018-06-23T08:47:48Z</time>
      </trkpt>
      <trkpt lat="43.88359" lon="6.55108">
        <ele>1128.491</ele>
        <time>2018-06-23T08:47:52Z</time>
      </trkpt>
      <trkpt lat="43.88358" lon="6.55101">
        <ele>1129.26</ele>
        <time>2018-06-23T08:47:56Z</time>
      </trkpt>
      <trkpt lat="43.88356" lon="6.55095">
        <ele>1130.176</ele>
        <time>2018-06-23T08:48:00Z</time>
      </trkpt>
      <trkpt lat="43.88355" lon="6.55088">
        <ele>1131.092</ele>
        <time>2018-06-23T08:48:05Z</time>
      </trkpt>
      <trkpt lat="43.8836" lon="6.55083">
        <ele>1127.673</ele>
        <time>2018-06-23T08:48:37Z</time>
      </trkpt>
      <trkpt lat="43.88362" lon="6.55077">
        <ele>1125.12</ele>
        <time>2018-06-23T08:48:42Z</time>
      </trkpt>
      <trkpt lat="43.88364" lon="6.55071">
        <ele>1123.208</ele>
        <time>2018-06-23T08:48:45Z</time>
      </trkpt>
      <trkpt lat="43.88364" lon="6.55064">
        <ele>1122.561</ele>
        <time>2018-06-23T08:48:48Z</time>
      </trkpt>
      <trkpt lat="43.88361" lon="6.55058">
        <ele>1122.135</ele>
        <time>2018-06-23T08:48:52Z</time>
      </trkpt>
      <trkpt lat="43.8836" lon="6.55051">
        <ele>1121.459</ele>
        <time>2018-06-23T08:48:57Z</time>
      </trkpt>
      <trkpt lat="43.88362" lon="6.55043">
        <ele>1121.057</ele>
        <time>2018-06-23T08:49:01Z</time>
      </trkpt>
      <trkpt lat="43.88364" lon="6.55037">
        <ele>1120.477</ele>
        <time>2018-06-23T08:49:05Z</time>
      </trkpt>
      <trkpt lat="43.88364" lon="6.55031">
        <ele>1120.076</ele>
        <time>2018-06-23T08:49:10Z</time>
      </trkpt>
      <trkpt lat="43.88364" lon="6.55024">
        <ele>1119.885</ele>
        <time>2018-06-23T08:49:14Z</time>
      </trkpt>
      <trkpt lat="43.88363" lon="6.55017">
        <ele>1120.161</ele>
        <time>2018-06-23T08:49:17Z</time>
      </trkpt>
      <trkpt lat="43.88364" lon="6.5501">
        <ele>1120.736</ele>
        <time>2018-06-23T08:49:21Z</time>
      </trkpt>
      <trkpt lat="43.88364" lon="6.55003">
        <ele>1122.617</ele>
        <time>2018-06-23T08:49:26Z</time>
      </trkpt>
      <trkpt lat="43.88365" lon="6.54996">
        <ele>1123.818</ele>
        <time>2018-06-23T08:49:29Z</time>
      </trkpt>
      <trkpt lat="43.88363" lon="6.54989">
        <ele>1124.508</ele>
        <time>2018-06-23T08:49:33Z</time>
      </trkpt>
      <trkpt lat="43.88358" lon="6.54987">
        <ele>1126.945</ele>
        <time>2018-06-23T08:49:38Z</time>
      </trkpt>
      <trkpt lat="43.88354" lon="6.54982">
        <ele>1127.659</ele>
        <time>2018-06-23T08:49:43Z</time>
      </trkpt>
      <trkpt lat="43.88351" lon="6.54976">
        <ele>1129.653</ele>
        <time>2018-06-23T08:49:47Z</time>
      </trkpt>
      <trkpt lat="43.88351" lon="6.5497">
        <ele>1129.271</ele>
        <time>2018-06-23T08:50:14Z</time>
      </trkpt>
      <trkpt lat="43.88351" lon="6.54963">
        <ele>1129.011</ele>
        <time>2018-06-23T08:50:20Z</time>
      </trkpt>
      <trkpt lat="43.88351" lon="6.54956">
        <ele>1128.17</ele>
        <time>2018-06-23T08:50:26Z</time>
      </trkpt>
      <trkpt lat="43.88349" lon="6.54949">
        <ele>1127.569</ele>
        <time>2018-06-23T08:50:32Z</time>
      </trkpt>
      <trkpt lat="43.88348" lon="6.54942">
        <ele>1126.815</ele>
        <time>2018-06-23T08:50:37Z</time>
      </trkpt>
      <trkpt lat="43.88347" lon="6.54936">
        <ele>1128.037</ele>
        <time>2018-06-23T08:50:55Z</time>
      </trkpt>
      <trkpt lat="43.88345" lon="6.5493">
        <ele>1129.549</ele>
        <time>2018-06-23T08:50:59Z</time>
      </trkpt>
      <trkpt lat="43.88346" lon="6.54923">
        <ele>1130.813</ele>
        <time>2018-06-23T08:51:12Z</time>
      </trkpt>
      <trkpt lat="43.88345" lon="6.54916">
        <ele>1132.408</ele>
        <time>2018-06-23T08:51:18Z</time>
      </trkpt>
      <trkpt lat="43.88345" lon="6.5491">
        <ele>1134.955</ele>
        <time>2018-06-23T08:51:23Z</time>
      </trkpt>
      <trkpt lat="43.88342" lon="6.54905">
        <ele>1138.849</ele>
        <time>2018-06-23T08:51:31Z</time>
      </trkpt>
      <trkpt lat="43.88339" lon="6.54901">
        <ele>1142.463</ele>
        <time>2018-06-23T08:51:47Z</time>
      </trkpt>
      <trkpt lat="43.88338" lon="6.54893">
        <ele>1145.311</ele>
        <time>2018-06-23T08:51:56Z</time>
      </trkpt>
      <trkpt lat="43.88337" lon="6.54886">
        <ele>1148.781</ele>
        <time>2018-06-23T08:52:08Z</time>
      </trkpt>
      <trkpt lat="43.88335" lon="6.5488">
        <ele>1151.58</ele>
        <time>2018-06-23T08:52:15Z</time>
      </trkpt>
      <trkpt lat="43.88334" lon="6.54873">
        <ele>1153.699</ele>
        <time>2018-06-23T08:52:28Z</time>
      </trkpt>
      <trkpt lat="43.8833" lon="6.54869">
        <ele>1154.595</ele>
        <time>2018-06-23T08:52:36Z</time>
      </trkpt>
      <trkpt lat="43.88326" lon="6.54866">
        <ele>1154.275</ele>
        <time>2018-06-23T08:52:42Z</time>
      </trkpt>
      <trkpt lat="43.88322" lon="6.54862">
        <ele>1153.228</ele>
        <time>2018-06-23T08:52:49Z</time>
      </trkpt>
      <trkpt lat="43.88317" lon="6.54861">
        <ele>1154.62</ele>
        <time>2018-06-23T08:53:01Z</time>
      </trkpt>
      <trkpt lat="43.88313" lon="6.54857">
        <ele>1152.608</ele>
        <time>2018-06-23T08:54:47Z</time>
      </trkpt>
      <trkpt lat="43.88309" lon="6.54853">
        <ele>1153.099</ele>
        <time>2018-06-23T08:54:52Z</time>
      </trkpt>
      <trkpt lat="43.88304" lon="6.54851">
        <ele>1153.323</ele>
        <time>2018-06-23T08:54:57Z</time>
      </trkpt>
      <trkpt lat="43.88299" lon="6.54849">
        <ele>1153.587</ele>
        <time>2018-06-23T08:55:03Z</time>
      </trkpt>
      <trkpt lat="43.88295" lon="6.54846">
        <ele>1154.065</ele>
        <time>2018-06-23T08:56:33Z</time>
      </trkpt>
      <trkpt lat="43.88293" lon="6.54852">
        <ele>1153.535</ele>
        <time>2018-06-23T08:57:47Z</time>
      </trkpt>
      <trkpt lat="43.8829" lon="6.54858">
        <ele>1153.614</ele>
        <time>2018-06-23T08:57:55Z</time>
      </trkpt>
      <trkpt lat="43.88287" lon="6.54863">
        <ele>1154.563</ele>
        <time>2018-06-23T08:58:02Z</time>
      </trkpt>
      <trkpt lat="43.88287" lon="6.54855">
        <ele>1154.679</ele>
        <time>2018-06-23T08:58:41Z</time>
      </trkpt>
      <trkpt lat="43.88291" lon="6.54851">
        <ele>1155.199</ele>
        <time>2018-06-23T08:58:50Z</time>
      </trkpt>
      <trkpt lat="43.88296" lon="6.54849">
        <ele>1153.807</ele>
        <time>2018-06-23T08:59:00Z</time>
      </trkpt>
      <trkpt lat="43.88301" lon="6.54849">
        <ele>1153.027</ele>
        <time>2018-06-23T08:59:04Z</time>
      </trkpt>
      <trkpt lat="43.88305" lon="6.54854">
        <ele>1152.908</ele>
        <time>2018-06-23T08:59:09Z</time>
      </trkpt>
      <trkpt lat="43.88311" lon="6.54847">
        <ele>1153.731</ele>
        <time>2018-06-23T09:00:06Z</time>
      </trkpt>
      <trkpt lat="43.88307" lon="6.54848">
        <ele>1154.245</ele>
        <time>2018-06-23T09:01:38Z</time>
      </trkpt>
      <trkpt lat="43.88306" lon="6.54855">
        <ele>1154.179</ele>
        <time>2018-06-23T09:01:46Z</time>
      </trkpt>
      <trkpt lat="43.8831" lon="6.54861">
        <ele>1154.447</ele>
        <time>2018-06-23T09:01:51Z</time>
      </trkpt>
      <trkpt lat="43.88315" lon="6.54863">
        <ele>1155.847</ele>
        <time>2018-06-23T09:01:55Z</time>
      </trkpt>
      <trkpt lat="43.8832" lon="6.54859">
        <ele>1157.086</ele>
        <time>2018-06-23T09:02:05Z</time>
      </trkpt>
      <trkpt lat="43.88325" lon="6.54857">
        <ele>1155.355</ele>
        <time>2018-06-23T09:02:25Z</time>
      </trkpt>
      <trkpt lat="43.8833" lon="6.54856">
        <ele>1153.521</ele>
        <time>2018-06-23T09:02:32Z</time>
      </trkpt>
      <trkpt lat="43.88334" lon="6.54851">
        <ele>1153.618</ele>
        <time>2018-06-23T09:02:44Z</time>
      </trkpt>
      <trkpt lat="43.88338" lon="6.54849">
        <ele>1156.198</ele>
        <time>2018-06-23T09:02:55Z</time>
      </trkpt>
      <trkpt lat="43.88342" lon="6.54847">
        <ele>1156.417</ele>
        <time>2018-06-23T09:04:37Z</time>
      </trkpt>
      <trkpt lat="43.88337" lon="6.54847">
        <ele>1155.808</ele>
        <time>2018-06-23T09:07:31Z</time>
      </trkpt>
      <trkpt lat="43.88333" lon="6.54851">
        <ele>1155.873</ele>
        <time>2018-06-23T09:07:43Z</time>
      </trkpt>
      <trkpt lat="43.88331" lon="6.54857">
        <ele>1156.247</ele>
        <time>2018-06-23T09:07:48Z</time>
      </trkpt>
      <trkpt lat="43.88333" lon="6.54864">
        <ele>1154.811</ele>
        <time>2018-06-23T09:07:58Z</time>
      </trkpt>
      <trkpt lat="43.88337" lon="6.54864">
        <ele>1154.479</ele>
        <time>2018-06-23T09:08:03Z</time>
      </trkpt>
      <trkpt lat="43.88344" lon="6.54871">
        <ele>1153.439</ele>
        <time>2018-06-23T09:08:36Z</time>
      </trkpt>
      <trkpt lat="43.88346" lon="6.54877">
        <ele>1152.868</ele>
        <time>2018-06-23T09:08:40Z</time>
      </trkpt>
      <trkpt lat="43.88355" lon="6.54881">
        <ele>1152.087</ele>
        <time>2018-06-23T09:09:02Z</time>
      </trkpt>
      <trkpt lat="43.88351" lon="6.54885">
        <ele>1151.923</ele>
        <time>2018-06-23T09:09:15Z</time>
      </trkpt>
      <trkpt lat="43.8835" lon="6.54892">
        <ele>1151.983</ele>
        <time>2018-06-23T09:09:32Z</time>
      </trkpt>
      <trkpt lat="43.88348" lon="6.54885">
        <ele>1151.925</ele>
        <time>2018-06-23T09:10:08Z</time>
      </trkpt>
      <trkpt lat="43.88348" lon="6.54878">
        <ele>1151.917</ele>
        <time>2018-06-23T09:10:13Z</time>
      </trkpt>
      <trkpt lat="43.88343" lon="6.54878">
        <ele>1151.908</ele>
        <time>2018-06-23T09:10:20Z</time>
      </trkpt>
      <trkpt lat="43.88338" lon="6.54874">
        <ele>1152.38</ele>
        <time>2018-06-23T09:10:25Z</time>
      </trkpt>
      <trkpt lat="43.88335" lon="6.54868">
        <ele>1151.784</ele>
        <time>2018-06-23T09:10:30Z</time>
      </trkpt>
      <trkpt lat="43.88332" lon="6.54874">
        <ele>1155.458</ele>
        <time>2018-06-23T09:10:43Z</time>
      </trkpt>
      <trkpt lat="43.88332" lon="6.54881">
        <ele>1157.276</ele>
        <time>2018-06-23T09:10:48Z</time>
      </trkpt>
      <trkpt lat="43.88331" lon="6.54888">
        <ele>1158.776</ele>
        <time>2018-06-23T09:10:52Z</time>
      </trkpt>
      <trkpt lat="43.88333" lon="6.54894">
        <ele>1160.015</ele>
        <time>2018-06-23T09:11:00Z</time>
      </trkpt>
      <trkpt lat="43.88335" lon="6.54901">
        <ele>1162.484</ele>
        <time>2018-06-23T09:11:31Z</time>
      </trkpt>
      <trkpt lat="43.88334" lon="6.54909">
        <ele>1161.88</ele>
        <time>2018-06-23T09:11:35Z</time>
      </trkpt>
      <trkpt lat="43.88336" lon="6.54917">
        <ele>1160.344</ele>
        <time>2018-06-23T09:11:38Z</time>
      </trkpt>
      <trkpt lat="43.88341" lon="6.54926">
        <ele>1156.305</ele>
        <time>2018-06-23T09:11:51Z</time>
      </trkpt>
      <trkpt lat="43.88336" lon="6.54931">
        <ele>1154.215</ele>
        <time>2018-06-23T09:11:55Z</time>
      </trkpt>
      <trkpt lat="43.88336" lon="6.54938">
        <ele>1150.508</ele>
        <time>2018-06-23T09:12:00Z</time>
      </trkpt>
      <trkpt lat="43.88337" lon="6.54944">
        <ele>1148.736</ele>
        <time>2018-06-23T09:12:04Z</time>
      </trkpt>
      <trkpt lat="43.88338" lon="6.54951">
        <ele>1148.01</ele>
        <time>2018-06-23T09:12:08Z</time>
      </trkpt>
      <trkpt lat="43.8834" lon="6.54957">
        <ele>1147.254</ele>
        <time>2018-06-23T09:12:12Z</time>
      </trkpt>
      <trkpt lat="43.88342" lon="6.54964">
        <ele>1147.522</ele>
        <time>2018-06-23T09:12:15Z</time>
      </trkpt>
      <trkpt lat="43.88344" lon="6.5497">
        <ele>1146.952</ele>
        <time>2018-06-23T09:12:19Z</time>
      </trkpt>
      <trkpt lat="43.88348" lon="6.54972">
        <ele>1146.181</ele>
        <time>2018-06-23T09:12:24Z</time>
      </trkpt>
      <trkpt lat="43.8835" lon="6.54978">
        <ele>1145.66</ele>
        <time>2018-06-23T09:12:29Z</time>
      </trkpt>
      <trkpt lat="43.88347" lon="6.54985">
        <ele>1144.566</ele>
        <time>2018-06-23T09:12:34Z</time>
      </trkpt>
      <trkpt lat="43.88348" lon="6.54991">
        <ele>1143.179</ele>
        <time>2018-06-23T09:12:42Z</time>
      </trkpt>
      <trkpt lat="43.88349" lon="6.54999">
        <ele>1143.405</ele>
        <time>2018-06-23T09:12:48Z</time>
      </trkpt>
      <trkpt lat="43.88348" lon="6.55006">
        <ele>1143.225</ele>
        <time>2018-06-23T09:12:54Z</time>
      </trkpt>
      <trkpt lat="43.88347" lon="6.55013">
        <ele>1142.308</ele>
        <time>2018-06-23T09:12:58Z</time>
      </trkpt>
      <trkpt lat="43.88348" lon="6.5502">
        <ele>1141.739</ele>
        <time>2018-06-23T09:13:02Z</time>
      </trkpt>
      <trkpt lat="43.88348" lon="6.55027">
        <ele>1140.673</ele>
        <time>2018-06-23T09:13:08Z</time>
      </trkpt>
      <trkpt lat="43.88347" lon="6.55034">
        <ele>1140.747</ele>
        <time>2018-06-23T09:13:12Z</time>
      </trkpt>
      <trkpt lat="43.88351" lon="6.55039">
        <ele>1140.865</ele>
        <time>2018-06-23T09:13:17Z</time>
      </trkpt>
      <trkpt lat="43.88353" lon="6.55046">
        <ele>1142.055</ele>
        <time>2018-06-23T09:13:20Z</time>
      </trkpt>
      <trkpt lat="43.88352" lon="6.55052">
        <ele>1142.734</ele>
        <time>2018-06-23T09:13:25Z</time>
      </trkpt>
      <trkpt lat="43.8835" lon="6.55058">
        <ele>1139.933</ele>
        <time>2018-06-23T09:13:41Z</time>
      </trkpt>
      <trkpt lat="43.88354" lon="6.55064">
        <ele>1137.439</ele>
        <time>2018-06-23T09:13:47Z</time>
      </trkpt>
      <trkpt lat="43.88357" lon="6.5507">
        <ele>1136.324</ele>
        <time>2018-06-23T09:13:51Z</time>
      </trkpt>
      <trkpt lat="43.88355" lon="6.55077">
        <ele>1136.504</ele>
        <time>2018-06-23T09:13:55Z</time>
      </trkpt>
      <trkpt lat="43.88356" lon="6.55084">
        <ele>1135.014</ele>
        <time>2018-06-23T09:14:14Z</time>
      </trkpt>
      <trkpt lat="43.88356" lon="6.55091">
        <ele>1133.308</ele>
        <time>2018-06-23T09:14:18Z</time>
      </trkpt>
      <trkpt lat="43.88357" lon="6.55097">
        <ele>1131.914</ele>
        <time>2018-06-23T09:14:22Z</time>
      </trkpt>
      <trkpt lat="43.88358" lon="6.55104">
        <ele>1130.618</ele>
        <time>2018-06-23T09:14:26Z</time>
      </trkpt>
      <trkpt lat="43.88359" lon="6.55112">
        <ele>1129.882</ele>
        <time>2018-06-23T09:14:30Z</time>
      </trkpt>
      <trkpt lat="43.8836" lon="6.5512">
        <ele>1129.37</ele>
        <time>2018-06-23T09:14:33Z</time>
      </trkpt>
      <trkpt lat="43.88362" lon="6.55127">
        <ele>1129.46</ele>
        <time>2018-06-23T09:14:36Z</time>
      </trkpt>
      <trkpt lat="43.88364" lon="6.55133">
        <ele>1128.789</ele>
        <time>2018-06-23T09:14:39Z</time>
      </trkpt>
      <trkpt lat="43.88365" lon="6.55141">
        <ele>1127.548</ele>
        <time>2018-06-23T09:14:43Z</time>
      </trkpt>
      <trkpt lat="43.88366" lon="6.55148">
        <ele>1126.434</ele>
        <time>2018-06-23T09:14:47Z</time>
      </trkpt>
      <trkpt lat="43.88369" lon="6.55154">
        <ele>1126.143</ele>
        <time>2018-06-23T09:14:51Z</time>
      </trkpt>
      <trkpt lat="43.88371" lon="6.55162">
        <ele>1126.764</ele>
        <time>2018-06-23T09:14:57Z</time>
      </trkpt>
      <trkpt lat="43.88371" lon="6.5517">
        <ele>1127.91</ele>
        <time>2018-06-23T09:15:00Z</time>
      </trkpt>
      <trkpt lat="43.88372" lon="6.55178">
        <ele>1127.808</ele>
        <time>2018-06-23T09:15:03Z</time>
      </trkpt>
      <trkpt lat="43.88375" lon="6.55183">
        <ele>1126.946</ele>
        <time>2018-06-23T09:15:07Z</time>
      </trkpt>
      <trkpt lat="43.8838" lon="6.55184">
        <ele>1126.83</ele>
        <time>2018-06-23T09:15:12Z</time>
      </trkpt>
      <trkpt lat="43.88382" lon="6.55189">
        <ele>1126.344</ele>
        <time>2018-06-23T09:15:20Z</time>
      </trkpt>
      <trkpt lat="43.88382" lon="6.55196">
        <ele>1126.872</ele>
        <time>2018-06-23T09:15:29Z</time>
      </trkpt>
      <trkpt lat="43.88383" lon="6.55203">
        <ele>1127.132</ele>
        <time>2018-06-23T09:15:36Z</time>
      </trkpt>
      <trkpt lat="43.88384" lon="6.5521">
        <ele>1127.371</ele>
        <time>2018-06-23T09:15:43Z</time>
      </trkpt>
      <trkpt lat="43.88385" lon="6.55216">
        <ele>1127.83</ele>
        <time>2018-06-23T09:15:50Z</time>
      </trkpt>
      <trkpt lat="43.88385" lon="6.55223">
        <ele>1128.586</ele>
        <time>2018-06-23T09:15:58Z</time>
      </trkpt>
      <trkpt lat="43.88385" lon="6.5523">
        <ele>1129.788</ele>
        <time>2018-06-23T09:16:04Z</time>
      </trkpt>
      <trkpt lat="43.88386" lon="6.55236">
        <ele>1130.424</ele>
        <time>2018-06-23T09:16:10Z</time>
      </trkpt>
      <trkpt lat="43.88387" lon="6.55242">
        <ele>1131.626</ele>
        <time>2018-06-23T09:16:28Z</time>
      </trkpt>
      <trkpt lat="43.8839" lon="6.55247">
        <ele>1133.908</ele>
        <time>2018-06-23T09:16:40Z</time>
      </trkpt>
      <trkpt lat="43.8839" lon="6.55254">
        <ele>1135.38</ele>
        <time>2018-06-23T09:16:46Z</time>
      </trkpt>
      <trkpt lat="43.88392" lon="6.55261">
        <ele>1136.564</ele>
        <time>2018-06-23T09:16:52Z</time>
      </trkpt>
      <trkpt lat="43.88393" lon="6.55268">
        <ele>1137.288</ele>
        <time>2018-06-23T09:16:59Z</time>
      </trkpt>
      <trkpt lat="43.88395" lon="6.55274">
        <ele>1137.646</ele>
        <time>2018-06-23T09:17:08Z</time>
      </trkpt>
      <trkpt lat="43.88398" lon="6.5528">
        <ele>1137.966</ele>
        <time>2018-06-23T09:17:15Z</time>
      </trkpt>
      <trkpt lat="43.884" lon="6.55286">
        <ele>1138.575</ele>
        <time>2018-06-23T09:17:21Z</time>
      </trkpt>
      <trkpt lat="43.884" lon="6.55293">
        <ele>1140.894</ele>
        <time>2018-06-23T09:17:26Z</time>
      </trkpt>
      <trkpt lat="43.88401" lon="6.553">
        <ele>1141.08</ele>
        <time>2018-06-23T09:17:32Z</time>
      </trkpt>
      <trkpt lat="43.88401" lon="6.55308">
        <ele>1142.799</ele>
        <time>2018-06-23T09:17:38Z</time>
      </trkpt>
      <trkpt lat="43.88402" lon="6.55314">
        <ele>1144.107</ele>
        <time>2018-06-23T09:17:43Z</time>
      </trkpt>
      <trkpt lat="43.88403" lon="6.55321">
        <ele>1144.627</ele>
        <time>2018-06-23T09:17:49Z</time>
      </trkpt>
      <trkpt lat="43.88403" lon="6.55327">
        <ele>1144.508</ele>
        <time>2018-06-23T09:17:55Z</time>
      </trkpt>
      <trkpt lat="43.88405" lon="6.55335">
        <ele>1145.631</ele>
        <time>2018-06-23T09:18:01Z</time>
      </trkpt>
      <trkpt lat="43.88406" lon="6.55341">
        <ele>1146.365</ele>
        <time>2018-06-23T09:18:06Z</time>
      </trkpt>
      <trkpt lat="43.88408" lon="6.55347">
        <ele>1145.529</ele>
        <time>2018-06-23T09:18:11Z</time>
      </trkpt>
      <trkpt lat="43.88411" lon="6.55352">
        <ele>1144.617</ele>
        <time>2018-06-23T09:18:17Z</time>
      </trkpt>
      <trkpt lat="43.88414" lon="6.55357">
        <ele>1144.147</ele>
        <time>2018-06-23T09:18:23Z</time>
      </trkpt>
      <trkpt lat="43.88416" lon="6.55363">
        <ele>1145.486</ele>
        <time>2018-06-23T09:18:30Z</time>
      </trkpt>
      <trkpt lat="43.88416" lon="6.55369">
        <ele>1147.845</ele>
        <time>2018-06-23T09:18:36Z</time>
      </trkpt>
      <trkpt lat="43.88417" lon="6.55377">
        <ele>1148.811</ele>
        <time>2018-06-23T09:18:42Z</time>
      </trkpt>
      <trkpt lat="43.88418" lon="6.55383">
        <ele>1149.478</ele>
        <time>2018-06-23T09:18:47Z</time>
      </trkpt>
      <trkpt lat="43.88421" lon="6.5539">
        <ele>1148.233</ele>
        <time>2018-06-23T09:19:02Z</time>
      </trkpt>
      <trkpt lat="43.88422" lon="6.55396">
        <ele>1148.326</ele>
        <time>2018-06-23T09:19:10Z</time>
      </trkpt>
      <trkpt lat="43.88425" lon="6.55402">
        <ele>1148.308</ele>
        <time>2018-06-23T09:19:16Z</time>
      </trkpt>
      <trkpt lat="43.88428" lon="6.55407">
        <ele>1148.799</ele>
        <time>2018-06-23T09:19:21Z</time>
      </trkpt>
      <trkpt lat="43.88431" lon="6.55413">
        <ele>1149.843</ele>
        <time>2018-06-23T09:19:27Z</time>
      </trkpt>
      <trkpt lat="43.88433" lon="6.5542">
        <ele>1151.247</ele>
        <time>2018-06-23T09:19:32Z</time>
      </trkpt>
      <trkpt lat="43.88437" lon="6.55426">
        <ele>1152.585</ele>
        <time>2018-06-23T09:19:38Z</time>
      </trkpt>
      <trkpt lat="43.88439" lon="6.55431">
        <ele>1153.785</ele>
        <time>2018-06-23T09:19:43Z</time>
      </trkpt>
      <trkpt lat="43.88441" lon="6.55436">
        <ele>1155.224</ele>
        <time>2018-06-23T09:19:48Z</time>
      </trkpt>
      <trkpt lat="43.88445" lon="6.55441">
        <ele>1155.713</ele>
        <time>2018-06-23T09:19:55Z</time>
      </trkpt>
      <trkpt lat="43.88449" lon="6.55446">
        <ele>1154.869</ele>
        <time>2018-06-23T09:20:00Z</time>
      </trkpt>
      <trkpt lat="43.88452" lon="6.55451">
        <ele>1155.147</ele>
        <time>2018-06-23T09:20:05Z</time>
      </trkpt>
      <trkpt lat="43.88455" lon="6.55456">
        <ele>1154.929</ele>
        <time>2018-06-23T09:20:10Z</time>
      </trkpt>
      <trkpt lat="43.88458" lon="6.5546">
        <ele>1156.021</ele>
        <time>2018-06-23T09:20:15Z</time>
      </trkpt>
      <trkpt lat="43.88463" lon="6.55463">
        <ele>1156.208</ele>
        <time>2018-06-23T09:20:20Z</time>
      </trkpt>
      <trkpt lat="43.88468" lon="6.55465">
        <ele>1155.996</ele>
        <time>2018-06-23T09:20:25Z</time>
      </trkpt>
      <trkpt lat="43.88471" lon="6.5547">
        <ele>1156.11</ele>
        <time>2018-06-23T09:20:31Z</time>
      </trkpt>
      <trkpt lat="43.88475" lon="6.55475">
        <ele>1156.624</ele>
        <time>2018-06-23T09:20:41Z</time>
      </trkpt>
      <trkpt lat="43.88476" lon="6.55481">
        <ele>1158.142</ele>
        <time>2018-06-23T09:20:48Z</time>
      </trkpt>
      <trkpt lat="43.8848" lon="6.55486">
        <ele>1157.872</ele>
        <time>2018-06-23T09:20:55Z</time>
      </trkpt>
      <trkpt lat="43.88482" lon="6.55492">
        <ele>1157.641</ele>
        <time>2018-06-23T09:21:00Z</time>
      </trkpt>
      <trkpt lat="43.88484" lon="6.55498">
        <ele>1157.97</ele>
        <time>2018-06-23T09:21:06Z</time>
      </trkpt>
      <trkpt lat="43.88486" lon="6.55506">
        <ele>1159.716</ele>
        <time>2018-06-23T09:21:21Z</time>
      </trkpt>
      <trkpt lat="43.88485" lon="6.55512">
        <ele>1160.089</ele>
        <time>2018-06-23T09:21:31Z</time>
      </trkpt>
      <trkpt lat="43.88487" lon="6.55519">
        <ele>1160.206</ele>
        <time>2018-06-23T09:21:40Z</time>
      </trkpt>
      <trkpt lat="43.88491" lon="6.55523">
        <ele>1160.326</ele>
        <time>2018-06-23T09:21:51Z</time>
      </trkpt>
      <trkpt lat="43.88496" lon="6.55526">
        <ele>1162.008</ele>
        <time>2018-06-23T09:22:02Z</time>
      </trkpt>
      <trkpt lat="43.88498" lon="6.55531">
        <ele>1162.69</ele>
        <time>2018-06-23T09:22:11Z</time>
      </trkpt>
      <trkpt lat="43.88501" lon="6.55536">
        <ele>1165.844</ele>
        <time>2018-06-23T09:22:29Z</time>
      </trkpt>
      <trkpt lat="43.88505" lon="6.55541">
        <ele>1168.578</ele>
        <time>2018-06-23T09:22:35Z</time>
      </trkpt>
      <trkpt lat="43.88509" lon="6.55542">
        <ele>1169.756</ele>
        <time>2018-06-23T09:22:42Z</time>
      </trkpt>
      <trkpt lat="43.88512" lon="6.55547">
        <ele>1170.846</ele>
        <time>2018-06-23T09:22:49Z</time>
      </trkpt>
      <trkpt lat="43.88513" lon="6.55553">
        <ele>1172.785</ele>
        <time>2018-06-23T09:22:56Z</time>
      </trkpt>
      <trkpt lat="43.88517" lon="6.55557">
        <ele>1173.484</ele>
        <time>2018-06-23T09:23:04Z</time>
      </trkpt>
      <trkpt lat="43.88521" lon="6.55561">
        <ele>1175.41</ele>
        <time>2018-06-23T09:23:12Z</time>
      </trkpt>
      <trkpt lat="43.88526" lon="6.55564">
        <ele>1176.269</ele>
        <time>2018-06-23T09:23:20Z</time>
      </trkpt>
      <trkpt lat="43.88529" lon="6.55569">
        <ele>1177.904</ele>
        <time>2018-06-23T09:23:29Z</time>
      </trkpt>
      <trkpt lat="43.88532" lon="6.55573">
        <ele>1179.324</ele>
        <time>2018-06-23T09:23:36Z</time>
      </trkpt>
      <trkpt lat="43.88537" lon="6.55576">
        <ele>1180.908</ele>
        <time>2018-06-23T09:23:42Z</time>
      </trkpt>
      <trkpt lat="43.88542" lon="6.55577">
        <ele>1181.548</ele>
        <time>2018-06-23T09:23:50Z</time>
      </trkpt>
      <trkpt lat="43.88547" lon="6.55578">
        <ele>1181.552</ele>
        <time>2018-06-23T09:23:55Z</time>
      </trkpt>
      <trkpt lat="43.88552" lon="6.55579">
        <ele>1183.166</ele>
        <time>2018-06-23T09:24:01Z</time>
      </trkpt>
      <trkpt lat="43.88557" lon="6.55577">
        <ele>1184.454</ele>
        <time>2018-06-23T09:24:08Z</time>
      </trkpt>
      <trkpt lat="43.88562" lon="6.55576">
        <ele>1186.054</ele>
        <time>2018-06-23T09:24:14Z</time>
      </trkpt>
      <trkpt lat="43.88568" lon="6.55577">
        <ele>1185.453</ele>
        <time>2018-06-23T09:24:20Z</time>
      </trkpt>
      <trkpt lat="43.88573" lon="6.55579">
        <ele>1185.072</ele>
        <time>2018-06-23T09:24:25Z</time>
      </trkpt>
      <trkpt lat="43.88576" lon="6.55584">
        <ele>1186.498</ele>
        <time>2018-06-23T09:24:33Z</time>
      </trkpt>
      <trkpt lat="43.88578" lon="6.5559">
        <ele>1188.418</ele>
        <time>2018-06-23T09:24:44Z</time>
      </trkpt>
      <trkpt lat="43.88581" lon="6.55595">
        <ele>1190.098</ele>
        <time>2018-06-23T09:24:51Z</time>
      </trkpt>
      <trkpt lat="43.88586" lon="6.55597">
        <ele>1191.817</ele>
        <time>2018-06-23T09:24:59Z</time>
      </trkpt>
      <trkpt lat="43.8859" lon="6.556">
        <ele>1193.308</ele>
        <time>2018-06-23T09:25:05Z</time>
      </trkpt>
      <trkpt lat="43.88595" lon="6.55604">
        <ele>1194.213</ele>
        <time>2018-06-23T09:25:14Z</time>
      </trkpt>
      <trkpt lat="43.88598" lon="6.55609">
        <ele>1195.997</ele>
        <time>2018-06-23T09:25:26Z</time>
      </trkpt>
      <trkpt lat="43.88603" lon="6.55613">
        <ele>1198.141</ele>
        <time>2018-06-23T09:25:34Z</time>
      </trkpt>
      <trkpt lat="43.88606" lon="6.55618">
        <ele>1199.899</ele>
        <time>2018-06-23T09:25:42Z</time>
      </trkpt>
      <trkpt lat="43.8861" lon="6.55621">
        <ele>1201.619</ele>
        <time>2018-06-23T09:25:48Z</time>
      </trkpt>
      <trkpt lat="43.88615" lon="6.55623">
        <ele>1200.338</ele>
        <time>2018-06-23T09:25:54Z</time>
      </trkpt>
      <trkpt lat="43.88618" lon="6.55628">
        <ele>1204.367</ele>
        <time>2018-06-23T09:28:02Z</time>
      </trkpt>
      <trkpt lat="43.88623" lon="6.55628">
        <ele>1207.943</ele>
        <time>2018-06-23T09:28:09Z</time>
      </trkpt>
      <trkpt lat="43.88628" lon="6.55625">
        <ele>1210.511</ele>
        <time>2018-06-23T09:28:16Z</time>
      </trkpt>
      <trkpt lat="43.88632" lon="6.55623">
        <ele>1210.421</ele>
        <time>2018-06-23T09:28:22Z</time>
      </trkpt>
      <trkpt lat="43.88638" lon="6.55625">
        <ele>1210.803</ele>
        <time>2018-06-23T09:28:33Z</time>
      </trkpt>
      <trkpt lat="43.88643" lon="6.55628">
        <ele>1210.208</ele>
        <time>2018-06-23T09:28:43Z</time>
      </trkpt>
      <trkpt lat="43.88647" lon="6.55631">
        <ele>1211.193</ele>
        <time>2018-06-23T09:28:50Z</time>
      </trkpt>
      <trkpt lat="43.88652" lon="6.55633">
        <ele>1212.017</ele>
        <time>2018-06-23T09:28:56Z</time>
      </trkpt>
      <trkpt lat="43.88655" lon="6.55637">
        <ele>1212.511</ele>
        <time>2018-06-23T09:29:02Z</time>
      </trkpt>
      <trkpt lat="43.88659" lon="6.55642">
        <ele>1214.059</ele>
        <time>2018-06-23T09:29:09Z</time>
      </trkpt>
      <trkpt lat="43.88663" lon="6.55646">
        <ele>1216.179</ele>
        <time>2018-06-23T09:29:16Z</time>
      </trkpt>
      <trkpt lat="43.88665" lon="6.55652">
        <ele>1217.898</ele>
        <time>2018-06-23T09:29:27Z</time>
      </trkpt>
      <trkpt lat="43.88667" lon="6.55659">
        <ele>1221.287</ele>
        <time>2018-06-23T09:29:36Z</time>
      </trkpt>
      <trkpt lat="43.88666" lon="6.55665">
        <ele>1220.833</ele>
        <time>2018-06-23T09:29:44Z</time>
      </trkpt>
      <trkpt lat="43.88666" lon="6.55671">
        <ele>1222.297</ele>
        <time>2018-06-23T09:29:51Z</time>
      </trkpt>
      <trkpt lat="43.8867" lon="6.55676">
        <ele>1222.623</ele>
        <time>2018-06-23T09:29:59Z</time>
      </trkpt>
      <trkpt lat="43.88673" lon="6.55683">
        <ele>1224.125</ele>
        <time>2018-06-23T09:30:16Z</time>
      </trkpt>
      <trkpt lat="43.88675" lon="6.5569">
        <ele>1223.008</ele>
        <time>2018-06-23T09:30:25Z</time>
      </trkpt>
      <trkpt lat="43.88676" lon="6.55696">
        <ele>1223.991</ele>
        <time>2018-06-23T09:30:41Z</time>
      </trkpt>
      <trkpt lat="43.88682" lon="6.55699">
        <ele>1224.965</ele>
        <time>2018-06-23T09:30:47Z</time>
      </trkpt>
      <trkpt lat="43.88687" lon="6.55699">
        <ele>1225.539</ele>
        <time>2018-06-23T09:30:51Z</time>
      </trkpt>
      <trkpt lat="43.88691" lon="6.55702">
        <ele>1226.217</ele>
        <time>2018-06-23T09:30:55Z</time>
      </trkpt>
      <trkpt lat="43.88696" lon="6.55705">
        <ele>1227.077</ele>
        <time>2018-06-23T09:31:01Z</time>
      </trkpt>
      <trkpt lat="43.88701" lon="6.55707">
        <ele>1227.946</ele>
        <time>2018-06-23T09:31:07Z</time>
      </trkpt>
      <trkpt lat="43.88705" lon="6.55711">
        <ele>1228.435</ele>
        <time>2018-06-23T09:31:14Z</time>
      </trkpt>
      <trkpt lat="43.8871" lon="6.55714">
        <ele>1227.921</ele>
        <time>2018-06-23T09:31:23Z</time>
      </trkpt>
      <trkpt lat="43.88714" lon="6.55716">
        <ele>1225.625</ele>
        <time>2018-06-23T09:31:31Z</time>
      </trkpt>
      <trkpt lat="43.88718" lon="6.55711">
        <ele>1225.826</ele>
        <time>2018-06-23T09:31:38Z</time>
      </trkpt>
      <trkpt lat="43.88723" lon="6.55708">
        <ele>1226.308</ele>
        <time>2018-06-23T09:31:44Z</time>
      </trkpt>
      <trkpt lat="43.88727" lon="6.55709">
        <ele>1227.008</ele>
        <time>2018-06-23T09:31:51Z</time>
      </trkpt>
      <trkpt lat="43.8873" lon="6.55714">
        <ele>1227.834</ele>
        <time>2018-06-23T09:31:57Z</time>
      </trkpt>
      <trkpt lat="43.88734" lon="6.55719">
        <ele>1229.548</ele>
        <time>2018-06-23T09:32:04Z</time>
      </trkpt>
      <trkpt lat="43.88738" lon="6.55721">
        <ele>1230.552</ele>
        <time>2018-06-23T09:32:10Z</time>
      </trkpt>
      <trkpt lat="43.88743" lon="6.5572">
        <ele>1231.96</ele>
        <time>2018-06-23T09:32:16Z</time>
      </trkpt>
      <trkpt lat="43.88748" lon="6.55719">
        <ele>1231.96</ele>
        <time>2018-06-23T09:32:27Z</time>
      </trkpt>
      <trkpt lat="43.88752" lon="6.55716">
        <ele>1232.739</ele>
        <time>2018-06-23T09:32:35Z</time>
      </trkpt>
      <trkpt lat="43.88757" lon="6.55714">
        <ele>1236.798</ele>
        <time>2018-06-23T09:32:44Z</time>
      </trkpt>
      <trkpt lat="43.88761" lon="6.55715">
        <ele>1239.634</ele>
        <time>2018-06-23T09:32:56Z</time>
      </trkpt>
      <trkpt lat="43.88766" lon="6.55716">
        <ele>1242.961</ele>
        <time>2018-06-23T09:33:08Z</time>
      </trkpt>
      <trkpt lat="43.8877" lon="6.55717">
        <ele>1244.921</ele>
        <time>2018-06-23T09:33:15Z</time>
      </trkpt>
      <trkpt lat="43.88775" lon="6.55717">
        <ele>1247.713</ele>
        <time>2018-06-23T09:33:21Z</time>
      </trkpt>
      <trkpt lat="43.8878" lon="6.55719">
        <ele>1250.208</ele>
        <time>2018-06-23T09:33:29Z</time>
      </trkpt>
      <trkpt lat="43.88784" lon="6.55724">
        <ele>1251.368</ele>
        <time>2018-06-23T09:33:42Z</time>
      </trkpt>
      <trkpt lat="43.88788" lon="6.55728">
        <ele>1252.862</ele>
        <time>2018-06-23T09:33:50Z</time>
      </trkpt>
      <trkpt lat="43.88787" lon="6.55735">
        <ele>1253.766</ele>
        <time>2018-06-23T09:33:57Z</time>
      </trkpt>
      <trkpt lat="43.88786" lon="6.55741">
        <ele>1254.654</ele>
        <time>2018-06-23T09:34:07Z</time>
      </trkpt>
      <trkpt lat="43.8879" lon="6.55744">
        <ele>1255.244</ele>
        <time>2018-06-23T09:34:19Z</time>
      </trkpt>
      <trkpt lat="43.88793" lon="6.5575">
        <ele>1255.913</ele>
        <time>2018-06-23T09:34:27Z</time>
      </trkpt>
      <trkpt lat="43.88792" lon="6.55757">
        <ele>1256.312</ele>
        <time>2018-06-23T09:34:34Z</time>
      </trkpt>
      <trkpt lat="43.88793" lon="6.55763">
        <ele>1258.298</ele>
        <time>2018-06-23T09:34:41Z</time>
      </trkpt>
      <trkpt lat="43.88797" lon="6.55766">
        <ele>1258.932</ele>
        <time>2018-06-23T09:34:51Z</time>
      </trkpt>
      <trkpt lat="43.88801" lon="6.55766">
        <ele>1259.392</ele>
        <time>2018-06-23T09:34:58Z</time>
      </trkpt>
      <trkpt lat="43.88806" lon="6.55767">
        <ele>1260.411</ele>
        <time>2018-06-23T09:35:04Z</time>
      </trkpt>
      <trkpt lat="43.88812" lon="6.55767">
        <ele>1261.808</ele>
        <time>2018-06-23T09:35:10Z</time>
      </trkpt>
      <trkpt lat="43.88816" lon="6.55767">
        <ele>1264.795</ele>
        <time>2018-06-23T09:35:15Z</time>
      </trkpt>
      <trkpt lat="43.88821" lon="6.55766">
        <ele>1266.839</ele>
        <time>2018-06-23T09:35:22Z</time>
      </trkpt>
      <trkpt lat="43.88826" lon="6.55768">
        <ele>1268.583</ele>
        <time>2018-06-23T09:35:29Z</time>
      </trkpt>
      <trkpt lat="43.88831" lon="6.55769">
        <ele>1269.571</ele>
        <time>2018-06-23T09:35:36Z</time>
      </trkpt>
      <trkpt lat="43.88835" lon="6.55771">
        <ele>1271.321</ele>
        <time>2018-06-23T09:35:44Z</time>
      </trkpt>
      <trkpt lat="43.8884" lon="6.55772">
        <ele>1273.69</ele>
        <time>2018-06-23T09:35:52Z</time>
      </trkpt>
      <trkpt lat="43.88844" lon="6.55769">
        <ele>1274.689</ele>
        <time>2018-06-23T09:35:58Z</time>
      </trkpt>
      <trkpt lat="43.88849" lon="6.55766">
        <ele>1275.675</ele>
        <time>2018-06-23T09:36:06Z</time>
      </trkpt>
      <trkpt lat="43.88854" lon="6.55765">
        <ele>1276.692</ele>
        <time>2018-06-23T09:36:12Z</time>
      </trkpt>
      <trkpt lat="43.88858" lon="6.55763">
        <ele>1277.673</ele>
        <time>2018-06-23T09:36:17Z</time>
      </trkpt>
      <trkpt lat="43.88863" lon="6.55762">
        <ele>1278.62</ele>
        <time>2018-06-23T09:36:23Z</time>
      </trkpt>
      <trkpt lat="43.88867" lon="6.55759">
        <ele>1279.608</ele>
        <time>2018-06-23T09:36:29Z</time>
      </trkpt>
      <trkpt lat="43.88869" lon="6.55753">
        <ele>1279.481</ele>
        <time>2018-06-23T09:36:34Z</time>
      </trkpt>
      <trkpt lat="43.88872" lon="6.55747">
        <ele>1278.525</ele>
        <time>2018-06-23T09:36:38Z</time>
      </trkpt>
      <trkpt lat="43.88876" lon="6.55744">
        <ele>1277.559</ele>
        <time>2018-06-23T09:36:44Z</time>
      </trkpt>
      <trkpt lat="43.88881" lon="6.55745">
        <ele>1275.737</ele>
        <time>2018-06-23T09:36:50Z</time>
      </trkpt>
      <trkpt lat="43.88886" lon="6.55745">
        <ele>1277.417</ele>
        <time>2018-06-23T09:36:57Z</time>
      </trkpt>
      <trkpt lat="43.8889" lon="6.55748">
        <ele>1279.686</ele>
        <time>2018-06-23T09:37:06Z</time>
      </trkpt>
      <trkpt lat="43.88895" lon="6.55747">
        <ele>1280.915</ele>
        <time>2018-06-23T09:37:15Z</time>
      </trkpt>
      <trkpt lat="43.889" lon="6.55747">
        <ele>1283.331</ele>
        <time>2018-06-23T09:37:22Z</time>
      </trkpt>
      <trkpt lat="43.88905" lon="6.55748">
        <ele>1285.137</ele>
        <time>2018-06-23T09:37:30Z</time>
      </trkpt>
      <trkpt lat="43.88909" lon="6.55746">
        <ele>1286.249</ele>
        <time>2018-06-23T09:37:38Z</time>
      </trkpt>
      <trkpt lat="43.88914" lon="6.55747">
        <ele>1287.313</ele>
        <time>2018-06-23T09:37:49Z</time>
      </trkpt>
      <trkpt lat="43.88919" lon="6.55748">
        <ele>1289.108</ele>
        <time>2018-06-23T09:37:58Z</time>
      </trkpt>
      <trkpt lat="43.88924" lon="6.55748">
        <ele>1291.015</ele>
        <time>2018-06-23T09:38:07Z</time>
      </trkpt>
      <trkpt lat="43.88928" lon="6.55746">
        <ele>1292.949</ele>
        <time>2018-06-23T09:38:15Z</time>
      </trkpt>
      <trkpt lat="43.88933" lon="6.55744">
        <ele>1294.963</ele>
        <time>2018-06-23T09:38:22Z</time>
      </trkpt>
      <trkpt lat="43.88938" lon="6.55745">
        <ele>1295.331</ele>
        <time>2018-06-23T09:38:29Z</time>
      </trkpt>
      <trkpt lat="43.88943" lon="6.55744">
        <ele>1295.591</ele>
        <time>2018-06-23T09:38:37Z</time>
      </trkpt>
      <trkpt lat="43.88947" lon="6.55746">
        <ele>1295.61</ele>
        <time>2018-06-23T09:38:44Z</time>
      </trkpt>
      <trkpt lat="43.88951" lon="6.55748">
        <ele>1296.169</ele>
        <time>2018-06-23T09:38:55Z</time>
      </trkpt>
      <trkpt lat="43.88956" lon="6.55746">
        <ele>1297.675</ele>
        <time>2018-06-23T09:39:06Z</time>
      </trkpt>
      <trkpt lat="43.8896" lon="6.55744">
        <ele>1299.748</ele>
        <time>2018-06-23T09:39:15Z</time>
      </trkpt>
      <trkpt lat="43.88965" lon="6.55747">
        <ele>1301.461</ele>
        <time>2018-06-23T09:39:23Z</time>
      </trkpt>
      <trkpt lat="43.88969" lon="6.55748">
        <ele>1302.817</ele>
        <time>2018-06-23T09:39:30Z</time>
      </trkpt>
      <trkpt lat="43.88974" lon="6.55748">
        <ele>1303.208</ele>
        <time>2018-06-23T09:39:38Z</time>
      </trkpt>
      <trkpt lat="43.88978" lon="6.55747">
        <ele>1303.576</ele>
        <time>2018-06-23T09:39:44Z</time>
      </trkpt>
      <trkpt lat="43.88983" lon="6.55746">
        <ele>1305.77</ele>
        <time>2018-06-23T09:39:50Z</time>
      </trkpt>
      <trkpt lat="43.88988" lon="6.55746">
        <ele>1306.224</ele>
        <time>2018-06-23T09:39:57Z</time>
      </trkpt>
      <trkpt lat="43.88993" lon="6.55743">
        <ele>1305.782</ele>
        <time>2018-06-23T09:40:04Z</time>
      </trkpt>
      <trkpt lat="43.88998" lon="6.55744">
        <ele>1306.262</ele>
        <time>2018-06-23T09:40:11Z</time>
      </trkpt>
      <trkpt lat="43.89003" lon="6.55744">
        <ele>1308.531</ele>
        <time>2018-06-23T09:40:20Z</time>
      </trkpt>
      <trkpt lat="43.89008" lon="6.55745">
        <ele>1310.31</ele>
        <time>2018-06-23T09:40:30Z</time>
      </trkpt>
      <trkpt lat="43.89013" lon="6.55745">
        <ele>1311.876</ele>
        <time>2018-06-23T09:40:38Z</time>
      </trkpt>
      <trkpt lat="43.89017" lon="6.55747">
        <ele>1312.751</ele>
        <time>2018-06-23T09:40:44Z</time>
      </trkpt>
      <trkpt lat="43.89022" lon="6.55749">
        <ele>1312.801</ele>
        <time>2018-06-23T09:40:51Z</time>
      </trkpt>
      <trkpt lat="43.89026" lon="6.55747">
        <ele>1313.711</ele>
        <time>2018-06-23T09:40:59Z</time>
      </trkpt>
      <trkpt lat="43.89031" lon="6.55746">
        <ele>1313.808</ele>
        <time>2018-06-23T09:41:06Z</time>
      </trkpt>
      <trkpt lat="43.89036" lon="6.55744">
        <ele>1315.197</ele>
        <time>2018-06-23T09:41:11Z</time>
      </trkpt>
      <trkpt lat="43.89041" lon="6.55744">
        <ele>1317.921</ele>
        <time>2018-06-23T09:41:17Z</time>
      </trkpt>
      <trkpt lat="43.89045" lon="6.55742">
        <ele>1320.495</ele>
        <time>2018-06-23T09:41:27Z</time>
      </trkpt>
      <trkpt lat="43.8905" lon="6.55743">
        <ele>1322.333</ele>
        <time>2018-06-23T09:41:35Z</time>
      </trkpt>
      <trkpt lat="43.89055" lon="6.55743">
        <ele>1324.683</ele>
        <time>2018-06-23T09:41:47Z</time>
      </trkpt>
      <trkpt lat="43.8906" lon="6.55746">
        <ele>1325.262</ele>
        <time>2018-06-23T09:41:53Z</time>
      </trkpt>
      <trkpt lat="43.89064" lon="6.55748">
        <ele>1325.651</ele>
        <time>2018-06-23T09:42:00Z</time>
      </trkpt>
      <trkpt lat="43.89069" lon="6.55749">
        <ele>1326.617</ele>
        <time>2018-06-23T09:42:07Z</time>
      </trkpt>
      <trkpt lat="43.89074" lon="6.55751">
        <ele>1328.437</ele>
        <time>2018-06-23T09:42:15Z</time>
      </trkpt>
      <trkpt lat="43.89079" lon="6.55751">
        <ele>1329.149</ele>
        <time>2018-06-23T09:42:22Z</time>
      </trkpt>
      <trkpt lat="43.89084" lon="6.55752">
        <ele>1329.913</ele>
        <time>2018-06-23T09:42:29Z</time>
      </trkpt>
      <trkpt lat="43.89088" lon="6.55755">
        <ele>1329.608</ele>
        <time>2018-06-23T09:42:34Z</time>
      </trkpt>
      <trkpt lat="43.89093" lon="6.55757">
        <ele>1330.645</ele>
        <time>2018-06-23T09:42:39Z</time>
      </trkpt>
      <trkpt lat="43.89098" lon="6.5576">
        <ele>1332.069</ele>
        <time>2018-06-23T09:42:46Z</time>
      </trkpt>
      <trkpt lat="43.89102" lon="6.55762">
        <ele>1334.093</ele>
        <time>2018-06-23T09:42:51Z</time>
      </trkpt>
      <trkpt lat="43.89106" lon="6.5576">
        <ele>1336.081</ele>
        <time>2018-06-23T09:42:58Z</time>
      </trkpt>
      <trkpt lat="43.89111" lon="6.55763">
        <ele>1337.691</ele>
        <time>2018-06-23T09:43:05Z</time>
      </trkpt>
      <trkpt lat="43.89114" lon="6.55768">
        <ele>1338.65</ele>
        <time>2018-06-23T09:43:12Z</time>
      </trkpt>
      <trkpt lat="43.89118" lon="6.55772">
        <ele>1340.039</ele>
        <time>2018-06-23T09:43:19Z</time>
      </trkpt>
      <trkpt lat="43.89122" lon="6.55775">
        <ele>1340.895</ele>
        <time>2018-06-23T09:43:25Z</time>
      </trkpt>
      <trkpt lat="43.89127" lon="6.55779">
        <ele>1340.177</ele>
        <time>2018-06-23T09:43:31Z</time>
      </trkpt>
      <trkpt lat="43.8913" lon="6.55782">
        <ele>1340.561</ele>
        <time>2018-06-23T09:43:37Z</time>
      </trkpt>
      <trkpt lat="43.89135" lon="6.55782">
        <ele>1341.927</ele>
        <time>2018-06-23T09:45:50Z</time>
      </trkpt>
      <trkpt lat="43.89139" lon="6.55787">
        <ele>1342.408</ele>
        <time>2018-06-23T09:45:55Z</time>
      </trkpt>
      <trkpt lat="43.89142" lon="6.55793">
        <ele>1343.169</ele>
        <time>2018-06-23T09:45:59Z</time>
      </trkpt>
      <trkpt lat="43.89144" lon="6.55799">
        <ele>1343.133</ele>
        <time>2018-06-23T09:46:03Z</time>
      </trkpt>
      <trkpt lat="43.89146" lon="6.55805">
        <ele>1343.167</ele>
        <time>2018-06-23T09:46:07Z</time>
      </trkpt>
      <trkpt lat="43.89148" lon="6.55812">
        <ele>1342.735</ele>
        <time>2018-06-23T09:46:12Z</time>
      </trkpt>
      <trkpt lat="43.8915" lon="6.55818">
        <ele>1342.975</ele>
        <time>2018-06-23T09:46:16Z</time>
      </trkpt>
      <trkpt lat="43.89152" lon="6.55824">
        <ele>1343.034</ele>
        <time>2018-06-23T09:46:20Z</time>
      </trkpt>
      <trkpt lat="43.89156" lon="6.55829">
        <ele>1343.123</ele>
        <time>2018-06-23T09:46:24Z</time>
      </trkpt>
      <trkpt lat="43.8916" lon="6.55835">
        <ele>1342.799</ele>
        <time>2018-06-23T09:46:29Z</time>
      </trkpt>
      <trkpt lat="43.89164" lon="6.55838">
        <ele>1342.549</ele>
        <time>2018-06-23T09:46:34Z</time>
      </trkpt>
      <trkpt lat="43.89168" lon="6.5584">
        <ele>1342.802</ele>
        <time>2018-06-23T09:46:38Z</time>
      </trkpt>
      <trkpt lat="43.89173" lon="6.55843">
        <ele>1343.022</ele>
        <time>2018-06-23T09:46:43Z</time>
      </trkpt>
      <trkpt lat="43.89177" lon="6.55847">
        <ele>1343.508</ele>
        <time>2018-06-23T09:46:48Z</time>
      </trkpt>
      <trkpt lat="43.89181" lon="6.55853">
        <ele>1343.066</ele>
        <time>2018-06-23T09:46:53Z</time>
      </trkpt>
      <trkpt lat="43.89185" lon="6.55858">
        <ele>1342.73</ele>
        <time>2018-06-23T09:46:57Z</time>
      </trkpt>
      <trkpt lat="43.8919" lon="6.55861">
        <ele>1342.544</ele>
        <time>2018-06-23T09:47:01Z</time>
      </trkpt>
      <trkpt lat="43.89195" lon="6.55863">
        <ele>1341.632</ele>
        <time>2018-06-23T09:47:06Z</time>
      </trkpt>
      <trkpt lat="43.892" lon="6.55864">
        <ele>1342.312</ele>
        <time>2018-06-23T09:47:11Z</time>
      </trkpt>
      <trkpt lat="43.89205" lon="6.55867">
        <ele>1342.361</ele>
        <time>2018-06-23T09:47:16Z</time>
      </trkpt>
      <trkpt lat="43.89208" lon="6.55871">
        <ele>1343.54</ele>
        <time>2018-06-23T09:47:20Z</time>
      </trkpt>
      <trkpt lat="43.89211" lon="6.55877">
        <ele>1344.636</ele>
        <time>2018-06-23T09:47:25Z</time>
      </trkpt>
      <trkpt lat="43.89212" lon="6.55883">
        <ele>1345.756</ele>
        <time>2018-06-23T09:47:30Z</time>
      </trkpt>
      <trkpt lat="43.89212" lon="6.55891">
        <ele>1347.559</ele>
        <time>2018-06-23T09:47:35Z</time>
      </trkpt>
      <trkpt lat="43.89211" lon="6.55898">
        <ele>1348.614</ele>
        <time>2018-06-23T09:47:39Z</time>
      </trkpt>
      <trkpt lat="43.89212" lon="6.55904">
        <ele>1348.508</ele>
        <time>2018-06-23T09:47:43Z</time>
      </trkpt>
      <trkpt lat="43.89214" lon="6.5591">
        <ele>1347.657</ele>
        <time>2018-06-23T09:47:47Z</time>
      </trkpt>
      <trkpt lat="43.89215" lon="6.55917">
        <ele>1346.311</ele>
        <time>2018-06-23T09:47:51Z</time>
      </trkpt>
      <trkpt lat="43.89217" lon="6.55923">
        <ele>1343.915</ele>
        <time>2018-06-23T09:47:55Z</time>
      </trkpt>
      <trkpt lat="43.89219" lon="6.55929">
        <ele>1342.113</ele>
        <time>2018-06-23T09:48:00Z</time>
      </trkpt>
      <trkpt lat="43.89223" lon="6.55934">
        <ele>1341.033</ele>
        <time>2018-06-23T09:48:05Z</time>
      </trkpt>
      <trkpt lat="43.89225" lon="6.55939">
        <ele>1340.772</ele>
        <time>2018-06-23T09:48:12Z</time>
      </trkpt>
      <trkpt lat="43.89228" lon="6.55945">
        <ele>1340.561</ele>
        <time>2018-06-23T09:48:17Z</time>
      </trkpt>
      <trkpt lat="43.89232" lon="6.55949">
        <ele>1340.477</ele>
        <time>2018-06-23T09:48:21Z</time>
      </trkpt>
      <trkpt lat="43.89236" lon="6.55954">
        <ele>1340.318</ele>
        <time>2018-06-23T09:48:25Z</time>
      </trkpt>
      <trkpt lat="43.8924" lon="6.5596">
        <ele>1341.198</ele>
        <time>2018-06-23T09:48:30Z</time>
      </trkpt>
      <trkpt lat="43.89244" lon="6.55963">
        <ele>1341.617</ele>
        <time>2018-06-23T09:48:34Z</time>
      </trkpt>
      <trkpt lat="43.89249" lon="6.55965">
        <ele>1342.708</ele>
        <time>2018-06-23T09:48:38Z</time>
      </trkpt>
      <trkpt lat="43.89254" lon="6.55966">
        <ele>1343.743</ele>
        <time>2018-06-23T09:48:42Z</time>
      </trkpt>
      <trkpt lat="43.8926" lon="6.55967">
        <ele>1345.187</ele>
        <time>2018-06-23T09:48:47Z</time>
      </trkpt>
      <trkpt lat="43.89264" lon="6.55967">
        <ele>1346.481</ele>
        <time>2018-06-23T09:48:51Z</time>
      </trkpt>
      <trkpt lat="43.89269" lon="6.55967">
        <ele>1346.859</ele>
        <time>2018-06-23T09:48:55Z</time>
      </trkpt>
      <trkpt lat="43.89274" lon="6.55965">
        <ele>1347.489</ele>
        <time>2018-06-23T09:48:59Z</time>
      </trkpt>
      <trkpt lat="43.89278" lon="6.55961">
        <ele>1346.688</ele>
        <time>2018-06-23T09:49:03Z</time>
      </trkpt>
      <trkpt lat="43.89282" lon="6.55956">
        <ele>1346.187</ele>
        <time>2018-06-23T09:49:07Z</time>
      </trkpt>
      <trkpt lat="43.89286" lon="6.55952">
        <ele>1345.823</ele>
        <time>2018-06-23T09:49:11Z</time>
      </trkpt>
      <trkpt lat="43.89291" lon="6.55948">
        <ele>1345.282</ele>
        <time>2018-06-23T09:49:15Z</time>
      </trkpt>
      <trkpt lat="43.89296" lon="6.55946">
        <ele>1342.543</ele>
        <time>2018-06-23T09:49:20Z</time>
      </trkpt>
      <trkpt lat="43.89301" lon="6.55944">
        <ele>1341.717</ele>
        <time>2018-06-23T09:49:24Z</time>
      </trkpt>
      <trkpt lat="43.89306" lon="6.55943">
        <ele>1342.808</ele>
        <time>2018-06-23T09:49:28Z</time>
      </trkpt>
      <trkpt lat="43.89311" lon="6.55941">
        <ele>1344.34</ele>
        <time>2018-06-23T09:49:32Z</time>
      </trkpt>
      <trkpt lat="43.89316" lon="6.55942">
        <ele>1344.834</ele>
        <time>2018-06-23T09:49:37Z</time>
      </trkpt>
      <trkpt lat="43.89321" lon="6.55943">
        <ele>1345.118</ele>
        <time>2018-06-23T09:49:41Z</time>
      </trkpt>
      <trkpt lat="43.89327" lon="6.55944">
        <ele>1345.756</ele>
        <time>2018-06-23T09:49:45Z</time>
      </trkpt>
      <trkpt lat="43.89331" lon="6.55946">
        <ele>1347.276</ele>
        <time>2018-06-23T09:49:50Z</time>
      </trkpt>
      <trkpt lat="43.89336" lon="6.55947">
        <ele>1347.355</ele>
        <time>2018-06-23T09:49:55Z</time>
      </trkpt>
      <trkpt lat="43.89342" lon="6.55945">
        <ele>1347.864</ele>
        <time>2018-06-23T09:50:00Z</time>
      </trkpt>
      <trkpt lat="43.89347" lon="6.55946">
        <ele>1348.54</ele>
        <time>2018-06-23T09:50:04Z</time>
      </trkpt>
      <trkpt lat="43.89352" lon="6.55946">
        <ele>1347.725</ele>
        <time>2018-06-23T09:50:09Z</time>
      </trkpt>
      <trkpt lat="43.89357" lon="6.55947">
        <ele>1347.226</ele>
        <time>2018-06-23T09:50:13Z</time>
      </trkpt>
      <trkpt lat="43.89362" lon="6.55948">
        <ele>1346.508</ele>
        <time>2018-06-23T09:50:17Z</time>
      </trkpt>
      <trkpt lat="43.89367" lon="6.55947">
        <ele>1346.508</ele>
        <time>2018-06-23T09:50:21Z</time>
      </trkpt>
      <trkpt lat="43.89372" lon="6.55945">
        <ele>1346.144</ele>
        <time>2018-06-23T09:50:26Z</time>
      </trkpt>
      <trkpt lat="43.89378" lon="6.55947">
        <ele>1345.998</ele>
        <time>2018-06-23T09:50:30Z</time>
      </trkpt>
      <trkpt lat="43.89383" lon="6.55949">
        <ele>1345.022</ele>
        <time>2018-06-23T09:50:33Z</time>
      </trkpt>
      <trkpt lat="43.89389" lon="6.5595">
        <ele>1344.43</ele>
        <time>2018-06-23T09:50:37Z</time>
      </trkpt>
      <trkpt lat="43.89394" lon="6.55951">
        <ele>1345.32</ele>
        <time>2018-06-23T09:50:42Z</time>
      </trkpt>
      <trkpt lat="43.89399" lon="6.55952">
        <ele>1345.859</ele>
        <time>2018-06-23T09:50:46Z</time>
      </trkpt>
      <trkpt lat="43.89405" lon="6.55954">
        <ele>1345.788</ele>
        <time>2018-06-23T09:50:50Z</time>
      </trkpt>
      <trkpt lat="43.8941" lon="6.55954">
        <ele>1345.254</ele>
        <time>2018-06-23T09:50:54Z</time>
      </trkpt>
      <trkpt lat="43.89415" lon="6.55954">
        <ele>1342.938</ele>
        <time>2018-06-23T09:50:58Z</time>
      </trkpt>
      <trkpt lat="43.89421" lon="6.55954">
        <ele>1340.77</ele>
        <time>2018-06-23T09:51:01Z</time>
      </trkpt>
      <trkpt lat="43.89427" lon="6.55952">
        <ele>1339.017</ele>
        <time>2018-06-23T09:51:04Z</time>
      </trkpt>
      <trkpt lat="43.8943" lon="6.55947">
        <ele>1337.608</ele>
        <time>2018-06-23T09:51:07Z</time>
      </trkpt>
      <trkpt lat="43.89433" lon="6.55942">
        <ele>1336.395</ele>
        <time>2018-06-23T09:51:11Z</time>
      </trkpt>
      <trkpt lat="43.89437" lon="6.55938">
        <ele>1336.389</ele>
        <time>2018-06-23T09:51:16Z</time>
      </trkpt>
      <trkpt lat="43.89441" lon="6.55932">
        <ele>1337.513</ele>
        <time>2018-06-23T09:51:21Z</time>
      </trkpt>
      <trkpt lat="43.89445" lon="6.55929">
        <ele>1338.621</ele>
        <time>2018-06-23T09:51:25Z</time>
      </trkpt>
      <trkpt lat="43.8945" lon="6.55926">
        <ele>1340.911</ele>
        <time>2018-06-23T09:51:30Z</time>
      </trkpt>
      <trkpt lat="43.89455" lon="6.55927">
        <ele>1342.38</ele>
        <time>2018-06-23T09:51:34Z</time>
      </trkpt>
      <trkpt lat="43.8946" lon="6.5593">
        <ele>1343.569</ele>
        <time>2018-06-23T09:51:39Z</time>
      </trkpt>
      <trkpt lat="43.89465" lon="6.55933">
        <ele>1344.215</ele>
        <time>2018-06-23T09:51:43Z</time>
      </trkpt>
      <trkpt lat="43.89469" lon="6.55935">
        <ele>1345.095</ele>
        <time>2018-06-23T09:51:47Z</time>
      </trkpt>
      <trkpt lat="43.89474" lon="6.55934">
        <ele>1346.349</ele>
        <time>2018-06-23T09:51:52Z</time>
      </trkpt>
      <trkpt lat="43.89479" lon="6.55937">
        <ele>1348.323</ele>
        <time>2018-06-23T09:51:58Z</time>
      </trkpt>
      <trkpt lat="43.89484" lon="6.55938">
        <ele>1349.108</ele>
        <time>2018-06-23T09:52:03Z</time>
      </trkpt>
      <trkpt lat="43.89489" lon="6.55937">
        <ele>1348.861</ele>
        <time>2018-06-23T09:52:07Z</time>
      </trkpt>
      <trkpt lat="43.89494" lon="6.55936">
        <ele>1348.225</ele>
        <time>2018-06-23T09:52:11Z</time>
      </trkpt>
      <trkpt lat="43.89499" lon="6.55934">
        <ele>1347.049</ele>
        <time>2018-06-23T09:52:15Z</time>
      </trkpt>
      <trkpt lat="43.89502" lon="6.55929">
        <ele>1345.957</ele>
        <time>2018-06-23T09:52:19Z</time>
      </trkpt>
      <trkpt lat="43.89505" lon="6.55923">
        <ele>1346.067</ele>
        <time>2018-06-23T09:52:23Z</time>
      </trkpt>
      <trkpt lat="43.89508" lon="6.55917">
        <ele>1346.586</ele>
        <time>2018-06-23T09:52:27Z</time>
      </trkpt>
      <trkpt lat="43.89513" lon="6.55913">
        <ele>1347.275</ele>
        <time>2018-06-23T09:52:31Z</time>
      </trkpt>
      <trkpt lat="43.89518" lon="6.55911">
        <ele>1348.461</ele>
        <time>2018-06-23T09:52:35Z</time>
      </trkpt>
      <trkpt lat="43.89523" lon="6.55909">
        <ele>1349.535</ele>
        <time>2018-06-23T09:52:39Z</time>
      </trkpt>
      <trkpt lat="43.89528" lon="6.55905">
        <ele>1350.286</ele>
        <time>2018-06-23T09:52:44Z</time>
      </trkpt>
      <trkpt lat="43.89532" lon="6.55904">
        <ele>1351.014</ele>
        <time>2018-06-23T09:52:48Z</time>
      </trkpt>
      <trkpt lat="43.89538" lon="6.55902">
        <ele>1351.508</ele>
        <time>2018-06-23T09:52:52Z</time>
      </trkpt>
      <trkpt lat="43.89543" lon="6.55901">
        <ele>1351.895</ele>
        <time>2018-06-23T09:52:56Z</time>
      </trkpt>
      <trkpt lat="43.89547" lon="6.55897">
        <ele>1352.429</ele>
        <time>2018-06-23T09:53:00Z</time>
      </trkpt>
      <trkpt lat="43.89552" lon="6.55895">
        <ele>1353.133</ele>
        <time>2018-06-23T09:53:05Z</time>
      </trkpt>
      <trkpt lat="43.89557" lon="6.55895">
        <ele>1353.181</ele>
        <time>2018-06-23T09:53:09Z</time>
      </trkpt>
      <trkpt lat="43.89562" lon="6.55894">
        <ele>1353.531</ele>
        <time>2018-06-23T09:53:14Z</time>
      </trkpt>
      <trkpt lat="43.89566" lon="6.55893">
        <ele>1353.85</ele>
        <time>2018-06-23T09:53:18Z</time>
      </trkpt>
      <trkpt lat="43.89571" lon="6.55891">
        <ele>1354.429</ele>
        <time>2018-06-23T09:53:23Z</time>
      </trkpt>
      <trkpt lat="43.89577" lon="6.5589">
        <ele>1355.185</ele>
        <time>2018-06-23T09:53:28Z</time>
      </trkpt>
      <trkpt lat="43.89582" lon="6.55888">
        <ele>1355.158</ele>
        <time>2018-06-23T09:53:33Z</time>
      </trkpt>
      <trkpt lat="43.89586" lon="6.55885">
        <ele>1355.952</ele>
        <time>2018-06-23T09:53:37Z</time>
      </trkpt>
      <trkpt lat="43.8959" lon="6.55882">
        <ele>1356.817</ele>
        <time>2018-06-23T09:53:41Z</time>
      </trkpt>
      <trkpt lat="43.89595" lon="6.55882">
        <ele>1357.708</ele>
        <time>2018-06-23T09:53:45Z</time>
      </trkpt>
      <trkpt lat="43.896" lon="6.55883">
        <ele>1358.717</ele>
        <time>2018-06-23T09:53:48Z</time>
      </trkpt>
      <trkpt lat="43.89605" lon="6.55884">
        <ele>1358.541</ele>
        <time>2018-06-23T09:53:52Z</time>
      </trkpt>
      <trkpt lat="43.8961" lon="6.55884">
        <ele>1358.865</ele>
        <time>2018-06-23T09:53:56Z</time>
      </trkpt>
      <trkpt lat="43.89614" lon="6.55886">
        <ele>1359.413</ele>
        <time>2018-06-23T09:54:00Z</time>
      </trkpt>
      <trkpt lat="43.89619" lon="6.55889">
        <ele>1360.513</ele>
        <time>2018-06-23T09:54:05Z</time>
      </trkpt>
      <trkpt lat="43.89623" lon="6.55894">
        <ele>1360.842</ele>
        <time>2018-06-23T09:54:10Z</time>
      </trkpt>
      <trkpt lat="43.89627" lon="6.559">
        <ele>1360.251</ele>
        <time>2018-06-23T09:54:14Z</time>
      </trkpt>
      <trkpt lat="43.8963" lon="6.55906">
        <ele>1359.837</ele>
        <time>2018-06-23T09:54:18Z</time>
      </trkpt>
      <trkpt lat="43.89635" lon="6.55909">
        <ele>1358.838</ele>
        <time>2018-06-23T09:54:22Z</time>
      </trkpt>
      <trkpt lat="43.89639" lon="6.5591">
        <ele>1358.67</ele>
        <time>2018-06-23T09:54:26Z</time>
      </trkpt>
      <trkpt lat="43.89645" lon="6.5591">
        <ele>1358.917</ele>
        <time>2018-06-23T09:54:30Z</time>
      </trkpt>
      <trkpt lat="43.8965" lon="6.55909">
        <ele>1359.508</ele>
        <time>2018-06-23T09:54:35Z</time>
      </trkpt>
      <trkpt lat="43.89656" lon="6.55908">
        <ele>1359.475</ele>
        <time>2018-06-23T09:54:39Z</time>
      </trkpt>
      <trkpt lat="43.89661" lon="6.55909">
        <ele>1358.659</ele>
        <time>2018-06-23T09:54:43Z</time>
      </trkpt>
      <trkpt lat="43.89665" lon="6.55907">
        <ele>1358.513</ele>
        <time>2018-06-23T09:54:47Z</time>
      </trkpt>
      <trkpt lat="43.89669" lon="6.55901">
        <ele>1358.811</ele>
        <time>2018-06-23T09:54:51Z</time>
      </trkpt>
      <trkpt lat="43.89674" lon="6.55897">
        <ele>1359.451</ele>
        <time>2018-06-23T09:54:56Z</time>
      </trkpt>
      <trkpt lat="43.89678" lon="6.55895">
        <ele>1359.49</ele>
        <time>2018-06-23T09:55:00Z</time>
      </trkpt>
      <trkpt lat="43.89683" lon="6.55894">
        <ele>1359.829</ele>
        <time>2018-06-23T09:55:04Z</time>
      </trkpt>
      <trkpt lat="43.89687" lon="6.55894">
        <ele>1359.215</ele>
        <time>2018-06-23T09:55:08Z</time>
      </trkpt>
      <trkpt lat="43.89692" lon="6.55895">
        <ele>1359.758</ele>
        <time>2018-06-23T09:55:12Z</time>
      </trkpt>
      <trkpt lat="43.89697" lon="6.55898">
        <ele>1362.052</ele>
        <time>2018-06-23T09:55:17Z</time>
      </trkpt>
      <trkpt lat="43.89701" lon="6.55901">
        <ele>1363.417</ele>
        <time>2018-06-23T09:55:21Z</time>
      </trkpt>
      <trkpt lat="43.89706" lon="6.55904">
        <ele>1364.608</ele>
        <time>2018-06-23T09:55:27Z</time>
      </trkpt>
      <trkpt lat="43.89711" lon="6.55905">
        <ele>1364.527</ele>
        <time>2018-06-23T09:55:33Z</time>
      </trkpt>
      <trkpt lat="43.89715" lon="6.55907">
        <ele>1364.151</ele>
        <time>2018-06-23T09:55:38Z</time>
      </trkpt>
      <trkpt lat="43.8972" lon="6.55911">
        <ele>1364.255</ele>
        <time>2018-06-23T09:55:43Z</time>
      </trkpt>
      <trkpt lat="43.89724" lon="6.55913">
        <ele>1364.743</ele>
        <time>2018-06-23T09:55:47Z</time>
      </trkpt>
      <trkpt lat="43.89729" lon="6.55914">
        <ele>1365.853</ele>
        <time>2018-06-23T09:55:51Z</time>
      </trkpt>
      <trkpt lat="43.89734" lon="6.55914">
        <ele>1366.592</ele>
        <time>2018-06-23T09:55:56Z</time>
      </trkpt>
      <trkpt lat="43.89739" lon="6.55912">
        <ele>1367.751</ele>
        <time>2018-06-23T09:56:01Z</time>
      </trkpt>
      <trkpt lat="43.89744" lon="6.55911">
        <ele>1368.447</ele>
        <time>2018-06-23T09:56:05Z</time>
      </trkpt>
      <trkpt lat="43.89749" lon="6.5591">
        <ele>1368.434</ele>
        <time>2018-06-23T09:56:10Z</time>
      </trkpt>
      <trkpt lat="43.89754" lon="6.55913">
        <ele>1366.055</ele>
        <time>2018-06-23T09:56:15Z</time>
      </trkpt>
      <trkpt lat="43.89759" lon="6.55917">
        <ele>1363.81</ele>
        <time>2018-06-23T09:56:19Z</time>
      </trkpt>
      <trkpt lat="43.89765" lon="6.55919">
        <ele>1363.308</ele>
        <time>2018-06-23T09:56:23Z</time>
      </trkpt>
      <trkpt lat="43.89769" lon="6.5592">
        <ele>1364.675</ele>
        <time>2018-06-23T09:56:27Z</time>
      </trkpt>
      <trkpt lat="43.89774" lon="6.55918">
        <ele>1366.619</ele>
        <time>2018-06-23T09:56:31Z</time>
      </trkpt>
      <trkpt lat="43.89778" lon="6.55916">
        <ele>1367.433</ele>
        <time>2018-06-23T09:56:35Z</time>
      </trkpt>
      <trkpt lat="43.89783" lon="6.55914">
        <ele>1368.371</ele>
        <time>2018-06-23T09:56:39Z</time>
      </trkpt>
      <trkpt lat="43.89788" lon="6.55913">
        <ele>1368.881</ele>
        <time>2018-06-23T09:56:44Z</time>
      </trkpt>
      <trkpt lat="43.89794" lon="6.55912">
        <ele>1369.59</ele>
        <time>2018-06-23T09:56:48Z</time>
      </trkpt>
      <trkpt lat="43.89798" lon="6.55908">
        <ele>1370.339</ele>
        <time>2018-06-23T09:56:53Z</time>
      </trkpt>
      <trkpt lat="43.89803" lon="6.55904">
        <ele>1370.825</ele>
        <time>2018-06-23T09:56:58Z</time>
      </trkpt>
      <trkpt lat="43.89807" lon="6.55901">
        <ele>1371.528</ele>
        <time>2018-06-23T09:57:02Z</time>
      </trkpt>
      <trkpt lat="43.89812" lon="6.55897">
        <ele>1372.389</ele>
        <time>2018-06-23T09:57:07Z</time>
      </trkpt>
      <trkpt lat="43.89816" lon="6.55894">
        <ele>1374.017</ele>
        <time>2018-06-23T09:57:11Z</time>
      </trkpt>
      <trkpt lat="43.89821" lon="6.55892">
        <ele>1372.608</ele>
        <time>2018-06-23T09:57:16Z</time>
      </trkpt>
      <trkpt lat="43.89826" lon="6.55893">
        <ele>1373.014</ele>
        <time>2018-06-23T09:57:20Z</time>
      </trkpt>
      <trkpt lat="43.89831" lon="6.55895">
        <ele>1373.278</ele>
        <time>2018-06-23T09:57:25Z</time>
      </trkpt>
      <trkpt lat="43.89834" lon="6.55899">
        <ele>1375.322</ele>
        <time>2018-06-23T09:57:30Z</time>
      </trkpt>
      <trkpt lat="43.89839" lon="6.55902">
        <ele>1376.61</ele>
        <time>2018-06-23T09:57:36Z</time>
      </trkpt>
      <trkpt lat="43.89842" lon="6.55906">
        <ele>1377.07</ele>
        <time>2018-06-23T09:57:39Z</time>
      </trkpt>
      <trkpt lat="43.89847" lon="6.55909">
        <ele>1377.289</ele>
        <time>2018-06-23T09:57:43Z</time>
      </trkpt>
      <trkpt lat="43.89851" lon="6.55912">
        <ele>1377.788</ele>
        <time>2018-06-23T09:57:48Z</time>
      </trkpt>
      <trkpt lat="43.89857" lon="6.55913">
        <ele>1377.254</ele>
        <time>2018-06-23T09:57:52Z</time>
      </trkpt>
      <trkpt lat="43.89862" lon="6.55916">
        <ele>1376.158</ele>
        <time>2018-06-23T09:57:57Z</time>
      </trkpt>
      <trkpt lat="43.89866" lon="6.55919">
        <ele>1374.652</ele>
        <time>2018-06-23T09:58:01Z</time>
      </trkpt>
      <trkpt lat="43.89871" lon="6.55923">
        <ele>1373.317</ele>
        <time>2018-06-23T09:58:06Z</time>
      </trkpt>
      <trkpt lat="43.89876" lon="6.55923">
        <ele>1372.508</ele>
        <time>2018-06-23T09:58:15Z</time>
      </trkpt>
      <trkpt lat="43.8988" lon="6.55923">
        <ele>1372.057</ele>
        <time>2018-06-23T09:58:20Z</time>
      </trkpt>
      <trkpt lat="43.89885" lon="6.55924">
        <ele>1371.781</ele>
        <time>2018-06-23T09:58:24Z</time>
      </trkpt>
      <trkpt lat="43.89889" lon="6.55928">
        <ele>1369.575</ele>
        <time>2018-06-23T09:58:31Z</time>
      </trkpt>
      <trkpt lat="43.89894" lon="6.55931">
        <ele>1368.283</ele>
        <time>2018-06-23T09:58:36Z</time>
      </trkpt>
      <trkpt lat="43.89899" lon="6.55935">
        <ele>1368.673</ele>
        <time>2018-06-23T09:58:40Z</time>
      </trkpt>
      <trkpt lat="43.89903" lon="6.55937">
        <ele>1369.392</ele>
        <time>2018-06-23T09:58:43Z</time>
      </trkpt>
      <trkpt lat="43.89909" lon="6.55939">
        <ele>1369.371</ele>
        <time>2018-06-23T09:58:47Z</time>
      </trkpt>
      <trkpt lat="43.89914" lon="6.55941">
        <ele>1369.397</ele>
        <time>2018-06-23T09:58:51Z</time>
      </trkpt>
      <trkpt lat="43.89919" lon="6.55944">
        <ele>1368.564</ele>
        <time>2018-06-23T09:58:54Z</time>
      </trkpt>
      <trkpt lat="43.89924" lon="6.55948">
        <ele>1368.006</ele>
        <time>2018-06-23T09:58:58Z</time>
      </trkpt>
      <trkpt lat="43.89929" lon="6.55949">
        <ele>1368.516</ele>
        <time>2018-06-23T09:59:02Z</time>
      </trkpt>
      <trkpt lat="43.89933" lon="6.55949">
        <ele>1368.808</ele>
        <time>2018-06-23T09:59:08Z</time>
      </trkpt>
      <trkpt lat="43.89939" lon="6.55951">
        <ele>1367.018</ele>
        <time>2018-06-23T09:59:13Z</time>
      </trkpt>
      <trkpt lat="43.89943" lon="6.55951">
        <ele>1366.392</ele>
        <time>2018-06-23T09:59:18Z</time>
      </trkpt>
      <trkpt lat="43.89948" lon="6.55952">
        <ele>1365.576</ele>
        <time>2018-06-23T09:59:24Z</time>
      </trkpt>
      <trkpt lat="43.89954" lon="6.55953">
        <ele>1364.654</ele>
        <time>2018-06-23T09:59:29Z</time>
      </trkpt>
      <trkpt lat="43.89958" lon="6.55954">
        <ele>1363.724</ele>
        <time>2018-06-23T09:59:33Z</time>
      </trkpt>
      <trkpt lat="43.89963" lon="6.55956">
        <ele>1362.383</ele>
        <time>2018-06-23T09:59:37Z</time>
      </trkpt>
      <trkpt lat="43.89968" lon="6.55956">
        <ele>1361.152</ele>
        <time>2018-06-23T09:59:42Z</time>
      </trkpt>
      <trkpt lat="43.89973" lon="6.55956">
        <ele>1360.818</ele>
        <time>2018-06-23T09:59:46Z</time>
      </trkpt>
      <trkpt lat="43.89978" lon="6.55956">
        <ele>1361.079</ele>
        <time>2018-06-23T09:59:50Z</time>
      </trkpt>
      <trkpt lat="43.89984" lon="6.55958">
        <ele>1361.105</ele>
        <time>2018-06-23T09:59:55Z</time>
      </trkpt>
      <trkpt lat="43.89988" lon="6.55961">
        <ele>1362.825</ele>
        <time>2018-06-23T10:00:01Z</time>
      </trkpt>
      <trkpt lat="43.89993" lon="6.55963">
        <ele>1362.608</ele>
        <time>2018-06-23T10:00:06Z</time>
      </trkpt>
      <trkpt lat="43.89998" lon="6.55966">
        <ele>1363.319</ele>
        <time>2018-06-23T10:00:10Z</time>
      </trkpt>
      <trkpt lat="43.90003" lon="6.55968">
        <ele>1363.723</ele>
        <time>2018-06-23T10:00:14Z</time>
      </trkpt>
      <trkpt lat="43.90008" lon="6.5597">
        <ele>1364.367</ele>
        <time>2018-06-23T10:00:20Z</time>
      </trkpt>
      <trkpt lat="43.90012" lon="6.55973">
        <ele>1363.965</ele>
        <time>2018-06-23T10:00:24Z</time>
      </trkpt>
      <trkpt lat="43.90017" lon="6.55975">
        <ele>1364.195</ele>
        <time>2018-06-23T10:00:27Z</time>
      </trkpt>
      <trkpt lat="43.90023" lon="6.55975">
        <ele>1364.274</ele>
        <time>2018-06-23T10:00:30Z</time>
      </trkpt>
      <trkpt lat="43.90028" lon="6.55975">
        <ele>1364.753</ele>
        <time>2018-06-23T10:00:33Z</time>
      </trkpt>
      <trkpt lat="43.90034" lon="6.55976">
        <ele>1364.649</ele>
        <time>2018-06-23T10:00:37Z</time>
      </trkpt>
      <trkpt lat="43.90038" lon="6.55977">
        <ele>1363.745</ele>
        <time>2018-06-23T10:00:40Z</time>
      </trkpt>
      <trkpt lat="43.90043" lon="6.5598">
        <ele>1363.647</ele>
        <time>2018-06-23T10:00:43Z</time>
      </trkpt>
      <trkpt lat="43.90048" lon="6.5598">
        <ele>1364.311</ele>
        <time>2018-06-23T10:00:47Z</time>
      </trkpt>
      <trkpt lat="43.90052" lon="6.55979">
        <ele>1364.308</ele>
        <time>2018-06-23T10:00:50Z</time>
      </trkpt>
      <trkpt lat="43.90057" lon="6.55978">
        <ele>1364.326</ele>
        <time>2018-06-23T10:00:54Z</time>
      </trkpt>
      <trkpt lat="43.90062" lon="6.5598">
        <ele>1364.37</ele>
        <time>2018-06-23T10:00:58Z</time>
      </trkpt>
      <trkpt lat="43.90067" lon="6.55982">
        <ele>1364.354</ele>
        <time>2018-06-23T10:01:02Z</time>
      </trkpt>
      <trkpt lat="43.90071" lon="6.55981">
        <ele>1364.352</ele>
        <time>2018-06-23T10:01:07Z</time>
      </trkpt>
      <trkpt lat="43.90077" lon="6.55982">
        <ele>1365.152</ele>
        <time>2018-06-23T10:01:12Z</time>
      </trkpt>
      <trkpt lat="43.90082" lon="6.55984">
        <ele>1364.071</ele>
        <time>2018-06-23T10:01:17Z</time>
      </trkpt>
      <trkpt lat="43.90085" lon="6.55988">
        <ele>1364.11</ele>
        <time>2018-06-23T10:01:24Z</time>
      </trkpt>
      <trkpt lat="43.90089" lon="6.55992">
        <ele>1364.296</ele>
        <time>2018-06-23T10:01:29Z</time>
      </trkpt>
      <trkpt lat="43.90094" lon="6.55994">
        <ele>1364.233</ele>
        <time>2018-06-23T10:01:33Z</time>
      </trkpt>
      <trkpt lat="43.90099" lon="6.55995">
        <ele>1365.823</ele>
        <time>2018-06-23T10:01:36Z</time>
      </trkpt>
      <trkpt lat="43.90103" lon="6.55995">
        <ele>1366.815</ele>
        <time>2018-06-23T10:01:39Z</time>
      </trkpt>
      <trkpt lat="43.90108" lon="6.55996">
        <ele>1367.808</ele>
        <time>2018-06-23T10:01:42Z</time>
      </trkpt>
      <trkpt lat="43.90113" lon="6.55997">
        <ele>1368.835</ele>
        <time>2018-06-23T10:01:45Z</time>
      </trkpt>
      <trkpt lat="43.90118" lon="6.55998">
        <ele>1370.259</ele>
        <time>2018-06-23T10:01:51Z</time>
      </trkpt>
      <trkpt lat="43.90123" lon="6.56">
        <ele>1369.463</ele>
        <time>2018-06-23T10:02:06Z</time>
      </trkpt>
      <trkpt lat="43.90128" lon="6.56003">
        <ele>1369.361</ele>
        <time>2018-06-23T10:02:11Z</time>
      </trkpt>
      <trkpt lat="43.90134" lon="6.56004">
        <ele>1368.131</ele>
        <time>2018-06-23T10:02:17Z</time>
      </trkpt>
      <trkpt lat="43.90138" lon="6.56005">
        <ele>1369.08</ele>
        <time>2018-06-23T10:02:21Z</time>
      </trkpt>
      <trkpt lat="43.90143" lon="6.56008">
        <ele>1369.589</ele>
        <time>2018-06-23T10:02:25Z</time>
      </trkpt>
      <trkpt lat="43.90148" lon="6.56008">
        <ele>1370.695</ele>
        <time>2018-06-23T10:02:31Z</time>
      </trkpt>
      <trkpt lat="43.90152" lon="6.5601">
        <ele>1372.994</ele>
        <time>2018-06-23T10:02:36Z</time>
      </trkpt>
      <trkpt lat="43.90156" lon="6.56014">
        <ele>1374.357</ele>
        <time>2018-06-23T10:02:40Z</time>
      </trkpt>
      <trkpt lat="43.90161" lon="6.56017">
        <ele>1374.322</ele>
        <time>2018-06-23T10:02:43Z</time>
      </trkpt>
      <trkpt lat="43.90166" lon="6.56021">
        <ele>1373.908</ele>
        <time>2018-06-23T10:02:47Z</time>
      </trkpt>
      <trkpt lat="43.9017" lon="6.56025">
        <ele>1373.361</ele>
        <time>2018-06-23T10:02:51Z</time>
      </trkpt>
      <trkpt lat="43.90174" lon="6.56029">
        <ele>1373.325</ele>
        <time>2018-06-23T10:02:55Z</time>
      </trkpt>
      <trkpt lat="43.90179" lon="6.56031">
        <ele>1372.959</ele>
        <time>2018-06-23T10:02:58Z</time>
      </trkpt>
      <trkpt lat="43.90184" lon="6.56033">
        <ele>1372.317</ele>
        <time>2018-06-23T10:03:01Z</time>
      </trkpt>
      <trkpt lat="43.90189" lon="6.56034">
        <ele>1371.977</ele>
        <time>2018-06-23T10:03:04Z</time>
      </trkpt>
      <trkpt lat="43.90194" lon="6.56037">
        <ele>1371.386</ele>
        <time>2018-06-23T10:03:09Z</time>
      </trkpt>
      <trkpt lat="43.90198" lon="6.56041">
        <ele>1371.765</ele>
        <time>2018-06-23T10:03:14Z</time>
      </trkpt>
      <trkpt lat="43.90203" lon="6.56044">
        <ele>1372.051</ele>
        <time>2018-06-23T10:03:19Z</time>
      </trkpt>
      <trkpt lat="43.90207" lon="6.56047">
        <ele>1371.044</ele>
        <time>2018-06-23T10:03:24Z</time>
      </trkpt>
      <trkpt lat="43.90212" lon="6.56049">
        <ele>1369.605</ele>
        <time>2018-06-23T10:03:29Z</time>
      </trkpt>
      <trkpt lat="43.90216" lon="6.56052">
        <ele>1367.915</ele>
        <time>2018-06-23T10:03:32Z</time>
      </trkpt>
      <trkpt lat="43.90222" lon="6.56054">
        <ele>1367.308</ele>
        <time>2018-06-23T10:03:36Z</time>
      </trkpt>
      <trkpt lat="43.90227" lon="6.56055">
        <ele>1367.336</ele>
        <time>2018-06-23T10:03:39Z</time>
      </trkpt>
      <trkpt lat="43.90232" lon="6.56056">
        <ele>1368.14</ele>
        <time>2018-06-23T10:03:43Z</time>
      </trkpt>
      <trkpt lat="43.90236" lon="6.56057">
        <ele>1368.294</ele>
        <time>2018-06-23T10:03:47Z</time>
      </trkpt>
      <trkpt lat="43.90242" lon="6.56059">
        <ele>1367.972</ele>
        <time>2018-06-23T10:03:52Z</time>
      </trkpt>
      <trkpt lat="43.90246" lon="6.56062">
        <ele>1368.142</ele>
        <time>2018-06-23T10:03:56Z</time>
      </trkpt>
      <trkpt lat="43.90251" lon="6.56061">
        <ele>1367.841</ele>
        <time>2018-06-23T10:04:23Z</time>
      </trkpt>
      <trkpt lat="43.90256" lon="6.56059">
        <ele>1368.03</ele>
        <time>2018-06-23T10:04:29Z</time>
      </trkpt>
      <trkpt lat="43.90261" lon="6.56063">
        <ele>1367.376</ele>
        <time>2018-06-23T10:04:34Z</time>
      </trkpt>
      <trkpt lat="43.90264" lon="6.56067">
        <ele>1367.373</ele>
        <time>2018-06-23T10:04:37Z</time>
      </trkpt>
      <trkpt lat="43.90269" lon="6.5607">
        <ele>1366.585</ele>
        <time>2018-06-23T10:04:40Z</time>
      </trkpt>
      <trkpt lat="43.90274" lon="6.56072">
        <ele>1367.213</ele>
        <time>2018-06-23T10:04:44Z</time>
      </trkpt>
      <trkpt lat="43.90278" lon="6.56075">
        <ele>1366.808</ele>
        <time>2018-06-23T10:04:49Z</time>
      </trkpt>
      <trkpt lat="43.90283" lon="6.56078">
        <ele>1367.849</ele>
        <time>2018-06-23T10:04:53Z</time>
      </trkpt>
      <trkpt lat="43.90287" lon="6.5608">
        <ele>1368.093</ele>
        <time>2018-06-23T10:04:59Z</time>
      </trkpt>
      <trkpt lat="43.90292" lon="6.56082">
        <ele>1368.987</ele>
        <time>2018-06-23T10:05:05Z</time>
      </trkpt>
      <trkpt lat="43.90297" lon="6.5608">
        <ele>1369.025</ele>
        <time>2018-06-23T10:05:10Z</time>
      </trkpt>
      <trkpt lat="43.90301" lon="6.5608">
        <ele>1367.995</ele>
        <time>2018-06-23T10:05:15Z</time>
      </trkpt>
      <trkpt lat="43.90306" lon="6.56082">
        <ele>1367.214</ele>
        <time>2018-06-23T10:05:20Z</time>
      </trkpt>
      <trkpt lat="43.90312" lon="6.56084">
        <ele>1367.613</ele>
        <time>2018-06-23T10:05:27Z</time>
      </trkpt>
      <trkpt lat="43.90316" lon="6.56086">
        <ele>1367.429</ele>
        <time>2018-06-23T10:05:32Z</time>
      </trkpt>
      <trkpt lat="43.90322" lon="6.56086">
        <ele>1368.134</ele>
        <time>2018-06-23T10:05:37Z</time>
      </trkpt>
      <trkpt lat="43.90327" lon="6.56085">
        <ele>1369.355</ele>
        <time>2018-06-23T10:05:42Z</time>
      </trkpt>
      <trkpt lat="43.90332" lon="6.56085">
        <ele>1369.21</ele>
        <time>2018-06-23T10:05:46Z</time>
      </trkpt>
      <trkpt lat="43.90339" lon="6.56086">
        <ele>1369.608</ele>
        <time>2018-06-23T10:06:04Z</time>
      </trkpt>
      <trkpt lat="43.90343" lon="6.56089">
        <ele>1369.495</ele>
        <time>2018-06-23T10:07:35Z</time>
      </trkpt>
      <trkpt lat="43.90348" lon="6.56091">
        <ele>1369.729</ele>
        <time>2018-06-23T10:07:41Z</time>
      </trkpt>
      <trkpt lat="43.90352" lon="6.56094">
        <ele>1370.383</ele>
        <time>2018-06-23T10:07:47Z</time>
      </trkpt>
      <trkpt lat="43.90355" lon="6.561">
        <ele>1368.241</ele>
        <time>2018-06-23T10:08:10Z</time>
      </trkpt>
      <trkpt lat="43.9036" lon="6.56101">
        <ele>1367.871</ele>
        <time>2018-06-23T10:08:15Z</time>
      </trkpt>
      <trkpt lat="43.90364" lon="6.56102">
        <ele>1367.51</ele>
        <time>2018-06-23T10:08:19Z</time>
      </trkpt>
      <trkpt lat="43.9037" lon="6.56102">
        <ele>1367.749</ele>
        <time>2018-06-23T10:09:15Z</time>
      </trkpt>
      <trkpt lat="43.90375" lon="6.56104">
        <ele>1367.825</ele>
        <time>2018-06-23T10:10:12Z</time>
      </trkpt>
      <trkpt lat="43.9038" lon="6.56105">
        <ele>1367.984</ele>
        <time>2018-06-23T10:10:18Z</time>
      </trkpt>
      <trkpt lat="43.90384" lon="6.56103">
        <ele>1367.207</ele>
        <time>2018-06-23T10:10:23Z</time>
      </trkpt>
      <trkpt lat="43.90389" lon="6.56104">
        <ele>1366.417</ele>
        <time>2018-06-23T10:10:27Z</time>
      </trkpt>
      <trkpt lat="43.90394" lon="6.56105">
        <ele>1364.708</ele>
        <time>2018-06-23T10:10:32Z</time>
      </trkpt>
      <trkpt lat="43.90399" lon="6.56106">
        <ele>1364.17</ele>
        <time>2018-06-23T10:10:37Z</time>
      </trkpt>
      <trkpt lat="43.90404" lon="6.56107">
        <ele>1363.734</ele>
        <time>2018-06-23T10:10:42Z</time>
      </trkpt>
      <trkpt lat="43.90409" lon="6.56108">
        <ele>1365.538</ele>
        <time>2018-06-23T10:10:47Z</time>
      </trkpt>
      <trkpt lat="43.90413" lon="6.56109">
        <ele>1367.846</ele>
        <time>2018-06-23T10:10:52Z</time>
      </trkpt>
      <trkpt lat="43.90418" lon="6.56112">
        <ele>1370.016</ele>
        <time>2018-06-23T10:10:57Z</time>
      </trkpt>
      <trkpt lat="43.90423" lon="6.56114">
        <ele>1370.545</ele>
        <time>2018-06-23T10:11:02Z</time>
      </trkpt>
      <trkpt lat="43.90428" lon="6.56116">
        <ele>1370.884</ele>
        <time>2018-06-23T10:11:07Z</time>
      </trkpt>
      <trkpt lat="43.90432" lon="6.56119">
        <ele>1371.49</ele>
        <time>2018-06-23T10:11:12Z</time>
      </trkpt>
      <trkpt lat="43.90437" lon="6.5612">
        <ele>1371.336</ele>
        <time>2018-06-23T10:11:17Z</time>
      </trkpt>
      <trkpt lat="43.90442" lon="6.56122">
        <ele>1372.517</ele>
        <time>2018-06-23T10:11:24Z</time>
      </trkpt>
      <trkpt lat="43.90447" lon="6.56123">
        <ele>1373.218</ele>
        <time>2018-06-23T10:11:34Z</time>
      </trkpt>
      <trkpt lat="43.90445" lon="6.56128">
        <ele>1374.008</ele>
        <time>2018-06-23T10:12:05Z</time>
      </trkpt>
      <trkpt lat="43.90441" lon="6.56131">
        <ele>1374.565</ele>
        <time>2018-06-23T10:12:12Z</time>
      </trkpt>
      <trkpt lat="43.90436" lon="6.56133">
        <ele>1375.699</ele>
        <time>2018-06-23T10:12:19Z</time>
      </trkpt>
      <trkpt lat="43.90432" lon="6.56137">
        <ele>1377.543</ele>
        <time>2018-06-23T10:12:25Z</time>
      </trkpt>
      <trkpt lat="43.90429" lon="6.56142">
        <ele>1379.411</ele>
        <time>2018-06-23T10:12:32Z</time>
      </trkpt>
      <trkpt lat="43.90424" lon="6.56145">
        <ele>1382.161</ele>
        <time>2018-06-23T10:12:41Z</time>
      </trkpt>
      <trkpt lat="43.90419" lon="6.56143">
        <ele>1382.54</ele>
        <time>2018-06-23T10:12:49Z</time>
      </trkpt>
      <trkpt lat="43.90415" lon="6.56141">
        <ele>1383.629</ele>
        <time>2018-06-23T10:12:55Z</time>
      </trkpt>
      <trkpt lat="43.9041" lon="6.56141">
        <ele>1385.415</ele>
        <time>2018-06-23T10:13:03Z</time>
      </trkpt>
      <trkpt lat="43.90405" lon="6.56143">
        <ele>1388.169</ele>
        <time>2018-06-23T10:13:15Z</time>
      </trkpt>
      <trkpt lat="43.904" lon="6.56144">
        <ele>1388.904</ele>
        <time>2018-06-23T10:13:22Z</time>
      </trkpt>
      <trkpt lat="43.90395" lon="6.56146">
        <ele>1390.624</ele>
        <time>2018-06-23T10:13:29Z</time>
      </trkpt>
      <trkpt lat="43.90391" lon="6.56149">
        <ele>1391.608</ele>
        <time>2018-06-23T10:13:36Z</time>
      </trkpt>
      <trkpt lat="43.90386" lon="6.56151">
        <ele>1392.278</ele>
        <time>2018-06-23T10:13:43Z</time>
      </trkpt>
      <trkpt lat="43.90382" lon="6.5615">
        <ele>1393.072</ele>
        <time>2018-06-23T10:13:52Z</time>
      </trkpt>
      <trkpt lat="43.90377" lon="6.56151">
        <ele>1393.986</ele>
        <time>2018-06-23T10:14:01Z</time>
      </trkpt>
      <trkpt lat="43.90373" lon="6.56154">
        <ele>1395.634</ele>
        <time>2018-06-23T10:14:10Z</time>
      </trkpt>
      <trkpt lat="43.90368" lon="6.56155">
        <ele>1397.454</ele>
        <time>2018-06-23T10:14:20Z</time>
      </trkpt>
      <trkpt lat="43.90367" lon="6.56162">
        <ele>1399.753</ele>
        <time>2018-06-23T10:14:29Z</time>
      </trkpt>
      <trkpt lat="43.90363" lon="6.56167">
        <ele>1401.142</ele>
        <time>2018-06-23T10:14:39Z</time>
      </trkpt>
      <trkpt lat="43.90359" lon="6.56169">
        <ele>1401.158</ele>
        <time>2018-06-23T10:14:45Z</time>
      </trkpt>
      <trkpt lat="43.90354" lon="6.56166">
        <ele>1401.177</ele>
        <time>2018-06-23T10:14:53Z</time>
      </trkpt>
      <trkpt lat="43.90349" lon="6.56164">
        <ele>1401.961</ele>
        <time>2018-06-23T10:15:03Z</time>
      </trkpt>
      <trkpt lat="43.90344" lon="6.56166">
        <ele>1403.627</ele>
        <time>2018-06-23T10:15:11Z</time>
      </trkpt>
      <trkpt lat="43.9034" lon="6.56169">
        <ele>1404.608</ele>
        <time>2018-06-23T10:15:19Z</time>
      </trkpt>
      <trkpt lat="43.90336" lon="6.56173">
        <ele>1406.089</ele>
        <time>2018-06-23T10:15:28Z</time>
      </trkpt>
      <trkpt lat="43.90331" lon="6.56175">
        <ele>1408.083</ele>
        <time>2018-06-23T10:15:37Z</time>
      </trkpt>
      <trkpt lat="43.90327" lon="6.56178">
        <ele>1409.277</ele>
        <time>2018-06-23T10:15:44Z</time>
      </trkpt>
      <trkpt lat="43.90322" lon="6.56179">
        <ele>1410.355</ele>
        <time>2018-06-23T10:15:50Z</time>
      </trkpt>
      <trkpt lat="43.90317" lon="6.56179">
        <ele>1412.275</ele>
        <time>2018-06-23T10:16:03Z</time>
      </trkpt>
      <trkpt lat="43.90313" lon="6.5618">
        <ele>1413.774</ele>
        <time>2018-06-23T10:16:14Z</time>
      </trkpt>
      <trkpt lat="43.90308" lon="6.56178">
        <ele>1414.233</ele>
        <time>2018-06-23T10:16:20Z</time>
      </trkpt>
      <trkpt lat="43.90304" lon="6.56178">
        <ele>1414.569</ele>
        <time>2018-06-23T10:16:28Z</time>
      </trkpt>
      <trkpt lat="43.903" lon="6.56182">
        <ele>1416.729</ele>
        <time>2018-06-23T10:16:36Z</time>
      </trkpt>
      <trkpt lat="43.90296" lon="6.56187">
        <ele>1418</ele>
        <time>2018-06-23T10:16:47Z</time>
      </trkpt>
      <trkpt lat="43.90292" lon="6.5619">
        <ele>1419.22</ele>
        <time>2018-06-23T10:16:56Z</time>
      </trkpt>
      <trkpt lat="43.90288" lon="6.56193">
        <ele>1420.708</ele>
        <time>2018-06-23T10:17:03Z</time>
      </trkpt>
      <trkpt lat="43.90283" lon="6.56192">
        <ele>1421.634</ele>
        <time>2018-06-23T10:17:13Z</time>
      </trkpt>
      <trkpt lat="43.90279" lon="6.56189">
        <ele>1422.948</ele>
        <time>2018-06-23T10:17:27Z</time>
      </trkpt>
      <trkpt lat="43.90274" lon="6.5619">
        <ele>1423.312</ele>
        <time>2018-06-23T10:17:35Z</time>
      </trkpt>
      <trkpt lat="43.9027" lon="6.56188">
        <ele>1423.92</ele>
        <time>2018-06-23T10:17:42Z</time>
      </trkpt>
      <trkpt lat="43.90266" lon="6.56192">
        <ele>1425.96</ele>
        <time>2018-06-23T10:17:51Z</time>
      </trkpt>
      <trkpt lat="43.90262" lon="6.56195">
        <ele>1427.539</ele>
        <time>2018-06-23T10:17:59Z</time>
      </trkpt>
      <trkpt lat="43.90258" lon="6.56197">
        <ele>1429.388</ele>
        <time>2018-06-23T10:18:07Z</time>
      </trkpt>
      <trkpt lat="43.90252" lon="6.56197">
        <ele>1429.644</ele>
        <time>2018-06-23T10:18:13Z</time>
      </trkpt>
      <trkpt lat="43.90248" lon="6.56197">
        <ele>1430.229</ele>
        <time>2018-06-23T10:18:29Z</time>
      </trkpt>
      <trkpt lat="43.90243" lon="6.56199">
        <ele>1431.3</ele>
        <time>2018-06-23T10:18:39Z</time>
      </trkpt>
      <trkpt lat="43.90239" lon="6.56203">
        <ele>1433.22</ele>
        <time>2018-06-23T10:18:49Z</time>
      </trkpt>
      <trkpt lat="43.90235" lon="6.56204">
        <ele>1434.308</ele>
        <time>2018-06-23T10:18:59Z</time>
      </trkpt>
      <trkpt lat="43.9023" lon="6.56205">
        <ele>1435.874</ele>
        <time>2018-06-23T10:19:12Z</time>
      </trkpt>
      <trkpt lat="43.90225" lon="6.56202">
        <ele>1436.788</ele>
        <time>2018-06-23T10:19:28Z</time>
      </trkpt>
      <trkpt lat="43.90221" lon="6.56204">
        <ele>1437.692</ele>
        <time>2018-06-23T10:19:36Z</time>
      </trkpt>
      <trkpt lat="43.90216" lon="6.56204">
        <ele>1438.67</ele>
        <time>2018-06-23T10:19:45Z</time>
      </trkpt>
      <trkpt lat="43.90212" lon="6.56208">
        <ele>1440.04</ele>
        <time>2018-06-23T10:19:54Z</time>
      </trkpt>
      <trkpt lat="43.90208" lon="6.56212">
        <ele>1441.289</ele>
        <time>2018-06-23T10:20:03Z</time>
      </trkpt>
      <trkpt lat="43.90204" lon="6.56214">
        <ele>1443.968</ele>
        <time>2018-06-23T10:20:15Z</time>
      </trkpt>
      <trkpt lat="43.90199" lon="6.56216">
        <ele>1447.964</ele>
        <time>2018-06-23T10:24:16Z</time>
      </trkpt>
      <trkpt lat="43.90196" lon="6.5622">
        <ele>1449.937</ele>
        <time>2018-06-23T10:24:23Z</time>
      </trkpt>
      <trkpt lat="43.90191" lon="6.56223">
        <ele>1451.949</ele>
        <time>2018-06-23T10:24:31Z</time>
      </trkpt>
      <trkpt lat="43.90186" lon="6.56224">
        <ele>1453.513</ele>
        <time>2018-06-23T10:24:39Z</time>
      </trkpt>
      <trkpt lat="43.90181" lon="6.56226">
        <ele>1455.308</ele>
        <time>2018-06-23T10:24:47Z</time>
      </trkpt>
      <trkpt lat="43.90178" lon="6.5623">
        <ele>1457.615</ele>
        <time>2018-06-23T10:24:55Z</time>
      </trkpt>
      <trkpt lat="43.90174" lon="6.56234">
        <ele>1459.049</ele>
        <time>2018-06-23T10:25:04Z</time>
      </trkpt>
      <trkpt lat="43.9017" lon="6.56236">
        <ele>1460.283</ele>
        <time>2018-06-23T10:25:12Z</time>
      </trkpt>
      <trkpt lat="43.90162" lon="6.5624">
        <ele>1461.751</ele>
        <time>2018-06-23T10:26:44Z</time>
      </trkpt>
      <trkpt lat="43.90159" lon="6.56245">
        <ele>1462.241</ele>
        <time>2018-06-23T10:26:51Z</time>
      </trkpt>
      <trkpt lat="43.90155" lon="6.56249">
        <ele>1463.77</ele>
        <time>2018-06-23T10:26:57Z</time>
      </trkpt>
      <trkpt lat="43.9015" lon="6.56252">
        <ele>1463.889</ele>
        <time>2018-06-23T10:27:04Z</time>
      </trkpt>
      <trkpt lat="43.90146" lon="6.56253">
        <ele>1466.395</ele>
        <time>2018-06-23T10:27:13Z</time>
      </trkpt>
      <trkpt lat="43.90141" lon="6.56252">
        <ele>1467.894</ele>
        <time>2018-06-23T10:27:20Z</time>
      </trkpt>
      <trkpt lat="43.90136" lon="6.56253">
        <ele>1469.957</ele>
        <time>2018-06-23T10:27:27Z</time>
      </trkpt>
      <trkpt lat="43.90132" lon="6.56253">
        <ele>1472.022</ele>
        <time>2018-06-23T10:27:35Z</time>
      </trkpt>
      <trkpt lat="43.90127" lon="6.56254">
        <ele>1474.008</ele>
        <time>2018-06-23T10:27:43Z</time>
      </trkpt>
      <trkpt lat="43.90122" lon="6.56255">
        <ele>1476.421</ele>
        <time>2018-06-23T10:27:52Z</time>
      </trkpt>
      <trkpt lat="43.90118" lon="6.56257">
        <ele>1478.795</ele>
        <time>2018-06-23T10:28:01Z</time>
      </trkpt>
      <trkpt lat="43.90113" lon="6.56257">
        <ele>1480.569</ele>
        <time>2018-06-23T10:28:10Z</time>
      </trkpt>
      <trkpt lat="43.90108" lon="6.56258">
        <ele>1482.087</ele>
        <time>2018-06-23T10:28:18Z</time>
      </trkpt>
      <trkpt lat="43.90104" lon="6.56259">
        <ele>1484.167</ele>
        <time>2018-06-23T10:28:26Z</time>
      </trkpt>
      <trkpt lat="43.90099" lon="6.56259">
        <ele>1485.356</ele>
        <time>2018-06-23T10:28:34Z</time>
      </trkpt>
      <trkpt lat="43.90095" lon="6.56263">
        <ele>1485.295</ele>
        <time>2018-06-23T10:28:42Z</time>
      </trkpt>
      <trkpt lat="43.9009" lon="6.56265">
        <ele>1485.631</ele>
        <time>2018-06-23T10:28:47Z</time>
      </trkpt>
      <trkpt lat="43.90086" lon="6.56267">
        <ele>1485.829</ele>
        <time>2018-06-23T10:28:53Z</time>
      </trkpt>
      <trkpt lat="43.90081" lon="6.56267">
        <ele>1487.1</ele>
        <time>2018-06-23T10:29:00Z</time>
      </trkpt>
      <trkpt lat="43.90076" lon="6.56266">
        <ele>1488.32</ele>
        <time>2018-06-23T10:29:08Z</time>
      </trkpt>
      <trkpt lat="43.90071" lon="6.56264">
        <ele>1489.808</ele>
        <time>2018-06-23T10:29:16Z</time>
      </trkpt>
      <trkpt lat="43.90067" lon="6.56266">
        <ele>1490.724</ele>
        <time>2018-06-23T10:29:23Z</time>
      </trkpt>
      <trkpt lat="43.90062" lon="6.56268">
        <ele>1492.888</ele>
        <time>2018-06-23T10:29:29Z</time>
      </trkpt>
      <trkpt lat="43.90057" lon="6.56268">
        <ele>1494.992</ele>
        <time>2018-06-23T10:29:35Z</time>
      </trkpt>
      <trkpt lat="43.90053" lon="6.56266">
        <ele>1497.03</ele>
        <time>2018-06-23T10:29:41Z</time>
      </trkpt>
      <trkpt lat="43.90048" lon="6.56267">
        <ele>1498.69</ele>
        <time>2018-06-23T10:29:47Z</time>
      </trkpt>
      <trkpt lat="43.90044" lon="6.56272">
        <ele>1500.429</ele>
        <time>2018-06-23T10:29:53Z</time>
      </trkpt>
      <trkpt lat="43.9004" lon="6.56275">
        <ele>1501.518</ele>
        <time>2018-06-23T10:29:58Z</time>
      </trkpt>
      <trkpt lat="43.90035" lon="6.56277">
        <ele>1503.354</ele>
        <time>2018-06-23T10:30:03Z</time>
      </trkpt>
      <trkpt lat="43.90031" lon="6.5628">
        <ele>1504.468</ele>
        <time>2018-06-23T10:30:10Z</time>
      </trkpt>
      <trkpt lat="43.90026" lon="6.56283">
        <ele>1504.742</ele>
        <time>2018-06-23T10:30:16Z</time>
      </trkpt>
      <trkpt lat="43.90021" lon="6.56283">
        <ele>1506.526</ele>
        <time>2018-06-23T10:30:22Z</time>
      </trkpt>
      <trkpt lat="43.90016" lon="6.56284">
        <ele>1508.008</ele>
        <time>2018-06-23T10:30:27Z</time>
      </trkpt>
      <trkpt lat="43.90012" lon="6.56288">
        <ele>1508.148</ele>
        <time>2018-06-23T10:30:33Z</time>
      </trkpt>
      <trkpt lat="43.90009" lon="6.56292">
        <ele>1508.522</ele>
        <time>2018-06-23T10:30:38Z</time>
      </trkpt>
      <trkpt lat="43.90005" lon="6.56298">
        <ele>1509.696</ele>
        <time>2018-06-23T10:30:43Z</time>
      </trkpt>
      <trkpt lat="43.90002" lon="6.56302">
        <ele>1511.084</ele>
        <time>2018-06-23T10:30:48Z</time>
      </trkpt>
      <trkpt lat="43.89997" lon="6.56306">
        <ele>1513.114</ele>
        <time>2018-06-23T10:30:54Z</time>
      </trkpt>
      <trkpt lat="43.89993" lon="6.56308">
        <ele>1514.323</ele>
        <time>2018-06-23T10:30:59Z</time>
      </trkpt>
      <trkpt lat="43.8999" lon="6.56312">
        <ele>1515.052</ele>
        <time>2018-06-23T10:31:05Z</time>
      </trkpt>
      <trkpt lat="43.89986" lon="6.56316">
        <ele>1515.868</ele>
        <time>2018-06-23T10:31:12Z</time>
      </trkpt>
      <trkpt lat="43.89981" lon="6.56318">
        <ele>1516.743</ele>
        <time>2018-06-23T10:31:18Z</time>
      </trkpt>
      <trkpt lat="43.89977" lon="6.56321">
        <ele>1517.264</ele>
        <time>2018-06-23T10:31:24Z</time>
      </trkpt>
      <trkpt lat="43.89973" lon="6.56327">
        <ele>1517.91</ele>
        <time>2018-06-23T10:31:32Z</time>
      </trkpt>
      <trkpt lat="43.8997" lon="6.56332">
        <ele>1518.708</ele>
        <time>2018-06-23T10:31:41Z</time>
      </trkpt>
      <trkpt lat="43.89967" lon="6.56337">
        <ele>1520.016</ele>
        <time>2018-06-23T10:31:48Z</time>
      </trkpt>
      <trkpt lat="43.89963" lon="6.56341">
        <ele>1522.07</ele>
        <time>2018-06-23T10:31:58Z</time>
      </trkpt>
      <trkpt lat="43.89959" lon="6.56345">
        <ele>1524.094</ele>
        <time>2018-06-23T10:32:15Z</time>
      </trkpt>
      <trkpt lat="43.89954" lon="6.56347">
        <ele>1526.032</ele>
        <time>2018-06-23T10:32:24Z</time>
      </trkpt>
      <trkpt lat="43.8995" lon="6.5635">
        <ele>1526.892</ele>
        <time>2018-06-23T10:32:35Z</time>
      </trkpt>
      <trkpt lat="43.89946" lon="6.56353">
        <ele>1527.321</ele>
        <time>2018-06-23T10:32:42Z</time>
      </trkpt>
      <trkpt lat="43.89941" lon="6.56353">
        <ele>1530.06</ele>
        <time>2018-06-23T10:32:57Z</time>
      </trkpt>
      <trkpt lat="43.89935" lon="6.56353">
        <ele>1531.226</ele>
        <time>2018-06-23T10:33:12Z</time>
      </trkpt>
      <trkpt lat="43.8993" lon="6.56356">
        <ele>1532.341</ele>
        <time>2018-06-23T10:33:21Z</time>
      </trkpt>
      <trkpt lat="43.89927" lon="6.5636">
        <ele>1533.081</ele>
        <time>2018-06-23T10:33:33Z</time>
      </trkpt>
      <trkpt lat="43.89923" lon="6.56364">
        <ele>1535.009</ele>
        <time>2018-06-23T10:33:45Z</time>
      </trkpt>
      <trkpt lat="43.89919" lon="6.56368">
        <ele>1537.808</ele>
        <time>2018-06-23T10:33:54Z</time>
      </trkpt>
      <trkpt lat="43.89915" lon="6.56371">
        <ele>1539.986</ele>
        <time>2018-06-23T10:34:03Z</time>
      </trkpt>
      <trkpt lat="43.89911" lon="6.56373">
        <ele>1541.14</ele>
        <time>2018-06-23T10:34:12Z</time>
      </trkpt>
      <trkpt lat="43.89906" lon="6.56374">
        <ele>1543.014</ele>
        <time>2018-06-23T10:34:21Z</time>
      </trkpt>
      <trkpt lat="43.89901" lon="6.56376">
        <ele>1544.612</ele>
        <time>2018-06-23T10:34:32Z</time>
      </trkpt>
      <trkpt lat="43.89897" lon="6.56377">
        <ele>1547.122</ele>
        <time>2018-06-23T10:34:54Z</time>
      </trkpt>
      <trkpt lat="43.89891" lon="6.56378">
        <ele>1549.451</ele>
        <time>2018-06-23T10:35:18Z</time>
      </trkpt>
      <trkpt lat="43.89887" lon="6.56381">
        <ele>1551.26</ele>
        <time>2018-06-23T10:35:46Z</time>
      </trkpt>
      <trkpt lat="43.89882" lon="6.56381">
        <ele>1554.326</ele>
        <time>2018-06-23T10:35:54Z</time>
      </trkpt>
      <trkpt lat="43.89877" lon="6.56381">
        <ele>1558.138</ele>
        <time>2018-06-23T10:36:03Z</time>
      </trkpt>
      <trkpt lat="43.89872" lon="6.56383">
        <ele>1561.67</ele>
        <time>2018-06-23T10:36:11Z</time>
      </trkpt>
      <trkpt lat="43.89868" lon="6.56387">
        <ele>1564.517</ele>
        <time>2018-06-23T10:36:19Z</time>
      </trkpt>
      <trkpt lat="43.89864" lon="6.56389">
        <ele>1565.808</ele>
        <time>2018-06-23T10:36:26Z</time>
      </trkpt>
      <trkpt lat="43.89859" lon="6.56391">
        <ele>1567.075</ele>
        <time>2018-06-23T10:36:33Z</time>
      </trkpt>
      <trkpt lat="43.89855" lon="6.56395">
        <ele>1568.189</ele>
        <time>2018-06-23T10:36:40Z</time>
      </trkpt>
      <trkpt lat="43.89851" lon="6.56398">
        <ele>1570.073</ele>
        <time>2018-06-23T10:36:58Z</time>
      </trkpt>
      <trkpt lat="43.89846" lon="6.564">
        <ele>1572.331</ele>
        <time>2018-06-23T10:37:08Z</time>
      </trkpt>
      <trkpt lat="43.89842" lon="6.56401">
        <ele>1573.391</ele>
        <time>2018-06-23T10:37:20Z</time>
      </trkpt>
      <trkpt lat="43.89837" lon="6.56404">
        <ele>1574.34</ele>
        <time>2018-06-23T10:37:37Z</time>
      </trkpt>
      <trkpt lat="43.89832" lon="6.56404">
        <ele>1574.939</ele>
        <time>2018-06-23T10:37:47Z</time>
      </trkpt>
      <trkpt lat="43.89828" lon="6.56406">
        <ele>1577.315</ele>
        <time>2018-06-23T10:37:57Z</time>
      </trkpt>
      <trkpt lat="43.89823" lon="6.56406">
        <ele>1579.555</ele>
        <time>2018-06-23T10:38:05Z</time>
      </trkpt>
      <trkpt lat="43.89819" lon="6.56407">
        <ele>1582.007</ele>
        <time>2018-06-23T10:38:18Z</time>
      </trkpt>
      <trkpt lat="43.89814" lon="6.5641">
        <ele>1584.717</ele>
        <time>2018-06-23T10:38:33Z</time>
      </trkpt>
      <trkpt lat="43.8981" lon="6.56411">
        <ele>1585.508</ele>
        <time>2018-06-23T10:38:39Z</time>
      </trkpt>
      <trkpt lat="43.89805" lon="6.56414">
        <ele>1587.297</ele>
        <time>2018-06-23T10:38:47Z</time>
      </trkpt>
      <trkpt lat="43.89799" lon="6.56416">
        <ele>1587.891</ele>
        <time>2018-06-23T10:39:03Z</time>
      </trkpt>
      <trkpt lat="43.89795" lon="6.56417">
        <ele>1588.255</ele>
        <time>2018-06-23T10:39:10Z</time>
      </trkpt>
      <trkpt lat="43.8979" lon="6.56417">
        <ele>1588.823</ele>
        <time>2018-06-23T10:39:18Z</time>
      </trkpt>
      <trkpt lat="43.89785" lon="6.5642">
        <ele>1590.483</ele>
        <time>2018-06-23T10:39:30Z</time>
      </trkpt>
      <trkpt lat="43.89781" lon="6.56422">
        <ele>1592.162</ele>
        <time>2018-06-23T10:39:41Z</time>
      </trkpt>
      <trkpt lat="43.89776" lon="6.56422">
        <ele>1595.911</ele>
        <time>2018-06-23T10:40:03Z</time>
      </trkpt>
      <trkpt lat="43.89772" lon="6.56417">
        <ele>1599.497</ele>
        <time>2018-06-23T10:40:16Z</time>
      </trkpt>
      <trkpt lat="43.89767" lon="6.56416">
        <ele>1601.512</ele>
        <time>2018-06-23T10:40:27Z</time>
      </trkpt>
      <trkpt lat="43.89763" lon="6.56416">
        <ele>1602.432</ele>
        <time>2018-06-23T10:40:36Z</time>
      </trkpt>
      <trkpt lat="43.89758" lon="6.56417">
        <ele>1604.105</ele>
        <time>2018-06-23T10:40:49Z</time>
      </trkpt>
      <trkpt lat="43.89754" lon="6.56414">
        <ele>1604.708</ele>
        <time>2018-06-23T10:41:04Z</time>
      </trkpt>
      <trkpt lat="43.89749" lon="6.56414">
        <ele>1606.323</ele>
        <time>2018-06-23T10:41:24Z</time>
      </trkpt>
      <trkpt lat="43.89745" lon="6.56413">
        <ele>1607.627</ele>
        <time>2018-06-23T10:41:30Z</time>
      </trkpt>
      <trkpt lat="43.8974" lon="6.56415">
        <ele>1610.461</ele>
        <time>2018-06-23T10:41:37Z</time>
      </trkpt>
      <trkpt lat="43.89736" lon="6.56419">
        <ele>1612.999</ele>
        <time>2018-06-23T10:41:45Z</time>
      </trkpt>
      <trkpt lat="43.89732" lon="6.56422">
        <ele>1614.889</ele>
        <time>2018-06-23T10:42:10Z</time>
      </trkpt>
      <trkpt lat="43.89732" lon="6.56429">
        <ele>1615.928</ele>
        <time>2018-06-23T10:43:39Z</time>
      </trkpt>
      <trkpt lat="43.89733" lon="6.56422">
        <ele>1617.887</ele>
        <time>2018-06-23T10:43:48Z</time>
      </trkpt>
      <trkpt lat="43.8973" lon="6.56428">
        <ele>1620.143</ele>
        <time>2018-06-23T10:44:29Z</time>
      </trkpt>
      <trkpt lat="43.89727" lon="6.56433">
        <ele>1621.964</ele>
        <time>2018-06-23T10:44:35Z</time>
      </trkpt>
      <trkpt lat="43.89724" lon="6.56439">
        <ele>1623.006</ele>
        <time>2018-06-23T10:44:41Z</time>
      </trkpt>
      <trkpt lat="43.8972" lon="6.56444">
        <ele>1622.016</ele>
        <time>2018-06-23T10:44:47Z</time>
      </trkpt>
      <trkpt lat="43.89716" lon="6.56447">
        <ele>1621.008</ele>
        <time>2018-06-23T10:44:52Z</time>
      </trkpt>
      <trkpt lat="43.89712" lon="6.56452">
        <ele>1621.698</ele>
        <time>2018-06-23T10:44:58Z</time>
      </trkpt>
      <trkpt lat="43.89709" lon="6.56456">
        <ele>1622.052</ele>
        <time>2018-06-23T10:45:04Z</time>
      </trkpt>
      <trkpt lat="43.89705" lon="6.56461">
        <ele>1621.436</ele>
        <time>2018-06-23T10:45:12Z</time>
      </trkpt>
      <trkpt lat="43.89702" lon="6.56465">
        <ele>1621.994</ele>
        <time>2018-06-23T10:45:23Z</time>
      </trkpt>
      <trkpt lat="43.89698" lon="6.56468">
        <ele>1623.494</ele>
        <time>2018-06-23T10:45:32Z</time>
      </trkpt>
      <trkpt lat="43.89695" lon="6.56474">
        <ele>1624.333</ele>
        <time>2018-06-23T10:45:40Z</time>
      </trkpt>
      <trkpt lat="43.89691" lon="6.56478">
        <ele>1624.852</ele>
        <time>2018-06-23T10:45:47Z</time>
      </trkpt>
      <trkpt lat="43.89687" lon="6.56481">
        <ele>1625.178</ele>
        <time>2018-06-23T10:45:54Z</time>
      </trkpt>
      <trkpt lat="43.89683" lon="6.56484">
        <ele>1626.175</ele>
        <time>2018-06-23T10:46:03Z</time>
      </trkpt>
      <trkpt lat="43.89679" lon="6.56489">
        <ele>1627.128</ele>
        <time>2018-06-23T10:46:10Z</time>
      </trkpt>
      <trkpt lat="43.89675" lon="6.56493">
        <ele>1628.92</ele>
        <time>2018-06-23T10:46:17Z</time>
      </trkpt>
      <trkpt lat="43.89671" lon="6.56497">
        <ele>1630.808</ele>
        <time>2018-06-23T10:46:23Z</time>
      </trkpt>
      <trkpt lat="43.89667" lon="6.56501">
        <ele>1633.159</ele>
        <time>2018-06-23T10:46:30Z</time>
      </trkpt>
      <trkpt lat="43.89663" lon="6.56506">
        <ele>1635.343</ele>
        <time>2018-06-23T10:46:36Z</time>
      </trkpt>
      <trkpt lat="43.89659" lon="6.5651">
        <ele>1637.447</ele>
        <time>2018-06-23T10:46:42Z</time>
      </trkpt>
      <trkpt lat="43.89656" lon="6.56515">
        <ele>1637.955</ele>
        <time>2018-06-23T10:46:47Z</time>
      </trkpt>
      <trkpt lat="43.89654" lon="6.56521">
        <ele>1637.855</ele>
        <time>2018-06-23T10:46:52Z</time>
      </trkpt>
      <trkpt lat="43.89652" lon="6.56527">
        <ele>1638.574</ele>
        <time>2018-06-23T10:46:58Z</time>
      </trkpt>
      <trkpt lat="43.89649" lon="6.56533">
        <ele>1639.323</ele>
        <time>2018-06-23T10:47:05Z</time>
      </trkpt>
      <trkpt lat="43.89646" lon="6.56539">
        <ele>1639.859</ele>
        <time>2018-06-23T10:47:12Z</time>
      </trkpt>
      <trkpt lat="43.89644" lon="6.56545">
        <ele>1640.952</ele>
        <time>2018-06-23T10:47:19Z</time>
      </trkpt>
      <trkpt lat="43.89641" lon="6.56551">
        <ele>1642.853</ele>
        <time>2018-06-23T10:47:25Z</time>
      </trkpt>
      <trkpt lat="43.89639" lon="6.56557">
        <ele>1643.908</ele>
        <time>2018-06-23T10:47:31Z</time>
      </trkpt>
      <trkpt lat="43.89637" lon="6.56563">
        <ele>1645.408</ele>
        <time>2018-06-23T10:47:38Z</time>
      </trkpt>
      <trkpt lat="43.89636" lon="6.5657">
        <ele>1646.717</ele>
        <time>2018-06-23T10:47:44Z</time>
      </trkpt>
      <trkpt lat="43.89632" lon="6.56574">
        <ele>1647.121</ele>
        <time>2018-06-23T10:47:52Z</time>
      </trkpt>
      <trkpt lat="43.89629" lon="6.56579">
        <ele>1646.165</ele>
        <time>2018-06-23T10:48:00Z</time>
      </trkpt>
      <trkpt lat="43.89625" lon="6.56582">
        <ele>1647.133</ele>
        <time>2018-06-23T10:48:08Z</time>
      </trkpt>
      <trkpt lat="43.89621" lon="6.56585">
        <ele>1648.113</ele>
        <time>2018-06-23T10:48:18Z</time>
      </trkpt>
      <trkpt lat="43.89617" lon="6.5659">
        <ele>1649.992</ele>
        <time>2018-06-23T10:48:27Z</time>
      </trkpt>
      <trkpt lat="43.89613" lon="6.56594">
        <ele>1650.691</ele>
        <time>2018-06-23T10:48:36Z</time>
      </trkpt>
      <trkpt lat="43.8961" lon="6.56599">
        <ele>1651.857</ele>
        <time>2018-06-23T10:48:45Z</time>
      </trkpt>
      <trkpt lat="43.89605" lon="6.56602">
        <ele>1652.136</ele>
        <time>2018-06-23T10:48:58Z</time>
      </trkpt>
      <trkpt lat="43.89601" lon="6.56603">
        <ele>1651.117</ele>
        <time>2018-06-23T10:49:22Z</time>
      </trkpt>
      <trkpt lat="43.89597" lon="6.56608">
        <ele>1652.118</ele>
        <time>2018-06-23T10:49:30Z</time>
      </trkpt>
      <trkpt lat="43.89594" lon="6.56612">
        <ele>1654.308</ele>
        <time>2018-06-23T10:49:37Z</time>
      </trkpt>
      <trkpt lat="43.8959" lon="6.56616">
        <ele>1655.625</ele>
        <time>2018-06-23T10:49:45Z</time>
      </trkpt>
      <trkpt lat="43.89587" lon="6.56622">
        <ele>1656.839</ele>
        <time>2018-06-23T10:49:52Z</time>
      </trkpt>
      <trkpt lat="43.89585" lon="6.56628">
        <ele>1659.543</ele>
        <time>2018-06-23T10:49:59Z</time>
      </trkpt>
      <trkpt lat="43.89582" lon="6.56632">
        <ele>1660.321</ele>
        <time>2018-06-23T10:50:05Z</time>
      </trkpt>
      <trkpt lat="43.89578" lon="6.56636">
        <ele>1662.071</ele>
        <time>2018-06-23T10:50:12Z</time>
      </trkpt>
      <trkpt lat="43.89575" lon="6.5664">
        <ele>1662.65</ele>
        <time>2018-06-23T10:50:19Z</time>
      </trkpt>
      <trkpt lat="43.89572" lon="6.56646">
        <ele>1663.879</ele>
        <time>2018-06-23T10:50:26Z</time>
      </trkpt>
      <trkpt lat="43.89569" lon="6.56651">
        <ele>1664.115</ele>
        <time>2018-06-23T10:50:36Z</time>
      </trkpt>
      <trkpt lat="43.89566" lon="6.56655">
        <ele>1665.184</ele>
        <time>2018-06-23T10:50:42Z</time>
      </trkpt>
      <trkpt lat="43.89562" lon="6.56659">
        <ele>1665.307</ele>
        <time>2018-06-23T10:50:49Z</time>
      </trkpt>
      <trkpt lat="43.89558" lon="6.56663">
        <ele>1665.817</ele>
        <time>2018-06-23T10:50:56Z</time>
      </trkpt>
      <trkpt lat="43.89555" lon="6.56667">
        <ele>1666.108</ele>
        <time>2018-06-23T10:51:01Z</time>
      </trkpt>
      <trkpt lat="43.89551" lon="6.56671">
        <ele>1667.14</ele>
        <time>2018-06-23T10:51:07Z</time>
      </trkpt>
      <trkpt lat="43.89547" lon="6.56675">
        <ele>1667.794</ele>
        <time>2018-06-23T10:51:13Z</time>
      </trkpt>
      <trkpt lat="43.89544" lon="6.5668">
        <ele>1668.968</ele>
        <time>2018-06-23T10:51:19Z</time>
      </trkpt>
      <trkpt lat="43.89541" lon="6.56686">
        <ele>1670.816</ele>
        <time>2018-06-23T10:51:27Z</time>
      </trkpt>
      <trkpt lat="43.89539" lon="6.56691">
        <ele>1672.766</ele>
        <time>2018-06-23T10:51:34Z</time>
      </trkpt>
      <trkpt lat="43.89535" lon="6.56696">
        <ele>1673.915</ele>
        <time>2018-06-23T10:51:42Z</time>
      </trkpt>
      <trkpt lat="43.89532" lon="6.567">
        <ele>1675.434</ele>
        <time>2018-06-23T10:51:51Z</time>
      </trkpt>
      <trkpt lat="43.89531" lon="6.56707">
        <ele>1675.55</ele>
        <time>2018-06-23T10:51:59Z</time>
      </trkpt>
      <trkpt lat="43.89532" lon="6.56713">
        <ele>1676.872</ele>
        <time>2018-06-23T10:52:05Z</time>
      </trkpt>
      <trkpt lat="43.8953" lon="6.56719">
        <ele>1677.213</ele>
        <time>2018-06-23T10:52:12Z</time>
      </trkpt>
      <trkpt lat="43.89527" lon="6.56725">
        <ele>1677.014</ele>
        <time>2018-06-23T10:52:18Z</time>
      </trkpt>
      <trkpt lat="43.89523" lon="6.56729">
        <ele>1677.308</ele>
        <time>2018-06-23T10:52:24Z</time>
      </trkpt>
      <trkpt lat="43.89519" lon="6.5673">
        <ele>1677.939</ele>
        <time>2018-06-23T10:52:31Z</time>
      </trkpt>
      <trkpt lat="43.89514" lon="6.56732">
        <ele>1679.093</ele>
        <time>2018-06-23T10:52:39Z</time>
      </trkpt>
      <trkpt lat="43.89509" lon="6.56735">
        <ele>1680.557</ele>
        <time>2018-06-23T10:52:50Z</time>
      </trkpt>
      <trkpt lat="43.89504" lon="6.56737">
        <ele>1681.815</ele>
        <time>2018-06-23T10:52:58Z</time>
      </trkpt>
      <trkpt lat="43.895" lon="6.56738">
        <ele>1683.815</ele>
        <time>2018-06-23T10:53:14Z</time>
      </trkpt>
      <trkpt lat="43.89496" lon="6.56741">
        <ele>1685.494</ele>
        <time>2018-06-23T10:53:23Z</time>
      </trkpt>
      <trkpt lat="43.89493" lon="6.56746">
        <ele>1687.233</ele>
        <time>2018-06-23T10:53:32Z</time>
      </trkpt>
      <trkpt lat="43.89489" lon="6.56751">
        <ele>1687.549</ele>
        <time>2018-06-23T10:53:38Z</time>
      </trkpt>
      <trkpt lat="43.89486" lon="6.56755">
        <ele>1688.549</ele>
        <time>2018-06-23T10:53:45Z</time>
      </trkpt>
      <trkpt lat="43.89481" lon="6.56758">
        <ele>1689.502</ele>
        <time>2018-06-23T10:53:53Z</time>
      </trkpt>
      <trkpt lat="43.89477" lon="6.56761">
        <ele>1690.122</ele>
        <time>2018-06-23T10:54:03Z</time>
      </trkpt>
      <trkpt lat="43.89473" lon="6.56763">
        <ele>1690.808</ele>
        <time>2018-06-23T10:54:11Z</time>
      </trkpt>
      <trkpt lat="43.89468" lon="6.56765">
        <ele>1691.696</ele>
        <time>2018-06-23T10:54:21Z</time>
      </trkpt>
      <trkpt lat="43.89464" lon="6.56768">
        <ele>1691.72</ele>
        <time>2018-06-23T10:54:31Z</time>
      </trkpt>
      <trkpt lat="43.89459" lon="6.5677">
        <ele>1692.634</ele>
        <time>2018-06-23T10:54:41Z</time>
      </trkpt>
      <trkpt lat="43.89454" lon="6.56772">
        <ele>1693.992</ele>
        <time>2018-06-23T10:54:50Z</time>
      </trkpt>
      <trkpt lat="43.89451" lon="6.56776">
        <ele>1695.152</ele>
        <time>2018-06-23T10:55:00Z</time>
      </trkpt>
      <trkpt lat="43.89447" lon="6.5678">
        <ele>1697.421</ele>
        <time>2018-06-23T10:55:12Z</time>
      </trkpt>
      <trkpt lat="43.89443" lon="6.56783">
        <ele>1700.08</ele>
        <time>2018-06-23T10:55:19Z</time>
      </trkpt>
      <trkpt lat="43.89438" lon="6.56786">
        <ele>1702.466</ele>
        <time>2018-06-23T10:55:27Z</time>
      </trkpt>
      <trkpt lat="43.89434" lon="6.56789">
        <ele>1705.056</ele>
        <time>2018-06-23T10:55:38Z</time>
      </trkpt>
      <trkpt lat="43.8943" lon="6.56791">
        <ele>1705.859</ele>
        <time>2018-06-23T10:56:37Z</time>
      </trkpt>
      <trkpt lat="43.89423" lon="6.56794">
        <ele>1707.114</ele>
        <time>2018-06-23T10:57:00Z</time>
      </trkpt>
      <trkpt lat="43.89419" lon="6.56798">
        <ele>1709.508</ele>
        <time>2018-06-23T10:57:26Z</time>
      </trkpt>
      <trkpt lat="43.89414" lon="6.568">
        <ele>1710.947</ele>
        <time>2018-06-23T10:57:33Z</time>
      </trkpt>
      <trkpt lat="43.8941" lon="6.56803">
        <ele>1712.541</ele>
        <time>2018-06-23T10:57:41Z</time>
      </trkpt>
      <trkpt lat="43.89405" lon="6.56804">
        <ele>1713.155</ele>
        <time>2018-06-23T10:57:49Z</time>
      </trkpt>
      <trkpt lat="43.894" lon="6.56805">
        <ele>1712.723</ele>
        <time>2018-06-23T10:57:58Z</time>
      </trkpt>
      <trkpt lat="43.89396" lon="6.56806">
        <ele>1714.083</ele>
        <time>2018-06-23T10:58:13Z</time>
      </trkpt>
      <trkpt lat="43.89391" lon="6.56808">
        <ele>1716.042</ele>
        <time>2018-06-23T10:58:24Z</time>
      </trkpt>
      <trkpt lat="43.89387" lon="6.56809">
        <ele>1718.051</ele>
        <time>2018-06-23T10:58:32Z</time>
      </trkpt>
      <trkpt lat="43.89382" lon="6.56809">
        <ele>1719.667</ele>
        <time>2018-06-23T10:58:40Z</time>
      </trkpt>
      <trkpt lat="43.89377" lon="6.56808">
        <ele>1721.847</ele>
        <time>2018-06-23T10:58:49Z</time>
      </trkpt>
      <trkpt lat="43.89372" lon="6.56809">
        <ele>1722.729</ele>
        <time>2018-06-23T10:58:59Z</time>
      </trkpt>
      <trkpt lat="43.89367" lon="6.56812">
        <ele>1723.621</ele>
        <time>2018-06-23T10:59:08Z</time>
      </trkpt>
      <trkpt lat="43.89363" lon="6.56815">
        <ele>1724.208</ele>
        <time>2018-06-23T10:59:15Z</time>
      </trkpt>
      <trkpt lat="43.89359" lon="6.56819">
        <ele>1725.366</ele>
        <time>2018-06-23T10:59:20Z</time>
      </trkpt>
      <trkpt lat="43.89355" lon="6.56824">
        <ele>1726.47</ele>
        <time>2018-06-23T10:59:25Z</time>
      </trkpt>
      <trkpt lat="43.89351" lon="6.56828">
        <ele>1727.014</ele>
        <time>2018-06-23T10:59:31Z</time>
      </trkpt>
      <trkpt lat="43.89347" lon="6.56833">
        <ele>1727.882</ele>
        <time>2018-06-23T10:59:37Z</time>
      </trkpt>
      <trkpt lat="43.89343" lon="6.56836">
        <ele>1728.762</ele>
        <time>2018-06-23T10:59:42Z</time>
      </trkpt>
      <trkpt lat="43.89338" lon="6.5684">
        <ele>1730.451</ele>
        <time>2018-06-23T10:59:49Z</time>
      </trkpt>
      <trkpt lat="43.89334" lon="6.56844">
        <ele>1732.62</ele>
        <time>2018-06-23T10:59:55Z</time>
      </trkpt>
      <trkpt lat="43.8933" lon="6.56847">
        <ele>1735.166</ele>
        <time>2018-06-23T11:01:19Z</time>
      </trkpt>
      <trkpt lat="43.89325" lon="6.5685">
        <ele>1736.273</ele>
        <time>2018-06-23T11:01:26Z</time>
      </trkpt>
      <trkpt lat="43.89321" lon="6.56852">
        <ele>1737.385</ele>
        <time>2018-06-23T11:01:35Z</time>
      </trkpt>
      <trkpt lat="43.89316" lon="6.56852">
        <ele>1738.313</ele>
        <time>2018-06-23T11:01:47Z</time>
      </trkpt>
      <trkpt lat="43.89311" lon="6.56854">
        <ele>1739.708</ele>
        <time>2018-06-23T11:01:54Z</time>
      </trkpt>
      <trkpt lat="43.89306" lon="6.56855">
        <ele>1740.689</ele>
        <time>2018-06-23T11:02:04Z</time>
      </trkpt>
      <trkpt lat="43.89302" lon="6.56855">
        <ele>1741.143</ele>
        <time>2018-06-23T11:02:14Z</time>
      </trkpt>
      <trkpt lat="43.89296" lon="6.56857">
        <ele>1741.817</ele>
        <time>2018-06-23T11:02:23Z</time>
      </trkpt>
      <trkpt lat="43.89292" lon="6.56856">
        <ele>1743.085</ele>
        <time>2018-06-23T11:02:34Z</time>
      </trkpt>
      <trkpt lat="43.89288" lon="6.56852">
        <ele>1743.745</ele>
        <time>2018-06-23T11:02:45Z</time>
      </trkpt>
      <trkpt lat="43.89284" lon="6.56848">
        <ele>1746.574</ele>
        <time>2018-06-23T11:03:01Z</time>
      </trkpt>
      <trkpt lat="43.89279" lon="6.56848">
        <ele>1748.633</ele>
        <time>2018-06-23T11:03:13Z</time>
      </trkpt>
      <trkpt lat="43.89274" lon="6.5685">
        <ele>1751.589</ele>
        <time>2018-06-23T11:03:23Z</time>
      </trkpt>
      <trkpt lat="43.89269" lon="6.56853">
        <ele>1752.455</ele>
        <time>2018-06-23T11:03:57Z</time>
      </trkpt>
      <trkpt lat="43.89266" lon="6.56857">
        <ele>1752.607</ele>
        <time>2018-06-23T11:05:01Z</time>
      </trkpt>
      <trkpt lat="43.89261" lon="6.56857">
        <ele>1753.117</ele>
        <time>2018-06-23T11:05:13Z</time>
      </trkpt>
      <trkpt lat="43.89256" lon="6.5686">
        <ele>1753.808</ele>
        <time>2018-06-23T11:05:19Z</time>
      </trkpt>
      <trkpt lat="43.89252" lon="6.56863">
        <ele>1753.827</ele>
        <time>2018-06-23T11:05:25Z</time>
      </trkpt>
      <trkpt lat="43.89247" lon="6.56864">
        <ele>1754.651</ele>
        <time>2018-06-23T11:05:31Z</time>
      </trkpt>
      <trkpt lat="43.89243" lon="6.56868">
        <ele>1755.525</ele>
        <time>2018-06-23T11:05:36Z</time>
      </trkpt>
      <trkpt lat="43.89238" lon="6.5687">
        <ele>1756.073</ele>
        <time>2018-06-23T11:05:42Z</time>
      </trkpt>
      <trkpt lat="43.89234" lon="6.56871">
        <ele>1756.353</ele>
        <time>2018-06-23T11:05:50Z</time>
      </trkpt>
      <trkpt lat="43.89229" lon="6.56871">
        <ele>1758.972</ele>
        <time>2018-06-23T11:06:02Z</time>
      </trkpt>
      <trkpt lat="43.89224" lon="6.56871">
        <ele>1758.161</ele>
        <time>2018-06-23T11:06:11Z</time>
      </trkpt>
      <trkpt lat="43.8922" lon="6.56874">
        <ele>1758.017</ele>
        <time>2018-06-23T11:06:19Z</time>
      </trkpt>
      <trkpt lat="43.89215" lon="6.56876">
        <ele>1758.384</ele>
        <time>2018-06-23T11:06:27Z</time>
      </trkpt>
      <trkpt lat="43.89211" lon="6.5688">
        <ele>1759.307</ele>
        <time>2018-06-23T11:06:33Z</time>
      </trkpt>
      <trkpt lat="43.89207" lon="6.56881">
        <ele>1760.317</ele>
        <time>2018-06-23T11:06:38Z</time>
      </trkpt>
      <trkpt lat="43.89202" lon="6.56882">
        <ele>1760.908</ele>
        <time>2018-06-23T11:06:44Z</time>
      </trkpt>
      <trkpt lat="43.89197" lon="6.56884">
        <ele>1760.98</ele>
        <time>2018-06-23T11:06:59Z</time>
      </trkpt>
      <trkpt lat="43.89192" lon="6.56886">
        <ele>1760.174</ele>
        <time>2018-06-23T11:07:05Z</time>
      </trkpt>
      <trkpt lat="43.89188" lon="6.5689">
        <ele>1759.668</ele>
        <time>2018-06-23T11:07:16Z</time>
      </trkpt>
      <trkpt lat="43.89187" lon="6.56897">
        <ele>1758.576</ele>
        <time>2018-06-23T11:07:23Z</time>
      </trkpt>
      <trkpt lat="43.89183" lon="6.56901">
        <ele>1759.026</ele>
        <time>2018-06-23T11:07:31Z</time>
      </trkpt>
      <trkpt lat="43.89181" lon="6.56907">
        <ele>1757.715</ele>
        <time>2018-06-23T11:07:42Z</time>
      </trkpt>
      <trkpt lat="43.89178" lon="6.56912">
        <ele>1756.154</ele>
        <time>2018-06-23T11:07:48Z</time>
      </trkpt>
      <trkpt lat="43.89174" lon="6.56915">
        <ele>1754.83</ele>
        <time>2018-06-23T11:07:54Z</time>
      </trkpt>
      <trkpt lat="43.89169" lon="6.56916">
        <ele>1754.063</ele>
        <time>2018-06-23T11:08:01Z</time>
      </trkpt>
      <trkpt lat="43.89164" lon="6.56919">
        <ele>1753.544</ele>
        <time>2018-06-23T11:08:07Z</time>
      </trkpt>
      <trkpt lat="43.8916" lon="6.56923">
        <ele>1752.818</ele>
        <time>2018-06-23T11:08:12Z</time>
      </trkpt>
      <trkpt lat="43.89157" lon="6.56927">
        <ele>1753.208</ele>
        <time>2018-06-23T11:08:27Z</time>
      </trkpt>
      <trkpt lat="43.89153" lon="6.56932">
        <ele>1753.058</ele>
        <time>2018-06-23T11:08:32Z</time>
      </trkpt>
      <trkpt lat="43.89149" lon="6.56934">
        <ele>1752.992</ele>
        <time>2018-06-23T11:08:40Z</time>
      </trkpt>
      <trkpt lat="43.89143" lon="6.56936">
        <ele>1752.436</ele>
        <time>2018-06-23T11:08:53Z</time>
      </trkpt>
      <trkpt lat="43.89139" lon="6.56939">
        <ele>1751.754</ele>
        <time>2018-06-23T11:08:58Z</time>
      </trkpt>
      <trkpt lat="43.89135" lon="6.56941">
        <ele>1751.784</ele>
        <time>2018-06-23T11:09:06Z</time>
      </trkpt>
      <trkpt lat="43.8913" lon="6.56944">
        <ele>1752.193</ele>
        <time>2018-06-23T11:09:12Z</time>
      </trkpt>
      <trkpt lat="43.89125" lon="6.56946">
        <ele>1752.382</ele>
        <time>2018-06-23T11:09:17Z</time>
      </trkpt>
      <trkpt lat="43.89122" lon="6.56942">
        <ele>1754.418</ele>
        <time>2018-06-23T11:09:31Z</time>
      </trkpt>
      <trkpt lat="43.89117" lon="6.56944">
        <ele>1755.328</ele>
        <time>2018-06-23T11:09:39Z</time>
      </trkpt>
      <trkpt lat="43.89113" lon="6.56947">
        <ele>1755.889</ele>
        <time>2018-06-23T11:09:45Z</time>
      </trkpt>
      <trkpt lat="43.89109" lon="6.5695">
        <ele>1755.717</ele>
        <time>2018-06-23T11:09:51Z</time>
      </trkpt>
      <trkpt lat="43.89108" lon="6.56957">
        <ele>1755.708</ele>
        <time>2018-06-23T11:10:14Z</time>
      </trkpt>
      <trkpt lat="43.89104" lon="6.56961">
        <ele>1755.784</ele>
        <time>2018-06-23T11:10:19Z</time>
      </trkpt>
      <trkpt lat="43.89099" lon="6.56963">
        <ele>1755.358</ele>
        <time>2018-06-23T11:10:24Z</time>
      </trkpt>
      <trkpt lat="43.89095" lon="6.56967">
        <ele>1755.472</ele>
        <time>2018-06-23T11:10:29Z</time>
      </trkpt>
      <trkpt lat="43.8909" lon="6.56968">
        <ele>1755.91</ele>
        <time>2018-06-23T11:10:35Z</time>
      </trkpt>
      <trkpt lat="43.89085" lon="6.56969">
        <ele>1757.01</ele>
        <time>2018-06-23T11:10:40Z</time>
      </trkpt>
      <trkpt lat="43.8908" lon="6.5697">
        <ele>1758.129</ele>
        <time>2018-06-23T11:10:45Z</time>
      </trkpt>
      <trkpt lat="43.89075" lon="6.56972">
        <ele>1757.958</ele>
        <time>2018-06-23T11:10:50Z</time>
      </trkpt>
      <trkpt lat="43.8907" lon="6.56975">
        <ele>1758.254</ele>
        <time>2018-06-23T11:10:55Z</time>
      </trkpt>
      <trkpt lat="43.89065" lon="6.56976">
        <ele>1758.454</ele>
        <time>2018-06-23T11:11:01Z</time>
      </trkpt>
      <trkpt lat="43.8906" lon="6.56977">
        <ele>1758.956</ele>
        <time>2018-06-23T11:11:08Z</time>
      </trkpt>
      <trkpt lat="43.89055" lon="6.56979">
        <ele>1758.411</ele>
        <time>2018-06-23T11:11:14Z</time>
      </trkpt>
      <trkpt lat="43.89051" lon="6.56981">
        <ele>1757.708</ele>
        <time>2018-06-23T11:11:19Z</time>
      </trkpt>
      <trkpt lat="43.89046" lon="6.56981">
        <ele>1757.367</ele>
        <time>2018-06-23T11:11:35Z</time>
      </trkpt>
      <trkpt lat="43.89042" lon="6.56987">
        <ele>1757.021</ele>
        <time>2018-06-23T11:11:54Z</time>
      </trkpt>
      <trkpt lat="43.89039" lon="6.56992">
        <ele>1755.655</ele>
        <time>2018-06-23T11:12:01Z</time>
      </trkpt>
      <trkpt lat="43.89035" lon="6.56997">
        <ele>1754.883</ele>
        <time>2018-06-23T11:12:07Z</time>
      </trkpt>
      <trkpt lat="43.89032" lon="6.57001">
        <ele>1753.553</ele>
        <time>2018-06-23T11:12:13Z</time>
      </trkpt>
      <trkpt lat="43.89028" lon="6.57005">
        <ele>1752.792</ele>
        <time>2018-06-23T11:12:20Z</time>
      </trkpt>
      <trkpt lat="43.89025" lon="6.5701">
        <ele>1753.011</ele>
        <time>2018-06-23T11:12:28Z</time>
      </trkpt>
      <trkpt lat="43.89021" lon="6.57013">
        <ele>1752.067</ele>
        <time>2018-06-23T11:12:34Z</time>
      </trkpt>
      <trkpt lat="43.89016" lon="6.57015">
        <ele>1751.017</ele>
        <time>2018-06-23T11:12:41Z</time>
      </trkpt>
      <trkpt lat="43.89011" lon="6.57017">
        <ele>1749.687</ele>
        <time>2018-06-23T11:12:48Z</time>
      </trkpt>
      <trkpt lat="43.89007" lon="6.57017">
        <ele>1748.815</ele>
        <time>2018-06-23T11:12:55Z</time>
      </trkpt>
      <trkpt lat="43.89002" lon="6.57019">
        <ele>1749.108</ele>
        <time>2018-06-23T11:13:04Z</time>
      </trkpt>
      <trkpt lat="43.88998" lon="6.57021">
        <ele>1748.593</ele>
        <time>2018-06-23T11:13:12Z</time>
      </trkpt>
      <trkpt lat="43.88993" lon="6.5702">
        <ele>1748.167</ele>
        <time>2018-06-23T11:13:18Z</time>
      </trkpt>
      <trkpt lat="43.8899" lon="6.57016">
        <ele>1748.721</ele>
        <time>2018-06-23T11:13:37Z</time>
      </trkpt>
      <trkpt lat="43.88984" lon="6.57015">
        <ele>1749.419</ele>
        <time>2018-06-23T11:13:45Z</time>
      </trkpt>
      <trkpt lat="43.8898" lon="6.57018">
        <ele>1749.069</ele>
        <time>2018-06-23T11:13:52Z</time>
      </trkpt>
      <trkpt lat="43.88975" lon="6.57019">
        <ele>1748.878</ele>
        <time>2018-06-23T11:13:58Z</time>
      </trkpt>
      <trkpt lat="43.8897" lon="6.5702">
        <ele>1748.357</ele>
        <time>2018-06-23T11:14:14Z</time>
      </trkpt>
      <trkpt lat="43.88965" lon="6.57024">
        <ele>1747.613</ele>
        <time>2018-06-23T11:14:20Z</time>
      </trkpt>
      <trkpt lat="43.88961" lon="6.57026">
        <ele>1746.431</ele>
        <time>2018-06-23T11:14:27Z</time>
      </trkpt>
      <trkpt lat="43.88956" lon="6.57027">
        <ele>1746.561</ele>
        <time>2018-06-23T11:14:35Z</time>
      </trkpt>
      <trkpt lat="43.88952" lon="6.57025">
        <ele>1746.507</ele>
        <time>2018-06-23T11:14:42Z</time>
      </trkpt>
      <trkpt lat="43.88947" lon="6.57025">
        <ele>1746.508</ele>
        <time>2018-06-23T11:14:48Z</time>
      </trkpt>
      <trkpt lat="43.88942" lon="6.57024">
        <ele>1746.535</ele>
        <time>2018-06-23T11:15:14Z</time>
      </trkpt>
      <trkpt lat="43.88938" lon="6.57029">
        <ele>1744.919</ele>
        <time>2018-06-23T11:15:21Z</time>
      </trkpt>
      <trkpt lat="43.88934" lon="6.57032">
        <ele>1743.553</ele>
        <time>2018-06-23T11:15:28Z</time>
      </trkpt>
      <trkpt lat="43.8893" lon="6.57035">
        <ele>1741.561</ele>
        <time>2018-06-23T11:15:36Z</time>
      </trkpt>
      <trkpt lat="43.88926" lon="6.57039">
        <ele>1739.161</ele>
        <time>2018-06-23T11:15:49Z</time>
      </trkpt>
      <trkpt lat="43.88921" lon="6.5704">
        <ele>1738.15</ele>
        <time>2018-06-23T11:15:56Z</time>
      </trkpt>
      <trkpt lat="43.88917" lon="6.57044">
        <ele>1737.559</ele>
        <time>2018-06-23T11:16:04Z</time>
      </trkpt>
      <trkpt lat="43.88914" lon="6.57049">
        <ele>1738.335</ele>
        <time>2018-06-23T11:17:02Z</time>
      </trkpt>
      <trkpt lat="43.88911" lon="6.57054">
        <ele>1737.676</ele>
        <time>2018-06-23T11:17:18Z</time>
      </trkpt>
      <trkpt lat="43.88907" lon="6.57058">
        <ele>1736.09</ele>
        <time>2018-06-23T11:17:25Z</time>
      </trkpt>
      <trkpt lat="43.88903" lon="6.57061">
        <ele>1735.019</ele>
        <time>2018-06-23T11:17:30Z</time>
      </trkpt>
      <trkpt lat="43.88897" lon="6.5706">
        <ele>1734.408</ele>
        <time>2018-06-23T11:17:36Z</time>
      </trkpt>
      <trkpt lat="43.88892" lon="6.57058">
        <ele>1734.089</ele>
        <time>2018-06-23T11:17:41Z</time>
      </trkpt>
      <trkpt lat="43.88887" lon="6.57057">
        <ele>1733.033</ele>
        <time>2018-06-23T11:17:49Z</time>
      </trkpt>
      <trkpt lat="43.88883" lon="6.57055">
        <ele>1732.867</ele>
        <time>2018-06-23T11:17:57Z</time>
      </trkpt>
      <trkpt lat="43.8888" lon="6.57059">
        <ele>1732.745</ele>
        <time>2018-06-23T11:19:21Z</time>
      </trkpt>
      <trkpt lat="43.88876" lon="6.57062">
        <ele>1733.875</ele>
        <time>2018-06-23T11:20:09Z</time>
      </trkpt>
      <trkpt lat="43.88871" lon="6.57064">
        <ele>1734.924</ele>
        <time>2018-06-23T11:20:14Z</time>
      </trkpt>
      <trkpt lat="43.88867" lon="6.57068">
        <ele>1735.573</ele>
        <time>2018-06-23T11:20:19Z</time>
      </trkpt>
      <trkpt lat="43.88862" lon="6.57071">
        <ele>1735.949</ele>
        <time>2018-06-23T11:20:23Z</time>
      </trkpt>
      <trkpt lat="43.88858" lon="6.57074">
        <ele>1736.998</ele>
        <time>2018-06-23T11:20:27Z</time>
      </trkpt>
      <trkpt lat="43.88854" lon="6.57079">
        <ele>1738.315</ele>
        <time>2018-06-23T11:20:32Z</time>
      </trkpt>
      <trkpt lat="43.88852" lon="6.57085">
        <ele>1738.426</ele>
        <time>2018-06-23T11:20:37Z</time>
      </trkpt>
      <trkpt lat="43.88849" lon="6.5709">
        <ele>1738.408</ele>
        <time>2018-06-23T11:20:42Z</time>
      </trkpt>
      <trkpt lat="43.88847" lon="6.57097">
        <ele>1738.451</ele>
        <time>2018-06-23T11:20:48Z</time>
      </trkpt>
      <trkpt lat="43.88844" lon="6.57103">
        <ele>1738.845</ele>
        <time>2018-06-23T11:20:52Z</time>
      </trkpt>
      <trkpt lat="43.88841" lon="6.57109">
        <ele>1738.619</ele>
        <time>2018-06-23T11:20:56Z</time>
      </trkpt>
      <trkpt lat="43.88838" lon="6.57115">
        <ele>1738.567</ele>
        <time>2018-06-23T11:21:01Z</time>
      </trkpt>
      <trkpt lat="43.88836" lon="6.57121">
        <ele>1738.027</ele>
        <time>2018-06-23T11:21:06Z</time>
      </trkpt>
      <trkpt lat="43.88834" lon="6.57127">
        <ele>1738.136</ele>
        <time>2018-06-23T11:21:11Z</time>
      </trkpt>
      <trkpt lat="43.88835" lon="6.57134">
        <ele>1737.025</ele>
        <time>2018-06-23T11:21:16Z</time>
      </trkpt>
      <trkpt lat="43.88837" lon="6.57141">
        <ele>1736.331</ele>
        <time>2018-06-23T11:21:21Z</time>
      </trkpt>
      <trkpt lat="43.88836" lon="6.57148">
        <ele>1734.747</ele>
        <time>2018-06-23T11:21:26Z</time>
      </trkpt>
      <trkpt lat="43.88833" lon="6.57154">
        <ele>1734.129</ele>
        <time>2018-06-23T11:21:31Z</time>
      </trkpt>
      <trkpt lat="43.88831" lon="6.57161">
        <ele>1733.821</ele>
        <time>2018-06-23T11:21:37Z</time>
      </trkpt>
      <trkpt lat="43.88828" lon="6.57167">
        <ele>1733.608</ele>
        <time>2018-06-23T11:21:43Z</time>
      </trkpt>
      <trkpt lat="43.88825" lon="6.57172">
        <ele>1733.576</ele>
        <time>2018-06-23T11:21:48Z</time>
      </trkpt>
      <trkpt lat="43.8882" lon="6.57176">
        <ele>1732.69</ele>
        <time>2018-06-23T11:21:53Z</time>
      </trkpt>
      <trkpt lat="43.88816" lon="6.57179">
        <ele>1732.134</ele>
        <time>2018-06-23T11:21:58Z</time>
      </trkpt>
      <trkpt lat="43.88812" lon="6.57182">
        <ele>1731.092</ele>
        <time>2018-06-23T11:22:03Z</time>
      </trkpt>
      <trkpt lat="43.88808" lon="6.57186">
        <ele>1730.332</ele>
        <time>2018-06-23T11:22:16Z</time>
      </trkpt>
      <trkpt lat="43.88803" lon="6.57189">
        <ele>1730.721</ele>
        <time>2018-06-23T11:22:21Z</time>
      </trkpt>
      <trkpt lat="43.88799" lon="6.57191">
        <ele>1730.96</ele>
        <time>2018-06-23T11:22:31Z</time>
      </trkpt>
      <trkpt lat="43.88795" lon="6.57197">
        <ele>1731.016</ele>
        <time>2018-06-23T11:22:38Z</time>
      </trkpt>
      <trkpt lat="43.88792" lon="6.57202">
        <ele>1731.195</ele>
        <time>2018-06-23T11:22:43Z</time>
      </trkpt>
      <trkpt lat="43.88789" lon="6.57208">
        <ele>1731.649</ele>
        <time>2018-06-23T11:22:47Z</time>
      </trkpt>
      <trkpt lat="43.88786" lon="6.57213">
        <ele>1731.523</ele>
        <time>2018-06-23T11:22:51Z</time>
      </trkpt>
      <trkpt lat="43.88782" lon="6.57217">
        <ele>1731.008</ele>
        <time>2018-06-23T11:22:55Z</time>
      </trkpt>
      <trkpt lat="43.88778" lon="6.57221">
        <ele>1730.781</ele>
        <time>2018-06-23T11:22:59Z</time>
      </trkpt>
      <trkpt lat="43.88773" lon="6.57225">
        <ele>1730.945</ele>
        <time>2018-06-23T11:23:04Z</time>
      </trkpt>
      <trkpt lat="43.88769" lon="6.57228">
        <ele>1731.469</ele>
        <time>2018-06-23T11:23:08Z</time>
      </trkpt>
      <trkpt lat="43.88765" lon="6.57232">
        <ele>1732.167</ele>
        <time>2018-06-23T11:23:12Z</time>
      </trkpt>
      <trkpt lat="43.88761" lon="6.57236">
        <ele>1732.137</ele>
        <time>2018-06-23T11:23:16Z</time>
      </trkpt>
      <trkpt lat="43.88757" lon="6.57239">
        <ele>1731.716</ele>
        <time>2018-06-23T11:23:20Z</time>
      </trkpt>
      <trkpt lat="43.88752" lon="6.57242">
        <ele>1731.135</ele>
        <time>2018-06-23T11:23:25Z</time>
      </trkpt>
      <trkpt lat="43.88747" lon="6.57246">
        <ele>1731.141</ele>
        <time>2018-06-23T11:23:30Z</time>
      </trkpt>
      <trkpt lat="43.88743" lon="6.5725">
        <ele>1731.198</ele>
        <time>2018-06-23T11:23:35Z</time>
      </trkpt>
      <trkpt lat="43.88739" lon="6.57254">
        <ele>1730.715</ele>
        <time>2018-06-23T11:23:39Z</time>
      </trkpt>
      <trkpt lat="43.88735" lon="6.57258">
        <ele>1730.126</ele>
        <time>2018-06-23T11:23:43Z</time>
      </trkpt>
      <trkpt lat="43.8873" lon="6.57261">
        <ele>1730.108</ele>
        <time>2018-06-23T11:23:48Z</time>
      </trkpt>
      <trkpt lat="43.88726" lon="6.57263">
        <ele>1731.371</ele>
        <time>2018-06-23T11:23:53Z</time>
      </trkpt>
      <trkpt lat="43.88722" lon="6.57266">
        <ele>1732.025</ele>
        <time>2018-06-23T11:23:58Z</time>
      </trkpt>
      <trkpt lat="43.88718" lon="6.57271">
        <ele>1732.449</ele>
        <time>2018-06-23T11:24:03Z</time>
      </trkpt>
      <trkpt lat="43.88716" lon="6.57278">
        <ele>1731.977</ele>
        <time>2018-06-23T11:24:08Z</time>
      </trkpt>
      <trkpt lat="43.88715" lon="6.57286">
        <ele>1731.667</ele>
        <time>2018-06-23T11:24:13Z</time>
      </trkpt>
      <trkpt lat="43.88712" lon="6.57292">
        <ele>1731.866</ele>
        <time>2018-06-23T11:24:17Z</time>
      </trkpt>
      <trkpt lat="43.88711" lon="6.57298">
        <ele>1732.345</ele>
        <time>2018-06-23T11:24:21Z</time>
      </trkpt>
      <trkpt lat="43.88709" lon="6.57304">
        <ele>1732.651</ele>
        <time>2018-06-23T11:24:25Z</time>
      </trkpt>
      <trkpt lat="43.88707" lon="6.57311">
        <ele>1732.052</ele>
        <time>2018-06-23T11:24:30Z</time>
      </trkpt>
      <trkpt lat="43.88704" lon="6.57318">
        <ele>1732.453</ele>
        <time>2018-06-23T11:24:35Z</time>
      </trkpt>
      <trkpt lat="43.88702" lon="6.57324">
        <ele>1733.108</ele>
        <time>2018-06-23T11:24:40Z</time>
      </trkpt>
      <trkpt lat="43.88699" lon="6.57329">
        <ele>1733.108</ele>
        <time>2018-06-23T11:24:46Z</time>
      </trkpt>
      <trkpt lat="43.88695" lon="6.57334">
        <ele>1733.127</ele>
        <time>2018-06-23T11:24:52Z</time>
      </trkpt>
      <trkpt lat="43.88692" lon="6.57338">
        <ele>1733.521</ele>
        <time>2018-06-23T11:24:57Z</time>
      </trkpt>
      <trkpt lat="43.88689" lon="6.57343">
        <ele>1734.535</ele>
        <time>2018-06-23T11:25:02Z</time>
      </trkpt>
      <trkpt lat="43.88685" lon="6.57348">
        <ele>1735.113</ele>
        <time>2018-06-23T11:25:07Z</time>
      </trkpt>
      <trkpt lat="43.88683" lon="6.57354">
        <ele>1735.953</ele>
        <time>2018-06-23T11:25:12Z</time>
      </trkpt>
      <trkpt lat="43.8868" lon="6.57359">
        <ele>1736.852</ele>
        <time>2018-06-23T11:25:18Z</time>
      </trkpt>
      <trkpt lat="43.88678" lon="6.57365">
        <ele>1738.181</ele>
        <time>2018-06-23T11:25:25Z</time>
      </trkpt>
      <trkpt lat="43.88676" lon="6.5737">
        <ele>1738.937</ele>
        <time>2018-06-23T11:25:31Z</time>
      </trkpt>
      <trkpt lat="43.88674" lon="6.57377">
        <ele>1739.435</ele>
        <time>2018-06-23T11:25:38Z</time>
      </trkpt>
      <trkpt lat="43.88673" lon="6.57383">
        <ele>1740.186</ele>
        <time>2018-06-23T11:25:45Z</time>
      </trkpt>
      <trkpt lat="43.8867" lon="6.57388">
        <ele>1740.514</ele>
        <time>2018-06-23T11:25:52Z</time>
      </trkpt>
      <trkpt lat="43.88667" lon="6.57394">
        <ele>1742.708</ele>
        <time>2018-06-23T11:26:35Z</time>
      </trkpt>
      <trkpt lat="43.88667" lon="6.57401">
        <ele>1744.435</ele>
        <time>2018-06-23T11:26:51Z</time>
      </trkpt>
      <trkpt lat="43.88667" lon="6.57408">
        <ele>1745.499</ele>
        <time>2018-06-23T11:26:57Z</time>
      </trkpt>
      <trkpt lat="43.88666" lon="6.57414">
        <ele>1746.083</ele>
        <time>2018-06-23T11:27:02Z</time>
      </trkpt>
      <trkpt lat="43.88666" lon="6.5742">
        <ele>1746.841</ele>
        <time>2018-06-23T11:27:08Z</time>
      </trkpt>
      <trkpt lat="43.88665" lon="6.57427">
        <ele>1747.721</ele>
        <time>2018-06-23T11:27:15Z</time>
      </trkpt>
      <trkpt lat="43.88663" lon="6.57433">
        <ele>1748.21</ele>
        <time>2018-06-23T11:27:23Z</time>
      </trkpt>
      <trkpt lat="43.88659" lon="6.57438">
        <ele>1748.939</ele>
        <time>2018-06-23T11:27:31Z</time>
      </trkpt>
      <trkpt lat="43.88655" lon="6.57441">
        <ele>1749.345</ele>
        <time>2018-06-23T11:27:38Z</time>
      </trkpt>
      <trkpt lat="43.88652" lon="6.57447">
        <ele>1749.614</ele>
        <time>2018-06-23T11:27:44Z</time>
      </trkpt>
      <trkpt lat="43.8865" lon="6.57453">
        <ele>1750.654</ele>
        <time>2018-06-23T11:27:52Z</time>
      </trkpt>
      <trkpt lat="43.88647" lon="6.57458">
        <ele>1751.209</ele>
        <time>2018-06-23T11:27:58Z</time>
      </trkpt>
      <trkpt lat="43.88645" lon="6.57465">
        <ele>1751.108</ele>
        <time>2018-06-23T11:28:04Z</time>
      </trkpt>
      <trkpt lat="43.88644" lon="6.57472">
        <ele>1751.973</ele>
        <time>2018-06-23T11:28:12Z</time>
      </trkpt>
      <trkpt lat="43.88642" lon="6.57477">
        <ele>1752.437</ele>
        <time>2018-06-23T11:28:19Z</time>
      </trkpt>
      <trkpt lat="43.88639" lon="6.57483">
        <ele>1751.991</ele>
        <time>2018-06-23T11:28:25Z</time>
      </trkpt>
      <trkpt lat="43.88636" lon="6.57488">
        <ele>1752.029</ele>
        <time>2018-06-23T11:28:30Z</time>
      </trkpt>
      <trkpt lat="43.88633" lon="6.57492">
        <ele>1752.569</ele>
        <time>2018-06-23T11:28:37Z</time>
      </trkpt>
      <trkpt lat="43.88629" lon="6.57496">
        <ele>1753.228</ele>
        <time>2018-06-23T11:28:43Z</time>
      </trkpt>
      <trkpt lat="43.88625" lon="6.57499">
        <ele>1754.447</ele>
        <time>2018-06-23T11:28:50Z</time>
      </trkpt>
      <trkpt lat="43.8862" lon="6.57501">
        <ele>1755.983</ele>
        <time>2018-06-23T11:28:56Z</time>
      </trkpt>
      <trkpt lat="43.88615" lon="6.57504">
        <ele>1758.032</ele>
        <time>2018-06-23T11:29:02Z</time>
      </trkpt>
      <trkpt lat="43.88611" lon="6.57505">
        <ele>1760.192</ele>
        <time>2018-06-23T11:29:09Z</time>
      </trkpt>
      <trkpt lat="43.88606" lon="6.57508">
        <ele>1761.311</ele>
        <time>2018-06-23T11:29:15Z</time>
      </trkpt>
      <trkpt lat="43.88602" lon="6.5751">
        <ele>1761.608</ele>
        <time>2018-06-23T11:29:22Z</time>
      </trkpt>
      <trkpt lat="43.88596" lon="6.57514">
        <ele>1761.015</ele>
        <time>2018-06-23T11:29:29Z</time>
      </trkpt>
      <trkpt lat="43.88593" lon="6.57519">
        <ele>1760.679</ele>
        <time>2018-06-23T11:29:35Z</time>
      </trkpt>
      <trkpt lat="43.88596" lon="6.57514">
        <ele>1762.463</ele>
        <time>2018-06-23T11:32:03Z</time>
      </trkpt>
      <trkpt lat="43.88601" lon="6.57513">
        <ele>1763.161</ele>
        <time>2018-06-23T11:32:15Z</time>
      </trkpt>
      <trkpt lat="43.88605" lon="6.57515">
        <ele>1763.581</ele>
        <time>2018-06-23T11:32:21Z</time>
      </trkpt>
      <trkpt lat="43.88601" lon="6.57513">
        <ele>1763.79</ele>
        <time>2018-06-23T11:32:42Z</time>
      </trkpt>
      <trkpt lat="43.88605" lon="6.5751">
        <ele>1763.029</ele>
        <time>2018-06-23T12:00:13Z</time>
      </trkpt>
      <trkpt lat="43.88609" lon="6.57507">
        <ele>1762.295</ele>
        <time>2018-06-23T12:00:21Z</time>
      </trkpt>
      <trkpt lat="43.88614" lon="6.57508">
        <ele>1762.185</ele>
        <time>2018-06-23T12:00:27Z</time>
      </trkpt>
      <trkpt lat="43.88619" lon="6.57508">
        <ele>1761.389</ele>
        <time>2018-06-23T12:00:32Z</time>
      </trkpt>
      <trkpt lat="43.88624" lon="6.57507">
        <ele>1760.817</ele>
        <time>2018-06-23T12:00:37Z</time>
      </trkpt>
      <trkpt lat="43.88629" lon="6.57504">
        <ele>1760.108</ele>
        <time>2018-06-23T12:00:42Z</time>
      </trkpt>
      <trkpt lat="43.88633" lon="6.57501">
        <ele>1759.32</ele>
        <time>2018-06-23T12:00:47Z</time>
      </trkpt>
      <trkpt lat="43.88637" lon="6.57497">
        <ele>1758.854</ele>
        <time>2018-06-23T12:00:51Z</time>
      </trkpt>
      <trkpt lat="43.88641" lon="6.57491">
        <ele>1758.168</ele>
        <time>2018-06-23T12:00:56Z</time>
      </trkpt>
      <trkpt lat="43.88643" lon="6.57485">
        <ele>1758.576</ele>
        <time>2018-06-23T12:01:00Z</time>
      </trkpt>
      <trkpt lat="43.88645" lon="6.57479">
        <ele>1758.376</ele>
        <time>2018-06-23T12:01:05Z</time>
      </trkpt>
      <trkpt lat="43.88647" lon="6.57472">
        <ele>1757.455</ele>
        <time>2018-06-23T12:01:10Z</time>
      </trkpt>
      <trkpt lat="43.88649" lon="6.57467">
        <ele>1756.134</ele>
        <time>2018-06-23T12:01:15Z</time>
      </trkpt>
      <trkpt lat="43.88652" lon="6.57462">
        <ele>1755.73</ele>
        <time>2018-06-23T12:01:21Z</time>
      </trkpt>
      <trkpt lat="43.88656" lon="6.57456">
        <ele>1755.117</ele>
        <time>2018-06-23T12:01:26Z</time>
      </trkpt>
      <trkpt lat="43.88658" lon="6.57449">
        <ele>1754.387</ele>
        <time>2018-06-23T12:01:32Z</time>
      </trkpt>
      <trkpt lat="43.8866" lon="6.57444">
        <ele>1753.415</ele>
        <time>2018-06-23T12:01:38Z</time>
      </trkpt>
      <trkpt lat="43.88661" lon="6.57437">
        <ele>1752.908</ele>
        <time>2018-06-23T12:01:44Z</time>
      </trkpt>
      <trkpt lat="43.8866" lon="6.5743">
        <ele>1753.473</ele>
        <time>2018-06-23T12:01:50Z</time>
      </trkpt>
      <trkpt lat="43.88662" lon="6.57423">
        <ele>1753.327</ele>
        <time>2018-06-23T12:01:56Z</time>
      </trkpt>
      <trkpt lat="43.88664" lon="6.57417">
        <ele>1752.891</ele>
        <time>2018-06-23T12:02:03Z</time>
      </trkpt>
      <trkpt lat="43.88667" lon="6.57411">
        <ele>1752.169</ele>
        <time>2018-06-23T12:02:10Z</time>
      </trkpt>
      <trkpt lat="43.88669" lon="6.57404">
        <ele>1751.339</ele>
        <time>2018-06-23T12:02:16Z</time>
      </trkpt>
      <trkpt lat="43.88669" lon="6.57398">
        <ele>1750.498</ele>
        <time>2018-06-23T12:02:22Z</time>
      </trkpt>
      <trkpt lat="43.88669" lon="6.57391">
        <ele>1749.157</ele>
        <time>2018-06-23T12:02:28Z</time>
      </trkpt>
      <trkpt lat="43.8867" lon="6.57385">
        <ele>1747.993</ele>
        <time>2018-06-23T12:02:33Z</time>
      </trkpt>
      <trkpt lat="43.88673" lon="6.57378">
        <ele>1746.864</ele>
        <time>2018-06-23T12:02:38Z</time>
      </trkpt>
      <trkpt lat="43.88676" lon="6.57374">
        <ele>1745.306</ele>
        <time>2018-06-23T12:02:42Z</time>
      </trkpt>
      <trkpt lat="43.88679" lon="6.57369">
        <ele>1744.416</ele>
        <time>2018-06-23T12:02:47Z</time>
      </trkpt>
      <trkpt lat="43.88682" lon="6.57364">
        <ele>1743.108</ele>
        <time>2018-06-23T12:02:51Z</time>
      </trkpt>
      <trkpt lat="43.88684" lon="6.57358">
        <ele>1741.548</ele>
        <time>2018-06-23T12:02:56Z</time>
      </trkpt>
      <trkpt lat="43.88686" lon="6.57351">
        <ele>1740.592</ele>
        <time>2018-06-23T12:03:01Z</time>
      </trkpt>
      <trkpt lat="43.88689" lon="6.57345">
        <ele>1739.996</ele>
        <time>2018-06-23T12:03:05Z</time>
      </trkpt>
      <trkpt lat="43.88692" lon="6.57339">
        <ele>1738.474</ele>
        <time>2018-06-23T12:03:10Z</time>
      </trkpt>
      <trkpt lat="43.88696" lon="6.57334">
        <ele>1737.584</ele>
        <time>2018-06-23T12:03:14Z</time>
      </trkpt>
      <trkpt lat="43.887" lon="6.57329">
        <ele>1736.983</ele>
        <time>2018-06-23T12:03:18Z</time>
      </trkpt>
      <trkpt lat="43.88703" lon="6.57323">
        <ele>1735.832</ele>
        <time>2018-06-23T12:03:23Z</time>
      </trkpt>
      <trkpt lat="43.88706" lon="6.57317">
        <ele>1734.338</ele>
        <time>2018-06-23T12:03:27Z</time>
      </trkpt>
      <trkpt lat="43.88708" lon="6.5731">
        <ele>1733.476</ele>
        <time>2018-06-23T12:03:31Z</time>
      </trkpt>
      <trkpt lat="43.88711" lon="6.57305">
        <ele>1733.39</ele>
        <time>2018-06-23T12:03:35Z</time>
      </trkpt>
      <trkpt lat="43.88714" lon="6.573">
        <ele>1733.219</ele>
        <time>2018-06-23T12:03:39Z</time>
      </trkpt>
      <trkpt lat="43.88717" lon="6.57295">
        <ele>1733.608</ele>
        <time>2018-06-23T12:03:42Z</time>
      </trkpt>
      <trkpt lat="43.88721" lon="6.5729">
        <ele>1733.879</ele>
        <time>2018-06-23T12:03:46Z</time>
      </trkpt>
      <trkpt lat="43.88724" lon="6.57284">
        <ele>1734.773</ele>
        <time>2018-06-23T12:03:50Z</time>
      </trkpt>
      <trkpt lat="43.88727" lon="6.57278">
        <ele>1735.367</ele>
        <time>2018-06-23T12:03:54Z</time>
      </trkpt>
      <trkpt lat="43.8873" lon="6.57272">
        <ele>1734.865</ele>
        <time>2018-06-23T12:03:59Z</time>
      </trkpt>
      <trkpt lat="43.88732" lon="6.57266">
        <ele>1734.145</ele>
        <time>2018-06-23T12:04:03Z</time>
      </trkpt>
      <trkpt lat="43.88735" lon="6.5726">
        <ele>1734.544</ele>
        <time>2018-06-23T12:04:07Z</time>
      </trkpt>
      <trkpt lat="43.88739" lon="6.57255">
        <ele>1734.793</ele>
        <time>2018-06-23T12:04:12Z</time>
      </trkpt>
      <trkpt lat="43.88743" lon="6.5725">
        <ele>1734.099</ele>
        <time>2018-06-23T12:04:16Z</time>
      </trkpt>
      <trkpt lat="43.88747" lon="6.57245">
        <ele>1734.012</ele>
        <time>2018-06-23T12:04:21Z</time>
      </trkpt>
      <trkpt lat="43.88751" lon="6.57241">
        <ele>1734.432</ele>
        <time>2018-06-23T12:04:24Z</time>
      </trkpt>
      <trkpt lat="43.88755" lon="6.57238">
        <ele>1734.205</ele>
        <time>2018-06-23T12:04:28Z</time>
      </trkpt>
      <trkpt lat="43.8876" lon="6.57234">
        <ele>1733.708</ele>
        <time>2018-06-23T12:04:33Z</time>
      </trkpt>
      <trkpt lat="43.88765" lon="6.57229">
        <ele>1733.423</ele>
        <time>2018-06-23T12:04:37Z</time>
      </trkpt>
      <trkpt lat="43.88769" lon="6.57226">
        <ele>1733.217</ele>
        <time>2018-06-23T12:04:41Z</time>
      </trkpt>
      <trkpt lat="43.88773" lon="6.57222">
        <ele>1733.511</ele>
        <time>2018-06-23T12:04:45Z</time>
      </trkpt>
      <trkpt lat="43.88777" lon="6.57218">
        <ele>1732.999</ele>
        <time>2018-06-23T12:04:49Z</time>
      </trkpt>
      <trkpt lat="43.88781" lon="6.57215">
        <ele>1733.399</ele>
        <time>2018-06-23T12:04:53Z</time>
      </trkpt>
      <trkpt lat="43.88786" lon="6.57212">
        <ele>1733.628</ele>
        <time>2018-06-23T12:04:57Z</time>
      </trkpt>
      <trkpt lat="43.8879" lon="6.57207">
        <ele>1733.887</ele>
        <time>2018-06-23T12:05:02Z</time>
      </trkpt>
      <trkpt lat="43.88795" lon="6.57203">
        <ele>1734.323</ele>
        <time>2018-06-23T12:05:06Z</time>
      </trkpt>
      <trkpt lat="43.88799" lon="6.57199">
        <ele>1735.035</ele>
        <time>2018-06-23T12:05:10Z</time>
      </trkpt>
      <trkpt lat="43.88803" lon="6.57195">
        <ele>1736.286</ele>
        <time>2018-06-23T12:05:14Z</time>
      </trkpt>
      <trkpt lat="43.88807" lon="6.57192">
        <ele>1737.314</ele>
        <time>2018-06-23T12:05:17Z</time>
      </trkpt>
      <trkpt lat="43.88812" lon="6.57188">
        <ele>1737.608</ele>
        <time>2018-06-23T12:05:21Z</time>
      </trkpt>
      <trkpt lat="43.88816" lon="6.57184">
        <ele>1737.875</ele>
        <time>2018-06-23T12:05:25Z</time>
      </trkpt>
      <trkpt lat="43.88819" lon="6.57179">
        <ele>1737.589</ele>
        <time>2018-06-23T12:05:30Z</time>
      </trkpt>
      <trkpt lat="43.88823" lon="6.57175">
        <ele>1737.313</ele>
        <time>2018-06-23T12:05:34Z</time>
      </trkpt>
      <trkpt lat="43.88827" lon="6.57171">
        <ele>1738.071</ele>
        <time>2018-06-23T12:05:38Z</time>
      </trkpt>
      <trkpt lat="43.88831" lon="6.57167">
        <ele>1738.451</ele>
        <time>2018-06-23T12:05:42Z</time>
      </trkpt>
      <trkpt lat="43.88835" lon="6.57163">
        <ele>1739.04</ele>
        <time>2018-06-23T12:05:47Z</time>
      </trkpt>
      <trkpt lat="43.88838" lon="6.57158">
        <ele>1739.019</ele>
        <time>2018-06-23T12:05:52Z</time>
      </trkpt>
      <trkpt lat="43.88841" lon="6.57152">
        <ele>1739.035</ele>
        <time>2018-06-23T12:05:57Z</time>
      </trkpt>
      <trkpt lat="43.88843" lon="6.57145">
        <ele>1738.287</ele>
        <time>2018-06-23T12:06:02Z</time>
      </trkpt>
      <trkpt lat="43.88844" lon="6.5714">
        <ele>1737.742</ele>
        <time>2018-06-23T12:06:06Z</time>
      </trkpt>
      <trkpt lat="43.88846" lon="6.57132">
        <ele>1736.626</ele>
        <time>2018-06-23T12:06:11Z</time>
      </trkpt>
      <trkpt lat="43.88847" lon="6.57125">
        <ele>1736.708</ele>
        <time>2018-06-23T12:06:15Z</time>
      </trkpt>
      <trkpt lat="43.88848" lon="6.57118">
        <ele>1736.41</ele>
        <time>2018-06-23T12:06:19Z</time>
      </trkpt>
      <trkpt lat="43.8885" lon="6.57112">
        <ele>1736.224</ele>
        <time>2018-06-23T12:06:23Z</time>
      </trkpt>
      <trkpt lat="43.88852" lon="6.57105">
        <ele>1735.778</ele>
        <time>2018-06-23T12:06:28Z</time>
      </trkpt>
      <trkpt lat="43.88853" lon="6.57097">
        <ele>1735.876</ele>
        <time>2018-06-23T12:06:33Z</time>
      </trkpt>
      <trkpt lat="43.88855" lon="6.5709">
        <ele>1735.936</ele>
        <time>2018-06-23T12:06:38Z</time>
      </trkpt>
      <trkpt lat="43.88856" lon="6.57083">
        <ele>1736.325</ele>
        <time>2018-06-23T12:06:42Z</time>
      </trkpt>
      <trkpt lat="43.88859" lon="6.57078">
        <ele>1736.214</ele>
        <time>2018-06-23T12:06:46Z</time>
      </trkpt>
      <trkpt lat="43.88864" lon="6.57074">
        <ele>1736.18</ele>
        <time>2018-06-23T12:06:50Z</time>
      </trkpt>
      <trkpt lat="43.88867" lon="6.57069">
        <ele>1736.084</ele>
        <time>2018-06-23T12:06:54Z</time>
      </trkpt>
      <trkpt lat="43.8887" lon="6.57065">
        <ele>1736.007</ele>
        <time>2018-06-23T12:06:57Z</time>
      </trkpt>
      <trkpt lat="43.88874" lon="6.57061">
        <ele>1735.217</ele>
        <time>2018-06-23T12:07:01Z</time>
      </trkpt>
      <trkpt lat="43.8888" lon="6.57058">
        <ele>1734.708</ele>
        <time>2018-06-23T12:07:06Z</time>
      </trkpt>
      <trkpt lat="43.88885" lon="6.57057">
        <ele>1734.41</ele>
        <time>2018-06-23T12:07:11Z</time>
      </trkpt>
      <trkpt lat="43.8889" lon="6.57058">
        <ele>1733.884</ele>
        <time>2018-06-23T12:07:16Z</time>
      </trkpt>
      <trkpt lat="43.88896" lon="6.5706">
        <ele>1733.538</ele>
        <time>2018-06-23T12:07:33Z</time>
      </trkpt>
      <trkpt lat="43.88901" lon="6.57061">
        <ele>1733.396</ele>
        <time>2018-06-23T12:07:47Z</time>
      </trkpt>
      <trkpt lat="43.88906" lon="6.5706">
        <ele>1733.676</ele>
        <time>2018-06-23T12:07:54Z</time>
      </trkpt>
      <trkpt lat="43.8891" lon="6.57056">
        <ele>1735.045</ele>
        <time>2018-06-23T12:08:02Z</time>
      </trkpt>
      <trkpt lat="43.88912" lon="6.5705">
        <ele>1736.674</ele>
        <time>2018-06-23T12:08:11Z</time>
      </trkpt>
      <trkpt lat="43.88915" lon="6.57045">
        <ele>1738.83</ele>
        <time>2018-06-23T12:08:21Z</time>
      </trkpt>
      <trkpt lat="43.88919" lon="6.5704">
        <ele>1740.193</ele>
        <time>2018-06-23T12:08:30Z</time>
      </trkpt>
      <trkpt lat="43.88922" lon="6.57035">
        <ele>1741.765</ele>
        <time>2018-06-23T12:08:43Z</time>
      </trkpt>
      <trkpt lat="43.88924" lon="6.5703">
        <ele>1742.621</ele>
        <time>2018-06-23T12:08:52Z</time>
      </trkpt>
      <trkpt lat="43.88929" lon="6.57029">
        <ele>1743.608</ele>
        <time>2018-06-23T12:09:01Z</time>
      </trkpt>
      <trkpt lat="43.88933" lon="6.57028">
        <ele>1743.871</ele>
        <time>2018-06-23T12:09:07Z</time>
      </trkpt>
      <trkpt lat="43.88938" lon="6.57029">
        <ele>1744.755</ele>
        <time>2018-06-23T12:09:12Z</time>
      </trkpt>
      <trkpt lat="43.88943" lon="6.5703">
        <ele>1745.639</ele>
        <time>2018-06-23T12:09:18Z</time>
      </trkpt>
      <trkpt lat="43.88948" lon="6.57029">
        <ele>1746.677</ele>
        <time>2018-06-23T12:09:24Z</time>
      </trkpt>
      <trkpt lat="43.88953" lon="6.57029">
        <ele>1748.067</ele>
        <time>2018-06-23T12:09:29Z</time>
      </trkpt>
      <trkpt lat="43.88957" lon="6.57029">
        <ele>1748.096</ele>
        <time>2018-06-23T12:09:34Z</time>
      </trkpt>
      <trkpt lat="43.88962" lon="6.57029">
        <ele>1748.415</ele>
        <time>2018-06-23T12:09:39Z</time>
      </trkpt>
      <trkpt lat="43.88967" lon="6.57028">
        <ele>1748.791</ele>
        <time>2018-06-23T12:09:44Z</time>
      </trkpt>
      <trkpt lat="43.88972" lon="6.57027">
        <ele>1749.736</ele>
        <time>2018-06-23T12:09:51Z</time>
      </trkpt>
      <trkpt lat="43.88977" lon="6.57026">
        <ele>1750.717</ele>
        <time>2018-06-23T12:09:57Z</time>
      </trkpt>
      <trkpt lat="43.88982" lon="6.57024">
        <ele>1751.718</ele>
        <time>2018-06-23T12:10:03Z</time>
      </trkpt>
      <trkpt lat="43.88986" lon="6.5702">
        <ele>1751.908</ele>
        <time>2018-06-23T12:10:19Z</time>
      </trkpt>
      <trkpt lat="43.8899" lon="6.57019">
        <ele>1752.085</ele>
        <time>2018-06-23T12:10:29Z</time>
      </trkpt>
      <trkpt lat="43.88995" lon="6.57018">
        <ele>1751.729</ele>
        <time>2018-06-23T12:10:44Z</time>
      </trkpt>
      <trkpt lat="43.89" lon="6.57016">
        <ele>1752.783</ele>
        <time>2018-06-23T12:10:56Z</time>
      </trkpt>
      <trkpt lat="43.89005" lon="6.57016">
        <ele>1752.521</ele>
        <time>2018-06-23T12:11:07Z</time>
      </trkpt>
      <trkpt lat="43.89009" lon="6.57018">
        <ele>1753.671</ele>
        <time>2018-06-23T12:11:27Z</time>
      </trkpt>
      <trkpt lat="43.89013" lon="6.5702">
        <ele>1753.89</ele>
        <time>2018-06-23T12:11:35Z</time>
      </trkpt>
      <trkpt lat="43.89019" lon="6.57019">
        <ele>1754.349</ele>
        <time>2018-06-23T12:11:40Z</time>
      </trkpt>
      <trkpt lat="43.89024" lon="6.57017">
        <ele>1754.655</ele>
        <time>2018-06-23T12:11:45Z</time>
      </trkpt>
      <trkpt lat="43.89028" lon="6.57013">
        <ele>1755.257</ele>
        <time>2018-06-23T12:11:50Z</time>
      </trkpt>
      <trkpt lat="43.89032" lon="6.57009">
        <ele>1756.4</ele>
        <time>2018-06-23T12:11:55Z</time>
      </trkpt>
      <trkpt lat="43.89035" lon="6.57004">
        <ele>1757.92</ele>
        <time>2018-06-23T12:12:02Z</time>
      </trkpt>
      <trkpt lat="43.89039" lon="6.56999">
        <ele>1759.208</ele>
        <time>2018-06-23T12:12:09Z</time>
      </trkpt>
      <trkpt lat="43.89041" lon="6.56993">
        <ele>1761.227</ele>
        <time>2018-06-23T12:12:17Z</time>
      </trkpt>
      <trkpt lat="43.89045" lon="6.56988">
        <ele>1762.011</ele>
        <time>2018-06-23T12:12:25Z</time>
      </trkpt>
      <trkpt lat="43.89049" lon="6.56983">
        <ele>1762.525</ele>
        <time>2018-06-23T12:12:31Z</time>
      </trkpt>
      <trkpt lat="43.89053" lon="6.56979">
        <ele>1762.883</ele>
        <time>2018-06-23T12:12:37Z</time>
      </trkpt>
      <trkpt lat="43.89058" lon="6.56979">
        <ele>1763.073</ele>
        <time>2018-06-23T12:12:42Z</time>
      </trkpt>
      <trkpt lat="43.89063" lon="6.56978">
        <ele>1762.772</ele>
        <time>2018-06-23T12:12:48Z</time>
      </trkpt>
      <trkpt lat="43.89067" lon="6.56976">
        <ele>1762.521</ele>
        <time>2018-06-23T12:12:53Z</time>
      </trkpt>
      <trkpt lat="43.89073" lon="6.56975">
        <ele>1762.037</ele>
        <time>2018-06-23T12:12:58Z</time>
      </trkpt>
      <trkpt lat="43.89077" lon="6.56972">
        <ele>1760.566</ele>
        <time>2018-06-23T12:13:07Z</time>
      </trkpt>
      <trkpt lat="43.89082" lon="6.56971">
        <ele>1759.229</ele>
        <time>2018-06-23T12:13:23Z</time>
      </trkpt>
      <trkpt lat="43.89087" lon="6.5697">
        <ele>1758.421</ele>
        <time>2018-06-23T12:13:32Z</time>
      </trkpt>
      <trkpt lat="43.89092" lon="6.56967">
        <ele>1757.508</ele>
        <time>2018-06-23T12:13:38Z</time>
      </trkpt>
      <trkpt lat="43.89096" lon="6.56963">
        <ele>1757.028</ele>
        <time>2018-06-23T12:13:44Z</time>
      </trkpt>
      <trkpt lat="43.89101" lon="6.5696">
        <ele>1756.742</ele>
        <time>2018-06-23T12:13:49Z</time>
      </trkpt>
      <trkpt lat="43.89106" lon="6.56958">
        <ele>1756.946</ele>
        <time>2018-06-23T12:13:55Z</time>
      </trkpt>
      <trkpt lat="43.8911" lon="6.56953">
        <ele>1757.424</ele>
        <time>2018-06-23T12:14:00Z</time>
      </trkpt>
      <trkpt lat="43.89114" lon="6.56949">
        <ele>1758.174</ele>
        <time>2018-06-23T12:14:05Z</time>
      </trkpt>
      <trkpt lat="43.89118" lon="6.56945">
        <ele>1758.153</ele>
        <time>2018-06-23T12:14:11Z</time>
      </trkpt>
      <trkpt lat="43.89123" lon="6.56943">
        <ele>1758.112</ele>
        <time>2018-06-23T12:14:16Z</time>
      </trkpt>
      <trkpt lat="43.89128" lon="6.56942">
        <ele>1757.748</ele>
        <time>2018-06-23T12:14:21Z</time>
      </trkpt>
      <trkpt lat="43.89133" lon="6.56942">
        <ele>1757.127</ele>
        <time>2018-06-23T12:14:26Z</time>
      </trkpt>
      <trkpt lat="43.89138" lon="6.5694">
        <ele>1756.768</ele>
        <time>2018-06-23T12:14:31Z</time>
      </trkpt>
      <trkpt lat="43.89143" lon="6.56938">
        <ele>1757.314</ele>
        <time>2018-06-23T12:14:36Z</time>
      </trkpt>
      <trkpt lat="43.89147" lon="6.56934">
        <ele>1756.808</ele>
        <time>2018-06-23T12:14:41Z</time>
      </trkpt>
      <trkpt lat="43.89152" lon="6.56932">
        <ele>1756.174</ele>
        <time>2018-06-23T12:14:47Z</time>
      </trkpt>
      <trkpt lat="43.89157" lon="6.56929">
        <ele>1755.778</ele>
        <time>2018-06-23T12:14:52Z</time>
      </trkpt>
      <trkpt lat="43.89161" lon="6.56926">
        <ele>1755.552</ele>
        <time>2018-06-23T12:14:57Z</time>
      </trkpt>
      <trkpt lat="43.89164" lon="6.56921">
        <ele>1755.89</ele>
        <time>2018-06-23T12:15:02Z</time>
      </trkpt>
      <trkpt lat="43.89167" lon="6.56915">
        <ele>1756.02</ele>
        <time>2018-06-23T12:15:09Z</time>
      </trkpt>
      <trkpt lat="43.89172" lon="6.56913">
        <ele>1756.199</ele>
        <time>2018-06-23T12:15:15Z</time>
      </trkpt>
      <trkpt lat="43.89176" lon="6.56909">
        <ele>1757.088</ele>
        <time>2018-06-23T12:15:25Z</time>
      </trkpt>
      <trkpt lat="43.89177" lon="6.56903">
        <ele>1756.724</ele>
        <time>2018-06-23T12:16:20Z</time>
      </trkpt>
      <trkpt lat="43.8918" lon="6.56897">
        <ele>1756.167</ele>
        <time>2018-06-23T12:16:26Z</time>
      </trkpt>
      <trkpt lat="43.89184" lon="6.56893">
        <ele>1757.081</ele>
        <time>2018-06-23T12:16:34Z</time>
      </trkpt>
      <trkpt lat="43.89188" lon="6.5689">
        <ele>1757.919</ele>
        <time>2018-06-23T12:16:38Z</time>
      </trkpt>
      <trkpt lat="43.89193" lon="6.56889">
        <ele>1758.408</ele>
        <time>2018-06-23T12:16:43Z</time>
      </trkpt>
      <trkpt lat="43.89198" lon="6.56888">
        <ele>1759.148</ele>
        <time>2018-06-23T12:16:49Z</time>
      </trkpt>
      <trkpt lat="43.89202" lon="6.56886">
        <ele>1759.532</ele>
        <time>2018-06-23T12:16:56Z</time>
      </trkpt>
      <trkpt lat="43.89207" lon="6.56884">
        <ele>1760.266</ele>
        <time>2018-06-23T12:17:04Z</time>
      </trkpt>
      <trkpt lat="43.89211" lon="6.56881">
        <ele>1760.224</ele>
        <time>2018-06-23T12:17:11Z</time>
      </trkpt>
      <trkpt lat="43.89214" lon="6.56877">
        <ele>1760.274</ele>
        <time>2018-06-23T12:17:17Z</time>
      </trkpt>
      <trkpt lat="43.89219" lon="6.56875">
        <ele>1760.693</ele>
        <time>2018-06-23T12:17:23Z</time>
      </trkpt>
      <trkpt lat="43.89224" lon="6.56873">
        <ele>1760.842</ele>
        <time>2018-06-23T12:17:29Z</time>
      </trkpt>
      <trkpt lat="43.89228" lon="6.56873">
        <ele>1760.598</ele>
        <time>2018-06-23T12:17:36Z</time>
      </trkpt>
      <trkpt lat="43.89233" lon="6.56874">
        <ele>1759.974</ele>
        <time>2018-06-23T12:17:44Z</time>
      </trkpt>
      <trkpt lat="43.89237" lon="6.56871">
        <ele>1759.256</ele>
        <time>2018-06-23T12:17:51Z</time>
      </trkpt>
      <trkpt lat="43.89242" lon="6.56868">
        <ele>1758.421</ele>
        <time>2018-06-23T12:17:58Z</time>
      </trkpt>
      <trkpt lat="43.89247" lon="6.56866">
        <ele>1758.308</ele>
        <time>2018-06-23T12:18:09Z</time>
      </trkpt>
      <trkpt lat="43.89251" lon="6.56863">
        <ele>1757.879</ele>
        <time>2018-06-23T12:18:14Z</time>
      </trkpt>
      <trkpt lat="43.89256" lon="6.56862">
        <ele>1758.323</ele>
        <time>2018-06-23T12:18:19Z</time>
      </trkpt>
      <trkpt lat="43.89262" lon="6.56862">
        <ele>1757.877</ele>
        <time>2018-06-23T12:18:25Z</time>
      </trkpt>
      <trkpt lat="43.89266" lon="6.56859">
        <ele>1757.535</ele>
        <time>2018-06-23T12:18:30Z</time>
      </trkpt>
      <trkpt lat="43.89271" lon="6.56855">
        <ele>1756.935</ele>
        <time>2018-06-23T12:18:37Z</time>
      </trkpt>
      <trkpt lat="43.89275" lon="6.56851">
        <ele>1756.254</ele>
        <time>2018-06-23T12:18:47Z</time>
      </trkpt>
      <trkpt lat="43.8928" lon="6.56851">
        <ele>1755.083</ele>
        <time>2018-06-23T12:18:55Z</time>
      </trkpt>
      <trkpt lat="43.89285" lon="6.56852">
        <ele>1754.339</ele>
        <time>2018-06-23T12:19:03Z</time>
      </trkpt>
      <trkpt lat="43.89289" lon="6.5685">
        <ele>1753.151</ele>
        <time>2018-06-23T12:19:15Z</time>
      </trkpt>
      <trkpt lat="43.89294" lon="6.56852">
        <ele>1751.601</ele>
        <time>2018-06-23T12:19:32Z</time>
      </trkpt>
      <trkpt lat="43.89299" lon="6.56854">
        <ele>1749.911</ele>
        <time>2018-06-23T12:19:42Z</time>
      </trkpt>
      <trkpt lat="43.89304" lon="6.56852">
        <ele>1748.908</ele>
        <time>2018-06-23T12:19:53Z</time>
      </trkpt>
      <trkpt lat="43.89308" lon="6.56851">
        <ele>1747.187</ele>
        <time>2018-06-23T12:20:03Z</time>
      </trkpt>
      <trkpt lat="43.89313" lon="6.56852">
        <ele>1744.851</ele>
        <time>2018-06-23T12:20:10Z</time>
      </trkpt>
      <trkpt lat="43.89318" lon="6.56851">
        <ele>1742.685</ele>
        <time>2018-06-23T12:20:17Z</time>
      </trkpt>
      <trkpt lat="43.89323" lon="6.5685">
        <ele>1740.513</ele>
        <time>2018-06-23T12:20:24Z</time>
      </trkpt>
      <trkpt lat="43.89327" lon="6.56847">
        <ele>1739.683</ele>
        <time>2018-06-23T12:20:31Z</time>
      </trkpt>
      <trkpt lat="43.89332" lon="6.56844">
        <ele>1739.522</ele>
        <time>2018-06-23T12:20:38Z</time>
      </trkpt>
      <trkpt lat="43.89336" lon="6.56842">
        <ele>1738.261</ele>
        <time>2018-06-23T12:21:30Z</time>
      </trkpt>
      <trkpt lat="43.89341" lon="6.56839">
        <ele>1736.637</ele>
        <time>2018-06-23T12:21:35Z</time>
      </trkpt>
      <trkpt lat="43.89346" lon="6.56836">
        <ele>1736.174</ele>
        <time>2018-06-23T12:21:39Z</time>
      </trkpt>
      <trkpt lat="43.8935" lon="6.56833">
        <ele>1735.456</ele>
        <time>2018-06-23T12:21:43Z</time>
      </trkpt>
      <trkpt lat="43.89354" lon="6.56829">
        <ele>1735.021</ele>
        <time>2018-06-23T12:21:47Z</time>
      </trkpt>
      <trkpt lat="43.89359" lon="6.56826">
        <ele>1734.308</ele>
        <time>2018-06-23T12:21:51Z</time>
      </trkpt>
      <trkpt lat="43.89363" lon="6.56823">
        <ele>1733.989</ele>
        <time>2018-06-23T12:21:56Z</time>
      </trkpt>
      <trkpt lat="43.89368" lon="6.5682">
        <ele>1733.783</ele>
        <time>2018-06-23T12:22:00Z</time>
      </trkpt>
      <trkpt lat="43.89373" lon="6.56816">
        <ele>1732.427</ele>
        <time>2018-06-23T12:22:05Z</time>
      </trkpt>
      <trkpt lat="43.89377" lon="6.56813">
        <ele>1730.875</ele>
        <time>2018-06-23T12:22:10Z</time>
      </trkpt>
      <trkpt lat="43.89382" lon="6.56811">
        <ele>1729.865</ele>
        <time>2018-06-23T12:22:14Z</time>
      </trkpt>
      <trkpt lat="43.89387" lon="6.56809">
        <ele>1728.854</ele>
        <time>2018-06-23T12:22:20Z</time>
      </trkpt>
      <trkpt lat="43.89391" lon="6.56807">
        <ele>1728.273</ele>
        <time>2018-06-23T12:22:25Z</time>
      </trkpt>
      <trkpt lat="43.89396" lon="6.56805">
        <ele>1727.079</ele>
        <time>2018-06-23T12:22:32Z</time>
      </trkpt>
      <trkpt lat="43.894" lon="6.56804">
        <ele>1725.555</ele>
        <time>2018-06-23T12:22:40Z</time>
      </trkpt>
      <trkpt lat="43.89405" lon="6.56803">
        <ele>1723.407</ele>
        <time>2018-06-23T12:22:49Z</time>
      </trkpt>
      <trkpt lat="43.8941" lon="6.56802">
        <ele>1721.717</ele>
        <time>2018-06-23T12:22:55Z</time>
      </trkpt>
      <trkpt lat="43.89415" lon="6.568">
        <ele>1720.308</ele>
        <time>2018-06-23T12:23:01Z</time>
      </trkpt>
      <trkpt lat="43.89419" lon="6.56796">
        <ele>1718.787</ele>
        <time>2018-06-23T12:23:10Z</time>
      </trkpt>
      <trkpt lat="43.89424" lon="6.56793">
        <ele>1716.191</ele>
        <time>2018-06-23T12:23:17Z</time>
      </trkpt>
      <trkpt lat="43.89429" lon="6.56791">
        <ele>1714.225</ele>
        <time>2018-06-23T12:23:23Z</time>
      </trkpt>
      <trkpt lat="43.89433" lon="6.56789">
        <ele>1713.083</ele>
        <time>2018-06-23T12:23:28Z</time>
      </trkpt>
      <trkpt lat="43.89437" lon="6.56787">
        <ele>1711.973</ele>
        <time>2018-06-23T12:23:35Z</time>
      </trkpt>
      <trkpt lat="43.89442" lon="6.56784">
        <ele>1710.472</ele>
        <time>2018-06-23T12:23:42Z</time>
      </trkpt>
      <trkpt lat="43.89446" lon="6.56781">
        <ele>1707.591</ele>
        <time>2018-06-23T12:23:50Z</time>
      </trkpt>
      <trkpt lat="43.89451" lon="6.56779">
        <ele>1705.497</ele>
        <time>2018-06-23T12:23:57Z</time>
      </trkpt>
      <trkpt lat="43.89455" lon="6.56776">
        <ele>1703.733</ele>
        <time>2018-06-23T12:24:03Z</time>
      </trkpt>
      <trkpt lat="43.8946" lon="6.56774">
        <ele>1702.723</ele>
        <time>2018-06-23T12:24:10Z</time>
      </trkpt>
      <trkpt lat="43.89464" lon="6.56772">
        <ele>1701.715</ele>
        <time>2018-06-23T12:24:16Z</time>
      </trkpt>
      <trkpt lat="43.89469" lon="6.56769">
        <ele>1699.908</ele>
        <time>2018-06-23T12:24:22Z</time>
      </trkpt>
      <trkpt lat="43.89473" lon="6.56765">
        <ele>1698.455</ele>
        <time>2018-06-23T12:24:29Z</time>
      </trkpt>
      <trkpt lat="43.89478" lon="6.56763">
        <ele>1697.199</ele>
        <time>2018-06-23T12:24:36Z</time>
      </trkpt>
      <trkpt lat="43.89482" lon="6.5676">
        <ele>1695.133</ele>
        <time>2018-06-23T12:24:45Z</time>
      </trkpt>
      <trkpt lat="43.89486" lon="6.56756">
        <ele>1693.511</ele>
        <time>2018-06-23T12:24:51Z</time>
      </trkpt>
      <trkpt lat="43.8949" lon="6.56752">
        <ele>1692.521</ele>
        <time>2018-06-23T12:24:57Z</time>
      </trkpt>
      <trkpt lat="43.89494" lon="6.56748">
        <ele>1691.58</ele>
        <time>2018-06-23T12:25:03Z</time>
      </trkpt>
      <trkpt lat="43.89498" lon="6.56746">
        <ele>1688.979</ele>
        <time>2018-06-23T12:25:09Z</time>
      </trkpt>
      <trkpt lat="43.89503" lon="6.56743">
        <ele>1687.415</ele>
        <time>2018-06-23T12:25:17Z</time>
      </trkpt>
      <trkpt lat="43.89507" lon="6.56739">
        <ele>1686.573</ele>
        <time>2018-06-23T12:25:24Z</time>
      </trkpt>
      <trkpt lat="43.89511" lon="6.56735">
        <ele>1684.385</ele>
        <time>2018-06-23T12:25:30Z</time>
      </trkpt>
      <trkpt lat="43.89516" lon="6.56732">
        <ele>1682.213</ele>
        <time>2018-06-23T12:25:36Z</time>
      </trkpt>
      <trkpt lat="43.8952" lon="6.56728">
        <ele>1680.108</ele>
        <time>2018-06-23T12:25:43Z</time>
      </trkpt>
      <trkpt lat="43.89524" lon="6.56724">
        <ele>1678.989</ele>
        <time>2018-06-23T12:25:49Z</time>
      </trkpt>
      <trkpt lat="43.89527" lon="6.56719">
        <ele>1678.663</ele>
        <time>2018-06-23T12:25:57Z</time>
      </trkpt>
      <trkpt lat="43.89531" lon="6.56714">
        <ele>1678.467</ele>
        <time>2018-06-23T12:26:03Z</time>
      </trkpt>
      <trkpt lat="43.89533" lon="6.56708">
        <ele>1678.365</ele>
        <time>2018-06-23T12:26:12Z</time>
      </trkpt>
      <trkpt lat="43.89534" lon="6.56701">
        <ele>1679.045</ele>
        <time>2018-06-23T12:26:18Z</time>
      </trkpt>
      <trkpt lat="43.89537" lon="6.56695">
        <ele>1678.294</ele>
        <time>2018-06-23T12:26:23Z</time>
      </trkpt>
      <trkpt lat="43.89539" lon="6.56689">
        <ele>1677.383</ele>
        <time>2018-06-23T12:26:28Z</time>
      </trkpt>
      <trkpt lat="43.89541" lon="6.56684">
        <ele>1677.229</ele>
        <time>2018-06-23T12:26:35Z</time>
      </trkpt>
      <trkpt lat="43.89545" lon="6.56681">
        <ele>1676.322</ele>
        <time>2018-06-23T12:26:43Z</time>
      </trkpt>
      <trkpt lat="43.89548" lon="6.56675">
        <ele>1676.662</ele>
        <time>2018-06-23T12:26:51Z</time>
      </trkpt>
      <trkpt lat="43.89549" lon="6.56669">
        <ele>1676.408</ele>
        <time>2018-06-23T12:26:56Z</time>
      </trkpt>
      <trkpt lat="43.89552" lon="6.56664">
        <ele>1675.108</ele>
        <time>2018-06-23T12:27:04Z</time>
      </trkpt>
      <trkpt lat="43.89556" lon="6.5666">
        <ele>1673.924</ele>
        <time>2018-06-23T12:27:10Z</time>
      </trkpt>
      <trkpt lat="43.89561" lon="6.56658">
        <ele>1673.298</ele>
        <time>2018-06-23T12:27:17Z</time>
      </trkpt>
      <trkpt lat="43.89566" lon="6.56657">
        <ele>1671.652</ele>
        <time>2018-06-23T12:27:24Z</time>
      </trkpt>
      <trkpt lat="43.89569" lon="6.56653">
        <ele>1669.81</ele>
        <time>2018-06-23T12:27:31Z</time>
      </trkpt>
      <trkpt lat="43.89573" lon="6.56648">
        <ele>1669.57</ele>
        <time>2018-06-23T12:27:37Z</time>
      </trkpt>
      <trkpt lat="43.89576" lon="6.56643">
        <ele>1668.519</ele>
        <time>2018-06-23T12:27:43Z</time>
      </trkpt>
      <trkpt lat="43.89579" lon="6.56638">
        <ele>1667.138</ele>
        <time>2018-06-23T12:27:48Z</time>
      </trkpt>
      <trkpt lat="43.89583" lon="6.56632">
        <ele>1665.114</ele>
        <time>2018-06-23T12:27:54Z</time>
      </trkpt>
      <trkpt lat="43.89586" lon="6.56627">
        <ele>1663.197</ele>
        <time>2018-06-23T12:28:00Z</time>
      </trkpt>
      <trkpt lat="43.89588" lon="6.56621">
        <ele>1661.523</ele>
        <time>2018-06-23T12:28:06Z</time>
      </trkpt>
      <trkpt lat="43.89591" lon="6.56616">
        <ele>1660.925</ele>
        <time>2018-06-23T12:28:12Z</time>
      </trkpt>
      <trkpt lat="43.89594" lon="6.56611">
        <ele>1660.208</ele>
        <time>2018-06-23T12:28:18Z</time>
      </trkpt>
      <trkpt lat="43.89598" lon="6.56607">
        <ele>1659.061</ele>
        <time>2018-06-23T12:28:24Z</time>
      </trkpt>
      <trkpt lat="43.89602" lon="6.56603">
        <ele>1659.555</ele>
        <time>2018-06-23T12:28:31Z</time>
      </trkpt>
      <trkpt lat="43.89606" lon="6.56601">
        <ele>1659.489</ele>
        <time>2018-06-23T12:28:39Z</time>
      </trkpt>
      <trkpt lat="43.8961" lon="6.56597">
        <ele>1658.917</ele>
        <time>2018-06-23T12:28:48Z</time>
      </trkpt>
      <trkpt lat="43.89614" lon="6.56593">
        <ele>1657.867</ele>
        <time>2018-06-23T12:28:54Z</time>
      </trkpt>
      <trkpt lat="43.89619" lon="6.5659">
        <ele>1656.786</ele>
        <time>2018-06-23T12:28:59Z</time>
      </trkpt>
      <trkpt lat="43.89623" lon="6.56586">
        <ele>1655.735</ele>
        <time>2018-06-23T12:29:05Z</time>
      </trkpt>
      <trkpt lat="43.89626" lon="6.56581">
        <ele>1654.351</ele>
        <time>2018-06-23T12:29:12Z</time>
      </trkpt>
      <trkpt lat="43.8963" lon="6.56577">
        <ele>1652.262</ele>
        <time>2018-06-23T12:29:20Z</time>
      </trkpt>
      <trkpt lat="43.89634" lon="6.56573">
        <ele>1649.483</ele>
        <time>2018-06-23T12:29:27Z</time>
      </trkpt>
      <trkpt lat="43.89636" lon="6.56567">
        <ele>1647.711</ele>
        <time>2018-06-23T12:29:32Z</time>
      </trkpt>
      <trkpt lat="43.89637" lon="6.56561">
        <ele>1647.108</ele>
        <time>2018-06-23T12:29:38Z</time>
      </trkpt>
      <trkpt lat="43.89639" lon="6.56555">
        <ele>1646.758</ele>
        <time>2018-06-23T12:29:45Z</time>
      </trkpt>
      <trkpt lat="43.89638" lon="6.56548">
        <ele>1648.112</ele>
        <time>2018-06-23T12:29:52Z</time>
      </trkpt>
      <trkpt lat="43.89637" lon="6.56541">
        <ele>1649.796</ele>
        <time>2018-06-23T12:29:59Z</time>
      </trkpt>
      <trkpt lat="43.89637" lon="6.56533">
        <ele>1650.774</ele>
        <time>2018-06-23T12:30:07Z</time>
      </trkpt>
      <trkpt lat="43.89638" lon="6.56526">
        <ele>1650.914</ele>
        <time>2018-06-23T12:30:14Z</time>
      </trkpt>
      <trkpt lat="43.8964" lon="6.56521">
        <ele>1649.813</ele>
        <time>2018-06-23T12:30:21Z</time>
      </trkpt>
      <trkpt lat="43.89644" lon="6.56517">
        <ele>1648.362</ele>
        <time>2018-06-23T12:30:27Z</time>
      </trkpt>
      <trkpt lat="43.89648" lon="6.56513">
        <ele>1646.688</ele>
        <time>2018-06-23T12:30:33Z</time>
      </trkpt>
      <trkpt lat="43.89651" lon="6.56509">
        <ele>1645.299</ele>
        <time>2018-06-23T12:30:40Z</time>
      </trkpt>
      <trkpt lat="43.89655" lon="6.56505">
        <ele>1644.007</ele>
        <time>2018-06-23T12:30:47Z</time>
      </trkpt>
      <trkpt lat="43.89659" lon="6.56501">
        <ele>1642.527</ele>
        <time>2018-06-23T12:30:53Z</time>
      </trkpt>
      <trkpt lat="43.89663" lon="6.56498">
        <ele>1641.208</ele>
        <time>2018-06-23T12:30:59Z</time>
      </trkpt>
      <trkpt lat="43.89668" lon="6.56495">
        <ele>1639.621</ele>
        <time>2018-06-23T12:31:05Z</time>
      </trkpt>
      <trkpt lat="43.89671" lon="6.5649">
        <ele>1639.025</ele>
        <time>2018-06-23T12:31:12Z</time>
      </trkpt>
      <trkpt lat="43.89674" lon="6.56485">
        <ele>1638.379</ele>
        <time>2018-06-23T12:31:21Z</time>
      </trkpt>
      <trkpt lat="43.89679" lon="6.56482">
        <ele>1637.517</ele>
        <time>2018-06-23T12:31:31Z</time>
      </trkpt>
      <trkpt lat="43.89683" lon="6.56483">
        <ele>1636.237</ele>
        <time>2018-06-23T12:31:39Z</time>
      </trkpt>
      <trkpt lat="43.89688" lon="6.5648">
        <ele>1635.086</ele>
        <time>2018-06-23T12:31:51Z</time>
      </trkpt>
      <trkpt lat="43.89692" lon="6.56475">
        <ele>1633.155</ele>
        <time>2018-06-23T12:31:57Z</time>
      </trkpt>
      <trkpt lat="43.89697" lon="6.56473">
        <ele>1631.281</ele>
        <time>2018-06-23T12:32:03Z</time>
      </trkpt>
      <trkpt lat="43.89702" lon="6.5647">
        <ele>1630.075</ele>
        <time>2018-06-23T12:32:09Z</time>
      </trkpt>
      <trkpt lat="43.89704" lon="6.56465">
        <ele>1628.928</ele>
        <time>2018-06-23T12:32:14Z</time>
      </trkpt>
      <trkpt lat="43.89708" lon="6.56459">
        <ele>1627.82</ele>
        <time>2018-06-23T12:32:20Z</time>
      </trkpt>
      <trkpt lat="43.89711" lon="6.56454">
        <ele>1626.808</ele>
        <time>2018-06-23T12:32:26Z</time>
      </trkpt>
      <trkpt lat="43.89714" lon="6.56448">
        <ele>1625.879</ele>
        <time>2018-06-23T12:32:32Z</time>
      </trkpt>
      <trkpt lat="43.89718" lon="6.56442">
        <ele>1624.023</ele>
        <time>2018-06-23T12:32:38Z</time>
      </trkpt>
      <trkpt lat="43.89721" lon="6.56436">
        <ele>1622.917</ele>
        <time>2018-06-23T12:32:44Z</time>
      </trkpt>
      <trkpt lat="43.89725" lon="6.5643">
        <ele>1621.815</ele>
        <time>2018-06-23T12:32:49Z</time>
      </trkpt>
      <trkpt lat="43.89728" lon="6.56425">
        <ele>1621.225</ele>
        <time>2018-06-23T12:32:53Z</time>
      </trkpt>
      <trkpt lat="43.89731" lon="6.5642">
        <ele>1620.464</ele>
        <time>2018-06-23T12:32:59Z</time>
      </trkpt>
      <trkpt lat="43.89735" lon="6.56416">
        <ele>1618.733</ele>
        <time>2018-06-23T12:33:06Z</time>
      </trkpt>
      <trkpt lat="43.89739" lon="6.56415">
        <ele>1617.759</ele>
        <time>2018-06-23T12:33:13Z</time>
      </trkpt>
      <trkpt lat="43.89745" lon="6.56416">
        <ele>1615.587</ele>
        <time>2018-06-23T12:33:21Z</time>
      </trkpt>
      <trkpt lat="43.89749" lon="6.56416">
        <ele>1613.442</ele>
        <time>2018-06-23T12:33:28Z</time>
      </trkpt>
      <trkpt lat="43.89754" lon="6.56414">
        <ele>1612.526</ele>
        <time>2018-06-23T12:33:37Z</time>
      </trkpt>
      <trkpt lat="43.89759" lon="6.56414">
        <ele>1610.408</ele>
        <time>2018-06-23T12:33:48Z</time>
      </trkpt>
      <trkpt lat="43.89763" lon="6.56414">
        <ele>1609.16</ele>
        <time>2018-06-23T12:33:59Z</time>
      </trkpt>
      <trkpt lat="43.89767" lon="6.56411">
        <ele>1607.914</ele>
        <time>2018-06-23T12:34:08Z</time>
      </trkpt>
      <trkpt lat="43.89772" lon="6.56409">
        <ele>1607.238</ele>
        <time>2018-06-23T12:34:18Z</time>
      </trkpt>
      <trkpt lat="43.89777" lon="6.56409">
        <ele>1604.426</ele>
        <time>2018-06-23T12:34:57Z</time>
      </trkpt>
      <trkpt lat="43.89781" lon="6.56406">
        <ele>1601.946</ele>
        <time>2018-06-23T12:35:05Z</time>
      </trkpt>
      <trkpt lat="43.89786" lon="6.56403">
        <ele>1600.065</ele>
        <time>2018-06-23T12:35:12Z</time>
      </trkpt>
      <trkpt lat="43.8979" lon="6.56403">
        <ele>1597.764</ele>
        <time>2018-06-23T12:35:18Z</time>
      </trkpt>
      <trkpt lat="43.89795" lon="6.56404">
        <ele>1595.53</ele>
        <time>2018-06-23T12:35:26Z</time>
      </trkpt>
      <trkpt lat="43.89799" lon="6.56407">
        <ele>1594.286</ele>
        <time>2018-06-23T12:35:41Z</time>
      </trkpt>
      <trkpt lat="43.89805" lon="6.56405">
        <ele>1593.06</ele>
        <time>2018-06-23T12:35:53Z</time>
      </trkpt>
      <trkpt lat="43.89811" lon="6.56404">
        <ele>1590.726</ele>
        <time>2018-06-23T12:36:11Z</time>
      </trkpt>
      <trkpt lat="43.89816" lon="6.56401">
        <ele>1588.108</ele>
        <time>2018-06-23T12:36:21Z</time>
      </trkpt>
      <trkpt lat="43.89821" lon="6.56402">
        <ele>1585.38</ele>
        <time>2018-06-23T12:36:34Z</time>
      </trkpt>
      <trkpt lat="43.89826" lon="6.564">
        <ele>1582.084</ele>
        <time>2018-06-23T12:36:48Z</time>
      </trkpt>
      <trkpt lat="43.8983" lon="6.56395">
        <ele>1581.278</ele>
        <time>2018-06-23T12:36:59Z</time>
      </trkpt>
      <trkpt lat="43.89835" lon="6.56392">
        <ele>1579.996</ele>
        <time>2018-06-23T12:37:10Z</time>
      </trkpt>
      <trkpt lat="43.8984" lon="6.56391">
        <ele>1578.786</ele>
        <time>2018-06-23T12:37:17Z</time>
      </trkpt>
      <trkpt lat="43.89845" lon="6.56391">
        <ele>1576.065</ele>
        <time>2018-06-23T12:37:41Z</time>
      </trkpt>
      <trkpt lat="43.89849" lon="6.56389">
        <ele>1573.694</ele>
        <time>2018-06-23T12:37:52Z</time>
      </trkpt>
      <trkpt lat="43.89853" lon="6.56385">
        <ele>1571.06</ele>
        <time>2018-06-23T12:38:02Z</time>
      </trkpt>
      <trkpt lat="43.89858" lon="6.56386">
        <ele>1568.254</ele>
        <time>2018-06-23T12:38:14Z</time>
      </trkpt>
      <trkpt lat="43.89863" lon="6.56384">
        <ele>1566.556</ele>
        <time>2018-06-23T12:38:21Z</time>
      </trkpt>
      <trkpt lat="43.89867" lon="6.56384">
        <ele>1563.911</ele>
        <time>2018-06-23T12:38:30Z</time>
      </trkpt>
      <trkpt lat="43.89872" lon="6.5638">
        <ele>1561.108</ele>
        <time>2018-06-23T12:38:39Z</time>
      </trkpt>
      <trkpt lat="43.89876" lon="6.5638">
        <ele>1558.637</ele>
        <time>2018-06-23T12:38:54Z</time>
      </trkpt>
      <trkpt lat="43.89881" lon="6.5638">
        <ele>1557.121</ele>
        <time>2018-06-23T12:39:01Z</time>
      </trkpt>
      <trkpt lat="43.89885" lon="6.56378">
        <ele>1554.655</ele>
        <time>2018-06-23T12:39:07Z</time>
      </trkpt>
      <trkpt lat="43.8989" lon="6.56376">
        <ele>1553.113</ele>
        <time>2018-06-23T12:39:12Z</time>
      </trkpt>
      <trkpt lat="43.89895" lon="6.56374">
        <ele>1551.473</ele>
        <time>2018-06-23T12:39:20Z</time>
      </trkpt>
      <trkpt lat="43.89899" lon="6.56374">
        <ele>1550.412</ele>
        <time>2018-06-23T12:39:30Z</time>
      </trkpt>
      <trkpt lat="43.89904" lon="6.56372">
        <ele>1549.041</ele>
        <time>2018-06-23T12:39:42Z</time>
      </trkpt>
      <trkpt lat="43.89909" lon="6.56372">
        <ele>1547.067</ele>
        <time>2018-06-23T12:39:55Z</time>
      </trkpt>
      <trkpt lat="43.89913" lon="6.56368">
        <ele>1545.478</ele>
        <time>2018-06-23T12:40:05Z</time>
      </trkpt>
      <trkpt lat="43.89918" lon="6.56365">
        <ele>1543.233</ele>
        <time>2018-06-23T12:40:14Z</time>
      </trkpt>
      <trkpt lat="43.89918" lon="6.56365">
        <ele>1543.226</ele>
        <time>2018-06-23T12:40:14Z</time>
      </trkpt>
      <trkpt lat="43.89922" lon="6.56363">
        <ele>1542.708</ele>
        <time>2018-06-23T12:40:19Z</time>
      </trkpt>
      <trkpt lat="43.89926" lon="6.56358">
        <ele>1540.899</ele>
        <time>2018-06-23T12:40:26Z</time>
      </trkpt>
      <trkpt lat="43.89929" lon="6.56354">
        <ele>1539.393</ele>
        <time>2018-06-23T12:40:34Z</time>
      </trkpt>
      <trkpt lat="43.89934" lon="6.56351">
        <ele>1538.067</ele>
        <time>2018-06-23T12:40:41Z</time>
      </trkpt>
      <trkpt lat="43.89938" lon="6.56351">
        <ele>1536.445</ele>
        <time>2018-06-23T12:40:53Z</time>
      </trkpt>
      <trkpt lat="43.89943" lon="6.56351">
        <ele>1534.245</ele>
        <time>2018-06-23T12:41:11Z</time>
      </trkpt>
      <trkpt lat="43.89947" lon="6.56348">
        <ele>1532.924</ele>
        <time>2018-06-23T12:41:21Z</time>
      </trkpt>
      <trkpt lat="43.89951" lon="6.56346">
        <ele>1530.963</ele>
        <time>2018-06-23T12:41:29Z</time>
      </trkpt>
      <trkpt lat="43.89956" lon="6.56345">
        <ele>1529.349</ele>
        <time>2018-06-23T12:41:38Z</time>
      </trkpt>
      <trkpt lat="43.89961" lon="6.56343">
        <ele>1527.179</ele>
        <time>2018-06-23T12:41:45Z</time>
      </trkpt>
      <trkpt lat="43.89965" lon="6.56341">
        <ele>1525.805</ele>
        <time>2018-06-23T12:41:50Z</time>
      </trkpt>
      <trkpt lat="43.89968" lon="6.56336">
        <ele>1524.625</ele>
        <time>2018-06-23T12:41:59Z</time>
      </trkpt>
      <trkpt lat="43.89972" lon="6.56332">
        <ele>1523.908</ele>
        <time>2018-06-23T12:42:05Z</time>
      </trkpt>
      <trkpt lat="43.89976" lon="6.56327">
        <ele>1523.139</ele>
        <time>2018-06-23T12:42:11Z</time>
      </trkpt>
      <trkpt lat="43.89979" lon="6.56322">
        <ele>1522.283</ele>
        <time>2018-06-23T12:42:17Z</time>
      </trkpt>
      <trkpt lat="43.89982" lon="6.56317">
        <ele>1521.327</ele>
        <time>2018-06-23T12:42:22Z</time>
      </trkpt>
      <trkpt lat="43.89986" lon="6.56313">
        <ele>1520.755</ele>
        <time>2018-06-23T12:42:28Z</time>
      </trkpt>
      <trkpt lat="43.89991" lon="6.5631">
        <ele>1520.495</ele>
        <time>2018-06-23T12:42:34Z</time>
      </trkpt>
      <trkpt lat="43.89995" lon="6.56308">
        <ele>1518.634</ele>
        <time>2018-06-23T12:42:40Z</time>
      </trkpt>
      <trkpt lat="43.9" lon="6.56304">
        <ele>1517.553</ele>
        <time>2018-06-23T12:42:47Z</time>
      </trkpt>
      <trkpt lat="43.90003" lon="6.563">
        <ele>1516.989</ele>
        <time>2018-06-23T12:42:52Z</time>
      </trkpt>
      <trkpt lat="43.90006" lon="6.56294">
        <ele>1516.575</ele>
        <time>2018-06-23T12:42:59Z</time>
      </trkpt>
      <trkpt lat="43.90009" lon="6.5629">
        <ele>1515.928</ele>
        <time>2018-06-23T12:43:05Z</time>
      </trkpt>
      <trkpt lat="43.90012" lon="6.56285">
        <ele>1514.72</ele>
        <time>2018-06-23T12:43:11Z</time>
      </trkpt>
      <trkpt lat="43.90017" lon="6.56281">
        <ele>1513.208</ele>
        <time>2018-06-23T12:43:17Z</time>
      </trkpt>
      <trkpt lat="43.90021" lon="6.56282">
        <ele>1512.329</ele>
        <time>2018-06-23T12:43:23Z</time>
      </trkpt>
      <trkpt lat="43.90026" lon="6.56282">
        <ele>1512.253</ele>
        <time>2018-06-23T12:43:31Z</time>
      </trkpt>
      <trkpt lat="43.90031" lon="6.56279">
        <ele>1511.727</ele>
        <time>2018-06-23T12:43:38Z</time>
      </trkpt>
      <trkpt lat="43.90036" lon="6.56278">
        <ele>1509.835</ele>
        <time>2018-06-23T12:43:45Z</time>
      </trkpt>
      <trkpt lat="43.9004" lon="6.56276">
        <ele>1508.315</ele>
        <time>2018-06-23T12:43:50Z</time>
      </trkpt>
      <trkpt lat="43.90044" lon="6.56272">
        <ele>1507.464</ele>
        <time>2018-06-23T12:43:56Z</time>
      </trkpt>
      <trkpt lat="43.90047" lon="6.56268">
        <ele>1506.093</ele>
        <time>2018-06-23T12:44:02Z</time>
      </trkpt>
      <trkpt lat="43.90052" lon="6.56265">
        <ele>1505.279</ele>
        <time>2018-06-23T12:44:08Z</time>
      </trkpt>
      <trkpt lat="43.90057" lon="6.56265">
        <ele>1503.915</ele>
        <time>2018-06-23T12:44:15Z</time>
      </trkpt>
      <trkpt lat="43.90062" lon="6.56266">
        <ele>1503.565</ele>
        <time>2018-06-23T12:44:22Z</time>
      </trkpt>
      <trkpt lat="43.90067" lon="6.56265">
        <ele>1501.311</ele>
        <time>2018-06-23T12:44:31Z</time>
      </trkpt>
      <trkpt lat="43.90072" lon="6.56265">
        <ele>1498.808</ele>
        <time>2018-06-23T12:44:40Z</time>
      </trkpt>
      <trkpt lat="43.90076" lon="6.56266">
        <ele>1497.753</ele>
        <time>2018-06-23T12:44:48Z</time>
      </trkpt>
      <trkpt lat="43.90081" lon="6.56267">
        <ele>1495.067</ele>
        <time>2018-06-23T12:44:57Z</time>
      </trkpt>
      <trkpt lat="43.90086" lon="6.56267">
        <ele>1493.471</ele>
        <time>2018-06-23T12:45:04Z</time>
      </trkpt>
      <trkpt lat="43.90091" lon="6.56265">
        <ele>1492.069</ele>
        <time>2018-06-23T12:45:12Z</time>
      </trkpt>
      <trkpt lat="43.90095" lon="6.56263">
        <ele>1490.049</ele>
        <time>2018-06-23T12:45:21Z</time>
      </trkpt>
      <trkpt lat="43.90099" lon="6.56259">
        <ele>1488.058</ele>
        <time>2018-06-23T12:45:28Z</time>
      </trkpt>
      <trkpt lat="43.90104" lon="6.56259">
        <ele>1486.087</ele>
        <time>2018-06-23T12:45:34Z</time>
      </trkpt>
      <trkpt lat="43.90109" lon="6.56258">
        <ele>1484.813</ele>
        <time>2018-06-23T12:45:41Z</time>
      </trkpt>
      <trkpt lat="43.90113" lon="6.56256">
        <ele>1484.139</ele>
        <time>2018-06-23T12:45:48Z</time>
      </trkpt>
      <trkpt lat="43.90118" lon="6.56255">
        <ele>1482.501</ele>
        <time>2018-06-23T12:45:55Z</time>
      </trkpt>
      <trkpt lat="43.90123" lon="6.56255">
        <ele>1480.321</ele>
        <time>2018-06-23T12:46:02Z</time>
      </trkpt>
      <trkpt lat="43.90128" lon="6.56253">
        <ele>1478.608</ele>
        <time>2018-06-23T12:46:09Z</time>
      </trkpt>
      <trkpt lat="43.90133" lon="6.56252">
        <ele>1476.825</ele>
        <time>2018-06-23T12:46:16Z</time>
      </trkpt>
      <trkpt lat="43.90138" lon="6.56252">
        <ele>1474.939</ele>
        <time>2018-06-23T12:46:23Z</time>
      </trkpt>
      <trkpt lat="43.90142" lon="6.56253">
        <ele>1472.663</ele>
        <time>2018-06-23T12:46:29Z</time>
      </trkpt>
      <trkpt lat="43.90147" lon="6.56252">
        <ele>1471.651</ele>
        <time>2018-06-23T12:46:36Z</time>
      </trkpt>
      <trkpt lat="43.90152" lon="6.56251">
        <ele>1470.291</ele>
        <time>2018-06-23T12:46:43Z</time>
      </trkpt>
      <trkpt lat="43.90157" lon="6.56248">
        <ele>1468.62</ele>
        <time>2018-06-23T12:46:50Z</time>
      </trkpt>
      <trkpt lat="43.9016" lon="6.56242">
        <ele>1467.229</ele>
        <time>2018-06-23T12:46:57Z</time>
      </trkpt>
      <trkpt lat="43.90163" lon="6.56237">
        <ele>1466.855</ele>
        <time>2018-06-23T12:47:03Z</time>
      </trkpt>
      <trkpt lat="43.90167" lon="6.56233">
        <ele>1466.538</ele>
        <time>2018-06-23T12:47:10Z</time>
      </trkpt>
      <trkpt lat="43.90172" lon="6.56231">
        <ele>1466.37</ele>
        <time>2018-06-23T12:47:18Z</time>
      </trkpt>
      <trkpt lat="43.90176" lon="6.56229">
        <ele>1464.217</ele>
        <time>2018-06-23T12:47:28Z</time>
      </trkpt>
      <trkpt lat="43.90179" lon="6.56224">
        <ele>1462.108</ele>
        <time>2018-06-23T12:47:33Z</time>
      </trkpt>
      <trkpt lat="43.90184" lon="6.56222">
        <ele>1460.575</ele>
        <time>2018-06-23T12:47:44Z</time>
      </trkpt>
      <trkpt lat="43.90187" lon="6.56218">
        <ele>1459.589</ele>
        <time>2018-06-23T12:47:50Z</time>
      </trkpt>
      <trkpt lat="43.90192" lon="6.56218">
        <ele>1457.333</ele>
        <time>2018-06-23T12:47:57Z</time>
      </trkpt>
      <trkpt lat="43.90197" lon="6.56218">
        <ele>1456.011</ele>
        <time>2018-06-23T12:48:06Z</time>
      </trkpt>
      <trkpt lat="43.90201" lon="6.56216">
        <ele>1454.041</ele>
        <time>2018-06-23T12:48:14Z</time>
      </trkpt>
      <trkpt lat="43.90205" lon="6.56213">
        <ele>1452.01</ele>
        <time>2018-06-23T12:48:20Z</time>
      </trkpt>
      <trkpt lat="43.9021" lon="6.56212">
        <ele>1450.439</ele>
        <time>2018-06-23T12:48:26Z</time>
      </trkpt>
      <trkpt lat="43.90214" lon="6.56209">
        <ele>1450.235</ele>
        <time>2018-06-23T12:48:36Z</time>
      </trkpt>
      <trkpt lat="43.90218" lon="6.56205">
        <ele>1448.951</ele>
        <time>2018-06-23T12:48:45Z</time>
      </trkpt>
      <trkpt lat="43.90223" lon="6.56202">
        <ele>1447.701</ele>
        <time>2018-06-23T12:48:52Z</time>
      </trkpt>
      <trkpt lat="43.90227" lon="6.56203">
        <ele>1446.211</ele>
        <time>2018-06-23T12:49:03Z</time>
      </trkpt>
      <trkpt lat="43.90232" lon="6.56203">
        <ele>1444.508</ele>
        <time>2018-06-23T12:49:17Z</time>
      </trkpt>
      <trkpt lat="43.90237" lon="6.56205">
        <ele>1442.737</ele>
        <time>2018-06-23T12:49:26Z</time>
      </trkpt>
      <trkpt lat="43.90241" lon="6.56203">
        <ele>1440.831</ele>
        <time>2018-06-23T12:49:34Z</time>
      </trkpt>
      <trkpt lat="43.90244" lon="6.56198">
        <ele>1440.115</ele>
        <time>2018-06-23T12:49:42Z</time>
      </trkpt>
      <trkpt lat="43.90249" lon="6.56197">
        <ele>1438.943</ele>
        <time>2018-06-23T12:49:51Z</time>
      </trkpt>
      <trkpt lat="43.90254" lon="6.562">
        <ele>1436.623</ele>
        <time>2018-06-23T12:49:58Z</time>
      </trkpt>
      <trkpt lat="43.90259" lon="6.56199">
        <ele>1435.682</ele>
        <time>2018-06-23T12:50:05Z</time>
      </trkpt>
      <trkpt lat="43.90263" lon="6.56197">
        <ele>1435.431</ele>
        <time>2018-06-23T12:50:12Z</time>
      </trkpt>
      <trkpt lat="43.90266" lon="6.56192">
        <ele>1434.947</ele>
        <time>2018-06-23T12:50:18Z</time>
      </trkpt>
      <trkpt lat="43.90268" lon="6.56187">
        <ele>1433.833</ele>
        <time>2018-06-23T12:51:55Z</time>
      </trkpt>
      <trkpt lat="43.90273" lon="6.56188">
        <ele>1432.723</ele>
        <time>2018-06-23T12:52:04Z</time>
      </trkpt>
      <trkpt lat="43.90277" lon="6.56187">
        <ele>1431.315</ele>
        <time>2018-06-23T12:52:11Z</time>
      </trkpt>
      <trkpt lat="43.90282" lon="6.5619">
        <ele>1431.208</ele>
        <time>2018-06-23T12:52:17Z</time>
      </trkpt>
      <trkpt lat="43.90287" lon="6.56189">
        <ele>1428.885</ele>
        <time>2018-06-23T12:52:23Z</time>
      </trkpt>
      <trkpt lat="43.90291" lon="6.56188">
        <ele>1426.939</ele>
        <time>2018-06-23T12:52:30Z</time>
      </trkpt>
      <trkpt lat="43.90295" lon="6.56184">
        <ele>1425.053</ele>
        <time>2018-06-23T12:52:39Z</time>
      </trkpt>
      <trkpt lat="43.90299" lon="6.5618">
        <ele>1423.461</ele>
        <time>2018-06-23T12:52:46Z</time>
      </trkpt>
      <trkpt lat="43.90303" lon="6.56177">
        <ele>1422.511</ele>
        <time>2018-06-23T12:52:51Z</time>
      </trkpt>
      <trkpt lat="43.90308" lon="6.56176">
        <ele>1421.95</ele>
        <time>2018-06-23T12:52:58Z</time>
      </trkpt>
      <trkpt lat="43.90313" lon="6.56177">
        <ele>1421.219</ele>
        <time>2018-06-23T12:53:06Z</time>
      </trkpt>
      <trkpt lat="43.90318" lon="6.56178">
        <ele>1419.635</ele>
        <time>2018-06-23T12:53:14Z</time>
      </trkpt>
      <trkpt lat="43.90323" lon="6.56178">
        <ele>1417.034</ele>
        <time>2018-06-23T12:53:21Z</time>
      </trkpt>
      <trkpt lat="43.90328" lon="6.56176">
        <ele>1414.255</ele>
        <time>2018-06-23T12:53:26Z</time>
      </trkpt>
      <trkpt lat="43.90332" lon="6.56173">
        <ele>1413.31</ele>
        <time>2018-06-23T12:53:32Z</time>
      </trkpt>
      <trkpt lat="43.90337" lon="6.5617">
        <ele>1411.208</ele>
        <time>2018-06-23T12:53:38Z</time>
      </trkpt>
      <trkpt lat="43.90341" lon="6.56166">
        <ele>1409.575</ele>
        <time>2018-06-23T12:53:44Z</time>
      </trkpt>
      <trkpt lat="43.90347" lon="6.56163">
        <ele>1408.919</ele>
        <time>2018-06-23T12:53:55Z</time>
      </trkpt>
      <trkpt lat="43.90352" lon="6.56163">
        <ele>1409.383</ele>
        <time>2018-06-23T12:54:01Z</time>
      </trkpt>
      <trkpt lat="43.90356" lon="6.56167">
        <ele>1408.441</ele>
        <time>2018-06-23T12:54:08Z</time>
      </trkpt>
      <trkpt lat="43.9036" lon="6.56165">
        <ele>1406.651</ele>
        <time>2018-06-23T12:54:17Z</time>
      </trkpt>
      <trkpt lat="43.90362" lon="6.56159">
        <ele>1403.93</ele>
        <time>2018-06-23T12:54:24Z</time>
      </trkpt>
      <trkpt lat="43.90367" lon="6.56156">
        <ele>1400.789</ele>
        <time>2018-06-23T12:54:32Z</time>
      </trkpt>
      <trkpt lat="43.90372" lon="6.56155">
        <ele>1398.875</ele>
        <time>2018-06-23T12:54:38Z</time>
      </trkpt>
      <trkpt lat="43.90376" lon="6.56152">
        <ele>1398.535</ele>
        <time>2018-06-23T12:54:43Z</time>
      </trkpt>
      <trkpt lat="43.90381" lon="6.5615">
        <ele>1398.386</ele>
        <time>2018-06-23T12:54:50Z</time>
      </trkpt>
      <trkpt lat="43.90386" lon="6.56147">
        <ele>1397.414</ele>
        <time>2018-06-23T12:54:57Z</time>
      </trkpt>
      <trkpt lat="43.9039" lon="6.56145">
        <ele>1396.008</ele>
        <time>2018-06-23T12:55:06Z</time>
      </trkpt>
      <trkpt lat="43.90395" lon="6.56144">
        <ele>1395.285</ele>
        <time>2018-06-23T12:55:12Z</time>
      </trkpt>
      <trkpt lat="43.90399" lon="6.56143">
        <ele>1394.339</ele>
        <time>2018-06-23T12:55:17Z</time>
      </trkpt>
      <trkpt lat="43.90404" lon="6.56142">
        <ele>1393.093</ele>
        <time>2018-06-23T12:55:22Z</time>
      </trkpt>
      <trkpt lat="43.90409" lon="6.56139">
        <ele>1390.691</ele>
        <time>2018-06-23T12:55:28Z</time>
      </trkpt>
      <trkpt lat="43.90414" lon="6.56141">
        <ele>1388.861</ele>
        <time>2018-06-23T12:55:33Z</time>
      </trkpt>
      <trkpt lat="43.90419" lon="6.56142">
        <ele>1388.17</ele>
        <time>2018-06-23T12:55:38Z</time>
      </trkpt>
      <trkpt lat="43.90424" lon="6.56144">
        <ele>1387.759</ele>
        <time>2018-06-23T12:55:43Z</time>
      </trkpt>
      <trkpt lat="43.90428" lon="6.56142">
        <ele>1387.425</ele>
        <time>2018-06-23T12:55:50Z</time>
      </trkpt>
      <trkpt lat="43.90431" lon="6.56137">
        <ele>1387.254</ele>
        <time>2018-06-23T12:55:55Z</time>
      </trkpt>
      <trkpt lat="43.90436" lon="6.56136">
        <ele>1384.756</ele>
        <time>2018-06-23T12:56:00Z</time>
      </trkpt>
      <trkpt lat="43.9044" lon="6.56135">
        <ele>1382.811</ele>
        <time>2018-06-23T12:56:05Z</time>
      </trkpt>
      <trkpt lat="43.90445" lon="6.56133">
        <ele>1381.308</ele>
        <time>2018-06-23T12:56:10Z</time>
      </trkpt>
      <trkpt lat="43.90448" lon="6.56128">
        <ele>1380.057</ele>
        <time>2018-06-23T12:56:17Z</time>
      </trkpt>
      <trkpt lat="43.90444" lon="6.56124">
        <ele>1379.291</ele>
        <time>2018-06-23T12:56:25Z</time>
      </trkpt>
      <trkpt lat="43.9044" lon="6.56121">
        <ele>1378.335</ele>
        <time>2018-06-23T12:56:32Z</time>
      </trkpt>
      <trkpt lat="43.90436" lon="6.56119">
        <ele>1379.423</ele>
        <time>2018-06-23T12:56:37Z</time>
      </trkpt>
      <trkpt lat="43.90431" lon="6.56117">
        <ele>1378.813</ele>
        <time>2018-06-23T12:56:42Z</time>
      </trkpt>
      <trkpt lat="43.90425" lon="6.56116">
        <ele>1377.782</ele>
        <time>2018-06-23T12:56:47Z</time>
      </trkpt>
      <trkpt lat="43.90421" lon="6.56115">
        <ele>1376.631</ele>
        <time>2018-06-23T12:56:52Z</time>
      </trkpt>
      <trkpt lat="43.90416" lon="6.56112">
        <ele>1376.487</ele>
        <time>2018-06-23T12:56:57Z</time>
      </trkpt>
      <trkpt lat="43.90411" lon="6.56108">
        <ele>1375.977</ele>
        <time>2018-06-23T12:57:02Z</time>
      </trkpt>
      <trkpt lat="43.90407" lon="6.56105">
        <ele>1375.661</ele>
        <time>2018-06-23T12:57:06Z</time>
      </trkpt>
      <trkpt lat="43.90401" lon="6.56103">
        <ele>1374.627</ele>
        <time>2018-06-23T12:57:11Z</time>
      </trkpt>
      <trkpt lat="43.90397" lon="6.56101">
        <ele>1372.808</ele>
        <time>2018-06-23T12:57:18Z</time>
      </trkpt>
      <trkpt lat="43.90392" lon="6.56101">
        <ele>1372.559</ele>
        <time>2018-06-23T12:57:25Z</time>
      </trkpt>
      <trkpt lat="43.90388" lon="6.56102">
        <ele>1373.113</ele>
        <time>2018-06-23T12:57:31Z</time>
      </trkpt>
      <trkpt lat="43.90383" lon="6.56103">
        <ele>1372.727</ele>
        <time>2018-06-23T12:57:37Z</time>
      </trkpt>
      <trkpt lat="43.90378" lon="6.56103">
        <ele>1372.815</ele>
        <time>2018-06-23T12:57:41Z</time>
      </trkpt>
      <trkpt lat="43.90371" lon="6.56102">
        <ele>1373.765</ele>
        <time>2018-06-23T12:57:46Z</time>
      </trkpt>
      <trkpt lat="43.90366" lon="6.56101">
        <ele>1374.284</ele>
        <time>2018-06-23T12:57:50Z</time>
      </trkpt>
      <trkpt lat="43.90361" lon="6.56101">
        <ele>1375.723</ele>
        <time>2018-06-23T12:57:55Z</time>
      </trkpt>
      <trkpt lat="43.90357" lon="6.56098">
        <ele>1378.269</ele>
        <time>2018-06-23T12:57:58Z</time>
      </trkpt>
      <trkpt lat="43.90352" lon="6.56094">
        <ele>1379.725</ele>
        <time>2018-06-23T12:58:01Z</time>
      </trkpt>
      <trkpt lat="43.90348" lon="6.56092">
        <ele>1381.026</ele>
        <time>2018-06-23T12:58:04Z</time>
      </trkpt>
      <trkpt lat="43.90343" lon="6.5609">
        <ele>1380.608</ele>
        <time>2018-06-23T12:58:07Z</time>
      </trkpt>
      <trkpt lat="43.90338" lon="6.56089">
        <ele>1380.708</ele>
        <time>2018-06-23T12:58:13Z</time>
      </trkpt>
      <trkpt lat="43.90333" lon="6.56089">
        <ele>1379.664</ele>
        <time>2018-06-23T12:58:18Z</time>
      </trkpt>
      <trkpt lat="43.90328" lon="6.56088">
        <ele>1379.318</ele>
        <time>2018-06-23T12:58:22Z</time>
      </trkpt>
      <trkpt lat="43.90324" lon="6.56089">
        <ele>1380.382</ele>
        <time>2018-06-23T12:58:28Z</time>
      </trkpt>
      <trkpt lat="43.90319" lon="6.56087">
        <ele>1381.71</ele>
        <time>2018-06-23T12:58:33Z</time>
      </trkpt>
      <trkpt lat="43.90314" lon="6.56082">
        <ele>1382.25</ele>
        <time>2018-06-23T12:58:37Z</time>
      </trkpt>
      <trkpt lat="43.9031" lon="6.5608">
        <ele>1381.719</ele>
        <time>2018-06-23T12:58:41Z</time>
      </trkpt>
      <trkpt lat="43.90305" lon="6.56079">
        <ele>1381.828</ele>
        <time>2018-06-23T12:58:48Z</time>
      </trkpt>
      <trkpt lat="43.90301" lon="6.56078">
        <ele>1381.994</ele>
        <time>2018-06-23T12:58:55Z</time>
      </trkpt>
      <trkpt lat="43.90296" lon="6.56078">
        <ele>1381.949</ele>
        <time>2018-06-23T12:59:00Z</time>
      </trkpt>
      <trkpt lat="43.90292" lon="6.56077">
        <ele>1382.702</ele>
        <time>2018-06-23T12:59:04Z</time>
      </trkpt>
      <trkpt lat="43.90286" lon="6.56075">
        <ele>1383.222</ele>
        <time>2018-06-23T12:59:08Z</time>
      </trkpt>
      <trkpt lat="43.90282" lon="6.56072">
        <ele>1381.908</ele>
        <time>2018-06-23T12:59:12Z</time>
      </trkpt>
      <trkpt lat="43.90277" lon="6.56069">
        <ele>1380.326</ele>
        <time>2018-06-23T12:59:16Z</time>
      </trkpt>
      <trkpt lat="43.90273" lon="6.56066">
        <ele>1378.61</ele>
        <time>2018-06-23T12:59:20Z</time>
      </trkpt>
      <trkpt lat="43.90268" lon="6.56065">
        <ele>1378.054</ele>
        <time>2018-06-23T12:59:24Z</time>
      </trkpt>
      <trkpt lat="43.90263" lon="6.56064">
        <ele>1377.612</ele>
        <time>2018-06-23T12:59:28Z</time>
      </trkpt>
      <trkpt lat="43.90257" lon="6.56065">
        <ele>1376.292</ele>
        <time>2018-06-23T12:59:34Z</time>
      </trkpt>
      <trkpt lat="43.90253" lon="6.56064">
        <ele>1374.581</ele>
        <time>2018-06-23T12:59:39Z</time>
      </trkpt>
      <trkpt lat="43.90248" lon="6.56063">
        <ele>1373.95</ele>
        <time>2018-06-23T12:59:43Z</time>
      </trkpt>
      <trkpt lat="43.90243" lon="6.5606">
        <ele>1374.726</ele>
        <time>2018-06-23T12:59:47Z</time>
      </trkpt>
      <trkpt lat="43.90238" lon="6.56057">
        <ele>1374.029</ele>
        <time>2018-06-23T12:59:51Z</time>
      </trkpt>
      <trkpt lat="43.90233" lon="6.56056">
        <ele>1374</ele>
        <time>2018-06-23T12:59:56Z</time>
      </trkpt>
      <trkpt lat="43.90227" lon="6.56053">
        <ele>1373.22</ele>
        <time>2018-06-23T13:00:00Z</time>
      </trkpt>
      <trkpt lat="43.90222" lon="6.56051">
        <ele>1372.708</ele>
        <time>2018-06-23T13:00:05Z</time>
      </trkpt>
      <trkpt lat="43.90218" lon="6.56049">
        <ele>1372.074</ele>
        <time>2018-06-23T13:00:09Z</time>
      </trkpt>
      <trkpt lat="43.90213" lon="6.56048">
        <ele>1371.218</ele>
        <time>2018-06-23T13:00:14Z</time>
      </trkpt>
      <trkpt lat="43.90209" lon="6.56047">
        <ele>1370.372</ele>
        <time>2018-06-23T13:00:19Z</time>
      </trkpt>
      <trkpt lat="43.90204" lon="6.56044">
        <ele>1369.86</ele>
        <time>2018-06-23T13:00:23Z</time>
      </trkpt>
      <trkpt lat="43.902" lon="6.56041">
        <ele>1369.91</ele>
        <time>2018-06-23T13:00:27Z</time>
      </trkpt>
      <trkpt lat="43.90197" lon="6.56037">
        <ele>1369.539</ele>
        <time>2018-06-23T13:00:30Z</time>
      </trkpt>
      <trkpt lat="43.90192" lon="6.56033">
        <ele>1370.158</ele>
        <time>2018-06-23T13:00:34Z</time>
      </trkpt>
      <trkpt lat="43.90188" lon="6.56031">
        <ele>1370.994</ele>
        <time>2018-06-23T13:00:38Z</time>
      </trkpt>
      <trkpt lat="43.90183" lon="6.5603">
        <ele>1371.435</ele>
        <time>2018-06-23T13:00:42Z</time>
      </trkpt>
      <trkpt lat="43.90178" lon="6.56029">
        <ele>1370.586</ele>
        <time>2018-06-23T13:00:47Z</time>
      </trkpt>
      <trkpt lat="43.90174" lon="6.56026">
        <ele>1371.114</ele>
        <time>2018-06-23T13:00:51Z</time>
      </trkpt>
      <trkpt lat="43.90169" lon="6.56022">
        <ele>1371.908</ele>
        <time>2018-06-23T13:00:55Z</time>
      </trkpt>
      <trkpt lat="43.90165" lon="6.56018">
        <ele>1372.835</ele>
        <time>2018-06-23T13:00:59Z</time>
      </trkpt>
      <trkpt lat="43.90162" lon="6.56015">
        <ele>1371.759</ele>
        <time>2018-06-23T13:01:03Z</time>
      </trkpt>
      <trkpt lat="43.90157" lon="6.56012">
        <ele>1372.323</ele>
        <time>2018-06-23T13:01:10Z</time>
      </trkpt>
      <trkpt lat="43.90152" lon="6.5601">
        <ele>1374.251</ele>
        <time>2018-06-23T13:01:15Z</time>
      </trkpt>
      <trkpt lat="43.90147" lon="6.56008">
        <ele>1375.441</ele>
        <time>2018-06-23T13:01:19Z</time>
      </trkpt>
      <trkpt lat="43.90142" lon="6.56007">
        <ele>1376.59</ele>
        <time>2018-06-23T13:01:23Z</time>
      </trkpt>
      <trkpt lat="43.90136" lon="6.56006">
        <ele>1377.269</ele>
        <time>2018-06-23T13:01:28Z</time>
      </trkpt>
      <trkpt lat="43.90131" lon="6.56003">
        <ele>1377.245</ele>
        <time>2018-06-23T13:01:33Z</time>
      </trkpt>
      <trkpt lat="43.90127" lon="6.56001">
        <ele>1377.263</ele>
        <time>2018-06-23T13:01:37Z</time>
      </trkpt>
      <trkpt lat="43.90122" lon="6.56">
        <ele>1376.844</ele>
        <time>2018-06-23T13:01:46Z</time>
      </trkpt>
      <trkpt lat="43.90117" lon="6.56">
        <ele>1377.018</ele>
        <time>2018-06-23T13:01:53Z</time>
      </trkpt>
      <trkpt lat="43.90112" lon="6.55999">
        <ele>1377.108</ele>
        <time>2018-06-23T13:01:58Z</time>
      </trkpt>
      <trkpt lat="43.90106" lon="6.55998">
        <ele>1376.848</ele>
        <time>2018-06-23T13:02:03Z</time>
      </trkpt>
      <trkpt lat="43.90102" lon="6.55996">
        <ele>1376.252</ele>
        <time>2018-06-23T13:02:07Z</time>
      </trkpt>
      <trkpt lat="43.90097" lon="6.55992">
        <ele>1376.256</ele>
        <time>2018-06-23T13:02:12Z</time>
      </trkpt>
      <trkpt lat="43.90093" lon="6.5599">
        <ele>1375.814</ele>
        <time>2018-06-23T13:02:16Z</time>
      </trkpt>
      <trkpt lat="43.90088" lon="6.55987">
        <ele>1377.264</ele>
        <time>2018-06-23T13:02:21Z</time>
      </trkpt>
      <trkpt lat="43.90083" lon="6.55983">
        <ele>1379.263</ele>
        <time>2018-06-23T13:02:26Z</time>
      </trkpt>
      <trkpt lat="43.90078" lon="6.55981">
        <ele>1380.492</ele>
        <time>2018-06-23T13:02:31Z</time>
      </trkpt>
      <trkpt lat="43.90073" lon="6.5598">
        <ele>1380.358</ele>
        <time>2018-06-23T13:02:35Z</time>
      </trkpt>
      <trkpt lat="43.90068" lon="6.55979">
        <ele>1380.727</ele>
        <time>2018-06-23T13:02:39Z</time>
      </trkpt>
      <trkpt lat="43.90063" lon="6.55979">
        <ele>1381.368</ele>
        <time>2018-06-23T13:02:43Z</time>
      </trkpt>
      <trkpt lat="43.90058" lon="6.55979">
        <ele>1380.114</ele>
        <time>2018-06-23T13:02:50Z</time>
      </trkpt>
      <trkpt lat="43.90053" lon="6.55979">
        <ele>1379.808</ele>
        <time>2018-06-23T13:02:55Z</time>
      </trkpt>
      <trkpt lat="43.90048" lon="6.55979">
        <ele>1379.654</ele>
        <time>2018-06-23T13:02:58Z</time>
      </trkpt>
      <trkpt lat="43.90044" lon="6.55977">
        <ele>1378.748</ele>
        <time>2018-06-23T13:03:01Z</time>
      </trkpt>
      <trkpt lat="43.90038" lon="6.55976">
        <ele>1378.142</ele>
        <time>2018-06-23T13:03:05Z</time>
      </trkpt>
      <trkpt lat="43.90034" lon="6.55975">
        <ele>1378.62</ele>
        <time>2018-06-23T13:03:09Z</time>
      </trkpt>
      <trkpt lat="43.90028" lon="6.55974">
        <ele>1378.53</ele>
        <time>2018-06-23T13:03:15Z</time>
      </trkpt>
      <trkpt lat="43.90023" lon="6.55975">
        <ele>1377.229</ele>
        <time>2018-06-23T13:03:20Z</time>
      </trkpt>
      <trkpt lat="43.90019" lon="6.55973">
        <ele>1376.878</ele>
        <time>2018-06-23T13:03:24Z</time>
      </trkpt>
      <trkpt lat="43.90013" lon="6.55972">
        <ele>1376.214</ele>
        <time>2018-06-23T13:03:29Z</time>
      </trkpt>
      <trkpt lat="43.90009" lon="6.5597">
        <ele>1375.463</ele>
        <time>2018-06-23T13:03:34Z</time>
      </trkpt>
      <trkpt lat="43.90004" lon="6.55968">
        <ele>1374.944</ele>
        <time>2018-06-23T13:03:39Z</time>
      </trkpt>
      <trkpt lat="43.9" lon="6.55967">
        <ele>1374.218</ele>
        <time>2018-06-23T13:03:43Z</time>
      </trkpt>
      <trkpt lat="43.89995" lon="6.55965">
        <ele>1373.808</ele>
        <time>2018-06-23T13:03:47Z</time>
      </trkpt>
      <trkpt lat="43.8999" lon="6.55964">
        <ele>1374.888</ele>
        <time>2018-06-23T13:03:51Z</time>
      </trkpt>
      <trkpt lat="43.89986" lon="6.5596">
        <ele>1375.892</ele>
        <time>2018-06-23T13:03:55Z</time>
      </trkpt>
      <trkpt lat="43.89982" lon="6.55957">
        <ele>1376.026</ele>
        <time>2018-06-23T13:03:58Z</time>
      </trkpt>
      <trkpt lat="43.89978" lon="6.55956">
        <ele>1376.144</ele>
        <time>2018-06-23T13:04:01Z</time>
      </trkpt>
      <trkpt lat="43.89973" lon="6.55955">
        <ele>1375.844</ele>
        <time>2018-06-23T13:04:05Z</time>
      </trkpt>
      <trkpt lat="43.89968" lon="6.55955">
        <ele>1376.043</ele>
        <time>2018-06-23T13:04:11Z</time>
      </trkpt>
      <trkpt lat="43.89963" lon="6.55953">
        <ele>1375.762</ele>
        <time>2018-06-23T13:04:16Z</time>
      </trkpt>
      <trkpt lat="43.89958" lon="6.55949">
        <ele>1375.548</ele>
        <time>2018-06-23T13:04:21Z</time>
      </trkpt>
      <trkpt lat="43.89954" lon="6.55947">
        <ele>1376.224</ele>
        <time>2018-06-23T13:04:25Z</time>
      </trkpt>
      <trkpt lat="43.89949" lon="6.55946">
        <ele>1376.604</ele>
        <time>2018-06-23T13:04:30Z</time>
      </trkpt>
      <trkpt lat="43.89944" lon="6.55948">
        <ele>1376.114</ele>
        <time>2018-06-23T13:04:37Z</time>
      </trkpt>
      <trkpt lat="43.89939" lon="6.55949">
        <ele>1379.008</ele>
        <time>2018-06-23T13:04:44Z</time>
      </trkpt>
      <trkpt lat="43.89935" lon="6.5595">
        <ele>1381.164</ele>
        <time>2018-06-23T13:04:48Z</time>
      </trkpt>
      <trkpt lat="43.8993" lon="6.55948">
        <ele>1382.818</ele>
        <time>2018-06-23T13:04:52Z</time>
      </trkpt>
      <trkpt lat="43.89925" lon="6.55945">
        <ele>1384.272</ele>
        <time>2018-06-23T13:04:56Z</time>
      </trkpt>
      <trkpt lat="43.8992" lon="6.55941">
        <ele>1385.44</ele>
        <time>2018-06-23T13:05:00Z</time>
      </trkpt>
      <trkpt lat="43.89915" lon="6.55938">
        <ele>1386.97</ele>
        <time>2018-06-23T13:05:04Z</time>
      </trkpt>
      <trkpt lat="43.89911" lon="6.55935">
        <ele>1388.279</ele>
        <time>2018-06-23T13:05:10Z</time>
      </trkpt>
      <trkpt lat="43.89906" lon="6.55933">
        <ele>1387.498</ele>
        <time>2018-06-23T13:05:15Z</time>
      </trkpt>
      <trkpt lat="43.89901" lon="6.55931">
        <ele>1386.574</ele>
        <time>2018-06-23T13:05:19Z</time>
      </trkpt>
      <trkpt lat="43.89897" lon="6.55926">
        <ele>1386.032</ele>
        <time>2018-06-23T13:05:23Z</time>
      </trkpt>
      <trkpt lat="43.89894" lon="6.55921">
        <ele>1384.592</ele>
        <time>2018-06-23T13:05:27Z</time>
      </trkpt>
      <trkpt lat="43.8989" lon="6.5592">
        <ele>1382.011</ele>
        <time>2018-06-23T13:05:33Z</time>
      </trkpt>
      <trkpt lat="43.89885" lon="6.55917">
        <ele>1382.508</ele>
        <time>2018-06-23T13:05:39Z</time>
      </trkpt>
      <trkpt lat="43.89881" lon="6.55915">
        <ele>1383.695</ele>
        <time>2018-06-23T13:05:46Z</time>
      </trkpt>
      <trkpt lat="43.89875" lon="6.55913">
        <ele>1383.579</ele>
        <time>2018-06-23T13:05:51Z</time>
      </trkpt>
      <trkpt lat="43.89871" lon="6.55911">
        <ele>1384.233</ele>
        <time>2018-06-23T13:05:55Z</time>
      </trkpt>
      <trkpt lat="43.89865" lon="6.55911">
        <ele>1384.251</ele>
        <time>2018-06-23T13:06:00Z</time>
      </trkpt>
      <trkpt lat="43.8986" lon="6.55911">
        <ele>1385.061</ele>
        <time>2018-06-23T13:06:05Z</time>
      </trkpt>
      <trkpt lat="43.89855" lon="6.55909">
        <ele>1386.38</ele>
        <time>2018-06-23T13:06:09Z</time>
      </trkpt>
      <trkpt lat="43.8985" lon="6.55909">
        <ele>1385.519</ele>
        <time>2018-06-23T13:06:14Z</time>
      </trkpt>
      <trkpt lat="43.89844" lon="6.55909">
        <ele>1385.435</ele>
        <time>2018-06-23T13:06:19Z</time>
      </trkpt>
      <trkpt lat="43.8984" lon="6.55907">
        <ele>1385.718</ele>
        <time>2018-06-23T13:06:24Z</time>
      </trkpt>
      <trkpt lat="43.89836" lon="6.55905">
        <ele>1385.598</ele>
        <time>2018-06-23T13:06:30Z</time>
      </trkpt>
      <trkpt lat="43.89832" lon="6.55901">
        <ele>1385.817</ele>
        <time>2018-06-23T13:06:35Z</time>
      </trkpt>
      <trkpt lat="43.89827" lon="6.55896">
        <ele>1385.208</ele>
        <time>2018-06-23T13:06:39Z</time>
      </trkpt>
      <trkpt lat="43.89823" lon="6.55892">
        <ele>1385.613</ele>
        <time>2018-06-23T13:06:43Z</time>
      </trkpt>
      <trkpt lat="43.89817" lon="6.55894">
        <ele>1385.527</ele>
        <time>2018-06-23T13:06:48Z</time>
      </trkpt>
      <trkpt lat="43.89813" lon="6.55899">
        <ele>1385.051</ele>
        <time>2018-06-23T13:06:52Z</time>
      </trkpt>
      <trkpt lat="43.89808" lon="6.55902">
        <ele>1384.789</ele>
        <time>2018-06-23T13:06:57Z</time>
      </trkpt>
      <trkpt lat="43.89805" lon="6.55906">
        <ele>1385.359</ele>
        <time>2018-06-23T13:07:00Z</time>
      </trkpt>
      <trkpt lat="43.89801" lon="6.5591">
        <ele>1383.338</ele>
        <time>2018-06-23T13:07:03Z</time>
      </trkpt>
      <trkpt lat="43.89797" lon="6.55913">
        <ele>1380.547</ele>
        <time>2018-06-23T13:07:07Z</time>
      </trkpt>
      <trkpt lat="43.89792" lon="6.55914">
        <ele>1379.293</ele>
        <time>2018-06-23T13:07:12Z</time>
      </trkpt>
      <trkpt lat="43.89787" lon="6.55916">
        <ele>1379.263</ele>
        <time>2018-06-23T13:07:16Z</time>
      </trkpt>
      <trkpt lat="43.89782" lon="6.55918">
        <ele>1377.644</ele>
        <time>2018-06-23T13:07:20Z</time>
      </trkpt>
      <trkpt lat="43.89778" lon="6.55918">
        <ele>1377.018</ele>
        <time>2018-06-23T13:07:25Z</time>
      </trkpt>
      <trkpt lat="43.89772" lon="6.55917">
        <ele>1377.108</ele>
        <time>2018-06-23T13:07:29Z</time>
      </trkpt>
      <trkpt lat="43.89767" lon="6.55918">
        <ele>1375.578</ele>
        <time>2018-06-23T13:07:34Z</time>
      </trkpt>
      <trkpt lat="43.89762" lon="6.55918">
        <ele>1375.072</ele>
        <time>2018-06-23T13:07:38Z</time>
      </trkpt>
      <trkpt lat="43.89757" lon="6.55917">
        <ele>1375.166</ele>
        <time>2018-06-23T13:07:42Z</time>
      </trkpt>
      <trkpt lat="43.89752" lon="6.55916">
        <ele>1373.554</ele>
        <time>2018-06-23T13:07:46Z</time>
      </trkpt>
      <trkpt lat="43.89748" lon="6.55914">
        <ele>1373.824</ele>
        <time>2018-06-23T13:07:50Z</time>
      </trkpt>
      <trkpt lat="43.89743" lon="6.55913">
        <ele>1374.023</ele>
        <time>2018-06-23T13:07:53Z</time>
      </trkpt>
      <trkpt lat="43.89738" lon="6.55913">
        <ele>1373.392</ele>
        <time>2018-06-23T13:07:56Z</time>
      </trkpt>
      <trkpt lat="43.89733" lon="6.55913">
        <ele>1373.358</ele>
        <time>2018-06-23T13:08:02Z</time>
      </trkpt>
      <trkpt lat="43.89728" lon="6.55912">
        <ele>1372.951</ele>
        <time>2018-06-23T13:08:06Z</time>
      </trkpt>
      <trkpt lat="43.89723" lon="6.5591">
        <ele>1373.501</ele>
        <time>2018-06-23T13:08:09Z</time>
      </trkpt>
      <trkpt lat="43.89718" lon="6.55907">
        <ele>1372.611</ele>
        <time>2018-06-23T13:08:14Z</time>
      </trkpt>
      <trkpt lat="43.89713" lon="6.55904">
        <ele>1372.108</ele>
        <time>2018-06-23T13:08:18Z</time>
      </trkpt>
      <trkpt lat="43.89709" lon="6.55901">
        <ele>1371.097</ele>
        <time>2018-06-23T13:08:22Z</time>
      </trkpt>
      <trkpt lat="43.89704" lon="6.55897">
        <ele>1370.321</ele>
        <time>2018-06-23T13:08:29Z</time>
      </trkpt>
      <trkpt lat="43.897" lon="6.55895">
        <ele>1369.945</ele>
        <time>2018-06-23T13:08:32Z</time>
      </trkpt>
      <trkpt lat="43.89695" lon="6.55893">
        <ele>1370.193</ele>
        <time>2018-06-23T13:08:35Z</time>
      </trkpt>
      <trkpt lat="43.89689" lon="6.55892">
        <ele>1369.433</ele>
        <time>2018-06-23T13:08:39Z</time>
      </trkpt>
      <trkpt lat="43.89685" lon="6.55892">
        <ele>1368.692</ele>
        <time>2018-06-23T13:08:42Z</time>
      </trkpt>
      <trkpt lat="43.89679" lon="6.55894">
        <ele>1367.341</ele>
        <time>2018-06-23T13:08:46Z</time>
      </trkpt>
      <trkpt lat="43.89675" lon="6.55898">
        <ele>1366.537</ele>
        <time>2018-06-23T13:08:50Z</time>
      </trkpt>
      <trkpt lat="43.89671" lon="6.55902">
        <ele>1365.265</ele>
        <time>2018-06-23T13:08:55Z</time>
      </trkpt>
      <trkpt lat="43.89667" lon="6.55906">
        <ele>1364.468</ele>
        <time>2018-06-23T13:08:59Z</time>
      </trkpt>
      <trkpt lat="43.89662" lon="6.55908">
        <ele>1363.114</ele>
        <time>2018-06-23T13:09:04Z</time>
      </trkpt>
      <trkpt lat="43.89657" lon="6.5591">
        <ele>1361.508</ele>
        <time>2018-06-23T13:09:09Z</time>
      </trkpt>
      <trkpt lat="43.89653" lon="6.55911">
        <ele>1361.488</ele>
        <time>2018-06-23T13:09:12Z</time>
      </trkpt>
      <trkpt lat="43.89648" lon="6.55911">
        <ele>1362.182</ele>
        <time>2018-06-23T13:09:15Z</time>
      </trkpt>
      <trkpt lat="43.89643" lon="6.5591">
        <ele>1362.976</ele>
        <time>2018-06-23T13:09:19Z</time>
      </trkpt>
      <trkpt lat="43.89638" lon="6.55908">
        <ele>1365.054</ele>
        <time>2018-06-23T13:09:23Z</time>
      </trkpt>
      <trkpt lat="43.89634" lon="6.55905">
        <ele>1367.184</ele>
        <time>2018-06-23T13:09:27Z</time>
      </trkpt>
      <trkpt lat="43.89629" lon="6.55902">
        <ele>1367.523</ele>
        <time>2018-06-23T13:09:31Z</time>
      </trkpt>
      <trkpt lat="43.89625" lon="6.55897">
        <ele>1367.492</ele>
        <time>2018-06-23T13:09:35Z</time>
      </trkpt>
      <trkpt lat="43.8962" lon="6.55893">
        <ele>1366.948</ele>
        <time>2018-06-23T13:09:40Z</time>
      </trkpt>
      <trkpt lat="43.89616" lon="6.5589">
        <ele>1365.859</ele>
        <time>2018-06-23T13:09:44Z</time>
      </trkpt>
      <trkpt lat="43.89611" lon="6.55886">
        <ele>1364.303</ele>
        <time>2018-06-23T13:09:48Z</time>
      </trkpt>
      <trkpt lat="43.89606" lon="6.55883">
        <ele>1364.223</ele>
        <time>2018-06-23T13:09:52Z</time>
      </trkpt>
      <trkpt lat="43.89602" lon="6.55883">
        <ele>1363.808</ele>
        <time>2018-06-23T13:09:56Z</time>
      </trkpt>
      <trkpt lat="43.89597" lon="6.55883">
        <ele>1363.517</ele>
        <time>2018-06-23T13:09:59Z</time>
      </trkpt>
      <trkpt lat="43.89592" lon="6.55884">
        <ele>1362.111</ele>
        <time>2018-06-23T13:10:03Z</time>
      </trkpt>
      <trkpt lat="43.89586" lon="6.55886">
        <ele>1360.535</ele>
        <time>2018-06-23T13:10:08Z</time>
      </trkpt>
      <trkpt lat="43.89581" lon="6.55887">
        <ele>1360.373</ele>
        <time>2018-06-23T13:10:13Z</time>
      </trkpt>
      <trkpt lat="43.89576" lon="6.55888">
        <ele>1359.813</ele>
        <time>2018-06-23T13:10:17Z</time>
      </trkpt>
      <trkpt lat="43.89571" lon="6.55888">
        <ele>1361.182</ele>
        <time>2018-06-23T13:10:21Z</time>
      </trkpt>
      <trkpt lat="43.89567" lon="6.55889">
        <ele>1360.731</ele>
        <time>2018-06-23T13:10:26Z</time>
      </trkpt>
      <trkpt lat="43.89562" lon="6.55889">
        <ele>1360.087</ele>
        <time>2018-06-23T13:10:30Z</time>
      </trkpt>
      <trkpt lat="43.89556" lon="6.5589">
        <ele>1360.469</ele>
        <time>2018-06-23T13:10:34Z</time>
      </trkpt>
      <trkpt lat="43.89552" lon="6.55891">
        <ele>1359.404</ele>
        <time>2018-06-23T13:10:38Z</time>
      </trkpt>
      <trkpt lat="43.89547" lon="6.55892">
        <ele>1358.424</ele>
        <time>2018-06-23T13:10:42Z</time>
      </trkpt>
      <trkpt lat="43.89542" lon="6.55893">
        <ele>1357.008</ele>
        <time>2018-06-23T13:10:47Z</time>
      </trkpt>
      <trkpt lat="43.89536" lon="6.55896">
        <ele>1356.278</ele>
        <time>2018-06-23T13:10:53Z</time>
      </trkpt>
      <trkpt lat="43.89531" lon="6.559">
        <ele>1355.732</ele>
        <time>2018-06-23T13:10:57Z</time>
      </trkpt>
      <trkpt lat="43.89526" lon="6.55903">
        <ele>1354.696</ele>
        <time>2018-06-23T13:11:01Z</time>
      </trkpt>
      <trkpt lat="43.89521" lon="6.55906">
        <ele>1354.314</ele>
        <time>2018-06-23T13:11:06Z</time>
      </trkpt>
      <trkpt lat="43.89516" lon="6.5591">
        <ele>1354.554</ele>
        <time>2018-06-23T13:11:10Z</time>
      </trkpt>
      <trkpt lat="43.89512" lon="6.55913">
        <ele>1354.613</ele>
        <time>2018-06-23T13:11:14Z</time>
      </trkpt>
      <trkpt lat="43.89508" lon="6.55917">
        <ele>1354.772</ele>
        <time>2018-06-23T13:11:18Z</time>
      </trkpt>
      <trkpt lat="43.89504" lon="6.55922">
        <ele>1354.828</ele>
        <time>2018-06-23T13:11:22Z</time>
      </trkpt>
      <trkpt lat="43.895" lon="6.55927">
        <ele>1354.455</ele>
        <time>2018-06-23T13:11:27Z</time>
      </trkpt>
      <trkpt lat="43.89496" lon="6.55931">
        <ele>1353.807</ele>
        <time>2018-06-23T13:11:31Z</time>
      </trkpt>
      <trkpt lat="43.89491" lon="6.55934">
        <ele>1353.017</ele>
        <time>2018-06-23T13:11:35Z</time>
      </trkpt>
      <trkpt lat="43.89486" lon="6.55934">
        <ele>1352.908</ele>
        <time>2018-06-23T13:11:40Z</time>
      </trkpt>
      <trkpt lat="43.89481" lon="6.55932">
        <ele>1353.387</ele>
        <time>2018-06-23T13:11:44Z</time>
      </trkpt>
      <trkpt lat="43.89476" lon="6.5593">
        <ele>1353.131</ele>
        <time>2018-06-23T13:11:48Z</time>
      </trkpt>
      <trkpt lat="43.89471" lon="6.55928">
        <ele>1354.245</ele>
        <time>2018-06-23T13:11:52Z</time>
      </trkpt>
      <trkpt lat="43.89467" lon="6.55925">
        <ele>1355.393</ele>
        <time>2018-06-23T13:11:55Z</time>
      </trkpt>
      <trkpt lat="43.89462" lon="6.55922">
        <ele>1355.143</ele>
        <time>2018-06-23T13:11:58Z</time>
      </trkpt>
      <trkpt lat="43.89458" lon="6.55921">
        <ele>1353.432</ele>
        <time>2018-06-23T13:12:03Z</time>
      </trkpt>
      <trkpt lat="43.89452" lon="6.55922">
        <ele>1353.661</ele>
        <time>2018-06-23T13:12:07Z</time>
      </trkpt>
      <trkpt lat="43.89447" lon="6.55923">
        <ele>1354.177</ele>
        <time>2018-06-23T13:12:11Z</time>
      </trkpt>
      <trkpt lat="43.89442" lon="6.55924">
        <ele>1354.025</ele>
        <time>2018-06-23T13:12:16Z</time>
      </trkpt>
      <trkpt lat="43.89437" lon="6.55925">
        <ele>1354.726</ele>
        <time>2018-06-23T13:12:20Z</time>
      </trkpt>
      <trkpt lat="43.89431" lon="6.55926">
        <ele>1353.908</ele>
        <time>2018-06-23T13:12:24Z</time>
      </trkpt>
      <trkpt lat="43.89426" lon="6.55929">
        <ele>1354.208</ele>
        <time>2018-06-23T13:12:29Z</time>
      </trkpt>
      <trkpt lat="43.89423" lon="6.55935">
        <ele>1353.614</ele>
        <time>2018-06-23T13:12:33Z</time>
      </trkpt>
      <trkpt lat="43.89421" lon="6.55942">
        <ele>1352.048</ele>
        <time>2018-06-23T13:12:37Z</time>
      </trkpt>
      <trkpt lat="43.89418" lon="6.55946">
        <ele>1351.972</ele>
        <time>2018-06-23T13:12:41Z</time>
      </trkpt>
      <trkpt lat="43.89413" lon="6.55948">
        <ele>1351.87</ele>
        <time>2018-06-23T13:12:45Z</time>
      </trkpt>
      <trkpt lat="43.89407" lon="6.55947">
        <ele>1352.21</ele>
        <time>2018-06-23T13:12:49Z</time>
      </trkpt>
      <trkpt lat="43.89403" lon="6.55945">
        <ele>1352.829</ele>
        <time>2018-06-23T13:12:53Z</time>
      </trkpt>
      <trkpt lat="43.89398" lon="6.55943">
        <ele>1353.678</ele>
        <time>2018-06-23T13:12:57Z</time>
      </trkpt>
      <trkpt lat="43.89393" lon="6.55943">
        <ele>1354.554</ele>
        <time>2018-06-23T13:13:02Z</time>
      </trkpt>
      <trkpt lat="43.89388" lon="6.55943">
        <ele>1354.651</ele>
        <time>2018-06-23T13:13:06Z</time>
      </trkpt>
      <trkpt lat="43.89382" lon="6.55944">
        <ele>1354.301</ele>
        <time>2018-06-23T13:13:11Z</time>
      </trkpt>
      <trkpt lat="43.89377" lon="6.55946">
        <ele>1354.911</ele>
        <time>2018-06-23T13:13:15Z</time>
      </trkpt>
      <trkpt lat="43.89372" lon="6.55947">
        <ele>1356.108</ele>
        <time>2018-06-23T13:13:19Z</time>
      </trkpt>
      <trkpt lat="43.89367" lon="6.55947">
        <ele>1356.837</ele>
        <time>2018-06-23T13:13:23Z</time>
      </trkpt>
      <trkpt lat="43.89362" lon="6.55947">
        <ele>1356.881</ele>
        <time>2018-06-23T13:13:27Z</time>
      </trkpt>
      <trkpt lat="43.89357" lon="6.55947">
        <ele>1356.825</ele>
        <time>2018-06-23T13:13:30Z</time>
      </trkpt>
      <trkpt lat="43.89353" lon="6.55946">
        <ele>1356.433</ele>
        <time>2018-06-23T13:13:33Z</time>
      </trkpt>
      <trkpt lat="43.89348" lon="6.55946">
        <ele>1355.483</ele>
        <time>2018-06-23T13:13:37Z</time>
      </trkpt>
      <trkpt lat="43.89342" lon="6.55946">
        <ele>1355.692</ele>
        <time>2018-06-23T13:13:42Z</time>
      </trkpt>
      <trkpt lat="43.89336" lon="6.55946">
        <ele>1356.921</ele>
        <time>2018-06-23T13:13:46Z</time>
      </trkpt>
      <trkpt lat="43.89331" lon="6.55946">
        <ele>1356.587</ele>
        <time>2018-06-23T13:13:50Z</time>
      </trkpt>
      <trkpt lat="43.89326" lon="6.55946">
        <ele>1356.719</ele>
        <time>2018-06-23T13:13:55Z</time>
      </trkpt>
      <trkpt lat="43.89321" lon="6.55945">
        <ele>1356.809</ele>
        <time>2018-06-23T13:13:59Z</time>
      </trkpt>
      <trkpt lat="43.89316" lon="6.55945">
        <ele>1357.319</ele>
        <time>2018-06-23T13:14:03Z</time>
      </trkpt>
      <trkpt lat="43.89312" lon="6.55944">
        <ele>1358.008</ele>
        <time>2018-06-23T13:14:07Z</time>
      </trkpt>
      <trkpt lat="43.89307" lon="6.55944">
        <ele>1358.433</ele>
        <time>2018-06-23T13:14:11Z</time>
      </trkpt>
      <trkpt lat="43.89302" lon="6.55945">
        <ele>1357.437</ele>
        <time>2018-06-23T13:14:16Z</time>
      </trkpt>
      <trkpt lat="43.89297" lon="6.55947">
        <ele>1356.841</ele>
        <time>2018-06-23T13:14:20Z</time>
      </trkpt>
      <trkpt lat="43.89292" lon="6.5595">
        <ele>1355.739</ele>
        <time>2018-06-23T13:14:24Z</time>
      </trkpt>
      <trkpt lat="43.89288" lon="6.55954">
        <ele>1355.029</ele>
        <time>2018-06-23T13:14:28Z</time>
      </trkpt>
      <trkpt lat="43.89284" lon="6.55958">
        <ele>1355.038</ele>
        <time>2018-06-23T13:14:32Z</time>
      </trkpt>
      <trkpt lat="43.89279" lon="6.55962">
        <ele>1356.637</ele>
        <time>2018-06-23T13:14:36Z</time>
      </trkpt>
      <trkpt lat="43.89275" lon="6.55965">
        <ele>1358.443</ele>
        <time>2018-06-23T13:14:40Z</time>
      </trkpt>
      <trkpt lat="43.89271" lon="6.55968">
        <ele>1359.134</ele>
        <time>2018-06-23T13:14:45Z</time>
      </trkpt>
      <trkpt lat="43.89265" lon="6.55969">
        <ele>1360.355</ele>
        <time>2018-06-23T13:14:50Z</time>
      </trkpt>
      <trkpt lat="43.8926" lon="6.55969">
        <ele>1361.01</ele>
        <time>2018-06-23T13:14:54Z</time>
      </trkpt>
      <trkpt lat="43.89256" lon="6.55966">
        <ele>1361.808</ele>
        <time>2018-06-23T13:14:58Z</time>
      </trkpt>
      <trkpt lat="43.89252" lon="6.55962">
        <ele>1361.945</ele>
        <time>2018-06-23T13:15:01Z</time>
      </trkpt>
      <trkpt lat="43.89248" lon="6.55958">
        <ele>1362.059</ele>
        <time>2018-06-23T13:15:05Z</time>
      </trkpt>
      <trkpt lat="43.89244" lon="6.55954">
        <ele>1361.283</ele>
        <time>2018-06-23T13:15:10Z</time>
      </trkpt>
      <trkpt lat="43.8924" lon="6.55949">
        <ele>1359.511</ele>
        <time>2018-06-23T13:15:15Z</time>
      </trkpt>
      <trkpt lat="43.89236" lon="6.55943">
        <ele>1358.591</ele>
        <time>2018-06-23T13:15:21Z</time>
      </trkpt>
      <trkpt lat="43.89232" lon="6.55938">
        <ele>1358.32</ele>
        <time>2018-06-23T13:15:25Z</time>
      </trkpt>
      <trkpt lat="43.89229" lon="6.55933">
        <ele>1359.049</ele>
        <time>2018-06-23T13:15:28Z</time>
      </trkpt>
      <trkpt lat="43.89225" lon="6.55928">
        <ele>1358.635</ele>
        <time>2018-06-23T13:15:33Z</time>
      </trkpt>
      <trkpt lat="43.89221" lon="6.55924">
        <ele>1358.019</ele>
        <time>2018-06-23T13:15:38Z</time>
      </trkpt>
      <trkpt lat="43.89218" lon="6.55917">
        <ele>1357.209</ele>
        <time>2018-06-23T13:15:41Z</time>
      </trkpt>
      <trkpt lat="43.89216" lon="6.55911">
        <ele>1357.519</ele>
        <time>2018-06-23T13:15:43Z</time>
      </trkpt>
      <trkpt lat="43.89214" lon="6.55903">
        <ele>1358.508</ele>
        <time>2018-06-23T13:15:46Z</time>
      </trkpt>
      <trkpt lat="43.89213" lon="6.55897">
        <ele>1359.123</ele>
        <time>2018-06-23T13:15:50Z</time>
      </trkpt>
      <trkpt lat="43.89213" lon="6.55889">
        <ele>1357.967</ele>
        <time>2018-06-23T13:15:55Z</time>
      </trkpt>
      <trkpt lat="43.89213" lon="6.55881">
        <ele>1356.821</ele>
        <time>2018-06-23T13:15:58Z</time>
      </trkpt>
      <trkpt lat="43.89213" lon="6.55875">
        <ele>1355.319</ele>
        <time>2018-06-23T13:16:03Z</time>
      </trkpt>
      <trkpt lat="43.89212" lon="6.55868">
        <ele>1355.229</ele>
        <time>2018-06-23T13:16:09Z</time>
      </trkpt>
      <trkpt lat="43.89207" lon="6.55863">
        <ele>1355.948</ele>
        <time>2018-06-23T13:16:15Z</time>
      </trkpt>
      <trkpt lat="43.89202" lon="6.55861">
        <ele>1356.327</ele>
        <time>2018-06-23T13:16:19Z</time>
      </trkpt>
      <trkpt lat="43.89198" lon="6.5586">
        <ele>1356.283</ele>
        <time>2018-06-23T13:16:23Z</time>
      </trkpt>
      <trkpt lat="43.89192" lon="6.55858">
        <ele>1356.137</ele>
        <time>2018-06-23T13:16:27Z</time>
      </trkpt>
      <trkpt lat="43.89188" lon="6.55855">
        <ele>1356.149</ele>
        <time>2018-06-23T13:16:30Z</time>
      </trkpt>
      <trkpt lat="43.89185" lon="6.55851">
        <ele>1354.913</ele>
        <time>2018-06-23T13:16:34Z</time>
      </trkpt>
      <trkpt lat="43.89181" lon="6.55845">
        <ele>1353.808</ele>
        <time>2018-06-23T13:16:39Z</time>
      </trkpt>
      <trkpt lat="43.89177" lon="6.55841">
        <ele>1352.755</ele>
        <time>2018-06-23T13:16:42Z</time>
      </trkpt>
      <trkpt lat="43.89172" lon="6.55837">
        <ele>1352.149</ele>
        <time>2018-06-23T13:16:47Z</time>
      </trkpt>
      <trkpt lat="43.89168" lon="6.55835">
        <ele>1350.983</ele>
        <time>2018-06-23T13:16:51Z</time>
      </trkpt>
      <trkpt lat="43.89163" lon="6.55831">
        <ele>1351.041</ele>
        <time>2018-06-23T13:16:54Z</time>
      </trkpt>
      <trkpt lat="43.89159" lon="6.55828">
        <ele>1350.771</ele>
        <time>2018-06-23T13:16:58Z</time>
      </trkpt>
      <trkpt lat="43.89154" lon="6.55824">
        <ele>1350.11</ele>
        <time>2018-06-23T13:17:02Z</time>
      </trkpt>
      <trkpt lat="43.8915" lon="6.55819">
        <ele>1348.919</ele>
        <time>2018-06-23T13:17:06Z</time>
      </trkpt>
      <trkpt lat="43.89147" lon="6.55814">
        <ele>1349.045</ele>
        <time>2018-06-23T13:17:10Z</time>
      </trkpt>
      <trkpt lat="43.89144" lon="6.55808">
        <ele>1348.752</ele>
        <time>2018-06-23T13:17:14Z</time>
      </trkpt>
      <trkpt lat="43.89143" lon="6.55802">
        <ele>1348.553</ele>
        <time>2018-06-23T13:17:18Z</time>
      </trkpt>
      <trkpt lat="43.89142" lon="6.55796">
        <ele>1348.008</ele>
        <time>2018-06-23T13:17:24Z</time>
      </trkpt>
      <trkpt lat="43.8914" lon="6.55789">
        <ele>1348.508</ele>
        <time>2018-06-23T13:17:30Z</time>
      </trkpt>
      <trkpt lat="43.89136" lon="6.55787">
        <ele>1349.217</ele>
        <time>2018-06-23T13:17:37Z</time>
      </trkpt>
      <trkpt lat="43.89134" lon="6.5578">
        <ele>1345.611</ele>
        <time>2018-06-23T13:21:02Z</time>
      </trkpt>
      <trkpt lat="43.89135" lon="6.55786">
        <ele>1346.295</ele>
        <time>2018-06-23T13:22:12Z</time>
      </trkpt>
      <trkpt lat="43.8913" lon="6.55784">
        <ele>1344.253</ele>
        <time>2018-06-23T13:23:06Z</time>
      </trkpt>
      <trkpt lat="43.89126" lon="6.55781">
        <ele>1345.043</ele>
        <time>2018-06-23T13:23:12Z</time>
      </trkpt>
      <trkpt lat="43.89122" lon="6.55779">
        <ele>1346.372</ele>
        <time>2018-06-23T13:23:16Z</time>
      </trkpt>
      <trkpt lat="43.89117" lon="6.55776">
        <ele>1347.171</ele>
        <time>2018-06-23T13:23:20Z</time>
      </trkpt>
      <trkpt lat="43.89113" lon="6.55771">
        <ele>1347.297</ele>
        <time>2018-06-23T13:23:24Z</time>
      </trkpt>
      <trkpt lat="43.8911" lon="6.55766">
        <ele>1344.859</ele>
        <time>2018-06-23T13:23:29Z</time>
      </trkpt>
      <trkpt lat="43.89105" lon="6.55765">
        <ele>1343.003</ele>
        <time>2018-06-23T13:23:36Z</time>
      </trkpt>
      <trkpt lat="43.89101" lon="6.55762">
        <ele>1341.523</ele>
        <time>2018-06-23T13:23:42Z</time>
      </trkpt>
      <trkpt lat="43.89096" lon="6.55758">
        <ele>1340.608</ele>
        <time>2018-06-23T13:23:48Z</time>
      </trkpt>
      <trkpt lat="43.89091" lon="6.55756">
        <ele>1340.197</ele>
        <time>2018-06-23T13:23:54Z</time>
      </trkpt>
      <trkpt lat="43.89087" lon="6.55754">
        <ele>1338.611</ele>
        <time>2018-06-23T13:24:00Z</time>
      </trkpt>
      <trkpt lat="43.89082" lon="6.55752">
        <ele>1336.965</ele>
        <time>2018-06-23T13:24:06Z</time>
      </trkpt>
      <trkpt lat="43.89077" lon="6.55751">
        <ele>1335.983</ele>
        <time>2018-06-23T13:24:12Z</time>
      </trkpt>
      <trkpt lat="43.89072" lon="6.5575">
        <ele>1335.353</ele>
        <time>2018-06-23T13:24:17Z</time>
      </trkpt>
      <trkpt lat="43.89067" lon="6.5575">
        <ele>1333.342</ele>
        <time>2018-06-23T13:24:23Z</time>
      </trkpt>
      <trkpt lat="43.89063" lon="6.55749">
        <ele>1331.731</ele>
        <time>2018-06-23T13:24:28Z</time>
      </trkpt>
      <trkpt lat="43.89058" lon="6.55746">
        <ele>1329.237</ele>
        <time>2018-06-23T13:24:36Z</time>
      </trkpt>
      <trkpt lat="43.89054" lon="6.55744">
        <ele>1326.583</ele>
        <time>2018-06-23T13:24:42Z</time>
      </trkpt>
      <trkpt lat="43.89049" lon="6.55743">
        <ele>1324.125</ele>
        <time>2018-06-23T13:24:49Z</time>
      </trkpt>
      <trkpt lat="43.89044" lon="6.55743">
        <ele>1322.217</ele>
        <time>2018-06-23T13:24:55Z</time>
      </trkpt>
      <trkpt lat="43.89039" lon="6.55744">
        <ele>1321.108</ele>
        <time>2018-06-23T13:25:01Z</time>
      </trkpt>
      <trkpt lat="43.89035" lon="6.55745">
        <ele>1320.88</ele>
        <time>2018-06-23T13:25:08Z</time>
      </trkpt>
      <trkpt lat="43.8903" lon="6.55748">
        <ele>1319.044</ele>
        <time>2018-06-23T13:25:21Z</time>
      </trkpt>
      <trkpt lat="43.89025" lon="6.55751">
        <ele>1318.378</ele>
        <time>2018-06-23T13:25:28Z</time>
      </trkpt>
      <trkpt lat="43.89021" lon="6.55749">
        <ele>1317.946</ele>
        <time>2018-06-23T13:25:34Z</time>
      </trkpt>
      <trkpt lat="43.89016" lon="6.55747">
        <ele>1317.776</ele>
        <time>2018-06-23T13:25:40Z</time>
      </trkpt>
      <trkpt lat="43.89011" lon="6.55745">
        <ele>1317.245</ele>
        <time>2018-06-23T13:25:45Z</time>
      </trkpt>
      <trkpt lat="43.89006" lon="6.55743">
        <ele>1314.994</ele>
        <time>2018-06-23T13:25:51Z</time>
      </trkpt>
      <trkpt lat="43.89002" lon="6.55743">
        <ele>1313.95</ele>
        <time>2018-06-23T13:25:56Z</time>
      </trkpt>
      <trkpt lat="43.88996" lon="6.55744">
        <ele>1312.958</ele>
        <time>2018-06-23T13:26:01Z</time>
      </trkpt>
      <trkpt lat="43.88992" lon="6.55746">
        <ele>1312.752</ele>
        <time>2018-06-23T13:26:07Z</time>
      </trkpt>
      <trkpt lat="43.88987" lon="6.55746">
        <ele>1313.017</ele>
        <time>2018-06-23T13:26:12Z</time>
      </trkpt>
      <trkpt lat="43.88982" lon="6.55746">
        <ele>1312.808</ele>
        <time>2018-06-23T13:26:16Z</time>
      </trkpt>
      <trkpt lat="43.88977" lon="6.55747">
        <ele>1311.577</ele>
        <time>2018-06-23T13:26:22Z</time>
      </trkpt>
      <trkpt lat="43.88972" lon="6.55747">
        <ele>1310.391</ele>
        <time>2018-06-23T13:26:27Z</time>
      </trkpt>
      <trkpt lat="43.88967" lon="6.55747">
        <ele>1308.825</ele>
        <time>2018-06-23T13:26:33Z</time>
      </trkpt>
      <trkpt lat="43.88962" lon="6.55746">
        <ele>1308.323</ele>
        <time>2018-06-23T13:26:41Z</time>
      </trkpt>
      <trkpt lat="43.88958" lon="6.55749">
        <ele>1307.243</ele>
        <time>2018-06-23T13:26:48Z</time>
      </trkpt>
      <trkpt lat="43.88953" lon="6.5575">
        <ele>1306.172</ele>
        <time>2018-06-23T13:26:53Z</time>
      </trkpt>
      <trkpt lat="43.88948" lon="6.55748">
        <ele>1305.121</ele>
        <time>2018-06-23T13:26:59Z</time>
      </trkpt>
      <trkpt lat="43.88943" lon="6.55748">
        <ele>1304.987</ele>
        <time>2018-06-23T13:27:04Z</time>
      </trkpt>
      <trkpt lat="43.88938" lon="6.55747">
        <ele>1304.488</ele>
        <time>2018-06-23T13:27:09Z</time>
      </trkpt>
      <trkpt lat="43.88933" lon="6.55747">
        <ele>1303.324</ele>
        <time>2018-06-23T13:27:15Z</time>
      </trkpt>
      <trkpt lat="43.88929" lon="6.5575">
        <ele>1302.626</ele>
        <time>2018-06-23T13:27:21Z</time>
      </trkpt>
      <trkpt lat="43.88924" lon="6.55749">
        <ele>1299.808</ele>
        <time>2018-06-23T13:27:28Z</time>
      </trkpt>
      <trkpt lat="43.88919" lon="6.55746">
        <ele>1297.39</ele>
        <time>2018-06-23T13:27:35Z</time>
      </trkpt>
      <trkpt lat="43.88915" lon="6.55746">
        <ele>1295.824</ele>
        <time>2018-06-23T13:27:44Z</time>
      </trkpt>
      <trkpt lat="43.8891" lon="6.55747">
        <ele>1294.528</ele>
        <time>2018-06-23T13:27:51Z</time>
      </trkpt>
      <trkpt lat="43.88905" lon="6.55746">
        <ele>1293.356</ele>
        <time>2018-06-23T13:27:56Z</time>
      </trkpt>
      <trkpt lat="43.88901" lon="6.55744">
        <ele>1293.036</ele>
        <time>2018-06-23T13:28:01Z</time>
      </trkpt>
      <trkpt lat="43.88896" lon="6.55744">
        <ele>1292.045</ele>
        <time>2018-06-23T13:28:06Z</time>
      </trkpt>
      <trkpt lat="43.88891" lon="6.55746">
        <ele>1291.874</ele>
        <time>2018-06-23T13:28:11Z</time>
      </trkpt>
      <trkpt lat="43.88887" lon="6.55745">
        <ele>1292.56</ele>
        <time>2018-06-23T13:28:16Z</time>
      </trkpt>
      <trkpt lat="43.88882" lon="6.55745">
        <ele>1292.527</ele>
        <time>2018-06-23T13:28:22Z</time>
      </trkpt>
      <trkpt lat="43.88877" lon="6.55747">
        <ele>1292.168</ele>
        <time>2018-06-23T13:28:27Z</time>
      </trkpt>
      <trkpt lat="43.88873" lon="6.5575">
        <ele>1292.314</ele>
        <time>2018-06-23T13:28:34Z</time>
      </trkpt>
      <trkpt lat="43.88871" lon="6.55757">
        <ele>1290.808</ele>
        <time>2018-06-23T13:28:40Z</time>
      </trkpt>
      <trkpt lat="43.88868" lon="6.55763">
        <ele>1288.324</ele>
        <time>2018-06-23T13:28:46Z</time>
      </trkpt>
      <trkpt lat="43.88863" lon="6.55766">
        <ele>1286.058</ele>
        <time>2018-06-23T13:28:52Z</time>
      </trkpt>
      <trkpt lat="43.88859" lon="6.55767">
        <ele>1284.622</ele>
        <time>2018-06-23T13:28:56Z</time>
      </trkpt>
      <trkpt lat="43.88854" lon="6.55767">
        <ele>1281.84</ele>
        <time>2018-06-23T13:29:00Z</time>
      </trkpt>
      <trkpt lat="43.88849" lon="6.55768">
        <ele>1280.18</ele>
        <time>2018-06-23T13:29:05Z</time>
      </trkpt>
      <trkpt lat="43.88844" lon="6.5577">
        <ele>1279.559</ele>
        <time>2018-06-23T13:29:10Z</time>
      </trkpt>
      <trkpt lat="43.8884" lon="6.55772">
        <ele>1278.728</ele>
        <time>2018-06-23T13:29:15Z</time>
      </trkpt>
      <trkpt lat="43.88835" lon="6.55771">
        <ele>1278.214</ele>
        <time>2018-06-23T13:29:22Z</time>
      </trkpt>
      <trkpt lat="43.8883" lon="6.55769">
        <ele>1279.148</ele>
        <time>2018-06-23T13:29:27Z</time>
      </trkpt>
      <trkpt lat="43.88825" lon="6.55767">
        <ele>1279.361</ele>
        <time>2018-06-23T13:29:32Z</time>
      </trkpt>
      <trkpt lat="43.8882" lon="6.55766">
        <ele>1278.617</ele>
        <time>2018-06-23T13:29:38Z</time>
      </trkpt>
      <trkpt lat="43.88815" lon="6.55765">
        <ele>1277.408</ele>
        <time>2018-06-23T13:31:25Z</time>
      </trkpt>
      <trkpt lat="43.8881" lon="6.55766">
        <ele>1275.586</ele>
        <time>2018-06-23T13:31:31Z</time>
      </trkpt>
      <trkpt lat="43.88805" lon="6.55767">
        <ele>1273.55</ele>
        <time>2018-06-23T13:31:37Z</time>
      </trkpt>
      <trkpt lat="43.888" lon="6.55767">
        <ele>1273.194</ele>
        <time>2018-06-23T13:31:43Z</time>
      </trkpt>
      <trkpt lat="43.88795" lon="6.55764">
        <ele>1272.532</ele>
        <time>2018-06-23T13:31:49Z</time>
      </trkpt>
      <trkpt lat="43.88794" lon="6.55758">
        <ele>1269.782</ele>
        <time>2018-06-23T13:31:55Z</time>
      </trkpt>
      <trkpt lat="43.88795" lon="6.55752">
        <ele>1267.671</ele>
        <time>2018-06-23T13:32:02Z</time>
      </trkpt>
      <trkpt lat="43.88791" lon="6.55748">
        <ele>1265.64</ele>
        <time>2018-06-23T13:32:10Z</time>
      </trkpt>
      <trkpt lat="43.88791" lon="6.55741">
        <ele>1263.256</ele>
        <time>2018-06-23T13:32:17Z</time>
      </trkpt>
      <trkpt lat="43.88793" lon="6.55735">
        <ele>1262.571</ele>
        <time>2018-06-23T13:32:23Z</time>
      </trkpt>
      <trkpt lat="43.88791" lon="6.55728">
        <ele>1261.741</ele>
        <time>2018-06-23T13:32:32Z</time>
      </trkpt>
      <trkpt lat="43.88787" lon="6.55723">
        <ele>1258.815</ele>
        <time>2018-06-23T13:32:39Z</time>
      </trkpt>
      <trkpt lat="43.88783" lon="6.55721">
        <ele>1257.108</ele>
        <time>2018-06-23T13:32:46Z</time>
      </trkpt>
      <trkpt lat="43.88778" lon="6.55718">
        <ele>1255.779</ele>
        <time>2018-06-23T13:32:53Z</time>
      </trkpt>
      <trkpt lat="43.88774" lon="6.55717">
        <ele>1254.093</ele>
        <time>2018-06-23T13:33:01Z</time>
      </trkpt>
      <trkpt lat="43.88769" lon="6.55717">
        <ele>1253.877</ele>
        <time>2018-06-23T13:33:08Z</time>
      </trkpt>
      <trkpt lat="43.88763" lon="6.55716">
        <ele>1253.785</ele>
        <time>2018-06-23T13:33:13Z</time>
      </trkpt>
      <trkpt lat="43.88758" lon="6.55715">
        <ele>1252.445</ele>
        <time>2018-06-23T13:33:18Z</time>
      </trkpt>
      <trkpt lat="43.88754" lon="6.55718">
        <ele>1252.414</ele>
        <time>2018-06-23T13:33:22Z</time>
      </trkpt>
      <trkpt lat="43.88749" lon="6.5572">
        <ele>1252.413</ele>
        <time>2018-06-23T13:33:26Z</time>
      </trkpt>
      <trkpt lat="43.88745" lon="6.55722">
        <ele>1251.629</ele>
        <time>2018-06-23T13:33:30Z</time>
      </trkpt>
      <trkpt lat="43.88739" lon="6.55722">
        <ele>1251.598</ele>
        <time>2018-06-23T13:33:34Z</time>
      </trkpt>
      <trkpt lat="43.88734" lon="6.55721">
        <ele>1252.715</ele>
        <time>2018-06-23T13:33:39Z</time>
      </trkpt>
      <trkpt lat="43.8873" lon="6.55717">
        <ele>1252.626</ele>
        <time>2018-06-23T13:33:45Z</time>
      </trkpt>
      <trkpt lat="43.88725" lon="6.55713">
        <ele>1250.508</ele>
        <time>2018-06-23T13:33:51Z</time>
      </trkpt>
      <trkpt lat="43.88721" lon="6.55717">
        <ele>1247.321</ele>
        <time>2018-06-23T13:33:57Z</time>
      </trkpt>
      <trkpt lat="43.88717" lon="6.55721">
        <ele>1245.025</ele>
        <time>2018-06-23T13:34:04Z</time>
      </trkpt>
      <trkpt lat="43.88713" lon="6.55719">
        <ele>1243.639</ele>
        <time>2018-06-23T13:34:10Z</time>
      </trkpt>
      <trkpt lat="43.88708" lon="6.55715">
        <ele>1242.457</ele>
        <time>2018-06-23T13:34:16Z</time>
      </trkpt>
      <trkpt lat="43.88704" lon="6.55711">
        <ele>1242.187</ele>
        <time>2018-06-23T13:34:22Z</time>
      </trkpt>
      <trkpt lat="43.887" lon="6.55708">
        <ele>1240.376</ele>
        <time>2018-06-23T13:34:27Z</time>
      </trkpt>
      <trkpt lat="43.88696" lon="6.55708">
        <ele>1238.825</ele>
        <time>2018-06-23T13:34:31Z</time>
      </trkpt>
      <trkpt lat="43.88691" lon="6.55708">
        <ele>1239.561</ele>
        <time>2018-06-23T13:34:36Z</time>
      </trkpt>
      <trkpt lat="43.88686" lon="6.55703">
        <ele>1241.921</ele>
        <time>2018-06-23T13:34:44Z</time>
      </trkpt>
      <trkpt lat="43.88686" lon="6.55703">
        <ele>1241.941</ele>
        <time>2018-06-23T13:34:44Z</time>
      </trkpt>
      <trkpt lat="43.88683" lon="6.55696">
        <ele>1242.505</ele>
        <time>2018-06-23T13:34:51Z</time>
      </trkpt>
      <trkpt lat="43.8868" lon="6.55691">
        <ele>1243.308</ele>
        <time>2018-06-23T13:35:00Z</time>
      </trkpt>
      <trkpt lat="43.88677" lon="6.55687">
        <ele>1243.034</ele>
        <time>2018-06-23T13:35:06Z</time>
      </trkpt>
      <trkpt lat="43.88673" lon="6.55683">
        <ele>1241.628</ele>
        <time>2018-06-23T13:35:14Z</time>
      </trkpt>
      <trkpt lat="43.88669" lon="6.55679">
        <ele>1240.442</ele>
        <time>2018-06-23T13:35:20Z</time>
      </trkpt>
      <trkpt lat="43.88671" lon="6.55672">
        <ele>1237.75</ele>
        <time>2018-06-23T13:35:29Z</time>
      </trkpt>
      <trkpt lat="43.88671" lon="6.55666">
        <ele>1237.36</ele>
        <time>2018-06-23T13:35:37Z</time>
      </trkpt>
      <trkpt lat="43.88668" lon="6.55661">
        <ele>1237.849</ele>
        <time>2018-06-23T13:35:44Z</time>
      </trkpt>
      <trkpt lat="43.88667" lon="6.55654">
        <ele>1237.768</ele>
        <time>2018-06-23T13:35:51Z</time>
      </trkpt>
      <trkpt lat="43.88663" lon="6.55648">
        <ele>1236.994</ele>
        <time>2018-06-23T13:35:57Z</time>
      </trkpt>
      <trkpt lat="43.88659" lon="6.55644">
        <ele>1237.223</ele>
        <time>2018-06-23T13:36:03Z</time>
      </trkpt>
      <trkpt lat="43.88655" lon="6.55641">
        <ele>1237.083</ele>
        <time>2018-06-23T13:36:08Z</time>
      </trkpt>
      <trkpt lat="43.88651" lon="6.55637">
        <ele>1235.311</ele>
        <time>2018-06-23T13:36:14Z</time>
      </trkpt>
      <trkpt lat="43.88646" lon="6.55636">
        <ele>1233.508</ele>
        <time>2018-06-23T13:36:20Z</time>
      </trkpt>
      <trkpt lat="43.88641" lon="6.55633">
        <ele>1233.674</ele>
        <time>2018-06-23T13:36:26Z</time>
      </trkpt>
      <trkpt lat="43.88635" lon="6.55632">
        <ele>1230.948</ele>
        <time>2018-06-23T13:36:31Z</time>
      </trkpt>
      <trkpt lat="43.8863" lon="6.55632">
        <ele>1228.512</ele>
        <time>2018-06-23T13:36:36Z</time>
      </trkpt>
      <trkpt lat="43.88626" lon="6.55629">
        <ele>1224.55</ele>
        <time>2018-06-23T13:36:41Z</time>
      </trkpt>
      <trkpt lat="43.88621" lon="6.55628">
        <ele>1220.61</ele>
        <time>2018-06-23T13:36:45Z</time>
      </trkpt>
      <trkpt lat="43.88616" lon="6.55629">
        <ele>1217.949</ele>
        <time>2018-06-23T13:36:49Z</time>
      </trkpt>
      <trkpt lat="43.8861" lon="6.5563">
        <ele>1215.928</ele>
        <time>2018-06-23T13:36:53Z</time>
      </trkpt>
      <trkpt lat="43.88606" lon="6.55629">
        <ele>1214.334</ele>
        <time>2018-06-23T13:36:58Z</time>
      </trkpt>
      <trkpt lat="43.88602" lon="6.55623">
        <ele>1212.584</ele>
        <time>2018-06-23T13:37:04Z</time>
      </trkpt>
      <trkpt lat="43.88599" lon="6.55618">
        <ele>1210.607</ele>
        <time>2018-06-23T13:37:10Z</time>
      </trkpt>
      <trkpt lat="43.88595" lon="6.55615">
        <ele>1208.317</ele>
        <time>2018-06-23T13:37:16Z</time>
      </trkpt>
      <trkpt lat="43.88592" lon="6.55609">
        <ele>1207.308</ele>
        <time>2018-06-23T13:37:22Z</time>
      </trkpt>
      <trkpt lat="43.88587" lon="6.55606">
        <ele>1206.72</ele>
        <time>2018-06-23T13:37:27Z</time>
      </trkpt>
      <trkpt lat="43.88583" lon="6.55603">
        <ele>1205.184</ele>
        <time>2018-06-23T13:37:33Z</time>
      </trkpt>
      <trkpt lat="43.88582" lon="6.55596">
        <ele>1204.238</ele>
        <time>2018-06-23T13:37:42Z</time>
      </trkpt>
      <trkpt lat="43.88579" lon="6.5559">
        <ele>1202.086</ele>
        <time>2018-06-23T13:37:48Z</time>
      </trkpt>
      <trkpt lat="43.88575" lon="6.55587">
        <ele>1198.786</ele>
        <time>2018-06-23T13:37:53Z</time>
      </trkpt>
      <trkpt lat="43.8857" lon="6.55586">
        <ele>1197.165</ele>
        <time>2018-06-23T13:37:58Z</time>
      </trkpt>
      <trkpt lat="43.88565" lon="6.55585">
        <ele>1195.014</ele>
        <time>2018-06-23T13:38:03Z</time>
      </trkpt>
      <trkpt lat="43.88561" lon="6.55585">
        <ele>1194.16</ele>
        <time>2018-06-23T13:38:07Z</time>
      </trkpt>
      <trkpt lat="43.88556" lon="6.55584">
        <ele>1193.617</ele>
        <time>2018-06-23T13:38:11Z</time>
      </trkpt>
      <trkpt lat="43.88551" lon="6.55582">
        <ele>1194.187</ele>
        <time>2018-06-23T13:38:15Z</time>
      </trkpt>
      <trkpt lat="43.88547" lon="6.55579">
        <ele>1195.615</ele>
        <time>2018-06-23T13:38:19Z</time>
      </trkpt>
      <trkpt lat="43.88542" lon="6.55577">
        <ele>1194.908</ele>
        <time>2018-06-23T13:38:24Z</time>
      </trkpt>
      <trkpt lat="43.88537" lon="6.55574">
        <ele>1194.143</ele>
        <time>2018-06-23T13:38:29Z</time>
      </trkpt>
      <trkpt lat="43.88532" lon="6.55572">
        <ele>1193.697</ele>
        <time>2018-06-23T13:38:35Z</time>
      </trkpt>
      <trkpt lat="43.88528" lon="6.55569">
        <ele>1192.561</ele>
        <time>2018-06-23T13:38:40Z</time>
      </trkpt>
      <trkpt lat="43.88524" lon="6.55565">
        <ele>1190.669</ele>
        <time>2018-06-23T13:38:46Z</time>
      </trkpt>
      <trkpt lat="43.88519" lon="6.55564">
        <ele>1190.349</ele>
        <time>2018-06-23T13:39:21Z</time>
      </trkpt>
      <trkpt lat="43.88514" lon="6.55561">
        <ele>1189.718</ele>
        <time>2018-06-23T13:39:27Z</time>
      </trkpt>
      <trkpt lat="43.88512" lon="6.55557">
        <ele>1186.917</ele>
        <time>2018-06-23T13:41:57Z</time>
      </trkpt>
      <trkpt lat="43.88511" lon="6.5555">
        <ele>1184.093</ele>
        <time>2018-06-23T13:42:06Z</time>
      </trkpt>
      <trkpt lat="43.88507" lon="6.55547">
        <ele>1181.975</ele>
        <time>2018-06-23T13:42:15Z</time>
      </trkpt>
      <trkpt lat="43.88505" lon="6.5554">
        <ele>1177.928</ele>
        <time>2018-06-23T13:42:24Z</time>
      </trkpt>
      <trkpt lat="43.88504" lon="6.55534">
        <ele>1174.22</ele>
        <time>2018-06-23T13:42:29Z</time>
      </trkpt>
      <trkpt lat="43.885" lon="6.5553">
        <ele>1172.408</ele>
        <time>2018-06-23T13:42:35Z</time>
      </trkpt>
      <trkpt lat="43.88495" lon="6.55528">
        <ele>1172.179</ele>
        <time>2018-06-23T13:42:43Z</time>
      </trkpt>
      <trkpt lat="43.88492" lon="6.55522">
        <ele>1169.173</ele>
        <time>2018-06-23T13:42:53Z</time>
      </trkpt>
      <trkpt lat="43.8849" lon="6.55516">
        <ele>1168.587</ele>
        <time>2018-06-23T13:42:59Z</time>
      </trkpt>
      <trkpt lat="43.88487" lon="6.55511">
        <ele>1168.665</ele>
        <time>2018-06-23T13:43:09Z</time>
      </trkpt>
      <trkpt lat="43.88484" lon="6.55505">
        <ele>1169.075</ele>
        <time>2018-06-23T13:43:16Z</time>
      </trkpt>
      <trkpt lat="43.88482" lon="6.55498">
        <ele>1169.334</ele>
        <time>2018-06-23T13:43:21Z</time>
      </trkpt>
      <trkpt lat="43.88479" lon="6.55492">
        <ele>1168.743</ele>
        <time>2018-06-23T13:43:26Z</time>
      </trkpt>
      <trkpt lat="43.88477" lon="6.55485">
        <ele>1168.759</ele>
        <time>2018-06-23T13:43:32Z</time>
      </trkpt>
      <trkpt lat="43.88474" lon="6.55478">
        <ele>1168.355</ele>
        <time>2018-06-23T13:43:38Z</time>
      </trkpt>
      <trkpt lat="43.88471" lon="6.55472">
        <ele>1168.107</ele>
        <time>2018-06-23T13:43:42Z</time>
      </trkpt>
      <trkpt lat="43.88468" lon="6.55467">
        <ele>1166.817</ele>
        <time>2018-06-23T13:43:46Z</time>
      </trkpt>
      <trkpt lat="43.88463" lon="6.55463">
        <ele>1165.608</ele>
        <time>2018-06-23T13:43:50Z</time>
      </trkpt>
      <trkpt lat="43.88459" lon="6.55461">
        <ele>1164.997</ele>
        <time>2018-06-23T13:43:55Z</time>
      </trkpt>
      <trkpt lat="43.88454" lon="6.55458">
        <ele>1164.561</ele>
        <time>2018-06-23T13:43:59Z</time>
      </trkpt>
      <trkpt lat="43.88451" lon="6.55454">
        <ele>1163.875</ele>
        <time>2018-06-23T13:44:03Z</time>
      </trkpt>
      <trkpt lat="43.88448" lon="6.55449">
        <ele>1163.473</ele>
        <time>2018-06-23T13:44:08Z</time>
      </trkpt>
      <trkpt lat="43.88446" lon="6.55443">
        <ele>1163.613</ele>
        <time>2018-06-23T13:44:12Z</time>
      </trkpt>
      <trkpt lat="43.88442" lon="6.55436">
        <ele>1163.342</ele>
        <time>2018-06-23T13:44:19Z</time>
      </trkpt>
      <trkpt lat="43.8844" lon="6.5543">
        <ele>1161.931</ele>
        <time>2018-06-23T13:44:28Z</time>
      </trkpt>
      <trkpt lat="43.88436" lon="6.55424">
        <ele>1161.517</ele>
        <time>2018-06-23T13:44:33Z</time>
      </trkpt>
      <trkpt lat="43.88433" lon="6.5542">
        <ele>1162.463</ele>
        <time>2018-06-23T13:44:38Z</time>
      </trkpt>
      <trkpt lat="43.8843" lon="6.55414">
        <ele>1161.044</ele>
        <time>2018-06-23T13:44:44Z</time>
      </trkpt>
      <trkpt lat="43.88429" lon="6.55408">
        <ele>1158.118</ele>
        <time>2018-06-23T13:44:48Z</time>
      </trkpt>
      <trkpt lat="43.88427" lon="6.554">
        <ele>1155.208</ele>
        <time>2018-06-23T13:44:52Z</time>
      </trkpt>
      <trkpt lat="43.88426" lon="6.55395">
        <ele>1153.138</ele>
        <time>2018-06-23T13:44:56Z</time>
      </trkpt>
      <trkpt lat="43.88423" lon="6.55389">
        <ele>1151.482</ele>
        <time>2018-06-23T13:45:12Z</time>
      </trkpt>
      <trkpt lat="43.88422" lon="6.55383">
        <ele>1150.886</ele>
        <time>2018-06-23T13:45:19Z</time>
      </trkpt>
      <trkpt lat="43.88419" lon="6.55377">
        <ele>1149.224</ele>
        <time>2018-06-23T13:45:41Z</time>
      </trkpt>
      <trkpt lat="43.88417" lon="6.5537">
        <ele>1150.384</ele>
        <time>2018-06-23T13:45:46Z</time>
      </trkpt>
      <trkpt lat="43.88416" lon="6.55364">
        <ele>1151.373</ele>
        <time>2018-06-23T13:45:51Z</time>
      </trkpt>
      <trkpt lat="43.88414" lon="6.55358">
        <ele>1152.352</ele>
        <time>2018-06-23T13:45:56Z</time>
      </trkpt>
      <trkpt lat="43.88412" lon="6.55351">
        <ele>1153.318</ele>
        <time>2018-06-23T13:46:01Z</time>
      </trkpt>
      <trkpt lat="43.8841" lon="6.55345">
        <ele>1152.784</ele>
        <time>2018-06-23T13:46:05Z</time>
      </trkpt>
      <trkpt lat="43.88409" lon="6.55337">
        <ele>1152.307</ele>
        <time>2018-06-23T13:46:10Z</time>
      </trkpt>
      <trkpt lat="43.88409" lon="6.55331">
        <ele>1150.917</ele>
        <time>2018-06-23T13:46:14Z</time>
      </trkpt>
      <trkpt lat="43.88408" lon="6.55324">
        <ele>1148.108</ele>
        <time>2018-06-23T13:46:19Z</time>
      </trkpt>
      <trkpt lat="43.88407" lon="6.55318">
        <ele>1147.28</ele>
        <time>2018-06-23T13:46:23Z</time>
      </trkpt>
      <trkpt lat="43.88406" lon="6.55311">
        <ele>1143.994</ele>
        <time>2018-06-23T13:46:28Z</time>
      </trkpt>
      <trkpt lat="43.88406" lon="6.55304">
        <ele>1141.518</ele>
        <time>2018-06-23T13:46:33Z</time>
      </trkpt>
      <trkpt lat="43.88406" lon="6.55297">
        <ele>1140.936</ele>
        <time>2018-06-23T13:46:37Z</time>
      </trkpt>
      <trkpt lat="43.88405" lon="6.55291">
        <ele>1140.116</ele>
        <time>2018-06-23T13:46:41Z</time>
      </trkpt>
      <trkpt lat="43.88406" lon="6.55284">
        <ele>1139.285</ele>
        <time>2018-06-23T13:46:49Z</time>
      </trkpt>
      <trkpt lat="43.88402" lon="6.55279">
        <ele>1137.174</ele>
        <time>2018-06-23T13:47:22Z</time>
      </trkpt>
      <trkpt lat="43.884" lon="6.55274">
        <ele>1136.27</ele>
        <time>2018-06-23T13:47:30Z</time>
      </trkpt>
      <trkpt lat="43.88398" lon="6.55267">
        <ele>1138.175</ele>
        <time>2018-06-23T13:47:36Z</time>
      </trkpt>
      <trkpt lat="43.88396" lon="6.55261">
        <ele>1139.228</ele>
        <time>2018-06-23T13:47:41Z</time>
      </trkpt>
      <trkpt lat="43.88395" lon="6.55255">
        <ele>1139.92</ele>
        <time>2018-06-23T13:47:46Z</time>
      </trkpt>
      <trkpt lat="43.88393" lon="6.55248">
        <ele>1140.708</ele>
        <time>2018-06-23T13:47:52Z</time>
      </trkpt>
      <trkpt lat="43.8839" lon="6.55242">
        <ele>1141.679</ele>
        <time>2018-06-23T13:47:57Z</time>
      </trkpt>
      <trkpt lat="43.88387" lon="6.55236">
        <ele>1141.333</ele>
        <time>2018-06-23T13:48:02Z</time>
      </trkpt>
      <trkpt lat="43.88385" lon="6.5523">
        <ele>1140.727</ele>
        <time>2018-06-23T13:48:06Z</time>
      </trkpt>
      <trkpt lat="43.88385" lon="6.55223">
        <ele>1142.085</ele>
        <time>2018-06-23T13:48:11Z</time>
      </trkpt>
      <trkpt lat="43.88385" lon="6.55216">
        <ele>1142.015</ele>
        <time>2018-06-23T13:48:15Z</time>
      </trkpt>
      <trkpt lat="43.88383" lon="6.55209">
        <ele>1141.624</ele>
        <time>2018-06-23T13:48:20Z</time>
      </trkpt>
      <trkpt lat="43.88382" lon="6.55203">
        <ele>1140.153</ele>
        <time>2018-06-23T13:48:26Z</time>
      </trkpt>
      <trkpt lat="43.88381" lon="6.55195">
        <ele>1138.889</ele>
        <time>2018-06-23T13:48:36Z</time>
      </trkpt>
      <trkpt lat="43.88377" lon="6.55188">
        <ele>1137.697</ele>
        <time>2018-06-23T13:48:42Z</time>
      </trkpt>
      <trkpt lat="43.88375" lon="6.55181">
        <ele>1136.523</ele>
        <time>2018-06-23T13:48:59Z</time>
      </trkpt>
      <trkpt lat="43.88376" lon="6.55175">
        <ele>1135.025</ele>
        <time>2018-06-23T13:49:19Z</time>
      </trkpt>
      <trkpt lat="43.88375" lon="6.55168">
        <ele>1132.908</ele>
        <time>2018-06-23T13:49:26Z</time>
      </trkpt>
      <trkpt lat="43.88375" lon="6.55161">
        <ele>1130.131</ele>
        <time>2018-06-23T13:49:30Z</time>
      </trkpt>
      <trkpt lat="43.88374" lon="6.55155">
        <ele>1129.275</ele>
        <time>2018-06-23T13:49:34Z</time>
      </trkpt>
      <trkpt lat="43.88373" lon="6.55148">
        <ele>1129.589</ele>
        <time>2018-06-23T13:49:38Z</time>
      </trkpt>
      <trkpt lat="43.88372" lon="6.55142">
        <ele>1131.787</ele>
        <time>2018-06-23T13:49:42Z</time>
      </trkpt>
      <trkpt lat="43.88369" lon="6.55136">
        <ele>1133.027</ele>
        <time>2018-06-23T13:49:46Z</time>
      </trkpt>
      <trkpt lat="43.88368" lon="6.5513">
        <ele>1134.286</ele>
        <time>2018-06-23T13:49:50Z</time>
      </trkpt>
      <trkpt lat="43.88366" lon="6.55123">
        <ele>1134.965</ele>
        <time>2018-06-23T13:49:55Z</time>
      </trkpt>
      <trkpt lat="43.88364" lon="6.55117">
        <ele>1134.921</ele>
        <time>2018-06-23T13:49:59Z</time>
      </trkpt>
      <trkpt lat="43.88362" lon="6.55111">
        <ele>1134.514</ele>
        <time>2018-06-23T13:50:04Z</time>
      </trkpt>
      <trkpt lat="43.88361" lon="6.55105">
        <ele>1133.554</ele>
        <time>2018-06-23T13:50:09Z</time>
      </trkpt>
      <trkpt lat="43.88359" lon="6.55098">
        <ele>1132.109</ele>
        <time>2018-06-23T13:50:14Z</time>
      </trkpt>
      <trkpt lat="43.88359" lon="6.55091">
        <ele>1132.008</ele>
        <time>2018-06-23T13:50:18Z</time>
      </trkpt>
      <trkpt lat="43.88358" lon="6.55084">
        <ele>1132.083</ele>
        <time>2018-06-23T13:50:23Z</time>
      </trkpt>
      <trkpt lat="43.88356" lon="6.55077">
        <ele>1131.677</ele>
        <time>2018-06-23T13:50:27Z</time>
      </trkpt>
      <trkpt lat="43.88356" lon="6.5507">
        <ele>1130.141</ele>
        <time>2018-06-23T13:50:33Z</time>
      </trkpt>
      <trkpt lat="43.88356" lon="6.55063">
        <ele>1130.099</ele>
        <time>2018-06-23T13:50:38Z</time>
      </trkpt>
      <trkpt lat="43.88356" lon="6.55055">
        <ele>1130.039</ele>
        <time>2018-06-23T13:50:43Z</time>
      </trkpt>
      <trkpt lat="43.88356" lon="6.55049">
        <ele>1129.638</ele>
        <time>2018-06-23T13:50:47Z</time>
      </trkpt>
      <trkpt lat="43.88355" lon="6.55042">
        <ele>1130.597</ele>
        <time>2018-06-23T13:50:51Z</time>
      </trkpt>
      <trkpt lat="43.88354" lon="6.55036">
        <ele>1131.513</ele>
        <time>2018-06-23T13:50:55Z</time>
      </trkpt>
      <trkpt lat="43.88354" lon="6.55029">
        <ele>1132.141</ele>
        <time>2018-06-23T13:51:00Z</time>
      </trkpt>
      <trkpt lat="43.88355" lon="6.55022">
        <ele>1133.681</ele>
        <time>2018-06-23T13:51:05Z</time>
      </trkpt>
      <trkpt lat="43.88354" lon="6.55015">
        <ele>1135.309</ele>
        <time>2018-06-23T13:51:11Z</time>
      </trkpt>
      <trkpt lat="43.88354" lon="6.55008">
        <ele>1137.108</ele>
        <time>2018-06-23T13:51:20Z</time>
      </trkpt>
      <trkpt lat="43.88354" lon="6.55002">
        <ele>1138.236</ele>
        <time>2018-06-23T13:51:25Z</time>
      </trkpt>
      <trkpt lat="43.88352" lon="6.54996">
        <ele>1138.92</ele>
        <time>2018-06-23T13:51:29Z</time>
      </trkpt>
      <trkpt lat="43.8835" lon="6.54989">
        <ele>1138.944</ele>
        <time>2018-06-23T13:51:33Z</time>
      </trkpt>
      <trkpt lat="43.88349" lon="6.54983">
        <ele>1138.562</ele>
        <time>2018-06-23T13:51:38Z</time>
      </trkpt>
      <trkpt lat="43.88349" lon="6.54976">
        <ele>1138.332</ele>
        <time>2018-06-23T13:51:47Z</time>
      </trkpt>
      <trkpt lat="43.88349" lon="6.54969">
        <ele>1137.481</ele>
        <time>2018-06-23T13:51:52Z</time>
      </trkpt>
      <trkpt lat="43.88348" lon="6.54963">
        <ele>1135.27</ele>
        <time>2018-06-23T13:51:57Z</time>
      </trkpt>
      <trkpt lat="43.88347" lon="6.54956">
        <ele>1133.186</ele>
        <time>2018-06-23T13:52:02Z</time>
      </trkpt>
      <trkpt lat="43.88346" lon="6.54949">
        <ele>1135.494</ele>
        <time>2018-06-23T13:53:08Z</time>
      </trkpt>
      <trkpt lat="43.88345" lon="6.54943">
        <ele>1136.857</ele>
        <time>2018-06-23T13:53:13Z</time>
      </trkpt>
      <trkpt lat="43.88345" lon="6.54936">
        <ele>1138.022</ele>
        <time>2018-06-23T13:53:18Z</time>
      </trkpt>
      <trkpt lat="43.88344" lon="6.5493">
        <ele>1139.108</ele>
        <time>2018-06-23T13:53:24Z</time>
      </trkpt>
      <trkpt lat="43.88343" lon="6.54923">
        <ele>1139.811</ele>
        <time>2018-06-23T13:53:32Z</time>
      </trkpt>
      <trkpt lat="43.88341" lon="6.54916">
        <ele>1141.085</ele>
        <time>2018-06-23T13:53:39Z</time>
      </trkpt>
      <trkpt lat="43.8834" lon="6.5491">
        <ele>1141.399</ele>
        <time>2018-06-23T13:53:46Z</time>
      </trkpt>
      <trkpt lat="43.88341" lon="6.54903">
        <ele>1142.797</ele>
        <time>2018-06-23T13:53:54Z</time>
      </trkpt>
      <trkpt lat="43.8834" lon="6.54897">
        <ele>1142.317</ele>
        <time>2018-06-23T13:54:00Z</time>
      </trkpt>
      <trkpt lat="43.8834" lon="6.54891">
        <ele>1143.756</ele>
        <time>2018-06-23T13:54:06Z</time>
      </trkpt>
      <trkpt lat="43.88338" lon="6.54884">
        <ele>1144.945</ele>
        <time>2018-06-23T13:54:12Z</time>
      </trkpt>
      <trkpt lat="43.88335" lon="6.54877">
        <ele>1144.871</ele>
        <time>2018-06-23T13:54:18Z</time>
      </trkpt>
      <trkpt lat="43.88335" lon="6.54871">
        <ele>1143.644</ele>
        <time>2018-06-23T13:54:26Z</time>
      </trkpt>
      <trkpt lat="43.88339" lon="6.54875">
        <ele>1142.505</ele>
        <time>2018-06-23T13:54:36Z</time>
      </trkpt>
      <trkpt lat="43.88343" lon="6.5488">
        <ele>1141.815</ele>
        <time>2018-06-23T13:54:41Z</time>
      </trkpt>
      <trkpt lat="43.88347" lon="6.54883">
        <ele>1140.608</ele>
        <time>2018-06-23T13:54:45Z</time>
      </trkpt>
      <trkpt lat="43.88349" lon="6.5489">
        <ele>1139.996</ele>
        <time>2018-06-23T13:54:50Z</time>
      </trkpt>
      <trkpt lat="43.8835" lon="6.54896">
        <ele>1138.39</ele>
        <time>2018-06-23T13:54:54Z</time>
      </trkpt>
      <trkpt lat="43.8835" lon="6.54889">
        <ele>1138.934</ele>
        <time>2018-06-23T13:55:09Z</time>
      </trkpt>
      <trkpt lat="43.88353" lon="6.54883">
        <ele>1140.182</ele>
        <time>2018-06-23T13:55:18Z</time>
      </trkpt>
      <trkpt lat="43.88357" lon="6.54886">
        <ele>1140.862</ele>
        <time>2018-06-23T13:55:28Z</time>
      </trkpt>
      <trkpt lat="43.88359" lon="6.54893">
        <ele>1140.441</ele>
        <time>2018-06-23T13:55:33Z</time>
      </trkpt>
      <trkpt lat="43.88361" lon="6.54899">
        <ele>1141.86</ele>
        <time>2018-06-23T13:55:38Z</time>
      </trkpt>
      <trkpt lat="43.88365" lon="6.54904">
        <ele>1142.696</ele>
        <time>2018-06-23T13:55:43Z</time>
      </trkpt>
      <trkpt lat="43.8837" lon="6.54904">
        <ele>1143.155</ele>
        <time>2018-06-23T13:55:49Z</time>
      </trkpt>
      <trkpt lat="43.88374" lon="6.54908">
        <ele>1145.807</ele>
        <time>2018-06-23T13:56:13Z</time>
      </trkpt>
      <trkpt lat="43.88375" lon="6.54914">
        <ele>1147.817</ele>
        <time>2018-06-23T13:56:17Z</time>
      </trkpt>
      <trkpt lat="43.88376" lon="6.54922">
        <ele>1151.808</ele>
        <time>2018-06-23T13:56:21Z</time>
      </trkpt>
      <trkpt lat="43.88377" lon="6.54929">
        <ele>1153.847</ele>
        <time>2018-06-23T13:56:25Z</time>
      </trkpt>
      <trkpt lat="43.88378" lon="6.54935">
        <ele>1156.231</ele>
        <time>2018-06-23T13:56:29Z</time>
      </trkpt>
      <trkpt lat="43.8838" lon="6.54941">
        <ele>1158.815</ele>
        <time>2018-06-23T13:56:37Z</time>
      </trkpt>
      <trkpt lat="43.88382" lon="6.54947">
        <ele>1160.043</ele>
        <time>2018-06-23T13:56:44Z</time>
      </trkpt>
      <trkpt lat="43.88382" lon="6.54954">
        <ele>1161.183</ele>
        <time>2018-06-23T13:56:49Z</time>
      </trkpt>
      <trkpt lat="43.88385" lon="6.54959">
        <ele>1161.012</ele>
        <time>2018-06-23T13:56:53Z</time>
      </trkpt>
      <trkpt lat="43.88389" lon="6.54964">
        <ele>1161.761</ele>
        <time>2018-06-23T13:56:57Z</time>
      </trkpt>
      <trkpt lat="43.88392" lon="6.54969">
        <ele>1162.167</ele>
        <time>2018-06-23T13:57:02Z</time>
      </trkpt>
      <trkpt lat="43.88396" lon="6.54973">
        <ele>1159.663</ele>
        <time>2018-06-23T13:57:07Z</time>
      </trkpt>
      <trkpt lat="43.88401" lon="6.54976">
        <ele>1158.944</ele>
        <time>2018-06-23T13:57:13Z</time>
      </trkpt>
      <trkpt lat="43.88406" lon="6.54979">
        <ele>1156.518</ele>
        <time>2018-06-23T13:57:23Z</time>
      </trkpt>
      <trkpt lat="43.88408" lon="6.54973">
        <ele>1155.008</ele>
        <time>2018-06-23T13:57:30Z</time>
      </trkpt>
      <trkpt lat="43.88407" lon="6.54967">
        <ele>1153.358</ele>
        <time>2018-06-23T13:57:35Z</time>
      </trkpt>
      <trkpt lat="43.88405" lon="6.54962">
        <ele>1154.782</ele>
        <time>2018-06-23T13:57:41Z</time>
      </trkpt>
      <trkpt lat="43.88402" lon="6.54956">
        <ele>1155.156</ele>
        <time>2018-06-23T13:57:47Z</time>
      </trkpt>
      <trkpt lat="43.88406" lon="6.54962">
        <ele>1159.174</ele>
        <time>2018-06-23T13:58:06Z</time>
      </trkpt>
      <trkpt lat="43.88411" lon="6.54962">
        <ele>1163.194</ele>
        <time>2018-06-23T13:58:16Z</time>
      </trkpt>
      <trkpt lat="43.88411" lon="6.54955">
        <ele>1166.233</ele>
        <time>2018-06-23T13:58:40Z</time>
      </trkpt>
      <trkpt lat="43.88415" lon="6.54954">
        <ele>1168.872</ele>
        <time>2018-06-23T13:58:59Z</time>
      </trkpt>
      <trkpt lat="43.88417" lon="6.5496">
        <ele>1171.658</ele>
        <time>2018-06-23T13:59:06Z</time>
      </trkpt>
      <trkpt lat="43.88422" lon="6.54963">
        <ele>1173.398</ele>
        <time>2018-06-23T13:59:14Z</time>
      </trkpt>
      <trkpt lat="43.88421" lon="6.54957">
        <ele>1175.515</ele>
        <time>2018-06-23T13:59:22Z</time>
      </trkpt>
      <trkpt lat="43.88421" lon="6.5495">
        <ele>1178.426</ele>
        <time>2018-06-23T13:59:31Z</time>
      </trkpt>
      <trkpt lat="43.88426" lon="6.54948">
        <ele>1181.408</ele>
        <time>2018-06-23T14:00:04Z</time>
      </trkpt>
      <trkpt lat="43.88423" lon="6.54941">
        <ele>1183.211</ele>
        <time>2018-06-23T14:01:03Z</time>
      </trkpt>
      <trkpt lat="43.88421" lon="6.54935">
        <ele>1183.555</ele>
        <time>2018-06-23T14:01:09Z</time>
      </trkpt>
      <trkpt lat="43.88426" lon="6.54934">
        <ele>1184.129</ele>
        <time>2018-06-23T14:01:27Z</time>
      </trkpt>
      <trkpt lat="43.8843" lon="6.54937">
        <ele>1183.677</ele>
        <time>2018-06-23T14:01:31Z</time>
      </trkpt>
      <trkpt lat="43.88434" lon="6.54941">
        <ele>1183.787</ele>
        <time>2018-06-23T14:01:39Z</time>
      </trkpt>
      <trkpt lat="43.88438" lon="6.54945">
        <ele>1182.666</ele>
        <time>2018-06-23T14:01:44Z</time>
      </trkpt>
      <trkpt lat="43.88442" lon="6.54946">
        <ele>1181.585</ele>
        <time>2018-06-23T14:01:48Z</time>
      </trkpt>
      <trkpt lat="43.88447" lon="6.54948">
        <ele>1180.911</ele>
        <time>2018-06-23T14:01:52Z</time>
      </trkpt>
      <trkpt lat="43.88452" lon="6.54949">
        <ele>1180.967</ele>
        <time>2018-06-23T14:01:55Z</time>
      </trkpt>
      <trkpt lat="43.88456" lon="6.54949">
        <ele>1179.781</ele>
        <time>2018-06-23T14:01:59Z</time>
      </trkpt>
      <trkpt lat="43.88461" lon="6.5495">
        <ele>1178.219</ele>
        <time>2018-06-23T14:02:03Z</time>
      </trkpt>
      <trkpt lat="43.88466" lon="6.54952">
        <ele>1176.908</ele>
        <time>2018-06-23T14:02:07Z</time>
      </trkpt>
      <trkpt lat="43.88471" lon="6.54951">
        <ele>1176.588</ele>
        <time>2018-06-23T14:02:14Z</time>
      </trkpt>
      <trkpt lat="43.88479" lon="6.54951">
        <ele>1175.172</ele>
        <time>2018-06-23T14:02:50Z</time>
      </trkpt>
      <trkpt lat="43.88484" lon="6.54949">
        <ele>1175.046</ele>
        <time>2018-06-23T14:02:53Z</time>
      </trkpt>
      <trkpt lat="43.88491" lon="6.54949">
        <ele>1175.874</ele>
        <time>2018-06-23T14:02:56Z</time>
      </trkpt>
      <trkpt lat="43.88496" lon="6.54949">
        <ele>1175.964</ele>
        <time>2018-06-23T14:02:58Z</time>
      </trkpt>
      <trkpt lat="43.88501" lon="6.54949">
        <ele>1176.313</ele>
        <time>2018-06-23T14:03:01Z</time>
      </trkpt>
      <trkpt lat="43.88506" lon="6.5495">
        <ele>1175.412</ele>
        <time>2018-06-23T14:03:04Z</time>
      </trkpt>
      <trkpt lat="43.88511" lon="6.54952">
        <ele>1174.828</ele>
        <time>2018-06-23T14:03:08Z</time>
      </trkpt>
      <trkpt lat="43.88516" lon="6.54952">
        <ele>1174.566</ele>
        <time>2018-06-23T14:03:12Z</time>
      </trkpt>
      <trkpt lat="43.88522" lon="6.54952">
        <ele>1174.329</ele>
        <time>2018-06-23T14:03:16Z</time>
      </trkpt>
      <trkpt lat="43.88526" lon="6.54952">
        <ele>1173.821</ele>
        <time>2018-06-23T14:03:19Z</time>
      </trkpt>
      <trkpt lat="43.88531" lon="6.5495">
        <ele>1174.708</ele>
        <time>2018-06-23T14:03:23Z</time>
      </trkpt>
      <trkpt lat="43.88536" lon="6.54949">
        <ele>1175.258</ele>
        <time>2018-06-23T14:03:27Z</time>
      </trkpt>
      <trkpt lat="43.88541" lon="6.54946">
        <ele>1175.132</ele>
        <time>2018-06-23T14:03:32Z</time>
      </trkpt>
      <trkpt lat="43.88545" lon="6.54943">
        <ele>1173.536</ele>
        <time>2018-06-23T14:03:37Z</time>
      </trkpt>
      <trkpt lat="43.8855" lon="6.5494">
        <ele>1172.174</ele>
        <time>2018-06-23T14:03:43Z</time>
      </trkpt>
      <trkpt lat="43.88554" lon="6.54937">
        <ele>1172.194</ele>
        <time>2018-06-23T14:03:47Z</time>
      </trkpt>
      <trkpt lat="43.88559" lon="6.54933">
        <ele>1172.513</ele>
        <time>2018-06-23T14:03:54Z</time>
      </trkpt>
      <trkpt lat="43.88564" lon="6.54932">
        <ele>1173.132</ele>
        <time>2018-06-23T14:04:47Z</time>
      </trkpt>
      <trkpt lat="43.88568" lon="6.5493">
        <ele>1173.928</ele>
        <time>2018-06-23T14:04:52Z</time>
      </trkpt>
      <trkpt lat="43.88572" lon="6.54927">
        <ele>1174.412</ele>
        <time>2018-06-23T14:04:56Z</time>
      </trkpt>
      <trkpt lat="43.88576" lon="6.54923">
        <ele>1174.732</ele>
        <time>2018-06-23T14:05:00Z</time>
      </trkpt>
      <trkpt lat="43.88579" lon="6.54919">
        <ele>1174.505</ele>
        <time>2018-06-23T14:05:04Z</time>
      </trkpt>
      <trkpt lat="43.88584" lon="6.54914">
        <ele>1174.008</ele>
        <time>2018-06-23T14:05:09Z</time>
      </trkpt>
      <trkpt lat="43.88588" lon="6.5491">
        <ele>1173.353</ele>
        <time>2018-06-23T14:05:15Z</time>
      </trkpt>
      <trkpt lat="43.88591" lon="6.54904">
        <ele>1174.547</ele>
        <time>2018-06-23T14:05:58Z</time>
      </trkpt>
      <trkpt lat="43.88592" lon="6.54898">
        <ele>1175.211</ele>
        <time>2018-06-23T14:06:03Z</time>
      </trkpt>
      <trkpt lat="43.88593" lon="6.54891">
        <ele>1176.419</ele>
        <time>2018-06-23T14:06:07Z</time>
      </trkpt>
      <trkpt lat="43.88595" lon="6.54884">
        <ele>1177.199</ele>
        <time>2018-06-23T14:06:13Z</time>
      </trkpt>
      <trkpt lat="43.88596" lon="6.54878">
        <ele>1177.938</ele>
        <time>2018-06-23T14:06:18Z</time>
      </trkpt>
      <trkpt lat="43.886" lon="6.54872">
        <ele>1178.497</ele>
        <time>2018-06-23T14:06:23Z</time>
      </trkpt>
      <trkpt lat="43.88603" lon="6.54867">
        <ele>1178.383</ele>
        <time>2018-06-23T14:06:28Z</time>
      </trkpt>
      <trkpt lat="43.88606" lon="6.54862">
        <ele>1178.662</ele>
        <time>2018-06-23T14:06:33Z</time>
      </trkpt>
      <trkpt lat="43.88609" lon="6.54857">
        <ele>1179.283</ele>
        <time>2018-06-23T14:06:38Z</time>
      </trkpt>
      <trkpt lat="43.88611" lon="6.5485">
        <ele>1179.611</ele>
        <time>2018-06-23T14:06:43Z</time>
      </trkpt>
      <trkpt lat="43.88612" lon="6.54844">
        <ele>1179.408</ele>
        <time>2018-06-23T14:06:49Z</time>
      </trkpt>
      <trkpt lat="43.88611" lon="6.54837">
        <ele>1179.798</ele>
        <time>2018-06-23T14:06:57Z</time>
      </trkpt>
      <trkpt lat="43.88608" lon="6.54831">
        <ele>1180.752</ele>
        <time>2018-06-23T14:07:03Z</time>
      </trkpt>
      <trkpt lat="43.88604" lon="6.54828">
        <ele>1180.556</ele>
        <time>2018-06-23T14:07:22Z</time>
      </trkpt>
      <trkpt lat="43.886" lon="6.54828">
        <ele>1181.244</ele>
        <time>2018-06-23T14:07:57Z</time>
      </trkpt>
      <trkpt lat="43.88603" lon="6.54824">
        <ele>1182.464</ele>
        <time>2018-06-23T14:08:13Z</time>
      </trkpt>
      <trkpt lat="43.88608" lon="6.54823">
        <ele>1182.713</ele>
        <time>2018-06-23T14:08:17Z</time>
      </trkpt>
      <trkpt lat="43.88613" lon="6.54824">
        <ele>1182.132</ele>
        <time>2018-06-23T14:08:21Z</time>
      </trkpt>
      <trkpt lat="43.88617" lon="6.54824">
        <ele>1181.318</ele>
        <time>2018-06-23T14:10:19Z</time>
      </trkpt>
      <trkpt lat="43.88611" lon="6.54826">
        <ele>1181.639</ele>
        <time>2018-06-23T14:11:22Z</time>
      </trkpt>
      <trkpt lat="43.8861" lon="6.54834">
        <ele>1183.001</ele>
        <time>2018-06-23T14:11:39Z</time>
      </trkpt>
      <trkpt lat="43.8861" lon="6.54841">
        <ele>1181.421</ele>
        <time>2018-06-23T14:11:55Z</time>
      </trkpt>
      <trkpt lat="43.88611" lon="6.54847">
        <ele>1179.708</ele>
        <time>2018-06-23T14:12:54Z</time>
      </trkpt>
      <trkpt lat="43.8861" lon="6.54853">
        <ele>1179.525</ele>
        <time>2018-06-23T14:13:01Z</time>
      </trkpt>
      <trkpt lat="43.88607" lon="6.54858">
        <ele>1179.869</ele>
        <time>2018-06-23T14:13:08Z</time>
      </trkpt>
      <trkpt lat="43.88603" lon="6.54863">
        <ele>1180.063</ele>
        <time>2018-06-23T14:13:13Z</time>
      </trkpt>
      <trkpt lat="43.886" lon="6.54869">
        <ele>1180.551</ele>
        <time>2018-06-23T14:13:18Z</time>
      </trkpt>
      <trkpt lat="43.88596" lon="6.5487">
        <ele>1179.221</ele>
        <time>2018-06-23T14:13:42Z</time>
      </trkpt>
      <trkpt lat="43.88593" lon="6.54864">
        <ele>1178.47</ele>
        <time>2018-06-23T14:13:48Z</time>
      </trkpt>
      <trkpt lat="43.88596" lon="6.5487">
        <ele>1178.749</ele>
        <time>2018-06-23T14:15:13Z</time>
      </trkpt>
      <trkpt lat="43.88595" lon="6.54876">
        <ele>1178.535</ele>
        <time>2018-06-23T14:15:18Z</time>
      </trkpt>
      <trkpt lat="43.88594" lon="6.54883">
        <ele>1178.487</ele>
        <time>2018-06-23T14:15:23Z</time>
      </trkpt>
      <trkpt lat="43.88593" lon="6.54889">
        <ele>1176.742</ele>
        <time>2018-06-23T14:15:28Z</time>
      </trkpt>
      <trkpt lat="43.88593" lon="6.54895">
        <ele>1174.926</ele>
        <time>2018-06-23T14:15:33Z</time>
      </trkpt>
      <trkpt lat="43.88593" lon="6.54902">
        <ele>1173.008</ele>
        <time>2018-06-23T14:15:38Z</time>
      </trkpt>
      <trkpt lat="43.88589" lon="6.54907">
        <ele>1172.72</ele>
        <time>2018-06-23T14:15:46Z</time>
      </trkpt>
      <trkpt lat="43.88585" lon="6.5491">
        <ele>1172.914</ele>
        <time>2018-06-23T14:15:51Z</time>
      </trkpt>
      <trkpt lat="43.88581" lon="6.54915">
        <ele>1173.418</ele>
        <time>2018-06-23T14:15:56Z</time>
      </trkpt>
      <trkpt lat="43.88577" lon="6.54919">
        <ele>1174.546</ele>
        <time>2018-06-23T14:16:01Z</time>
      </trkpt>
      <trkpt lat="43.88572" lon="6.54923">
        <ele>1176.846</ele>
        <time>2018-06-23T14:16:06Z</time>
      </trkpt>
      <trkpt lat="43.88567" lon="6.54926">
        <ele>1178.245</ele>
        <time>2018-06-23T14:16:10Z</time>
      </trkpt>
      <trkpt lat="43.88563" lon="6.54929">
        <ele>1179.434</ele>
        <time>2018-06-23T14:16:15Z</time>
      </trkpt>
      <trkpt lat="43.8856" lon="6.54933">
        <ele>1179.73</ele>
        <time>2018-06-23T14:16:19Z</time>
      </trkpt>
      <trkpt lat="43.88556" lon="6.54936">
        <ele>1179.183</ele>
        <time>2018-06-23T14:16:24Z</time>
      </trkpt>
      <trkpt lat="43.88551" lon="6.5494">
        <ele>1177.925</ele>
        <time>2018-06-23T14:16:29Z</time>
      </trkpt>
      <trkpt lat="43.88547" lon="6.54944">
        <ele>1176.417</ele>
        <time>2018-06-23T14:16:33Z</time>
      </trkpt>
      <trkpt lat="43.88542" lon="6.54946">
        <ele>1173.908</ele>
        <time>2018-06-23T14:16:37Z</time>
      </trkpt>
      <trkpt lat="43.88538" lon="6.54947">
        <ele>1173.25</ele>
        <time>2018-06-23T14:16:41Z</time>
      </trkpt>
      <trkpt lat="43.88532" lon="6.54948">
        <ele>1174.014</ele>
        <time>2018-06-23T14:16:46Z</time>
      </trkpt>
      <trkpt lat="43.88527" lon="6.54948">
        <ele>1176.598</ele>
        <time>2018-06-23T14:16:51Z</time>
      </trkpt>
      <trkpt lat="43.88521" lon="6.5495">
        <ele>1177.616</ele>
        <time>2018-06-23T14:16:56Z</time>
      </trkpt>
      <trkpt lat="43.88517" lon="6.5495">
        <ele>1179.466</ele>
        <time>2018-06-23T14:17:00Z</time>
      </trkpt>
      <trkpt lat="43.88512" lon="6.5495">
        <ele>1181.395</ele>
        <time>2018-06-23T14:17:04Z</time>
      </trkpt>
      <trkpt lat="43.88508" lon="6.54947">
        <ele>1182.884</ele>
        <time>2018-06-23T14:17:09Z</time>
      </trkpt>
      <trkpt lat="43.88503" lon="6.54946">
        <ele>1183.33</ele>
        <time>2018-06-23T14:17:14Z</time>
      </trkpt>
      <trkpt lat="43.88498" lon="6.54949">
        <ele>1182.476</ele>
        <time>2018-06-23T14:17:19Z</time>
      </trkpt>
      <trkpt lat="43.88493" lon="6.54952">
        <ele>1180.79</ele>
        <time>2018-06-23T14:17:23Z</time>
      </trkpt>
      <trkpt lat="43.88488" lon="6.54953">
        <ele>1179.719</ele>
        <time>2018-06-23T14:17:28Z</time>
      </trkpt>
      <trkpt lat="43.88483" lon="6.54954">
        <ele>1178.708</ele>
        <time>2018-06-23T14:17:34Z</time>
      </trkpt>
      <trkpt lat="43.88479" lon="6.54955">
        <ele>1178.559</ele>
        <time>2018-06-23T14:17:41Z</time>
      </trkpt>
      <trkpt lat="43.88474" lon="6.54954">
        <ele>1179.643</ele>
        <time>2018-06-23T14:17:46Z</time>
      </trkpt>
      <trkpt lat="43.88469" lon="6.54952">
        <ele>1179.077</ele>
        <time>2018-06-23T14:17:50Z</time>
      </trkpt>
      <trkpt lat="43.88463" lon="6.54952">
        <ele>1178.395</ele>
        <time>2018-06-23T14:17:55Z</time>
      </trkpt>
      <trkpt lat="43.88459" lon="6.5495">
        <ele>1178.385</ele>
        <time>2018-06-23T14:17:59Z</time>
      </trkpt>
      <trkpt lat="43.88454" lon="6.54948">
        <ele>1177.944</ele>
        <time>2018-06-23T14:18:02Z</time>
      </trkpt>
      <trkpt lat="43.88449" lon="6.54946">
        <ele>1176.483</ele>
        <time>2018-06-23T14:18:05Z</time>
      </trkpt>
      <trkpt lat="43.88444" lon="6.54945">
        <ele>1175.149</ele>
        <time>2018-06-23T14:18:10Z</time>
      </trkpt>
      <trkpt lat="43.88439" lon="6.54943">
        <ele>1174.796</ele>
        <time>2018-06-23T14:18:14Z</time>
      </trkpt>
      <trkpt lat="43.88434" lon="6.54941">
        <ele>1174.531</ele>
        <time>2018-06-23T14:18:18Z</time>
      </trkpt>
      <trkpt lat="43.8843" lon="6.54939">
        <ele>1174.424</ele>
        <time>2018-06-23T14:18:22Z</time>
      </trkpt>
      <trkpt lat="43.88424" lon="6.54935">
        <ele>1174.708</ele>
        <time>2018-06-23T14:18:31Z</time>
      </trkpt>
      <trkpt lat="43.88421" lon="6.5493">
        <ele>1176.161</ele>
        <time>2018-06-23T14:18:56Z</time>
      </trkpt>
      <trkpt lat="43.88417" lon="6.54925">
        <ele>1176.535</ele>
        <time>2018-06-23T14:19:02Z</time>
      </trkpt>
      <trkpt lat="43.88415" lon="6.5492">
        <ele>1176.089</ele>
        <time>2018-06-23T14:19:11Z</time>
      </trkpt>
      <trkpt lat="43.88412" lon="6.54913">
        <ele>1176.947</ele>
        <time>2018-06-23T14:19:22Z</time>
      </trkpt>
      <trkpt lat="43.88408" lon="6.54918">
        <ele>1177.857</ele>
        <time>2018-06-23T14:19:34Z</time>
      </trkpt>
      <trkpt lat="43.88409" lon="6.54912">
        <ele>1179.226</ele>
        <time>2018-06-23T14:20:39Z</time>
      </trkpt>
      <trkpt lat="43.88408" lon="6.54906">
        <ele>1178.415</ele>
        <time>2018-06-23T14:20:51Z</time>
      </trkpt>
      <trkpt lat="43.88406" lon="6.54899">
        <ele>1176.371</ele>
        <time>2018-06-23T14:20:58Z</time>
      </trkpt>
      <trkpt lat="43.88402" lon="6.54894">
        <ele>1175.164</ele>
        <time>2018-06-23T14:21:04Z</time>
      </trkpt>
      <trkpt lat="43.884" lon="6.54888">
        <ele>1174.406</ele>
        <time>2018-06-23T14:21:09Z</time>
      </trkpt>
      <trkpt lat="43.88398" lon="6.54882">
        <ele>1173.216</ele>
        <time>2018-06-23T14:21:18Z</time>
      </trkpt>
      <trkpt lat="43.88394" lon="6.54878">
        <ele>1173.708</ele>
        <time>2018-06-23T14:21:24Z</time>
      </trkpt>
      <trkpt lat="43.88392" lon="6.54872">
        <ele>1174.038</ele>
        <time>2018-06-23T14:21:31Z</time>
      </trkpt>
      <trkpt lat="43.8839" lon="6.54866">
        <ele>1176.662</ele>
        <time>2018-06-23T14:22:03Z</time>
      </trkpt>
      <trkpt lat="43.88387" lon="6.5486">
        <ele>1180.596</ele>
        <time>2018-06-23T14:22:12Z</time>
      </trkpt>
      <trkpt lat="43.88384" lon="6.54855">
        <ele>1183.394</ele>
        <time>2018-06-23T14:22:18Z</time>
      </trkpt>
      <trkpt lat="43.8838" lon="6.54851">
        <ele>1184.284</ele>
        <time>2018-06-23T14:22:24Z</time>
      </trkpt>
      <trkpt lat="43.88375" lon="6.54849">
        <ele>1183.943</ele>
        <time>2018-06-23T14:22:47Z</time>
      </trkpt>
      <trkpt lat="43.88373" lon="6.54843">
        <ele>1184.122</ele>
        <time>2018-06-23T14:23:53Z</time>
      </trkpt>
      <trkpt lat="43.8837" lon="6.54838">
        <ele>1184.268</ele>
        <time>2018-06-23T14:24:03Z</time>
      </trkpt>
      <trkpt lat="43.88367" lon="6.54833">
        <ele>1183.142</ele>
        <time>2018-06-23T14:24:12Z</time>
      </trkpt>
      <trkpt lat="43.88364" lon="6.54828">
        <ele>1180.822</ele>
        <time>2018-06-23T14:24:34Z</time>
      </trkpt>
      <trkpt lat="43.88359" lon="6.54826">
        <ele>1178.614</ele>
        <time>2018-06-23T14:24:48Z</time>
      </trkpt>
      <trkpt lat="43.88356" lon="6.54821">
        <ele>1176.108</ele>
        <time>2018-06-23T14:24:55Z</time>
      </trkpt>
      <trkpt lat="43.88351" lon="6.54819">
        <ele>1175.836</ele>
        <time>2018-06-23T14:25:04Z</time>
      </trkpt>
      <trkpt lat="43.88351" lon="6.54812">
        <ele>1174.47</ele>
        <time>2018-06-23T14:25:41Z</time>
      </trkpt>
      <trkpt lat="43.88348" lon="6.54807">
        <ele>1174.014</ele>
        <time>2018-06-23T14:25:48Z</time>
      </trkpt>
      <trkpt lat="43.88344" lon="6.54803">
        <ele>1174.132</ele>
        <time>2018-06-23T14:25:54Z</time>
      </trkpt>
      <trkpt lat="43.88342" lon="6.54796">
        <ele>1173.862</ele>
        <time>2018-06-23T14:26:00Z</time>
      </trkpt>
      <trkpt lat="43.88344" lon="6.54789">
        <ele>1173.651</ele>
        <time>2018-06-23T14:26:41Z</time>
      </trkpt>
      <trkpt lat="43.88341" lon="6.54795">
        <ele>1173.91</ele>
        <time>2018-06-23T14:26:48Z</time>
      </trkpt>
      <trkpt lat="43.88336" lon="6.54797">
        <ele>1172.986</ele>
        <time>2018-06-23T14:26:55Z</time>
      </trkpt>
      <trkpt lat="43.88332" lon="6.54794">
        <ele>1172.392</ele>
        <time>2018-06-23T14:27:20Z</time>
      </trkpt>
      <trkpt lat="43.8833" lon="6.54788">
        <ele>1172.373</ele>
        <time>2018-06-23T14:27:38Z</time>
      </trkpt>
      <trkpt lat="43.88333" lon="6.54792">
        <ele>1171.52</ele>
        <time>2018-06-23T14:28:29Z</time>
      </trkpt>
      <trkpt lat="43.88336" lon="6.54798">
        <ele>1171.008</ele>
        <time>2018-06-23T14:28:38Z</time>
      </trkpt>
      <trkpt lat="43.88333" lon="6.54804">
        <ele>1172.731</ele>
        <time>2018-06-23T14:29:19Z</time>
      </trkpt>
      <trkpt lat="43.88341" lon="6.54804">
        <ele>1170.595</ele>
        <time>2018-06-23T14:29:32Z</time>
      </trkpt>
      <trkpt lat="43.88348" lon="6.54805">
        <ele>1174.449</ele>
        <time>2018-06-23T14:31:52Z</time>
      </trkpt>
      <trkpt lat="43.88338" lon="6.54805">
        <ele>1174.327</ele>
        <time>2018-06-23T14:36:24Z</time>
      </trkpt>
      <trkpt lat="43.88343" lon="6.54805">
        <ele>1175.117</ele>
        <time>2018-06-23T14:38:05Z</time>
      </trkpt>
      <trkpt lat="43.88341" lon="6.5481">
        <ele>1172.886</ele>
        <time>2018-06-23T14:41:59Z</time>
      </trkpt>
      <trkpt lat="43.88338" lon="6.54816">
        <ele>1171.465</ele>
        <time>2018-06-23T14:42:15Z</time>
      </trkpt>
      <trkpt lat="43.8834" lon="6.54821">
        <ele>1170.671</ele>
        <time>2018-06-23T14:42:25Z</time>
      </trkpt>
      <trkpt lat="43.88344" lon="6.54826">
        <ele>1169.794</ele>
        <time>2018-06-23T14:42:35Z</time>
      </trkpt>
      <trkpt lat="43.8834" lon="6.5483">
        <ele>1168.057</ele>
        <time>2018-06-23T14:42:47Z</time>
      </trkpt>
      <trkpt lat="43.88342" lon="6.54836">
        <ele>1166.622</ele>
        <time>2018-06-23T14:42:57Z</time>
      </trkpt>
      <trkpt lat="43.88345" lon="6.54842">
        <ele>1164.908</ele>
        <time>2018-06-23T14:43:07Z</time>
      </trkpt>
      <trkpt lat="43.88343" lon="6.54848">
        <ele>1163.161</ele>
        <time>2018-06-23T14:43:14Z</time>
      </trkpt>
      <trkpt lat="43.88339" lon="6.5485">
        <ele>1162.465</ele>
        <time>2018-06-23T14:43:21Z</time>
      </trkpt>
      <trkpt lat="43.88334" lon="6.54851">
        <ele>1161.249</ele>
        <time>2018-06-23T14:43:30Z</time>
      </trkpt>
      <trkpt lat="43.88333" lon="6.54858">
        <ele>1160.977</ele>
        <time>2018-06-23T14:43:39Z</time>
      </trkpt>
      <trkpt lat="43.8833" lon="6.54862">
        <ele>1159.127</ele>
        <time>2018-06-23T14:43:47Z</time>
      </trkpt>
      <trkpt lat="43.88334" lon="6.54866">
        <ele>1157.666</ele>
        <time>2018-06-23T14:44:03Z</time>
      </trkpt>
      <trkpt lat="43.88337" lon="6.54871">
        <ele>1156.325</ele>
        <time>2018-06-23T14:44:10Z</time>
      </trkpt>
      <trkpt lat="43.88338" lon="6.54878">
        <ele>1155.181</ele>
        <time>2018-06-23T14:44:17Z</time>
      </trkpt>
      <trkpt lat="43.88339" lon="6.54885">
        <ele>1152.429</ele>
        <time>2018-06-23T14:44:23Z</time>
      </trkpt>
      <trkpt lat="43.88341" lon="6.54891">
        <ele>1150.4</ele>
        <time>2018-06-23T14:44:29Z</time>
      </trkpt>
      <trkpt lat="43.88342" lon="6.54898">
        <ele>1148.42</ele>
        <time>2018-06-23T14:44:35Z</time>
      </trkpt>
      <trkpt lat="43.88343" lon="6.54904">
        <ele>1146.408</ele>
        <time>2018-06-23T14:44:42Z</time>
      </trkpt>
      <trkpt lat="43.88344" lon="6.54911">
        <ele>1145.684</ele>
        <time>2018-06-23T14:44:47Z</time>
      </trkpt>
      <trkpt lat="43.88344" lon="6.54918">
        <ele>1145.158</ele>
        <time>2018-06-23T14:44:52Z</time>
      </trkpt>
      <trkpt lat="43.88343" lon="6.54924">
        <ele>1144.812</ele>
        <time>2018-06-23T14:44:58Z</time>
      </trkpt>
      <trkpt lat="43.88343" lon="6.54931">
        <ele>1143.82</ele>
        <time>2018-06-23T14:45:04Z</time>
      </trkpt>
      <trkpt lat="43.88344" lon="6.54939">
        <ele>1143.24</ele>
        <time>2018-06-23T14:45:09Z</time>
      </trkpt>
      <trkpt lat="43.88345" lon="6.54946">
        <ele>1142.419</ele>
        <time>2018-06-23T14:45:13Z</time>
      </trkpt>
      <trkpt lat="43.88347" lon="6.54953">
        <ele>1141.138</ele>
        <time>2018-06-23T14:45:18Z</time>
      </trkpt>
      <trkpt lat="43.88349" lon="6.54959">
        <ele>1139.594</ele>
        <time>2018-06-23T14:45:23Z</time>
      </trkpt>
      <trkpt lat="43.8835" lon="6.54966">
        <ele>1139.018</ele>
        <time>2018-06-23T14:45:28Z</time>
      </trkpt>
      <trkpt lat="43.8835" lon="6.54972">
        <ele>1138.798</ele>
        <time>2018-06-23T14:45:32Z</time>
      </trkpt>
      <trkpt lat="43.8835" lon="6.54979">
        <ele>1138.917</ele>
        <time>2018-06-23T14:45:36Z</time>
      </trkpt>
      <trkpt lat="43.88351" lon="6.54985">
        <ele>1139.408</ele>
        <time>2018-06-23T14:45:40Z</time>
      </trkpt>
      <trkpt lat="43.88352" lon="6.54992">
        <ele>1139.323</ele>
        <time>2018-06-23T14:45:44Z</time>
      </trkpt>
      <trkpt lat="43.88353" lon="6.54999">
        <ele>1138.847</ele>
        <time>2018-06-23T14:45:49Z</time>
      </trkpt>
      <trkpt lat="43.88355" lon="6.55006">
        <ele>1138.591</ele>
        <time>2018-06-23T14:45:56Z</time>
      </trkpt>
      <trkpt lat="43.88356" lon="6.55013">
        <ele>1137.979</ele>
        <time>2018-06-23T14:46:01Z</time>
      </trkpt>
      <trkpt lat="43.88356" lon="6.5502">
        <ele>1137.299</ele>
        <time>2018-06-23T14:46:06Z</time>
      </trkpt>
      <trkpt lat="43.88357" lon="6.55027">
        <ele>1137.228</ele>
        <time>2018-06-23T14:46:10Z</time>
      </trkpt>
      <trkpt lat="43.88356" lon="6.55034">
        <ele>1136.857</ele>
        <time>2018-06-23T14:46:14Z</time>
      </trkpt>
      <trkpt lat="43.88357" lon="6.55041">
        <ele>1136.523</ele>
        <time>2018-06-23T14:46:18Z</time>
      </trkpt>
      <trkpt lat="43.88358" lon="6.55048">
        <ele>1136.323</ele>
        <time>2018-06-23T14:46:22Z</time>
      </trkpt>
      <trkpt lat="43.88357" lon="6.55054">
        <ele>1135.883</ele>
        <time>2018-06-23T14:46:39Z</time>
      </trkpt>
      <trkpt lat="43.88357" lon="6.55061">
        <ele>1134.311</ele>
        <time>2018-06-23T14:46:44Z</time>
      </trkpt>
      <trkpt lat="43.88357" lon="6.55068">
        <ele>1132.608</ele>
        <time>2018-06-23T14:46:50Z</time>
      </trkpt>
      <trkpt lat="43.88355" lon="6.55075">
        <ele>1132.414</ele>
        <time>2018-06-23T14:47:25Z</time>
      </trkpt>
      <trkpt lat="43.88356" lon="6.55081">
        <ele>1131.968</ele>
        <time>2018-06-23T14:47:33Z</time>
      </trkpt>
      <trkpt lat="43.88357" lon="6.55088">
        <ele>1132.062</ele>
        <time>2018-06-23T14:47:37Z</time>
      </trkpt>
      <trkpt lat="43.88358" lon="6.55096">
        <ele>1131.66</ele>
        <time>2018-06-23T14:47:42Z</time>
      </trkpt>
      <trkpt lat="43.88359" lon="6.55102">
        <ele>1131.05</ele>
        <time>2018-06-23T14:47:46Z</time>
      </trkpt>
      <trkpt lat="43.8836" lon="6.55109">
        <ele>1130.689</ele>
        <time>2018-06-23T14:47:51Z</time>
      </trkpt>
      <trkpt lat="43.88361" lon="6.55116">
        <ele>1130.078</ele>
        <time>2018-06-23T14:47:55Z</time>
      </trkpt>
      <trkpt lat="43.88364" lon="6.55124">
        <ele>1129.224</ele>
        <time>2018-06-23T14:48:00Z</time>
      </trkpt>
      <trkpt lat="43.88366" lon="6.55129">
        <ele>1128.366</ele>
        <time>2018-06-23T14:48:04Z</time>
      </trkpt>
      <trkpt lat="43.88368" lon="6.55135">
        <ele>1128.229</ele>
        <time>2018-06-23T14:48:08Z</time>
      </trkpt>
      <trkpt lat="43.88371" lon="6.55141">
        <ele>1128.121</ele>
        <time>2018-06-23T14:48:12Z</time>
      </trkpt>
      <trkpt lat="43.88372" lon="6.55147">
        <ele>1129.308</ele>
        <time>2018-06-23T14:48:16Z</time>
      </trkpt>
      <trkpt lat="43.88373" lon="6.55154">
        <ele>1130.088</ele>
        <time>2018-06-23T14:48:19Z</time>
      </trkpt>
      <trkpt lat="43.88375" lon="6.55159">
        <ele>1130.422</ele>
        <time>2018-06-23T14:48:23Z</time>
      </trkpt>
      <trkpt lat="43.88377" lon="6.55166">
        <ele>1129.176</ele>
        <time>2018-06-23T14:48:28Z</time>
      </trkpt>
      <trkpt lat="43.88379" lon="6.55173">
        <ele>1127.984</ele>
        <time>2018-06-23T14:48:33Z</time>
      </trkpt>
      <trkpt lat="43.8838" lon="6.5518">
        <ele>1126.874</ele>
        <time>2018-06-23T14:48:38Z</time>
      </trkpt>
      <trkpt lat="43.88379" lon="6.55188">
        <ele>1126.143</ele>
        <time>2018-06-23T14:48:43Z</time>
      </trkpt>
      <trkpt lat="43.88379" lon="6.55195">
        <ele>1125.762</ele>
        <time>2018-06-23T14:48:47Z</time>
      </trkpt>
      <trkpt lat="43.88378" lon="6.55203">
        <ele>1124.718</ele>
        <time>2018-06-23T14:48:51Z</time>
      </trkpt>
      <trkpt lat="43.88378" lon="6.5521">
        <ele>1123.743</ele>
        <time>2018-06-23T14:48:56Z</time>
      </trkpt>
      <trkpt lat="43.88378" lon="6.55218">
        <ele>1123.964</ele>
        <time>2018-06-23T14:49:00Z</time>
      </trkpt>
      <trkpt lat="43.88377" lon="6.55225">
        <ele>1123.21</ele>
        <time>2018-06-23T14:49:04Z</time>
      </trkpt>
      <trkpt lat="43.88377" lon="6.55232">
        <ele>1122.808</ele>
        <time>2018-06-23T14:49:08Z</time>
      </trkpt>
      <trkpt lat="43.88377" lon="6.55239">
        <ele>1123.056</ele>
        <time>2018-06-23T14:49:12Z</time>
      </trkpt>
      <trkpt lat="43.88377" lon="6.55245">
        <ele>1123.19</ele>
        <time>2018-06-23T14:49:16Z</time>
      </trkpt>
      <trkpt lat="43.88375" lon="6.55253">
        <ele>1123.654</ele>
        <time>2018-06-23T14:49:20Z</time>
      </trkpt>
      <trkpt lat="43.88374" lon="6.55259">
        <ele>1123.572</ele>
        <time>2018-06-23T14:49:23Z</time>
      </trkpt>
      <trkpt lat="43.88374" lon="6.55266">
        <ele>1122.652</ele>
        <time>2018-06-23T14:49:29Z</time>
      </trkpt>
      <trkpt lat="43.88374" lon="6.55274">
        <ele>1122.181</ele>
        <time>2018-06-23T14:49:33Z</time>
      </trkpt>
      <trkpt lat="43.88372" lon="6.55281">
        <ele>1121.47</ele>
        <time>2018-06-23T14:49:37Z</time>
      </trkpt>
      <trkpt lat="43.88372" lon="6.55287">
        <ele>1120.616</ele>
        <time>2018-06-23T14:49:41Z</time>
      </trkpt>
      <trkpt lat="43.88372" lon="6.55294">
        <ele>1119.371</ele>
        <time>2018-06-23T14:49:46Z</time>
      </trkpt>
      <trkpt lat="43.88373" lon="6.553">
        <ele>1117.741</ele>
        <time>2018-06-23T14:49:50Z</time>
      </trkpt>
      <trkpt lat="43.88374" lon="6.55307">
        <ele>1116.815</ele>
        <time>2018-06-23T14:49:54Z</time>
      </trkpt>
      <trkpt lat="43.88375" lon="6.55313">
        <ele>1116.208</ele>
        <time>2018-06-23T14:49:58Z</time>
      </trkpt>
      <trkpt lat="43.88375" lon="6.55321">
        <ele>1115.159</ele>
        <time>2018-06-23T14:50:03Z</time>
      </trkpt>
      <trkpt lat="43.88376" lon="6.55328">
        <ele>1114.893</ele>
        <time>2018-06-23T14:50:08Z</time>
      </trkpt>
      <trkpt lat="43.88376" lon="6.55334">
        <ele>1115.457</ele>
        <time>2018-06-23T14:50:12Z</time>
      </trkpt>
      <trkpt lat="43.88377" lon="6.55341">
        <ele>1116.235</ele>
        <time>2018-06-23T14:50:17Z</time>
      </trkpt>
      <trkpt lat="43.88377" lon="6.55348">
        <ele>1117.135</ele>
        <time>2018-06-23T14:50:22Z</time>
      </trkpt>
      <trkpt lat="43.88377" lon="6.55354">
        <ele>1117.674</ele>
        <time>2018-06-23T14:50:26Z</time>
      </trkpt>
      <trkpt lat="43.88379" lon="6.55361">
        <ele>1117.923</ele>
        <time>2018-06-23T14:50:31Z</time>
      </trkpt>
      <trkpt lat="43.88381" lon="6.55367">
        <ele>1118.139</ele>
        <time>2018-06-23T14:50:35Z</time>
      </trkpt>
      <trkpt lat="43.88383" lon="6.55374">
        <ele>1117.858</ele>
        <time>2018-06-23T14:50:39Z</time>
      </trkpt>
      <trkpt lat="43.88385" lon="6.55381">
        <ele>1118.052</ele>
        <time>2018-06-23T14:50:44Z</time>
      </trkpt>
      <trkpt lat="43.88386" lon="6.55388">
        <ele>1118.917</ele>
        <time>2018-06-23T14:50:48Z</time>
      </trkpt>
      <trkpt lat="43.88387" lon="6.55396">
        <ele>1119.108</ele>
        <time>2018-06-23T14:50:52Z</time>
      </trkpt>
      <trkpt lat="43.88388" lon="6.55402">
        <ele>1118.817</ele>
        <time>2018-06-23T14:50:56Z</time>
      </trkpt>
      <trkpt lat="43.88389" lon="6.55408">
        <ele>1119.021</ele>
        <time>2018-06-23T14:51:00Z</time>
      </trkpt>
      <trkpt lat="43.88391" lon="6.55415">
        <ele>1119.545</ele>
        <time>2018-06-23T14:51:05Z</time>
      </trkpt>
      <trkpt lat="43.88392" lon="6.55422">
        <ele>1119.843</ele>
        <time>2018-06-23T14:51:09Z</time>
      </trkpt>
      <trkpt lat="43.88391" lon="6.5543">
        <ele>1120.453</ele>
        <time>2018-06-23T14:51:13Z</time>
      </trkpt>
      <trkpt lat="43.8839" lon="6.55437">
        <ele>1120.472</ele>
        <time>2018-06-23T14:51:17Z</time>
      </trkpt>
      <trkpt lat="43.88388" lon="6.55443">
        <ele>1120.471</ele>
        <time>2018-06-23T14:51:21Z</time>
      </trkpt>
      <trkpt lat="43.88384" lon="6.55448">
        <ele>1119.277</ele>
        <time>2018-06-23T14:51:26Z</time>
      </trkpt>
      <trkpt lat="43.8838" lon="6.55452">
        <ele>1118.565</ele>
        <time>2018-06-23T14:51:30Z</time>
      </trkpt>
      <trkpt lat="43.88375" lon="6.55455">
        <ele>1118.168</ele>
        <time>2018-06-23T14:51:33Z</time>
      </trkpt>
      <trkpt lat="43.88371" lon="6.55457">
        <ele>1117.814</ele>
        <time>2018-06-23T14:51:36Z</time>
      </trkpt>
      <trkpt lat="43.88367" lon="6.55458">
        <ele>1117.208</ele>
        <time>2018-06-23T14:51:39Z</time>
      </trkpt>
      <trkpt lat="43.88361" lon="6.5546">
        <ele>1117.348</ele>
        <time>2018-06-23T14:51:43Z</time>
      </trkpt>
      <trkpt lat="43.88356" lon="6.55462">
        <ele>1117.362</ele>
        <time>2018-06-23T14:51:47Z</time>
      </trkpt>
      <trkpt lat="43.88351" lon="6.55464">
        <ele>1118.136</ele>
        <time>2018-06-23T14:51:50Z</time>
      </trkpt>
      <trkpt lat="43.88347" lon="6.55466">
        <ele>1118.614</ele>
        <time>2018-06-23T14:51:53Z</time>
      </trkpt>
      <trkpt lat="43.88342" lon="6.55469">
        <ele>1118.944</ele>
        <time>2018-06-23T14:51:57Z</time>
      </trkpt>
      <trkpt lat="43.88338" lon="6.55472">
        <ele>1118.793</ele>
        <time>2018-06-23T14:52:01Z</time>
      </trkpt>
      <trkpt lat="43.88333" lon="6.55476">
        <ele>1118.242</ele>
        <time>2018-06-23T14:52:05Z</time>
      </trkpt>
      <trkpt lat="43.88329" lon="6.5548">
        <ele>1118.368</ele>
        <time>2018-06-23T14:52:09Z</time>
      </trkpt>
      <trkpt lat="43.88325" lon="6.55484">
        <ele>1117.985</ele>
        <time>2018-06-23T14:52:14Z</time>
      </trkpt>
      <trkpt lat="43.88322" lon="6.5549">
        <ele>1117.789</ele>
        <time>2018-06-23T14:52:18Z</time>
      </trkpt>
      <trkpt lat="43.8832" lon="6.55496">
        <ele>1117.617</ele>
        <time>2018-06-23T14:52:22Z</time>
      </trkpt>
      <trkpt lat="43.88317" lon="6.55503">
        <ele>1117.508</ele>
        <time>2018-06-23T14:52:26Z</time>
      </trkpt>
      <trkpt lat="43.88315" lon="6.55511">
        <ele>1116.74</ele>
        <time>2018-06-23T14:52:30Z</time>
      </trkpt>
      <trkpt lat="43.88314" lon="6.55518">
        <ele>1116.674</ele>
        <time>2018-06-23T14:52:34Z</time>
      </trkpt>
      <trkpt lat="43.88312" lon="6.55525">
        <ele>1116.158</ele>
        <time>2018-06-23T14:52:38Z</time>
      </trkpt>
      <trkpt lat="43.88311" lon="6.55531">
        <ele>1115.896</ele>
        <time>2018-06-23T14:52:41Z</time>
      </trkpt>
      <trkpt lat="43.8831" lon="6.55538">
        <ele>1114.826</ele>
        <time>2018-06-23T14:52:45Z</time>
      </trkpt>
      <trkpt lat="43.8831" lon="6.55545">
        <ele>1115.055</ele>
        <time>2018-06-23T14:52:49Z</time>
      </trkpt>
      <trkpt lat="43.8831" lon="6.55553">
        <ele>1115.164</ele>
        <time>2018-06-23T14:52:53Z</time>
      </trkpt>
      <trkpt lat="43.88309" lon="6.5556">
        <ele>1115.23</ele>
        <time>2018-06-23T14:52:57Z</time>
      </trkpt>
      <trkpt lat="43.88309" lon="6.55567">
        <ele>1114.862</ele>
        <time>2018-06-23T14:53:01Z</time>
      </trkpt>
      <trkpt lat="43.88309" lon="6.55574">
        <ele>1114.283</ele>
        <time>2018-06-23T14:53:05Z</time>
      </trkpt>
      <trkpt lat="43.88309" lon="6.55581">
        <ele>1113.811</ele>
        <time>2018-06-23T14:53:10Z</time>
      </trkpt>
      <trkpt lat="43.88306" lon="6.55587">
        <ele>1112.808</ele>
        <time>2018-06-23T14:53:16Z</time>
      </trkpt>
      <trkpt lat="43.88301" lon="6.55591">
        <ele>1112.268</ele>
        <time>2018-06-23T14:53:20Z</time>
      </trkpt>
      <trkpt lat="43.88297" lon="6.55594">
        <ele>1111.452</ele>
        <time>2018-06-23T14:53:23Z</time>
      </trkpt>
      <trkpt lat="43.88291" lon="6.55596">
        <ele>1110.126</ele>
        <time>2018-06-23T14:53:27Z</time>
      </trkpt>
      <trkpt lat="43.88287" lon="6.55598">
        <ele>1110.114</ele>
        <time>2018-06-23T14:53:30Z</time>
      </trkpt>
      <trkpt lat="43.88282" lon="6.55602">
        <ele>1110.194</ele>
        <time>2018-06-23T14:53:34Z</time>
      </trkpt>
      <trkpt lat="43.88278" lon="6.55606">
        <ele>1110.913</ele>
        <time>2018-06-23T14:53:37Z</time>
      </trkpt>
      <trkpt lat="43.88274" lon="6.55611">
        <ele>1111.052</ele>
        <time>2018-06-23T14:53:41Z</time>
      </trkpt>
      <trkpt lat="43.88272" lon="6.55618">
        <ele>1110.328</ele>
        <time>2018-06-23T14:53:45Z</time>
      </trkpt>
      <trkpt lat="43.8827" lon="6.55625">
        <ele>1110.312</ele>
        <time>2018-06-23T14:53:49Z</time>
      </trkpt>
      <trkpt lat="43.88266" lon="6.5563">
        <ele>1110.732</ele>
        <time>2018-06-23T14:53:53Z</time>
      </trkpt>
      <trkpt lat="43.88263" lon="6.55635">
        <ele>1110.105</ele>
        <time>2018-06-23T14:53:57Z</time>
      </trkpt>
      <trkpt lat="43.88262" lon="6.55641">
        <ele>1109.808</ele>
        <time>2018-06-23T14:54:01Z</time>
      </trkpt>
      <trkpt lat="43.88261" lon="6.55647">
        <ele>1109.683</ele>
        <time>2018-06-23T14:54:06Z</time>
      </trkpt>
      <trkpt lat="43.88257" lon="6.55652">
        <ele>1109.927</ele>
        <time>2018-06-23T14:54:10Z</time>
      </trkpt>
      <trkpt lat="43.88253" lon="6.55655">
        <ele>1109.711</ele>
        <time>2018-06-23T14:54:14Z</time>
      </trkpt>
      <trkpt lat="43.88247" lon="6.55658">
        <ele>1110.039</ele>
        <time>2018-06-23T14:54:18Z</time>
      </trkpt>
      <trkpt lat="43.88244" lon="6.55663">
        <ele>1109.889</ele>
        <time>2018-06-23T14:54:23Z</time>
      </trkpt>
      <trkpt lat="43.8824" lon="6.55668">
        <ele>1109.738</ele>
        <time>2018-06-23T14:54:27Z</time>
      </trkpt>
      <trkpt lat="43.88236" lon="6.55671">
        <ele>1109.237</ele>
        <time>2018-06-23T14:54:32Z</time>
      </trkpt>
      <trkpt lat="43.88231" lon="6.55673">
        <ele>1109.383</ele>
        <time>2018-06-23T14:54:36Z</time>
      </trkpt>
      <trkpt lat="43.88226" lon="6.55675">
        <ele>1109.893</ele>
        <time>2018-06-23T14:54:40Z</time>
      </trkpt>
      <trkpt lat="43.88222" lon="6.55678">
        <ele>1109.365</ele>
        <time>2018-06-23T14:54:44Z</time>
      </trkpt>
      <trkpt lat="43.88217" lon="6.5568">
        <ele>1109.421</ele>
        <time>2018-06-23T14:54:49Z</time>
      </trkpt>
      <trkpt lat="43.88212" lon="6.55684">
        <ele>1109.108</ele>
        <time>2018-06-23T14:54:53Z</time>
      </trkpt>
      <trkpt lat="43.88207" lon="6.55684">
        <ele>1109.751</ele>
        <time>2018-06-23T14:54:57Z</time>
      </trkpt>
      <trkpt lat="43.88203" lon="6.55681">
        <ele>1111.375</ele>
        <time>2018-06-23T14:55:00Z</time>
      </trkpt>
      <trkpt lat="43.88199" lon="6.55675">
        <ele>1112.249</ele>
        <time>2018-06-23T14:55:03Z</time>
      </trkpt>
      <trkpt lat="43.88197" lon="6.55668">
        <ele>1114.017</ele>
        <time>2018-06-23T14:55:06Z</time>
      </trkpt>
      <trkpt lat="43.88195" lon="6.55661">
        <ele>1115.547</ele>
        <time>2018-06-23T14:55:09Z</time>
      </trkpt>
      <trkpt lat="43.88194" lon="6.55654">
        <ele>1118.066</ele>
        <time>2018-06-23T14:55:12Z</time>
      </trkpt>
      <trkpt lat="43.88194" lon="6.55646">
        <ele>1119.565</ele>
        <time>2018-06-23T14:55:15Z</time>
      </trkpt>
      <trkpt lat="43.88192" lon="6.55639">
        <ele>1120.011</ele>
        <time>2018-06-23T14:55:19Z</time>
      </trkpt>
      <trkpt lat="43.88191" lon="6.55632">
        <ele>1119.986</ele>
        <time>2018-06-23T14:55:25Z</time>
      </trkpt>
      <trkpt lat="43.88189" lon="6.55626">
        <ele>1117.86</ele>
        <time>2018-06-23T14:55:29Z</time>
      </trkpt>
      <trkpt lat="43.88187" lon="6.55619">
        <ele>1116.226</ele>
        <time>2018-06-23T14:55:35Z</time>
      </trkpt>
      <trkpt lat="43.88187" lon="6.55612">
        <ele>1115.208</ele>
        <time>2018-06-23T14:55:40Z</time>
      </trkpt>
      <trkpt lat="43.88184" lon="6.55606">
        <ele>1115.08</ele>
        <time>2018-06-23T14:55:44Z</time>
      </trkpt>
      <trkpt lat="43.88182" lon="6.55599">
        <ele>1114.574</ele>
        <time>2018-06-23T14:56:32Z</time>
      </trkpt>
      <trkpt lat="43.8818" lon="6.55592">
        <ele>1114.658</ele>
        <time>2018-06-23T14:56:35Z</time>
      </trkpt>
      <trkpt lat="43.88179" lon="6.55584">
        <ele>1115.586</ele>
        <time>2018-06-23T14:56:38Z</time>
      </trkpt>
      <trkpt lat="43.88179" lon="6.55578">
        <ele>1116.496</ele>
        <time>2018-06-23T14:56:41Z</time>
      </trkpt>
      <trkpt lat="43.88178" lon="6.55571">
        <ele>1116.555</ele>
        <time>2018-06-23T14:56:45Z</time>
      </trkpt>
      <trkpt lat="43.88176" lon="6.55564">
        <ele>1116.224</ele>
        <time>2018-06-23T14:56:50Z</time>
      </trkpt>
      <trkpt lat="43.88174" lon="6.55558">
        <ele>1116.06</ele>
        <time>2018-06-23T14:56:54Z</time>
      </trkpt>
      <trkpt lat="43.88172" lon="6.5555">
        <ele>1117.144</ele>
        <time>2018-06-23T14:56:58Z</time>
      </trkpt>
      <trkpt lat="43.8817" lon="6.55544">
        <ele>1117.005</ele>
        <time>2018-06-23T14:57:25Z</time>
      </trkpt>
      <trkpt lat="43.88168" lon="6.55538">
        <ele>1116.915</ele>
        <time>2018-06-23T14:57:30Z</time>
      </trkpt>
      <trkpt lat="43.88165" lon="6.55533">
        <ele>1116.408</ele>
        <time>2018-06-23T14:57:33Z</time>
      </trkpt>
      <trkpt lat="43.88161" lon="6.55527">
        <ele>1114.986</ele>
        <time>2018-06-23T14:57:37Z</time>
      </trkpt>
      <trkpt lat="43.88159" lon="6.55521">
        <ele>1112.81</ele>
        <time>2018-06-23T14:57:41Z</time>
      </trkpt>
      <trkpt lat="43.88155" lon="6.55514">
        <ele>1112.044</ele>
        <time>2018-06-23T14:57:45Z</time>
      </trkpt>
      <trkpt lat="43.88152" lon="6.5551">
        <ele>1111.982</ele>
        <time>2018-06-23T14:57:48Z</time>
      </trkpt>
      <trkpt lat="43.88148" lon="6.55506">
        <ele>1112.292</ele>
        <time>2018-06-23T14:57:51Z</time>
      </trkpt>
      <trkpt lat="43.88144" lon="6.55502">
        <ele>1112.871</ele>
        <time>2018-06-23T14:57:54Z</time>
      </trkpt>
      <trkpt lat="43.88139" lon="6.555">
        <ele>1112.85</ele>
        <time>2018-06-23T14:57:58Z</time>
      </trkpt>
      <trkpt lat="43.88133" lon="6.55499">
        <ele>1111.626</ele>
        <time>2018-06-23T14:58:03Z</time>
      </trkpt>
      <trkpt lat="43.88129" lon="6.55499">
        <ele>1111.714</ele>
        <time>2018-06-23T14:58:07Z</time>
      </trkpt>
      <trkpt lat="43.88123" lon="6.55499">
        <ele>1112.954</ele>
        <time>2018-06-23T14:58:12Z</time>
      </trkpt>
      <trkpt lat="43.88118" lon="6.555">
        <ele>1114.409</ele>
        <time>2018-06-23T14:58:15Z</time>
      </trkpt>
      <trkpt lat="43.88113" lon="6.55501">
        <ele>1115.708</ele>
        <time>2018-06-23T14:58:19Z</time>
      </trkpt>
      <trkpt lat="43.88108" lon="6.55503">
        <ele>1116.523</ele>
        <time>2018-06-23T14:58:23Z</time>
      </trkpt>
      <trkpt lat="43.88103" lon="6.55506">
        <ele>1117.867</ele>
        <time>2018-06-23T14:58:27Z</time>
      </trkpt>
      <trkpt lat="43.88098" lon="6.55507">
        <ele>1118.691</ele>
        <time>2018-06-23T14:58:30Z</time>
      </trkpt>
      <trkpt lat="43.88093" lon="6.55508">
        <ele>1119.119</ele>
        <time>2018-06-23T14:58:33Z</time>
      </trkpt>
      <trkpt lat="43.88088" lon="6.5551">
        <ele>1119.469</ele>
        <time>2018-06-23T14:58:37Z</time>
      </trkpt>
      <trkpt lat="43.88083" lon="6.55513">
        <ele>1120.068</ele>
        <time>2018-06-23T14:58:41Z</time>
      </trkpt>
      <trkpt lat="43.88079" lon="6.55515">
        <ele>1120.327</ele>
        <time>2018-06-23T14:58:44Z</time>
      </trkpt>
      <trkpt lat="43.88074" lon="6.55517">
        <ele>1120.563</ele>
        <time>2018-06-23T14:58:47Z</time>
      </trkpt>
      <trkpt lat="43.88069" lon="6.55519">
        <ele>1121.024</ele>
        <time>2018-06-23T14:58:51Z</time>
      </trkpt>
      <trkpt lat="43.88064" lon="6.55522">
        <ele>1122.504</ele>
        <time>2018-06-23T14:58:55Z</time>
      </trkpt>
      <trkpt lat="43.88059" lon="6.55526">
        <ele>1123.414</ele>
        <time>2018-06-23T14:58:59Z</time>
      </trkpt>
      <trkpt lat="43.88055" lon="6.55529">
        <ele>1123.908</ele>
        <time>2018-06-23T14:59:02Z</time>
      </trkpt>
      <trkpt lat="43.8805" lon="6.55532">
        <ele>1123.844</ele>
        <time>2018-06-23T14:59:06Z</time>
      </trkpt>
      <trkpt lat="43.88046" lon="6.55536">
        <ele>1124.248</ele>
        <time>2018-06-23T14:59:10Z</time>
      </trkpt>
      <trkpt lat="43.88042" lon="6.5554">
        <ele>1124.422</ele>
        <time>2018-06-23T14:59:14Z</time>
      </trkpt>
      <trkpt lat="43.88038" lon="6.55545">
        <ele>1124.15</ele>
        <time>2018-06-23T14:59:18Z</time>
      </trkpt>
      <trkpt lat="43.88033" lon="6.55548">
        <ele>1123.53</ele>
        <time>2018-06-23T14:59:22Z</time>
      </trkpt>
      <trkpt lat="43.8803" lon="6.55552">
        <ele>1123.699</ele>
        <time>2018-06-23T14:59:26Z</time>
      </trkpt>
      <trkpt lat="43.88026" lon="6.55558">
        <ele>1123.628</ele>
        <time>2018-06-23T14:59:30Z</time>
      </trkpt>
      <trkpt lat="43.88022" lon="6.55563">
        <ele>1124.034</ele>
        <time>2018-06-23T14:59:35Z</time>
      </trkpt>
      <trkpt lat="43.88017" lon="6.55568">
        <ele>1123.998</ele>
        <time>2018-06-23T14:59:39Z</time>
      </trkpt>
      <trkpt lat="43.88014" lon="6.55572">
        <ele>1124.615</ele>
        <time>2018-06-23T14:59:43Z</time>
      </trkpt>
      <trkpt lat="43.8801" lon="6.55576">
        <ele>1125.826</ele>
        <time>2018-06-23T14:59:47Z</time>
      </trkpt>
      <trkpt lat="43.88006" lon="6.55579">
        <ele>1126.108</ele>
        <time>2018-06-23T14:59:51Z</time>
      </trkpt>
      <trkpt lat="43.88003" lon="6.55584">
        <ele>1126.731</ele>
        <time>2018-06-23T14:59:56Z</time>
      </trkpt>
    </trkseg>
  </trk>
</gpx>